<?xml version="1.0" encoding="UTF-8" standalone="no" ?>
<gpx xmlns="http://www.topografix.com/GPX/1/1" xmlns:xsi="http://www.w3.org/2001/XMLSchema-instance" xsi:schemaLocation="http://www.topografix.com/GPX/1/1 http://www.topografix.com/GPX/1/1/gpx.xsd" version="1.1" creator="VisuGPX - https://www.visugpx.com">
  <metadata>
    <name>Les méandres de queuille</name>
  </metadata>
  <trk>
    <name><![CDATA[Les méandres de queuille_1]]></name>
    <extensions>
      <line xmlns="http://www.topografix.com/GPX/gpx_style/0/2">
        <color>0000FF</color>
        <width>4</width>
      </line>
    </extensions>
    <trkseg>
      <trkpt lat="45.97305" lon="2.84233">
        <ele>610.1</ele>
        <time>2021-07-11T07:03:13Z</time>
      </trkpt>
      <trkpt lat="45.97305" lon="2.84233">
        <ele>610.1</ele>
        <time>2021-07-11T07:03:14Z</time>
      </trkpt>
      <trkpt lat="45.97305" lon="2.84232">
        <ele>610.3</ele>
        <time>2021-07-11T07:03:15Z</time>
      </trkpt>
      <trkpt lat="45.97306" lon="2.84231">
        <ele>610</ele>
        <time>2021-07-11T07:03:16Z</time>
      </trkpt>
      <trkpt lat="45.97306" lon="2.84231">
        <ele>610</ele>
        <time>2021-07-11T07:03:17Z</time>
      </trkpt>
      <trkpt lat="45.97307" lon="2.8423">
        <ele>609.9</ele>
        <time>2021-07-11T07:03:18Z</time>
      </trkpt>
      <trkpt lat="45.97308" lon="2.84229">
        <ele>609.8</ele>
        <time>2021-07-11T07:03:19Z</time>
      </trkpt>
      <trkpt lat="45.97309" lon="2.84228">
        <ele>609.8</ele>
        <time>2021-07-11T07:03:20Z</time>
      </trkpt>
      <trkpt lat="45.9731" lon="2.84227">
        <ele>609.8</ele>
        <time>2021-07-11T07:03:21Z</time>
      </trkpt>
      <trkpt lat="45.97311" lon="2.84226">
        <ele>609.8</ele>
        <time>2021-07-11T07:03:22Z</time>
      </trkpt>
      <trkpt lat="45.97311" lon="2.84226">
        <ele>609.8</ele>
        <time>2021-07-11T07:03:23Z</time>
      </trkpt>
      <trkpt lat="45.97312" lon="2.84225">
        <ele>609.8</ele>
        <time>2021-07-11T07:03:24Z</time>
      </trkpt>
      <trkpt lat="45.97313" lon="2.84224">
        <ele>609.9</ele>
        <time>2021-07-11T07:03:25Z</time>
      </trkpt>
      <trkpt lat="45.97314" lon="2.84223">
        <ele>609.9</ele>
        <time>2021-07-11T07:03:26Z</time>
      </trkpt>
      <trkpt lat="45.97315" lon="2.84222">
        <ele>610.1</ele>
        <time>2021-07-11T07:03:27Z</time>
      </trkpt>
      <trkpt lat="45.97316" lon="2.84221">
        <ele>610.3</ele>
        <time>2021-07-11T07:03:28Z</time>
      </trkpt>
      <trkpt lat="45.97316" lon="2.8422">
        <ele>610.6</ele>
        <time>2021-07-11T07:03:29Z</time>
      </trkpt>
      <trkpt lat="45.97317" lon="2.84219">
        <ele>610.8</ele>
        <time>2021-07-11T07:03:30Z</time>
      </trkpt>
      <trkpt lat="45.97318" lon="2.84219">
        <ele>610.7</ele>
        <time>2021-07-11T07:03:31Z</time>
      </trkpt>
      <trkpt lat="45.97319" lon="2.84218">
        <ele>611</ele>
        <time>2021-07-11T07:03:32Z</time>
      </trkpt>
      <trkpt lat="45.9732" lon="2.84217">
        <ele>611.2</ele>
        <time>2021-07-11T07:03:33Z</time>
      </trkpt>
      <trkpt lat="45.97321" lon="2.84216">
        <ele>611.5</ele>
        <time>2021-07-11T07:03:34Z</time>
      </trkpt>
      <trkpt lat="45.97322" lon="2.84216">
        <ele>611.4</ele>
        <time>2021-07-11T07:03:35Z</time>
      </trkpt>
      <trkpt lat="45.97323" lon="2.84215">
        <ele>611.7</ele>
        <time>2021-07-11T07:03:36Z</time>
      </trkpt>
      <trkpt lat="45.97324" lon="2.84214">
        <ele>612</ele>
        <time>2021-07-11T07:03:37Z</time>
      </trkpt>
      <trkpt lat="45.97324" lon="2.84214">
        <ele>612</ele>
        <time>2021-07-11T07:03:38Z</time>
      </trkpt>
      <trkpt lat="45.97325" lon="2.84213">
        <ele>612.3</ele>
        <time>2021-07-11T07:03:39Z</time>
      </trkpt>
      <trkpt lat="45.97326" lon="2.84212">
        <ele>612.5</ele>
        <time>2021-07-11T07:03:40Z</time>
      </trkpt>
      <trkpt lat="45.97327" lon="2.84211">
        <ele>612.9</ele>
        <time>2021-07-11T07:03:41Z</time>
      </trkpt>
      <trkpt lat="45.97329" lon="2.8421">
        <ele>613.1</ele>
        <time>2021-07-11T07:03:42Z</time>
      </trkpt>
      <trkpt lat="45.9733" lon="2.84209">
        <ele>613.4</ele>
        <time>2021-07-11T07:03:43Z</time>
      </trkpt>
      <trkpt lat="45.97332" lon="2.84209">
        <ele>613.3</ele>
        <time>2021-07-11T07:03:44Z</time>
      </trkpt>
      <trkpt lat="45.97332" lon="2.84208">
        <ele>613.7</ele>
        <time>2021-07-11T07:03:45Z</time>
      </trkpt>
      <trkpt lat="45.97334" lon="2.84207">
        <ele>614.1</ele>
        <time>2021-07-11T07:03:46Z</time>
      </trkpt>
      <trkpt lat="45.97335" lon="2.84207">
        <ele>614.1</ele>
        <time>2021-07-11T07:03:47Z</time>
      </trkpt>
      <trkpt lat="45.97337" lon="2.84206">
        <ele>614.6</ele>
        <time>2021-07-11T07:03:48Z</time>
      </trkpt>
      <trkpt lat="45.97338" lon="2.84206">
        <ele>614.7</ele>
        <time>2021-07-11T07:03:49Z</time>
      </trkpt>
      <trkpt lat="45.97339" lon="2.84206">
        <ele>614.7</ele>
        <time>2021-07-11T07:03:50Z</time>
      </trkpt>
      <trkpt lat="45.9734" lon="2.84205">
        <ele>615.2</ele>
        <time>2021-07-11T07:03:51Z</time>
      </trkpt>
      <trkpt lat="45.97342" lon="2.84205">
        <ele>615.3</ele>
        <time>2021-07-11T07:03:52Z</time>
      </trkpt>
      <trkpt lat="45.97343" lon="2.84204">
        <ele>615.7</ele>
        <time>2021-07-11T07:03:53Z</time>
      </trkpt>
      <trkpt lat="45.97344" lon="2.84204">
        <ele>615.7</ele>
        <time>2021-07-11T07:03:54Z</time>
      </trkpt>
      <trkpt lat="45.97346" lon="2.84204">
        <ele>615.8</ele>
        <time>2021-07-11T07:03:55Z</time>
      </trkpt>
      <trkpt lat="45.97347" lon="2.84204">
        <ele>615.9</ele>
        <time>2021-07-11T07:03:56Z</time>
      </trkpt>
      <trkpt lat="45.97348" lon="2.84204">
        <ele>615.9</ele>
        <time>2021-07-11T07:03:57Z</time>
      </trkpt>
      <trkpt lat="45.9735" lon="2.84203">
        <ele>616.4</ele>
        <time>2021-07-11T07:03:58Z</time>
      </trkpt>
      <trkpt lat="45.97352" lon="2.84203">
        <ele>616.5</ele>
        <time>2021-07-11T07:03:59Z</time>
      </trkpt>
      <trkpt lat="45.97353" lon="2.84203">
        <ele>616.5</ele>
        <time>2021-07-11T07:04:00Z</time>
      </trkpt>
      <trkpt lat="45.97354" lon="2.84203">
        <ele>616.6</ele>
        <time>2021-07-11T07:04:01Z</time>
      </trkpt>
      <trkpt lat="45.97355" lon="2.84203">
        <ele>616.6</ele>
        <time>2021-07-11T07:04:02Z</time>
      </trkpt>
      <trkpt lat="45.97356" lon="2.84202">
        <ele>617</ele>
        <time>2021-07-11T07:04:03Z</time>
      </trkpt>
      <trkpt lat="45.97358" lon="2.84202">
        <ele>617.1</ele>
        <time>2021-07-11T07:04:04Z</time>
      </trkpt>
      <trkpt lat="45.9736" lon="2.84202">
        <ele>617.2</ele>
        <time>2021-07-11T07:04:05Z</time>
      </trkpt>
      <trkpt lat="45.97361" lon="2.84201">
        <ele>617.6</ele>
        <time>2021-07-11T07:04:06Z</time>
      </trkpt>
      <trkpt lat="45.97362" lon="2.842">
        <ele>618</ele>
        <time>2021-07-11T07:04:07Z</time>
      </trkpt>
      <trkpt lat="45.97364" lon="2.842">
        <ele>618</ele>
        <time>2021-07-11T07:04:08Z</time>
      </trkpt>
      <trkpt lat="45.97365" lon="2.84199">
        <ele>618.3</ele>
        <time>2021-07-11T07:04:09Z</time>
      </trkpt>
      <trkpt lat="45.97366" lon="2.84199">
        <ele>618.3</ele>
        <time>2021-07-11T07:04:10Z</time>
      </trkpt>
      <trkpt lat="45.97368" lon="2.84199">
        <ele>618.3</ele>
        <time>2021-07-11T07:04:11Z</time>
      </trkpt>
      <trkpt lat="45.97369" lon="2.84198">
        <ele>618.7</ele>
        <time>2021-07-11T07:04:12Z</time>
      </trkpt>
      <trkpt lat="45.97371" lon="2.84198">
        <ele>618.7</ele>
        <time>2021-07-11T07:04:13Z</time>
      </trkpt>
      <trkpt lat="45.97372" lon="2.84198">
        <ele>618.7</ele>
        <time>2021-07-11T07:04:14Z</time>
      </trkpt>
      <trkpt lat="45.97373" lon="2.84197">
        <ele>619</ele>
        <time>2021-07-11T07:04:15Z</time>
      </trkpt>
      <trkpt lat="45.97374" lon="2.84196">
        <ele>619.4</ele>
        <time>2021-07-11T07:04:16Z</time>
      </trkpt>
      <trkpt lat="45.97376" lon="2.84196">
        <ele>619.4</ele>
        <time>2021-07-11T07:04:17Z</time>
      </trkpt>
      <trkpt lat="45.97377" lon="2.84195">
        <ele>619.8</ele>
        <time>2021-07-11T07:04:18Z</time>
      </trkpt>
      <trkpt lat="45.97378" lon="2.84194">
        <ele>620.2</ele>
        <time>2021-07-11T07:04:19Z</time>
      </trkpt>
      <trkpt lat="45.9738" lon="2.84194">
        <ele>620.2</ele>
        <time>2021-07-11T07:04:20Z</time>
      </trkpt>
      <trkpt lat="45.97381" lon="2.84193">
        <ele>620.5</ele>
        <time>2021-07-11T07:04:21Z</time>
      </trkpt>
      <trkpt lat="45.97382" lon="2.84192">
        <ele>620.9</ele>
        <time>2021-07-11T07:04:22Z</time>
      </trkpt>
      <trkpt lat="45.97384" lon="2.84192">
        <ele>620.9</ele>
        <time>2021-07-11T07:04:23Z</time>
      </trkpt>
      <trkpt lat="45.97385" lon="2.84191">
        <ele>621.3</ele>
        <time>2021-07-11T07:04:24Z</time>
      </trkpt>
      <trkpt lat="45.97387" lon="2.84191">
        <ele>621.3</ele>
        <time>2021-07-11T07:04:25Z</time>
      </trkpt>
      <trkpt lat="45.97389" lon="2.8419">
        <ele>621.6</ele>
        <time>2021-07-11T07:04:26Z</time>
      </trkpt>
      <trkpt lat="45.9739" lon="2.8419">
        <ele>621.2</ele>
        <time>2021-07-11T07:04:27Z</time>
      </trkpt>
      <trkpt lat="45.97392" lon="2.84189">
        <ele>620.9</ele>
        <time>2021-07-11T07:04:28Z</time>
      </trkpt>
      <trkpt lat="45.97393" lon="2.84188">
        <ele>621</ele>
        <time>2021-07-11T07:04:29Z</time>
      </trkpt>
      <trkpt lat="45.97395" lon="2.84188">
        <ele>620.3</ele>
        <time>2021-07-11T07:04:30Z</time>
      </trkpt>
      <trkpt lat="45.97395" lon="2.84187">
        <ele>620.6</ele>
        <time>2021-07-11T07:04:31Z</time>
      </trkpt>
      <trkpt lat="45.97397" lon="2.84186">
        <ele>620.3</ele>
        <time>2021-07-11T07:04:32Z</time>
      </trkpt>
      <trkpt lat="45.97398" lon="2.84185">
        <ele>620.3</ele>
        <time>2021-07-11T07:04:33Z</time>
      </trkpt>
      <trkpt lat="45.97399" lon="2.84184">
        <ele>620.3</ele>
        <time>2021-07-11T07:04:34Z</time>
      </trkpt>
      <trkpt lat="45.97401" lon="2.84182">
        <ele>620.4</ele>
        <time>2021-07-11T07:04:35Z</time>
      </trkpt>
      <trkpt lat="45.97401" lon="2.84181">
        <ele>620.7</ele>
        <time>2021-07-11T07:04:36Z</time>
      </trkpt>
      <trkpt lat="45.97403" lon="2.8418">
        <ele>620.4</ele>
        <time>2021-07-11T07:04:37Z</time>
      </trkpt>
      <trkpt lat="45.97404" lon="2.84179">
        <ele>620.4</ele>
        <time>2021-07-11T07:04:38Z</time>
      </trkpt>
      <trkpt lat="45.97405" lon="2.84178">
        <ele>620.4</ele>
        <time>2021-07-11T07:04:39Z</time>
      </trkpt>
      <trkpt lat="45.97406" lon="2.84177">
        <ele>620.3</ele>
        <time>2021-07-11T07:04:40Z</time>
      </trkpt>
      <trkpt lat="45.97407" lon="2.84176">
        <ele>620.3</ele>
        <time>2021-07-11T07:04:41Z</time>
      </trkpt>
      <trkpt lat="45.97408" lon="2.84175">
        <ele>620.3</ele>
        <time>2021-07-11T07:04:42Z</time>
      </trkpt>
      <trkpt lat="45.97409" lon="2.84173">
        <ele>620.6</ele>
        <time>2021-07-11T07:04:43Z</time>
      </trkpt>
      <trkpt lat="45.9741" lon="2.84172">
        <ele>620.6</ele>
        <time>2021-07-11T07:04:44Z</time>
      </trkpt>
      <trkpt lat="45.97411" lon="2.84171">
        <ele>620.6</ele>
        <time>2021-07-11T07:04:45Z</time>
      </trkpt>
      <trkpt lat="45.97411" lon="2.8417">
        <ele>620.9</ele>
        <time>2021-07-11T07:04:46Z</time>
      </trkpt>
      <trkpt lat="45.97413" lon="2.84169">
        <ele>620.6</ele>
        <time>2021-07-11T07:04:47Z</time>
      </trkpt>
      <trkpt lat="45.97413" lon="2.84168">
        <ele>620.9</ele>
        <time>2021-07-11T07:04:48Z</time>
      </trkpt>
      <trkpt lat="45.97414" lon="2.84167">
        <ele>620.9</ele>
        <time>2021-07-11T07:04:49Z</time>
      </trkpt>
      <trkpt lat="45.97414" lon="2.84166">
        <ele>621.2</ele>
        <time>2021-07-11T07:04:50Z</time>
      </trkpt>
      <trkpt lat="45.97416" lon="2.84165">
        <ele>620.8</ele>
        <time>2021-07-11T07:04:51Z</time>
      </trkpt>
      <trkpt lat="45.97416" lon="2.84164">
        <ele>621.1</ele>
        <time>2021-07-11T07:04:52Z</time>
      </trkpt>
      <trkpt lat="45.97416" lon="2.84163">
        <ele>621.4</ele>
        <time>2021-07-11T07:04:53Z</time>
      </trkpt>
      <trkpt lat="45.97417" lon="2.84162">
        <ele>621.5</ele>
        <time>2021-07-11T07:04:54Z</time>
      </trkpt>
      <trkpt lat="45.97417" lon="2.84161">
        <ele>621.8</ele>
        <time>2021-07-11T07:04:55Z</time>
      </trkpt>
      <trkpt lat="45.97418" lon="2.8416">
        <ele>622</ele>
        <time>2021-07-11T07:04:56Z</time>
      </trkpt>
      <trkpt lat="45.97419" lon="2.84159">
        <ele>622.2</ele>
        <time>2021-07-11T07:04:57Z</time>
      </trkpt>
      <trkpt lat="45.97419" lon="2.84158">
        <ele>622.6</ele>
        <time>2021-07-11T07:04:59Z</time>
      </trkpt>
      <trkpt lat="45.97422" lon="2.84155">
        <ele>623.2</ele>
        <time>2021-07-11T07:05:00Z</time>
      </trkpt>
      <trkpt lat="45.97422" lon="2.84155">
        <ele>623.2</ele>
        <time>2021-07-11T07:05:01Z</time>
      </trkpt>
      <trkpt lat="45.97422" lon="2.84155">
        <ele>623.2</ele>
        <time>2021-07-11T07:05:02Z</time>
      </trkpt>
      <trkpt lat="45.97423" lon="2.84154">
        <ele>623.4</ele>
        <time>2021-07-11T07:05:03Z</time>
      </trkpt>
      <trkpt lat="45.97423" lon="2.84154">
        <ele>623.4</ele>
        <time>2021-07-11T07:05:04Z</time>
      </trkpt>
      <trkpt lat="45.97424" lon="2.84153">
        <ele>623.6</ele>
        <time>2021-07-11T07:05:05Z</time>
      </trkpt>
      <trkpt lat="45.97425" lon="2.84153">
        <ele>623.5</ele>
        <time>2021-07-11T07:05:06Z</time>
      </trkpt>
      <trkpt lat="45.97425" lon="2.84152">
        <ele>623.9</ele>
        <time>2021-07-11T07:05:07Z</time>
      </trkpt>
      <trkpt lat="45.97426" lon="2.84152">
        <ele>623.7</ele>
        <time>2021-07-11T07:05:08Z</time>
      </trkpt>
      <trkpt lat="45.97427" lon="2.84151">
        <ele>624</ele>
        <time>2021-07-11T07:05:09Z</time>
      </trkpt>
      <trkpt lat="45.97427" lon="2.8415">
        <ele>624.3</ele>
        <time>2021-07-11T07:05:10Z</time>
      </trkpt>
      <trkpt lat="45.97428" lon="2.84149">
        <ele>624.5</ele>
        <time>2021-07-11T07:05:11Z</time>
      </trkpt>
      <trkpt lat="45.97429" lon="2.84147">
        <ele>625</ele>
        <time>2021-07-11T07:05:12Z</time>
      </trkpt>
      <trkpt lat="45.97429" lon="2.84146">
        <ele>625.4</ele>
        <time>2021-07-11T07:05:13Z</time>
      </trkpt>
      <trkpt lat="45.9743" lon="2.84145">
        <ele>625.6</ele>
        <time>2021-07-11T07:05:14Z</time>
      </trkpt>
      <trkpt lat="45.97432" lon="2.84143">
        <ele>626</ele>
        <time>2021-07-11T07:05:15Z</time>
      </trkpt>
      <trkpt lat="45.97433" lon="2.84141">
        <ele>626.6</ele>
        <time>2021-07-11T07:05:16Z</time>
      </trkpt>
      <trkpt lat="45.97434" lon="2.8414">
        <ele>626.8</ele>
        <time>2021-07-11T07:05:17Z</time>
      </trkpt>
      <trkpt lat="45.97435" lon="2.84139">
        <ele>627</ele>
        <time>2021-07-11T07:05:18Z</time>
      </trkpt>
      <trkpt lat="45.97435" lon="2.84138">
        <ele>627.3</ele>
        <time>2021-07-11T07:05:19Z</time>
      </trkpt>
      <trkpt lat="45.97437" lon="2.84137">
        <ele>627.4</ele>
        <time>2021-07-11T07:05:20Z</time>
      </trkpt>
      <trkpt lat="45.97437" lon="2.84136">
        <ele>627.7</ele>
        <time>2021-07-11T07:05:21Z</time>
      </trkpt>
      <trkpt lat="45.97437" lon="2.84135">
        <ele>628.1</ele>
        <time>2021-07-11T07:05:22Z</time>
      </trkpt>
      <trkpt lat="45.97438" lon="2.84134">
        <ele>628.3</ele>
        <time>2021-07-11T07:05:23Z</time>
      </trkpt>
      <trkpt lat="45.97438" lon="2.84133">
        <ele>628.6</ele>
        <time>2021-07-11T07:05:24Z</time>
      </trkpt>
      <trkpt lat="45.97439" lon="2.84132">
        <ele>628.8</ele>
        <time>2021-07-11T07:05:25Z</time>
      </trkpt>
      <trkpt lat="45.9744" lon="2.84131">
        <ele>629</ele>
        <time>2021-07-11T07:05:26Z</time>
      </trkpt>
      <trkpt lat="45.9744" lon="2.84131">
        <ele>629</ele>
        <time>2021-07-11T07:05:27Z</time>
      </trkpt>
      <trkpt lat="45.97441" lon="2.8413">
        <ele>629.3</ele>
        <time>2021-07-11T07:05:28Z</time>
      </trkpt>
      <trkpt lat="45.97442" lon="2.8413">
        <ele>629.1</ele>
        <time>2021-07-11T07:05:29Z</time>
      </trkpt>
      <trkpt lat="45.97443" lon="2.84129">
        <ele>629.4</ele>
        <time>2021-07-11T07:05:30Z</time>
      </trkpt>
      <trkpt lat="45.97444" lon="2.84128">
        <ele>629.6</ele>
        <time>2021-07-11T07:05:31Z</time>
      </trkpt>
      <trkpt lat="45.97445" lon="2.84128">
        <ele>629.6</ele>
        <time>2021-07-11T07:05:32Z</time>
      </trkpt>
      <trkpt lat="45.97446" lon="2.84127">
        <ele>630.1</ele>
        <time>2021-07-11T07:05:33Z</time>
      </trkpt>
      <trkpt lat="45.97447" lon="2.84127">
        <ele>630.3</ele>
        <time>2021-07-11T07:05:34Z</time>
      </trkpt>
      <trkpt lat="45.97447" lon="2.84126">
        <ele>630.6</ele>
        <time>2021-07-11T07:05:35Z</time>
      </trkpt>
      <trkpt lat="45.97449" lon="2.84125">
        <ele>631.2</ele>
        <time>2021-07-11T07:05:36Z</time>
      </trkpt>
      <trkpt lat="45.9745" lon="2.84124">
        <ele>631.7</ele>
        <time>2021-07-11T07:05:37Z</time>
      </trkpt>
      <trkpt lat="45.97451" lon="2.84123">
        <ele>632.2</ele>
        <time>2021-07-11T07:05:38Z</time>
      </trkpt>
      <trkpt lat="45.97451" lon="2.84123">
        <ele>632.2</ele>
        <time>2021-07-11T07:05:39Z</time>
      </trkpt>
      <trkpt lat="45.97452" lon="2.84122">
        <ele>632.7</ele>
        <time>2021-07-11T07:05:40Z</time>
      </trkpt>
      <trkpt lat="45.97453" lon="2.84121">
        <ele>633.1</ele>
        <time>2021-07-11T07:05:41Z</time>
      </trkpt>
      <trkpt lat="45.97453" lon="2.8412">
        <ele>633.5</ele>
        <time>2021-07-11T07:05:42Z</time>
      </trkpt>
      <trkpt lat="45.97454" lon="2.84119">
        <ele>633.9</ele>
        <time>2021-07-11T07:05:43Z</time>
      </trkpt>
      <trkpt lat="45.97455" lon="2.84118">
        <ele>634.4</ele>
        <time>2021-07-11T07:05:44Z</time>
      </trkpt>
      <trkpt lat="45.97455" lon="2.84118">
        <ele>634.4</ele>
        <time>2021-07-11T07:05:45Z</time>
      </trkpt>
      <trkpt lat="45.97456" lon="2.84117">
        <ele>634.8</ele>
        <time>2021-07-11T07:05:46Z</time>
      </trkpt>
      <trkpt lat="45.97456" lon="2.84116">
        <ele>635.2</ele>
        <time>2021-07-11T07:05:47Z</time>
      </trkpt>
      <trkpt lat="45.97457" lon="2.84115">
        <ele>635.6</ele>
        <time>2021-07-11T07:05:48Z</time>
      </trkpt>
      <trkpt lat="45.97458" lon="2.84114">
        <ele>636.1</ele>
        <time>2021-07-11T07:05:49Z</time>
      </trkpt>
      <trkpt lat="45.97458" lon="2.84113">
        <ele>636.4</ele>
        <time>2021-07-11T07:05:50Z</time>
      </trkpt>
      <trkpt lat="45.97459" lon="2.84112">
        <ele>636.8</ele>
        <time>2021-07-11T07:05:51Z</time>
      </trkpt>
      <trkpt lat="45.9746" lon="2.84112">
        <ele>637</ele>
        <time>2021-07-11T07:05:52Z</time>
      </trkpt>
      <trkpt lat="45.97461" lon="2.84111">
        <ele>637.4</ele>
        <time>2021-07-11T07:05:53Z</time>
      </trkpt>
      <trkpt lat="45.97461" lon="2.8411">
        <ele>637.7</ele>
        <time>2021-07-11T07:05:54Z</time>
      </trkpt>
      <trkpt lat="45.97462" lon="2.84109">
        <ele>638.2</ele>
        <time>2021-07-11T07:05:55Z</time>
      </trkpt>
      <trkpt lat="45.97463" lon="2.84109">
        <ele>638.3</ele>
        <time>2021-07-11T07:05:56Z</time>
      </trkpt>
      <trkpt lat="45.97464" lon="2.84108">
        <ele>638.7</ele>
        <time>2021-07-11T07:05:57Z</time>
      </trkpt>
      <trkpt lat="45.97465" lon="2.84108">
        <ele>638.9</ele>
        <time>2021-07-11T07:05:58Z</time>
      </trkpt>
      <trkpt lat="45.97466" lon="2.84107">
        <ele>639.3</ele>
        <time>2021-07-11T07:05:59Z</time>
      </trkpt>
      <trkpt lat="45.97467" lon="2.84107">
        <ele>639.5</ele>
        <time>2021-07-11T07:06:00Z</time>
      </trkpt>
      <trkpt lat="45.97467" lon="2.84107">
        <ele>639.5</ele>
        <time>2021-07-11T07:06:01Z</time>
      </trkpt>
      <trkpt lat="45.97468" lon="2.84106">
        <ele>639.9</ele>
        <time>2021-07-11T07:06:02Z</time>
      </trkpt>
      <trkpt lat="45.97469" lon="2.84106">
        <ele>640</ele>
        <time>2021-07-11T07:06:03Z</time>
      </trkpt>
      <trkpt lat="45.9747" lon="2.84105">
        <ele>640.5</ele>
        <time>2021-07-11T07:06:04Z</time>
      </trkpt>
      <trkpt lat="45.9747" lon="2.84105">
        <ele>640.5</ele>
        <time>2021-07-11T07:06:05Z</time>
      </trkpt>
      <trkpt lat="45.97471" lon="2.84104">
        <ele>640.9</ele>
        <time>2021-07-11T07:06:06Z</time>
      </trkpt>
      <trkpt lat="45.97472" lon="2.84104">
        <ele>641</ele>
        <time>2021-07-11T07:06:07Z</time>
      </trkpt>
      <trkpt lat="45.97472" lon="2.84104">
        <ele>641</ele>
        <time>2021-07-11T07:06:08Z</time>
      </trkpt>
      <trkpt lat="45.97473" lon="2.84104">
        <ele>641.2</ele>
        <time>2021-07-11T07:06:09Z</time>
      </trkpt>
      <trkpt lat="45.97474" lon="2.84104">
        <ele>641.5</ele>
        <time>2021-07-11T07:06:10Z</time>
      </trkpt>
      <trkpt lat="45.97474" lon="2.84104">
        <ele>641.5</ele>
        <time>2021-07-11T07:06:11Z</time>
      </trkpt>
      <trkpt lat="45.97475" lon="2.84103">
        <ele>642</ele>
        <time>2021-07-11T07:06:12Z</time>
      </trkpt>
      <trkpt lat="45.97476" lon="2.84103">
        <ele>642.3</ele>
        <time>2021-07-11T07:06:13Z</time>
      </trkpt>
      <trkpt lat="45.97477" lon="2.84103">
        <ele>642.5</ele>
        <time>2021-07-11T07:06:14Z</time>
      </trkpt>
      <trkpt lat="45.97477" lon="2.84103">
        <ele>642.5</ele>
        <time>2021-07-11T07:06:15Z</time>
      </trkpt>
      <trkpt lat="45.97479" lon="2.84103">
        <ele>643</ele>
        <time>2021-07-11T07:06:16Z</time>
      </trkpt>
      <trkpt lat="45.97479" lon="2.84103">
        <ele>643</ele>
        <time>2021-07-11T07:06:17Z</time>
      </trkpt>
      <trkpt lat="45.97479" lon="2.84102">
        <ele>643.3</ele>
        <time>2021-07-11T07:06:18Z</time>
      </trkpt>
      <trkpt lat="45.9748" lon="2.84102">
        <ele>643.6</ele>
        <time>2021-07-11T07:06:19Z</time>
      </trkpt>
      <trkpt lat="45.97482" lon="2.84101">
        <ele>644.4</ele>
        <time>2021-07-11T07:06:20Z</time>
      </trkpt>
      <trkpt lat="45.97483" lon="2.84101">
        <ele>644.6</ele>
        <time>2021-07-11T07:06:21Z</time>
      </trkpt>
      <trkpt lat="45.97483" lon="2.84101">
        <ele>644.6</ele>
        <time>2021-07-11T07:06:22Z</time>
      </trkpt>
      <trkpt lat="45.97485" lon="2.841">
        <ele>645.4</ele>
        <time>2021-07-11T07:06:23Z</time>
      </trkpt>
      <trkpt lat="45.97485" lon="2.841">
        <ele>645.4</ele>
        <time>2021-07-11T07:06:24Z</time>
      </trkpt>
      <trkpt lat="45.97486" lon="2.841">
        <ele>645.7</ele>
        <time>2021-07-11T07:06:25Z</time>
      </trkpt>
      <trkpt lat="45.97487" lon="2.841">
        <ele>645.9</ele>
        <time>2021-07-11T07:06:26Z</time>
      </trkpt>
      <trkpt lat="45.97487" lon="2.841">
        <ele>645.9</ele>
        <time>2021-07-11T07:06:27Z</time>
      </trkpt>
      <trkpt lat="45.97488" lon="2.841">
        <ele>646.2</ele>
        <time>2021-07-11T07:06:28Z</time>
      </trkpt>
      <trkpt lat="45.97489" lon="2.841">
        <ele>646.4</ele>
        <time>2021-07-11T07:06:29Z</time>
      </trkpt>
      <trkpt lat="45.9749" lon="2.841">
        <ele>646.7</ele>
        <time>2021-07-11T07:06:30Z</time>
      </trkpt>
      <trkpt lat="45.97491" lon="2.841">
        <ele>646.9</ele>
        <time>2021-07-11T07:06:31Z</time>
      </trkpt>
      <trkpt lat="45.97491" lon="2.84099">
        <ele>647.2</ele>
        <time>2021-07-11T07:06:32Z</time>
      </trkpt>
      <trkpt lat="45.97492" lon="2.84099">
        <ele>647.5</ele>
        <time>2021-07-11T07:06:33Z</time>
      </trkpt>
      <trkpt lat="45.97493" lon="2.84099">
        <ele>647.7</ele>
        <time>2021-07-11T07:06:34Z</time>
      </trkpt>
      <trkpt lat="45.97493" lon="2.84099">
        <ele>647.7</ele>
        <time>2021-07-11T07:06:35Z</time>
      </trkpt>
      <trkpt lat="45.97494" lon="2.84099">
        <ele>648</ele>
        <time>2021-07-11T07:06:36Z</time>
      </trkpt>
      <trkpt lat="45.97495" lon="2.841">
        <ele>647.9</ele>
        <time>2021-07-11T07:06:37Z</time>
      </trkpt>
      <trkpt lat="45.97495" lon="2.841">
        <ele>647.9</ele>
        <time>2021-07-11T07:06:38Z</time>
      </trkpt>
      <trkpt lat="45.97496" lon="2.841">
        <ele>648.2</ele>
        <time>2021-07-11T07:06:39Z</time>
      </trkpt>
      <trkpt lat="45.97497" lon="2.841">
        <ele>648.4</ele>
        <time>2021-07-11T07:06:40Z</time>
      </trkpt>
      <trkpt lat="45.97497" lon="2.841">
        <ele>648.4</ele>
        <time>2021-07-11T07:06:41Z</time>
      </trkpt>
      <trkpt lat="45.97498" lon="2.841">
        <ele>648.7</ele>
        <time>2021-07-11T07:06:42Z</time>
      </trkpt>
      <trkpt lat="45.97498" lon="2.84101">
        <ele>648.4</ele>
        <time>2021-07-11T07:06:43Z</time>
      </trkpt>
      <trkpt lat="45.97499" lon="2.84101">
        <ele>648.7</ele>
        <time>2021-07-11T07:06:44Z</time>
      </trkpt>
      <trkpt lat="45.975" lon="2.84101">
        <ele>648.9</ele>
        <time>2021-07-11T07:06:45Z</time>
      </trkpt>
      <trkpt lat="45.975" lon="2.841">
        <ele>649.2</ele>
        <time>2021-07-11T07:06:46Z</time>
      </trkpt>
      <trkpt lat="45.97501" lon="2.841">
        <ele>649.3</ele>
        <time>2021-07-11T07:06:47Z</time>
      </trkpt>
      <trkpt lat="45.97501" lon="2.84101">
        <ele>649</ele>
        <time>2021-07-11T07:06:48Z</time>
      </trkpt>
      <trkpt lat="45.97503" lon="2.841">
        <ele>649.6</ele>
        <time>2021-07-11T07:06:49Z</time>
      </trkpt>
      <trkpt lat="45.97504" lon="2.841">
        <ele>649.7</ele>
        <time>2021-07-11T07:06:50Z</time>
      </trkpt>
      <trkpt lat="45.97504" lon="2.841">
        <ele>649.7</ele>
        <time>2021-07-11T07:06:51Z</time>
      </trkpt>
      <trkpt lat="45.97506" lon="2.841">
        <ele>650</ele>
        <time>2021-07-11T07:06:52Z</time>
      </trkpt>
      <trkpt lat="45.97507" lon="2.841">
        <ele>650.1</ele>
        <time>2021-07-11T07:06:53Z</time>
      </trkpt>
      <trkpt lat="45.97508" lon="2.841">
        <ele>650.2</ele>
        <time>2021-07-11T07:06:54Z</time>
      </trkpt>
      <trkpt lat="45.97508" lon="2.841">
        <ele>650.2</ele>
        <time>2021-07-11T07:06:55Z</time>
      </trkpt>
      <trkpt lat="45.97509" lon="2.841">
        <ele>650.4</ele>
        <time>2021-07-11T07:06:56Z</time>
      </trkpt>
      <trkpt lat="45.9751" lon="2.841">
        <ele>650.5</ele>
        <time>2021-07-11T07:06:57Z</time>
      </trkpt>
      <trkpt lat="45.97511" lon="2.841">
        <ele>650.6</ele>
        <time>2021-07-11T07:06:58Z</time>
      </trkpt>
      <trkpt lat="45.97512" lon="2.841">
        <ele>650.8</ele>
        <time>2021-07-11T07:06:59Z</time>
      </trkpt>
      <trkpt lat="45.97513" lon="2.841">
        <ele>650.9</ele>
        <time>2021-07-11T07:07:00Z</time>
      </trkpt>
      <trkpt lat="45.97513" lon="2.841">
        <ele>650.9</ele>
        <time>2021-07-11T07:07:01Z</time>
      </trkpt>
      <trkpt lat="45.97514" lon="2.841">
        <ele>651</ele>
        <time>2021-07-11T07:07:02Z</time>
      </trkpt>
      <trkpt lat="45.97515" lon="2.841">
        <ele>651.1</ele>
        <time>2021-07-11T07:07:03Z</time>
      </trkpt>
      <trkpt lat="45.97516" lon="2.841">
        <ele>651.3</ele>
        <time>2021-07-11T07:07:04Z</time>
      </trkpt>
      <trkpt lat="45.97517" lon="2.841">
        <ele>651.4</ele>
        <time>2021-07-11T07:07:05Z</time>
      </trkpt>
      <trkpt lat="45.97517" lon="2.841">
        <ele>651.4</ele>
        <time>2021-07-11T07:07:06Z</time>
      </trkpt>
      <trkpt lat="45.97518" lon="2.841">
        <ele>651.5</ele>
        <time>2021-07-11T07:07:07Z</time>
      </trkpt>
      <trkpt lat="45.97519" lon="2.841">
        <ele>651.7</ele>
        <time>2021-07-11T07:07:08Z</time>
      </trkpt>
      <trkpt lat="45.9752" lon="2.84101">
        <ele>651.5</ele>
        <time>2021-07-11T07:07:09Z</time>
      </trkpt>
      <trkpt lat="45.97521" lon="2.84101">
        <ele>651.7</ele>
        <time>2021-07-11T07:07:10Z</time>
      </trkpt>
      <trkpt lat="45.97522" lon="2.84101">
        <ele>651.8</ele>
        <time>2021-07-11T07:07:11Z</time>
      </trkpt>
      <trkpt lat="45.97523" lon="2.84102">
        <ele>651.7</ele>
        <time>2021-07-11T07:07:12Z</time>
      </trkpt>
      <trkpt lat="45.97524" lon="2.84103">
        <ele>651.5</ele>
        <time>2021-07-11T07:07:13Z</time>
      </trkpt>
      <trkpt lat="45.97525" lon="2.84103">
        <ele>651.7</ele>
        <time>2021-07-11T07:07:14Z</time>
      </trkpt>
      <trkpt lat="45.97527" lon="2.84104">
        <ele>651.7</ele>
        <time>2021-07-11T07:07:15Z</time>
      </trkpt>
      <trkpt lat="45.97528" lon="2.84104">
        <ele>651.8</ele>
        <time>2021-07-11T07:07:16Z</time>
      </trkpt>
      <trkpt lat="45.97529" lon="2.84105">
        <ele>651.3</ele>
        <time>2021-07-11T07:07:17Z</time>
      </trkpt>
      <trkpt lat="45.9753" lon="2.84105">
        <ele>651.2</ele>
        <time>2021-07-11T07:07:18Z</time>
      </trkpt>
      <trkpt lat="45.97531" lon="2.84106">
        <ele>650.7</ele>
        <time>2021-07-11T07:07:19Z</time>
      </trkpt>
      <trkpt lat="45.97531" lon="2.84106">
        <ele>650.7</ele>
        <time>2021-07-11T07:07:20Z</time>
      </trkpt>
      <trkpt lat="45.97532" lon="2.84107">
        <ele>650.3</ele>
        <time>2021-07-11T07:07:21Z</time>
      </trkpt>
      <trkpt lat="45.97533" lon="2.84107">
        <ele>650.1</ele>
        <time>2021-07-11T07:07:22Z</time>
      </trkpt>
      <trkpt lat="45.97534" lon="2.84107">
        <ele>649.9</ele>
        <time>2021-07-11T07:07:23Z</time>
      </trkpt>
      <trkpt lat="45.97535" lon="2.84108">
        <ele>649.5</ele>
        <time>2021-07-11T07:07:24Z</time>
      </trkpt>
      <trkpt lat="45.97536" lon="2.84108">
        <ele>649.3</ele>
        <time>2021-07-11T07:07:25Z</time>
      </trkpt>
      <trkpt lat="45.97537" lon="2.84108">
        <ele>649.2</ele>
        <time>2021-07-11T07:07:26Z</time>
      </trkpt>
      <trkpt lat="45.97538" lon="2.84109">
        <ele>648.7</ele>
        <time>2021-07-11T07:07:27Z</time>
      </trkpt>
      <trkpt lat="45.97539" lon="2.84109">
        <ele>648.5</ele>
        <time>2021-07-11T07:07:27Z</time>
      </trkpt>
      <trkpt lat="45.9754" lon="2.84109">
        <ele>648.4</ele>
        <time>2021-07-11T07:07:28Z</time>
      </trkpt>
      <trkpt lat="45.97541" lon="2.8411">
        <ele>647.9</ele>
        <time>2021-07-11T07:07:29Z</time>
      </trkpt>
      <trkpt lat="45.97543" lon="2.8411">
        <ele>647.6</ele>
        <time>2021-07-11T07:07:30Z</time>
      </trkpt>
      <trkpt lat="45.97545" lon="2.84111">
        <ele>646.9</ele>
        <time>2021-07-11T07:07:31Z</time>
      </trkpt>
      <trkpt lat="45.97546" lon="2.84111">
        <ele>646.8</ele>
        <time>2021-07-11T07:07:32Z</time>
      </trkpt>
      <trkpt lat="45.97547" lon="2.84111">
        <ele>646.6</ele>
        <time>2021-07-11T07:07:33Z</time>
      </trkpt>
      <trkpt lat="45.97548" lon="2.84111">
        <ele>646.4</ele>
        <time>2021-07-11T07:07:34Z</time>
      </trkpt>
      <trkpt lat="45.97549" lon="2.84111">
        <ele>646.2</ele>
        <time>2021-07-11T07:07:35Z</time>
      </trkpt>
      <trkpt lat="45.9755" lon="2.84111">
        <ele>646</ele>
        <time>2021-07-11T07:07:36Z</time>
      </trkpt>
      <trkpt lat="45.97551" lon="2.84111">
        <ele>645.9</ele>
        <time>2021-07-11T07:07:37Z</time>
      </trkpt>
      <trkpt lat="45.97552" lon="2.84111">
        <ele>645.7</ele>
        <time>2021-07-11T07:07:38Z</time>
      </trkpt>
      <trkpt lat="45.97553" lon="2.84111">
        <ele>645.5</ele>
        <time>2021-07-11T07:07:39Z</time>
      </trkpt>
      <trkpt lat="45.97554" lon="2.84111">
        <ele>645.3</ele>
        <time>2021-07-11T07:07:40Z</time>
      </trkpt>
      <trkpt lat="45.97554" lon="2.84111">
        <ele>645.3</ele>
        <time>2021-07-11T07:07:41Z</time>
      </trkpt>
      <trkpt lat="45.97555" lon="2.84111">
        <ele>645.1</ele>
        <time>2021-07-11T07:07:42Z</time>
      </trkpt>
      <trkpt lat="45.97556" lon="2.84111">
        <ele>644.8</ele>
        <time>2021-07-11T07:07:43Z</time>
      </trkpt>
      <trkpt lat="45.97556" lon="2.84112">
        <ele>644.6</ele>
        <time>2021-07-11T07:07:44Z</time>
      </trkpt>
      <trkpt lat="45.97557" lon="2.84112">
        <ele>644.1</ele>
        <time>2021-07-11T07:07:45Z</time>
      </trkpt>
      <trkpt lat="45.97558" lon="2.84112">
        <ele>643.6</ele>
        <time>2021-07-11T07:07:46Z</time>
      </trkpt>
      <trkpt lat="45.97558" lon="2.84111">
        <ele>643.9</ele>
        <time>2021-07-11T07:07:47Z</time>
      </trkpt>
      <trkpt lat="45.97559" lon="2.84111">
        <ele>643.4</ele>
        <time>2021-07-11T07:07:48Z</time>
      </trkpt>
      <trkpt lat="45.97561" lon="2.84111">
        <ele>642.5</ele>
        <time>2021-07-11T07:07:49Z</time>
      </trkpt>
      <trkpt lat="45.97561" lon="2.84111">
        <ele>642.5</ele>
        <time>2021-07-11T07:07:50Z</time>
      </trkpt>
      <trkpt lat="45.97562" lon="2.84111">
        <ele>642</ele>
        <time>2021-07-11T07:07:51Z</time>
      </trkpt>
      <trkpt lat="45.97563" lon="2.84111">
        <ele>641.6</ele>
        <time>2021-07-11T07:07:52Z</time>
      </trkpt>
      <trkpt lat="45.97564" lon="2.84111">
        <ele>641.1</ele>
        <time>2021-07-11T07:07:53Z</time>
      </trkpt>
      <trkpt lat="45.97565" lon="2.84112">
        <ele>640.3</ele>
        <time>2021-07-11T07:07:54Z</time>
      </trkpt>
      <trkpt lat="45.97566" lon="2.84112">
        <ele>639.9</ele>
        <time>2021-07-11T07:07:55Z</time>
      </trkpt>
      <trkpt lat="45.97567" lon="2.84112">
        <ele>639.4</ele>
        <time>2021-07-11T07:07:56Z</time>
      </trkpt>
      <trkpt lat="45.97568" lon="2.84112">
        <ele>638.9</ele>
        <time>2021-07-11T07:07:57Z</time>
      </trkpt>
      <trkpt lat="45.97569" lon="2.84112">
        <ele>638.5</ele>
        <time>2021-07-11T07:07:58Z</time>
      </trkpt>
      <trkpt lat="45.9757" lon="2.84112">
        <ele>638</ele>
        <time>2021-07-11T07:07:59Z</time>
      </trkpt>
      <trkpt lat="45.97571" lon="2.84112">
        <ele>637.5</ele>
        <time>2021-07-11T07:08:00Z</time>
      </trkpt>
      <trkpt lat="45.97572" lon="2.84111">
        <ele>637.3</ele>
        <time>2021-07-11T07:08:01Z</time>
      </trkpt>
      <trkpt lat="45.97573" lon="2.84111">
        <ele>636.9</ele>
        <time>2021-07-11T07:08:02Z</time>
      </trkpt>
      <trkpt lat="45.97574" lon="2.84111">
        <ele>636.4</ele>
        <time>2021-07-11T07:08:03Z</time>
      </trkpt>
      <trkpt lat="45.97575" lon="2.8411">
        <ele>636.3</ele>
        <time>2021-07-11T07:08:04Z</time>
      </trkpt>
      <trkpt lat="45.97576" lon="2.8411">
        <ele>635.9</ele>
        <time>2021-07-11T07:08:05Z</time>
      </trkpt>
      <trkpt lat="45.97577" lon="2.8411">
        <ele>635.4</ele>
        <time>2021-07-11T07:08:06Z</time>
      </trkpt>
      <trkpt lat="45.97578" lon="2.8411">
        <ele>634.9</ele>
        <time>2021-07-11T07:08:07Z</time>
      </trkpt>
      <trkpt lat="45.97578" lon="2.8411">
        <ele>634.9</ele>
        <time>2021-07-11T07:08:08Z</time>
      </trkpt>
      <trkpt lat="45.97578" lon="2.84111">
        <ele>634.5</ele>
        <time>2021-07-11T07:08:09Z</time>
      </trkpt>
      <trkpt lat="45.97579" lon="2.84111">
        <ele>634.1</ele>
        <time>2021-07-11T07:08:10Z</time>
      </trkpt>
      <trkpt lat="45.97579" lon="2.84111">
        <ele>634.1</ele>
        <time>2021-07-11T07:08:11Z</time>
      </trkpt>
      <trkpt lat="45.97579" lon="2.84112">
        <ele>633.7</ele>
        <time>2021-07-11T07:08:12Z</time>
      </trkpt>
      <trkpt lat="45.9758" lon="2.84112">
        <ele>633.3</ele>
        <time>2021-07-11T07:08:13Z</time>
      </trkpt>
      <trkpt lat="45.97581" lon="2.84112">
        <ele>632.8</ele>
        <time>2021-07-11T07:08:14Z</time>
      </trkpt>
      <trkpt lat="45.97582" lon="2.84112">
        <ele>632.3</ele>
        <time>2021-07-11T07:08:15Z</time>
      </trkpt>
      <trkpt lat="45.97582" lon="2.84112">
        <ele>632.3</ele>
        <time>2021-07-11T07:08:16Z</time>
      </trkpt>
      <trkpt lat="45.97582" lon="2.84111">
        <ele>632.7</ele>
        <time>2021-07-11T07:08:17Z</time>
      </trkpt>
      <trkpt lat="45.97583" lon="2.84111">
        <ele>632.2</ele>
        <time>2021-07-11T07:08:18Z</time>
      </trkpt>
      <trkpt lat="45.97584" lon="2.8411">
        <ele>632.4</ele>
        <time>2021-07-11T07:08:19Z</time>
      </trkpt>
      <trkpt lat="45.97585" lon="2.8411">
        <ele>632.2</ele>
        <time>2021-07-11T07:08:20Z</time>
      </trkpt>
      <trkpt lat="45.97585" lon="2.84109">
        <ele>632.6</ele>
        <time>2021-07-11T07:08:21Z</time>
      </trkpt>
      <trkpt lat="45.97585" lon="2.84109">
        <ele>632.6</ele>
        <time>2021-07-11T07:08:22Z</time>
      </trkpt>
      <trkpt lat="45.97586" lon="2.84108">
        <ele>632.9</ele>
        <time>2021-07-11T07:08:23Z</time>
      </trkpt>
      <trkpt lat="45.97587" lon="2.84108">
        <ele>632.7</ele>
        <time>2021-07-11T07:08:24Z</time>
      </trkpt>
      <trkpt lat="45.97588" lon="2.84107">
        <ele>632.9</ele>
        <time>2021-07-11T07:08:25Z</time>
      </trkpt>
      <trkpt lat="45.97588" lon="2.84107">
        <ele>632.9</ele>
        <time>2021-07-11T07:08:26Z</time>
      </trkpt>
      <trkpt lat="45.97588" lon="2.84106">
        <ele>633.3</ele>
        <time>2021-07-11T07:08:27Z</time>
      </trkpt>
      <trkpt lat="45.97588" lon="2.84106">
        <ele>633.3</ele>
        <time>2021-07-11T07:08:28Z</time>
      </trkpt>
      <trkpt lat="45.97589" lon="2.84106">
        <ele>633.2</ele>
        <time>2021-07-11T07:08:29Z</time>
      </trkpt>
      <trkpt lat="45.9759" lon="2.84106">
        <ele>633</ele>
        <time>2021-07-11T07:08:30Z</time>
      </trkpt>
      <trkpt lat="45.97591" lon="2.84105">
        <ele>633.2</ele>
        <time>2021-07-11T07:08:31Z</time>
      </trkpt>
      <trkpt lat="45.97591" lon="2.84105">
        <ele>633.2</ele>
        <time>2021-07-11T07:08:32Z</time>
      </trkpt>
      <trkpt lat="45.97592" lon="2.84105">
        <ele>633</ele>
        <time>2021-07-11T07:08:33Z</time>
      </trkpt>
      <trkpt lat="45.97593" lon="2.84105">
        <ele>632.8</ele>
        <time>2021-07-11T07:08:34Z</time>
      </trkpt>
      <trkpt lat="45.97594" lon="2.84105">
        <ele>632.6</ele>
        <time>2021-07-11T07:08:35Z</time>
      </trkpt>
      <trkpt lat="45.97595" lon="2.84105">
        <ele>632.4</ele>
        <time>2021-07-11T07:08:36Z</time>
      </trkpt>
      <trkpt lat="45.97596" lon="2.84106">
        <ele>631.8</ele>
        <time>2021-07-11T07:08:37Z</time>
      </trkpt>
      <trkpt lat="45.97596" lon="2.84106">
        <ele>631.8</ele>
        <time>2021-07-11T07:08:38Z</time>
      </trkpt>
      <trkpt lat="45.97597" lon="2.84107">
        <ele>631.2</ele>
        <time>2021-07-11T07:08:39Z</time>
      </trkpt>
      <trkpt lat="45.97598" lon="2.84107">
        <ele>631.1</ele>
        <time>2021-07-11T07:08:40Z</time>
      </trkpt>
      <trkpt lat="45.97599" lon="2.84108">
        <ele>630.5</ele>
        <time>2021-07-11T07:08:41Z</time>
      </trkpt>
      <trkpt lat="45.976" lon="2.84108">
        <ele>630.3</ele>
        <time>2021-07-11T07:08:42Z</time>
      </trkpt>
      <trkpt lat="45.97601" lon="2.84109">
        <ele>629.7</ele>
        <time>2021-07-11T07:08:43Z</time>
      </trkpt>
      <trkpt lat="45.97602" lon="2.8411">
        <ele>629.1</ele>
        <time>2021-07-11T07:08:44Z</time>
      </trkpt>
      <trkpt lat="45.97603" lon="2.84111">
        <ele>628.5</ele>
        <time>2021-07-11T07:08:45Z</time>
      </trkpt>
      <trkpt lat="45.97604" lon="2.84112">
        <ele>627.9</ele>
        <time>2021-07-11T07:08:46Z</time>
      </trkpt>
      <trkpt lat="45.97606" lon="2.84113">
        <ele>627.2</ele>
        <time>2021-07-11T07:08:47Z</time>
      </trkpt>
      <trkpt lat="45.97607" lon="2.84114">
        <ele>626.6</ele>
        <time>2021-07-11T07:08:48Z</time>
      </trkpt>
      <trkpt lat="45.97609" lon="2.84115">
        <ele>625.9</ele>
        <time>2021-07-11T07:08:49Z</time>
      </trkpt>
      <trkpt lat="45.9761" lon="2.84116">
        <ele>625.3</ele>
        <time>2021-07-11T07:08:50Z</time>
      </trkpt>
      <trkpt lat="45.97611" lon="2.84117">
        <ele>624.7</ele>
        <time>2021-07-11T07:08:51Z</time>
      </trkpt>
      <trkpt lat="45.97612" lon="2.84118">
        <ele>624.1</ele>
        <time>2021-07-11T07:08:52Z</time>
      </trkpt>
      <trkpt lat="45.97614" lon="2.84118">
        <ele>623.9</ele>
        <time>2021-07-11T07:08:53Z</time>
      </trkpt>
      <trkpt lat="45.97615" lon="2.84119">
        <ele>623.3</ele>
        <time>2021-07-11T07:08:54Z</time>
      </trkpt>
      <trkpt lat="45.97615" lon="2.84119">
        <ele>623.3</ele>
        <time>2021-07-11T07:08:55Z</time>
      </trkpt>
      <trkpt lat="45.97617" lon="2.8412">
        <ele>622.6</ele>
        <time>2021-07-11T07:08:56Z</time>
      </trkpt>
      <trkpt lat="45.97618" lon="2.84121">
        <ele>622.1</ele>
        <time>2021-07-11T07:08:57Z</time>
      </trkpt>
      <trkpt lat="45.97619" lon="2.84121">
        <ele>621.9</ele>
        <time>2021-07-11T07:08:58Z</time>
      </trkpt>
      <trkpt lat="45.9762" lon="2.84121">
        <ele>621.8</ele>
        <time>2021-07-11T07:08:59Z</time>
      </trkpt>
      <trkpt lat="45.97621" lon="2.84122">
        <ele>621.3</ele>
        <time>2021-07-11T07:09:00Z</time>
      </trkpt>
      <trkpt lat="45.97622" lon="2.84122">
        <ele>621.1</ele>
        <time>2021-07-11T07:09:01Z</time>
      </trkpt>
      <trkpt lat="45.97623" lon="2.84121">
        <ele>621.4</ele>
        <time>2021-07-11T07:09:02Z</time>
      </trkpt>
      <trkpt lat="45.97624" lon="2.84121">
        <ele>621.2</ele>
        <time>2021-07-11T07:09:03Z</time>
      </trkpt>
      <trkpt lat="45.97625" lon="2.84121">
        <ele>621.1</ele>
        <time>2021-07-11T07:09:04Z</time>
      </trkpt>
      <trkpt lat="45.97627" lon="2.8412">
        <ele>621.2</ele>
        <time>2021-07-11T07:09:05Z</time>
      </trkpt>
      <trkpt lat="45.97627" lon="2.8412">
        <ele>621.2</ele>
        <time>2021-07-11T07:09:06Z</time>
      </trkpt>
      <trkpt lat="45.97628" lon="2.8412">
        <ele>621</ele>
        <time>2021-07-11T07:09:07Z</time>
      </trkpt>
      <trkpt lat="45.9763" lon="2.84119">
        <ele>621.2</ele>
        <time>2021-07-11T07:09:08Z</time>
      </trkpt>
      <trkpt lat="45.9763" lon="2.84119">
        <ele>621.2</ele>
        <time>2021-07-11T07:09:09Z</time>
      </trkpt>
      <trkpt lat="45.97632" lon="2.84118">
        <ele>621.3</ele>
        <time>2021-07-11T07:09:10Z</time>
      </trkpt>
      <trkpt lat="45.97633" lon="2.84118">
        <ele>621.1</ele>
        <time>2021-07-11T07:09:11Z</time>
      </trkpt>
      <trkpt lat="45.97633" lon="2.84117">
        <ele>621.5</ele>
        <time>2021-07-11T07:09:12Z</time>
      </trkpt>
      <trkpt lat="45.97635" lon="2.84117">
        <ele>621.2</ele>
        <time>2021-07-11T07:09:13Z</time>
      </trkpt>
      <trkpt lat="45.97636" lon="2.84117">
        <ele>621.1</ele>
        <time>2021-07-11T07:09:14Z</time>
      </trkpt>
      <trkpt lat="45.97637" lon="2.84117">
        <ele>620.9</ele>
        <time>2021-07-11T07:09:15Z</time>
      </trkpt>
      <trkpt lat="45.97638" lon="2.84116">
        <ele>621.2</ele>
        <time>2021-07-11T07:09:16Z</time>
      </trkpt>
      <trkpt lat="45.97639" lon="2.84116">
        <ele>621.1</ele>
        <time>2021-07-11T07:09:17Z</time>
      </trkpt>
      <trkpt lat="45.9764" lon="2.84115">
        <ele>621.5</ele>
        <time>2021-07-11T07:09:18Z</time>
      </trkpt>
      <trkpt lat="45.97641" lon="2.84115">
        <ele>621.5</ele>
        <time>2021-07-11T07:09:19Z</time>
      </trkpt>
      <trkpt lat="45.97642" lon="2.84114">
        <ele>621.9</ele>
        <time>2021-07-11T07:09:20Z</time>
      </trkpt>
      <trkpt lat="45.97643" lon="2.84114">
        <ele>621.9</ele>
        <time>2021-07-11T07:09:21Z</time>
      </trkpt>
      <trkpt lat="45.97644" lon="2.84113">
        <ele>622.3</ele>
        <time>2021-07-11T07:09:22Z</time>
      </trkpt>
      <trkpt lat="45.97645" lon="2.84113">
        <ele>622.3</ele>
        <time>2021-07-11T07:09:23Z</time>
      </trkpt>
      <trkpt lat="45.97646" lon="2.84112">
        <ele>622.7</ele>
        <time>2021-07-11T07:09:24Z</time>
      </trkpt>
      <trkpt lat="45.97647" lon="2.84112">
        <ele>622.7</ele>
        <time>2021-07-11T07:09:25Z</time>
      </trkpt>
      <trkpt lat="45.97648" lon="2.84111">
        <ele>623</ele>
        <time>2021-07-11T07:09:26Z</time>
      </trkpt>
      <trkpt lat="45.97649" lon="2.84111">
        <ele>623</ele>
        <time>2021-07-11T07:09:27Z</time>
      </trkpt>
      <trkpt lat="45.97651" lon="2.84111">
        <ele>623</ele>
        <time>2021-07-11T07:09:28Z</time>
      </trkpt>
      <trkpt lat="45.97651" lon="2.8411">
        <ele>623.5</ele>
        <time>2021-07-11T07:09:29Z</time>
      </trkpt>
      <trkpt lat="45.97652" lon="2.8411">
        <ele>623.5</ele>
        <time>2021-07-11T07:09:30Z</time>
      </trkpt>
      <trkpt lat="45.97654" lon="2.8411">
        <ele>623.5</ele>
        <time>2021-07-11T07:09:31Z</time>
      </trkpt>
      <trkpt lat="45.97654" lon="2.84109">
        <ele>623.9</ele>
        <time>2021-07-11T07:09:32Z</time>
      </trkpt>
      <trkpt lat="45.97656" lon="2.84109">
        <ele>623.9</ele>
        <time>2021-07-11T07:09:33Z</time>
      </trkpt>
      <trkpt lat="45.97657" lon="2.84108">
        <ele>624.3</ele>
        <time>2021-07-11T07:09:34Z</time>
      </trkpt>
      <trkpt lat="45.97657" lon="2.84107">
        <ele>624.7</ele>
        <time>2021-07-11T07:09:35Z</time>
      </trkpt>
      <trkpt lat="45.97658" lon="2.84107">
        <ele>624.7</ele>
        <time>2021-07-11T07:09:36Z</time>
      </trkpt>
      <trkpt lat="45.97658" lon="2.84106">
        <ele>625.1</ele>
        <time>2021-07-11T07:09:37Z</time>
      </trkpt>
      <trkpt lat="45.97659" lon="2.84105">
        <ele>625.5</ele>
        <time>2021-07-11T07:09:38Z</time>
      </trkpt>
      <trkpt lat="45.97659" lon="2.84105">
        <ele>625.5</ele>
        <time>2021-07-11T07:09:39Z</time>
      </trkpt>
      <trkpt lat="45.9766" lon="2.84104">
        <ele>625.9</ele>
        <time>2021-07-11T07:09:40Z</time>
      </trkpt>
      <trkpt lat="45.9766" lon="2.84104">
        <ele>625.9</ele>
        <time>2021-07-11T07:09:41Z</time>
      </trkpt>
      <trkpt lat="45.97662" lon="2.84103">
        <ele>626.3</ele>
        <time>2021-07-11T07:09:43Z</time>
      </trkpt>
      <trkpt lat="45.97663" lon="2.84103">
        <ele>626.3</ele>
        <time>2021-07-11T07:09:45Z</time>
      </trkpt>
      <trkpt lat="45.97663" lon="2.84103">
        <ele>626.3</ele>
        <time>2021-07-11T07:09:46Z</time>
      </trkpt>
      <trkpt lat="45.97663" lon="2.84102">
        <ele>626.7</ele>
        <time>2021-07-11T07:09:47Z</time>
      </trkpt>
      <trkpt lat="45.97664" lon="2.84102">
        <ele>626.6</ele>
        <time>2021-07-11T07:09:48Z</time>
      </trkpt>
      <trkpt lat="45.97664" lon="2.84101">
        <ele>627</ele>
        <time>2021-07-11T07:09:49Z</time>
      </trkpt>
      <trkpt lat="45.97665" lon="2.84101">
        <ele>627</ele>
        <time>2021-07-11T07:09:50Z</time>
      </trkpt>
      <trkpt lat="45.97666" lon="2.841">
        <ele>627.4</ele>
        <time>2021-07-11T07:09:51Z</time>
      </trkpt>
      <trkpt lat="45.97666" lon="2.841">
        <ele>627.4</ele>
        <time>2021-07-11T07:09:52Z</time>
      </trkpt>
      <trkpt lat="45.97667" lon="2.84099">
        <ele>627.8</ele>
        <time>2021-07-11T07:09:53Z</time>
      </trkpt>
      <trkpt lat="45.97669" lon="2.84099">
        <ele>627.5</ele>
        <time>2021-07-11T07:09:54Z</time>
      </trkpt>
      <trkpt lat="45.97669" lon="2.84098">
        <ele>627.9</ele>
        <time>2021-07-11T07:09:55Z</time>
      </trkpt>
      <trkpt lat="45.9767" lon="2.84098">
        <ele>627.8</ele>
        <time>2021-07-11T07:09:56Z</time>
      </trkpt>
      <trkpt lat="45.9767" lon="2.84098">
        <ele>627.8</ele>
        <time>2021-07-11T07:09:57Z</time>
      </trkpt>
      <trkpt lat="45.97672" lon="2.84097">
        <ele>628</ele>
        <time>2021-07-11T07:09:59Z</time>
      </trkpt>
      <trkpt lat="45.97675" lon="2.84093">
        <ele>629.3</ele>
        <time>2021-07-11T07:10:00Z</time>
      </trkpt>
      <trkpt lat="45.97675" lon="2.84093">
        <ele>629.3</ele>
        <time>2021-07-11T07:10:01Z</time>
      </trkpt>
      <trkpt lat="45.97675" lon="2.84093">
        <ele>629.3</ele>
        <time>2021-07-11T07:10:02Z</time>
      </trkpt>
      <trkpt lat="45.97676" lon="2.84092">
        <ele>629.6</ele>
        <time>2021-07-11T07:10:03Z</time>
      </trkpt>
      <trkpt lat="45.97676" lon="2.84091">
        <ele>630</ele>
        <time>2021-07-11T07:10:04Z</time>
      </trkpt>
      <trkpt lat="45.97677" lon="2.8409">
        <ele>630.2</ele>
        <time>2021-07-11T07:10:05Z</time>
      </trkpt>
      <trkpt lat="45.97678" lon="2.84089">
        <ele>630.5</ele>
        <time>2021-07-11T07:10:06Z</time>
      </trkpt>
      <trkpt lat="45.97678" lon="2.84088">
        <ele>630.9</ele>
        <time>2021-07-11T07:10:07Z</time>
      </trkpt>
      <trkpt lat="45.97679" lon="2.84087">
        <ele>631.2</ele>
        <time>2021-07-11T07:10:08Z</time>
      </trkpt>
      <trkpt lat="45.9768" lon="2.84086">
        <ele>631.5</ele>
        <time>2021-07-11T07:10:09Z</time>
      </trkpt>
      <trkpt lat="45.97681" lon="2.84085">
        <ele>631.8</ele>
        <time>2021-07-11T07:10:10Z</time>
      </trkpt>
      <trkpt lat="45.97682" lon="2.84084">
        <ele>632.1</ele>
        <time>2021-07-11T07:10:11Z</time>
      </trkpt>
      <trkpt lat="45.97682" lon="2.84083">
        <ele>632.5</ele>
        <time>2021-07-11T07:10:12Z</time>
      </trkpt>
      <trkpt lat="45.97683" lon="2.84081">
        <ele>633</ele>
        <time>2021-07-11T07:10:13Z</time>
      </trkpt>
      <trkpt lat="45.97684" lon="2.8408">
        <ele>633.3</ele>
        <time>2021-07-11T07:10:14Z</time>
      </trkpt>
      <trkpt lat="45.97684" lon="2.84079">
        <ele>633.6</ele>
        <time>2021-07-11T07:10:15Z</time>
      </trkpt>
      <trkpt lat="45.97685" lon="2.84078">
        <ele>633.8</ele>
        <time>2021-07-11T07:10:16Z</time>
      </trkpt>
      <trkpt lat="45.97686" lon="2.84076">
        <ele>634.3</ele>
        <time>2021-07-11T07:10:17Z</time>
      </trkpt>
      <trkpt lat="45.97686" lon="2.84075">
        <ele>634.7</ele>
        <time>2021-07-11T07:10:18Z</time>
      </trkpt>
      <trkpt lat="45.97687" lon="2.84073">
        <ele>635.2</ele>
        <time>2021-07-11T07:10:19Z</time>
      </trkpt>
      <trkpt lat="45.97687" lon="2.84072">
        <ele>635.5</ele>
        <time>2021-07-11T07:10:20Z</time>
      </trkpt>
      <trkpt lat="45.97687" lon="2.84071">
        <ele>635.8</ele>
        <time>2021-07-11T07:10:21Z</time>
      </trkpt>
      <trkpt lat="45.97687" lon="2.84069">
        <ele>636.5</ele>
        <time>2021-07-11T07:10:22Z</time>
      </trkpt>
      <trkpt lat="45.97688" lon="2.84068">
        <ele>636.6</ele>
        <time>2021-07-11T07:10:23Z</time>
      </trkpt>
      <trkpt lat="45.97688" lon="2.84067">
        <ele>636.9</ele>
        <time>2021-07-11T07:10:24Z</time>
      </trkpt>
      <trkpt lat="45.97689" lon="2.84065">
        <ele>637.4</ele>
        <time>2021-07-11T07:10:25Z</time>
      </trkpt>
      <trkpt lat="45.9769" lon="2.84064">
        <ele>637.5</ele>
        <time>2021-07-11T07:10:26Z</time>
      </trkpt>
      <trkpt lat="45.9769" lon="2.84063">
        <ele>637.8</ele>
        <time>2021-07-11T07:10:27Z</time>
      </trkpt>
      <trkpt lat="45.97691" lon="2.84062">
        <ele>637.9</ele>
        <time>2021-07-11T07:10:28Z</time>
      </trkpt>
      <trkpt lat="45.97692" lon="2.8406">
        <ele>638.3</ele>
        <time>2021-07-11T07:10:29Z</time>
      </trkpt>
      <trkpt lat="45.97693" lon="2.84059">
        <ele>638.3</ele>
        <time>2021-07-11T07:10:30Z</time>
      </trkpt>
      <trkpt lat="45.97694" lon="2.84057">
        <ele>638.7</ele>
        <time>2021-07-11T07:10:31Z</time>
      </trkpt>
      <trkpt lat="45.97695" lon="2.84056">
        <ele>638.7</ele>
        <time>2021-07-11T07:10:32Z</time>
      </trkpt>
      <trkpt lat="45.97696" lon="2.84054">
        <ele>638.8</ele>
        <time>2021-07-11T07:10:33Z</time>
      </trkpt>
      <trkpt lat="45.97697" lon="2.84053">
        <ele>638.6</ele>
        <time>2021-07-11T07:10:34Z</time>
      </trkpt>
      <trkpt lat="45.97698" lon="2.84051">
        <ele>638.6</ele>
        <time>2021-07-11T07:10:35Z</time>
      </trkpt>
      <trkpt lat="45.97699" lon="2.8405">
        <ele>638.5</ele>
        <time>2021-07-11T07:10:36Z</time>
      </trkpt>
      <trkpt lat="45.977" lon="2.84048">
        <ele>638.5</ele>
        <time>2021-07-11T07:10:37Z</time>
      </trkpt>
      <trkpt lat="45.977" lon="2.84047">
        <ele>638.7</ele>
        <time>2021-07-11T07:10:38Z</time>
      </trkpt>
      <trkpt lat="45.977" lon="2.84045">
        <ele>639.1</ele>
        <time>2021-07-11T07:10:39Z</time>
      </trkpt>
      <trkpt lat="45.97701" lon="2.84044">
        <ele>638.8</ele>
        <time>2021-07-11T07:10:40Z</time>
      </trkpt>
      <trkpt lat="45.97701" lon="2.84042">
        <ele>639.2</ele>
        <time>2021-07-11T07:10:41Z</time>
      </trkpt>
      <trkpt lat="45.97701" lon="2.8404">
        <ele>639.6</ele>
        <time>2021-07-11T07:10:42Z</time>
      </trkpt>
      <trkpt lat="45.97701" lon="2.84039">
        <ele>639.8</ele>
        <time>2021-07-11T07:10:43Z</time>
      </trkpt>
      <trkpt lat="45.97702" lon="2.84037">
        <ele>639.7</ele>
        <time>2021-07-11T07:10:44Z</time>
      </trkpt>
      <trkpt lat="45.97702" lon="2.84035">
        <ele>640.1</ele>
        <time>2021-07-11T07:10:45Z</time>
      </trkpt>
      <trkpt lat="45.97702" lon="2.84033">
        <ele>640.5</ele>
        <time>2021-07-11T07:10:46Z</time>
      </trkpt>
      <trkpt lat="45.97703" lon="2.84031">
        <ele>640.4</ele>
        <time>2021-07-11T07:10:47Z</time>
      </trkpt>
      <trkpt lat="45.97703" lon="2.84029">
        <ele>640.8</ele>
        <time>2021-07-11T07:10:48Z</time>
      </trkpt>
      <trkpt lat="45.97703" lon="2.84027">
        <ele>641.1</ele>
        <time>2021-07-11T07:10:49Z</time>
      </trkpt>
      <trkpt lat="45.97703" lon="2.84025">
        <ele>641.4</ele>
        <time>2021-07-11T07:10:50Z</time>
      </trkpt>
      <trkpt lat="45.97703" lon="2.84023">
        <ele>641.6</ele>
        <time>2021-07-11T07:10:51Z</time>
      </trkpt>
      <trkpt lat="45.97704" lon="2.84022">
        <ele>641.3</ele>
        <time>2021-07-11T07:10:52Z</time>
      </trkpt>
      <trkpt lat="45.97704" lon="2.8402">
        <ele>641.6</ele>
        <time>2021-07-11T07:10:53Z</time>
      </trkpt>
      <trkpt lat="45.97704" lon="2.84019">
        <ele>641.7</ele>
        <time>2021-07-11T07:10:54Z</time>
      </trkpt>
      <trkpt lat="45.97704" lon="2.84017">
        <ele>642</ele>
        <time>2021-07-11T07:10:55Z</time>
      </trkpt>
      <trkpt lat="45.97704" lon="2.84015">
        <ele>642.2</ele>
        <time>2021-07-11T07:10:56Z</time>
      </trkpt>
      <trkpt lat="45.97704" lon="2.84014">
        <ele>642.4</ele>
        <time>2021-07-11T07:10:58Z</time>
      </trkpt>
      <trkpt lat="45.97704" lon="2.84005">
        <ele>643.6</ele>
        <time>2021-07-11T07:10:59Z</time>
      </trkpt>
      <trkpt lat="45.97704" lon="2.84005">
        <ele>643.6</ele>
        <time>2021-07-11T07:11:00Z</time>
      </trkpt>
      <trkpt lat="45.97704" lon="2.84004">
        <ele>643.7</ele>
        <time>2021-07-11T07:11:01Z</time>
      </trkpt>
      <trkpt lat="45.97704" lon="2.84004">
        <ele>643.7</ele>
        <time>2021-07-11T07:11:02Z</time>
      </trkpt>
      <trkpt lat="45.97704" lon="2.84003">
        <ele>643.8</ele>
        <time>2021-07-11T07:11:03Z</time>
      </trkpt>
      <trkpt lat="45.97704" lon="2.84002">
        <ele>644</ele>
        <time>2021-07-11T07:11:04Z</time>
      </trkpt>
      <trkpt lat="45.97705" lon="2.84001">
        <ele>643.7</ele>
        <time>2021-07-11T07:11:05Z</time>
      </trkpt>
      <trkpt lat="45.97705" lon="2.83999">
        <ele>644.1</ele>
        <time>2021-07-11T07:11:06Z</time>
      </trkpt>
      <trkpt lat="45.97705" lon="2.83998">
        <ele>644.3</ele>
        <time>2021-07-11T07:11:07Z</time>
      </trkpt>
      <trkpt lat="45.97706" lon="2.83997">
        <ele>644.2</ele>
        <time>2021-07-11T07:11:08Z</time>
      </trkpt>
      <trkpt lat="45.97706" lon="2.83995">
        <ele>644.7</ele>
        <time>2021-07-11T07:11:09Z</time>
      </trkpt>
      <trkpt lat="45.97707" lon="2.83994">
        <ele>644.5</ele>
        <time>2021-07-11T07:11:10Z</time>
      </trkpt>
      <trkpt lat="45.97707" lon="2.83992">
        <ele>645</ele>
        <time>2021-07-11T07:11:11Z</time>
      </trkpt>
      <trkpt lat="45.97708" lon="2.83991">
        <ele>644.9</ele>
        <time>2021-07-11T07:11:12Z</time>
      </trkpt>
      <trkpt lat="45.97708" lon="2.83989">
        <ele>645.4</ele>
        <time>2021-07-11T07:11:13Z</time>
      </trkpt>
      <trkpt lat="45.97709" lon="2.83988">
        <ele>645.3</ele>
        <time>2021-07-11T07:11:14Z</time>
      </trkpt>
      <trkpt lat="45.9771" lon="2.83987">
        <ele>645.2</ele>
        <time>2021-07-11T07:11:15Z</time>
      </trkpt>
      <trkpt lat="45.9771" lon="2.83985">
        <ele>645.7</ele>
        <time>2021-07-11T07:11:16Z</time>
      </trkpt>
      <trkpt lat="45.97711" lon="2.83984">
        <ele>645.6</ele>
        <time>2021-07-11T07:11:17Z</time>
      </trkpt>
      <trkpt lat="45.97711" lon="2.83983">
        <ele>645.8</ele>
        <time>2021-07-11T07:11:18Z</time>
      </trkpt>
      <trkpt lat="45.97712" lon="2.83982">
        <ele>645.8</ele>
        <time>2021-07-11T07:11:19Z</time>
      </trkpt>
      <trkpt lat="45.97712" lon="2.83981">
        <ele>646</ele>
        <time>2021-07-11T07:11:20Z</time>
      </trkpt>
      <trkpt lat="45.97714" lon="2.8398">
        <ele>645.6</ele>
        <time>2021-07-11T07:11:21Z</time>
      </trkpt>
      <trkpt lat="45.97714" lon="2.83979">
        <ele>645.9</ele>
        <time>2021-07-11T07:11:22Z</time>
      </trkpt>
      <trkpt lat="45.97714" lon="2.83978">
        <ele>646.1</ele>
        <time>2021-07-11T07:11:23Z</time>
      </trkpt>
      <trkpt lat="45.97715" lon="2.83977">
        <ele>646.1</ele>
        <time>2021-07-11T07:11:24Z</time>
      </trkpt>
      <trkpt lat="45.97715" lon="2.83975">
        <ele>646.6</ele>
        <time>2021-07-11T07:11:25Z</time>
      </trkpt>
      <trkpt lat="45.97715" lon="2.83974">
        <ele>646.9</ele>
        <time>2021-07-11T07:11:26Z</time>
      </trkpt>
      <trkpt lat="45.97716" lon="2.83972">
        <ele>647.1</ele>
        <time>2021-07-11T07:11:27Z</time>
      </trkpt>
      <trkpt lat="45.97717" lon="2.83971">
        <ele>647.2</ele>
        <time>2021-07-11T07:11:28Z</time>
      </trkpt>
      <trkpt lat="45.97717" lon="2.83969">
        <ele>648</ele>
        <time>2021-07-11T07:11:29Z</time>
      </trkpt>
      <trkpt lat="45.97718" lon="2.83968">
        <ele>648.1</ele>
        <time>2021-07-11T07:11:30Z</time>
      </trkpt>
      <trkpt lat="45.97718" lon="2.83967">
        <ele>648.5</ele>
        <time>2021-07-11T07:11:31Z</time>
      </trkpt>
      <trkpt lat="45.9772" lon="2.83966">
        <ele>648.4</ele>
        <time>2021-07-11T07:11:32Z</time>
      </trkpt>
      <trkpt lat="45.9772" lon="2.83965">
        <ele>648.8</ele>
        <time>2021-07-11T07:11:33Z</time>
      </trkpt>
      <trkpt lat="45.97721" lon="2.83964">
        <ele>648.9</ele>
        <time>2021-07-11T07:11:34Z</time>
      </trkpt>
      <trkpt lat="45.97722" lon="2.83962">
        <ele>649.5</ele>
        <time>2021-07-11T07:11:35Z</time>
      </trkpt>
      <trkpt lat="45.97723" lon="2.83961">
        <ele>649.7</ele>
        <time>2021-07-11T07:11:36Z</time>
      </trkpt>
      <trkpt lat="45.97724" lon="2.8396">
        <ele>650</ele>
        <time>2021-07-11T07:11:37Z</time>
      </trkpt>
      <trkpt lat="45.97726" lon="2.83959">
        <ele>650</ele>
        <time>2021-07-11T07:11:38Z</time>
      </trkpt>
      <trkpt lat="45.97727" lon="2.83958">
        <ele>650.3</ele>
        <time>2021-07-11T07:11:39Z</time>
      </trkpt>
      <trkpt lat="45.97728" lon="2.83956">
        <ele>651</ele>
        <time>2021-07-11T07:11:40Z</time>
      </trkpt>
      <trkpt lat="45.97729" lon="2.83955">
        <ele>651.2</ele>
        <time>2021-07-11T07:11:41Z</time>
      </trkpt>
      <trkpt lat="45.9773" lon="2.83954">
        <ele>651.5</ele>
        <time>2021-07-11T07:11:42Z</time>
      </trkpt>
      <trkpt lat="45.97731" lon="2.83953">
        <ele>651.7</ele>
        <time>2021-07-11T07:11:42Z</time>
      </trkpt>
      <trkpt lat="45.97732" lon="2.83952">
        <ele>652</ele>
        <time>2021-07-11T07:11:43Z</time>
      </trkpt>
      <trkpt lat="45.97733" lon="2.83951">
        <ele>652.2</ele>
        <time>2021-07-11T07:11:44Z</time>
      </trkpt>
      <trkpt lat="45.97735" lon="2.8395">
        <ele>652.3</ele>
        <time>2021-07-11T07:11:45Z</time>
      </trkpt>
      <trkpt lat="45.97736" lon="2.83949">
        <ele>652.6</ele>
        <time>2021-07-11T07:11:46Z</time>
      </trkpt>
      <trkpt lat="45.97736" lon="2.83948">
        <ele>653</ele>
        <time>2021-07-11T07:11:47Z</time>
      </trkpt>
      <trkpt lat="45.97738" lon="2.83946">
        <ele>653.5</ele>
        <time>2021-07-11T07:11:48Z</time>
      </trkpt>
      <trkpt lat="45.97739" lon="2.83945">
        <ele>653.7</ele>
        <time>2021-07-11T07:11:49Z</time>
      </trkpt>
      <trkpt lat="45.97739" lon="2.83944">
        <ele>654.1</ele>
        <time>2021-07-11T07:11:50Z</time>
      </trkpt>
      <trkpt lat="45.97741" lon="2.83943">
        <ele>654</ele>
        <time>2021-07-11T07:11:51Z</time>
      </trkpt>
      <trkpt lat="45.97742" lon="2.83942">
        <ele>654.2</ele>
        <time>2021-07-11T07:11:52Z</time>
      </trkpt>
      <trkpt lat="45.97742" lon="2.83941">
        <ele>654.4</ele>
        <time>2021-07-11T07:11:53Z</time>
      </trkpt>
      <trkpt lat="45.97743" lon="2.83941">
        <ele>654.3</ele>
        <time>2021-07-11T07:11:54Z</time>
      </trkpt>
      <trkpt lat="45.97744" lon="2.8394">
        <ele>654.4</ele>
        <time>2021-07-11T07:11:55Z</time>
      </trkpt>
      <trkpt lat="45.97745" lon="2.8394">
        <ele>654.3</ele>
        <time>2021-07-11T07:11:56Z</time>
      </trkpt>
      <trkpt lat="45.97746" lon="2.83939">
        <ele>654.4</ele>
        <time>2021-07-11T07:11:57Z</time>
      </trkpt>
      <trkpt lat="45.97746" lon="2.83939">
        <ele>654.4</ele>
        <time>2021-07-11T07:11:58Z</time>
      </trkpt>
      <trkpt lat="45.97747" lon="2.83939">
        <ele>654.2</ele>
        <time>2021-07-11T07:11:59Z</time>
      </trkpt>
      <trkpt lat="45.97748" lon="2.83939">
        <ele>654.1</ele>
        <time>2021-07-11T07:12:00Z</time>
      </trkpt>
      <trkpt lat="45.97748" lon="2.83938">
        <ele>654.4</ele>
        <time>2021-07-11T07:12:01Z</time>
      </trkpt>
      <trkpt lat="45.97749" lon="2.83938">
        <ele>654.2</ele>
        <time>2021-07-11T07:12:02Z</time>
      </trkpt>
      <trkpt lat="45.9775" lon="2.83937">
        <ele>654.4</ele>
        <time>2021-07-11T07:12:03Z</time>
      </trkpt>
      <trkpt lat="45.97751" lon="2.83937">
        <ele>654.3</ele>
        <time>2021-07-11T07:12:04Z</time>
      </trkpt>
      <trkpt lat="45.97752" lon="2.83936">
        <ele>654.5</ele>
        <time>2021-07-11T07:12:05Z</time>
      </trkpt>
      <trkpt lat="45.97752" lon="2.83935">
        <ele>654.8</ele>
        <time>2021-07-11T07:12:06Z</time>
      </trkpt>
      <trkpt lat="45.97754" lon="2.83934">
        <ele>654.9</ele>
        <time>2021-07-11T07:12:07Z</time>
      </trkpt>
      <trkpt lat="45.97754" lon="2.83934">
        <ele>654.9</ele>
        <time>2021-07-11T07:12:08Z</time>
      </trkpt>
      <trkpt lat="45.97755" lon="2.83932">
        <ele>655.5</ele>
        <time>2021-07-11T07:12:09Z</time>
      </trkpt>
      <trkpt lat="45.97757" lon="2.83931">
        <ele>655.7</ele>
        <time>2021-07-11T07:12:10Z</time>
      </trkpt>
      <trkpt lat="45.97757" lon="2.8393">
        <ele>656.1</ele>
        <time>2021-07-11T07:12:11Z</time>
      </trkpt>
      <trkpt lat="45.97759" lon="2.83929">
        <ele>656.3</ele>
        <time>2021-07-11T07:12:12Z</time>
      </trkpt>
      <trkpt lat="45.9776" lon="2.83928">
        <ele>656.6</ele>
        <time>2021-07-11T07:12:13Z</time>
      </trkpt>
      <trkpt lat="45.9776" lon="2.83927">
        <ele>657</ele>
        <time>2021-07-11T07:12:14Z</time>
      </trkpt>
      <trkpt lat="45.97762" lon="2.83926">
        <ele>657.3</ele>
        <time>2021-07-11T07:12:15Z</time>
      </trkpt>
      <trkpt lat="45.97763" lon="2.83925">
        <ele>657.6</ele>
        <time>2021-07-11T07:12:16Z</time>
      </trkpt>
      <trkpt lat="45.97764" lon="2.83924">
        <ele>658</ele>
        <time>2021-07-11T07:12:17Z</time>
      </trkpt>
      <trkpt lat="45.97766" lon="2.83922">
        <ele>658.7</ele>
        <time>2021-07-11T07:12:18Z</time>
      </trkpt>
      <trkpt lat="45.97767" lon="2.83921">
        <ele>659.1</ele>
        <time>2021-07-11T07:12:19Z</time>
      </trkpt>
      <trkpt lat="45.97768" lon="2.8392">
        <ele>659.5</ele>
        <time>2021-07-11T07:12:20Z</time>
      </trkpt>
      <trkpt lat="45.97769" lon="2.83919">
        <ele>660</ele>
        <time>2021-07-11T07:12:21Z</time>
      </trkpt>
      <trkpt lat="45.9777" lon="2.83918">
        <ele>660.4</ele>
        <time>2021-07-11T07:12:22Z</time>
      </trkpt>
      <trkpt lat="45.97771" lon="2.83917">
        <ele>660.8</ele>
        <time>2021-07-11T07:12:23Z</time>
      </trkpt>
      <trkpt lat="45.97772" lon="2.83916">
        <ele>661.1</ele>
        <time>2021-07-11T07:12:24Z</time>
      </trkpt>
      <trkpt lat="45.97773" lon="2.83914">
        <ele>661.3</ele>
        <time>2021-07-11T07:12:25Z</time>
      </trkpt>
      <trkpt lat="45.97775" lon="2.83913">
        <ele>661.4</ele>
        <time>2021-07-11T07:12:26Z</time>
      </trkpt>
      <trkpt lat="45.97776" lon="2.83912">
        <ele>661.5</ele>
        <time>2021-07-11T07:12:27Z</time>
      </trkpt>
      <trkpt lat="45.97777" lon="2.8391">
        <ele>661.7</ele>
        <time>2021-07-11T07:12:28Z</time>
      </trkpt>
      <trkpt lat="45.97778" lon="2.83908">
        <ele>661.9</ele>
        <time>2021-07-11T07:12:29Z</time>
      </trkpt>
      <trkpt lat="45.97779" lon="2.83907">
        <ele>661.7</ele>
        <time>2021-07-11T07:12:30Z</time>
      </trkpt>
      <trkpt lat="45.9778" lon="2.83905">
        <ele>661.7</ele>
        <time>2021-07-11T07:12:31Z</time>
      </trkpt>
      <trkpt lat="45.9778" lon="2.83904">
        <ele>661.8</ele>
        <time>2021-07-11T07:12:32Z</time>
      </trkpt>
      <trkpt lat="45.97781" lon="2.83903">
        <ele>661.7</ele>
        <time>2021-07-11T07:12:33Z</time>
      </trkpt>
      <trkpt lat="45.97781" lon="2.83902">
        <ele>661.8</ele>
        <time>2021-07-11T07:12:34Z</time>
      </trkpt>
      <trkpt lat="45.97781" lon="2.83901">
        <ele>662</ele>
        <time>2021-07-11T07:12:35Z</time>
      </trkpt>
      <trkpt lat="45.97781" lon="2.83899">
        <ele>662.2</ele>
        <time>2021-07-11T07:12:36Z</time>
      </trkpt>
      <trkpt lat="45.97782" lon="2.83898">
        <ele>662.2</ele>
        <time>2021-07-11T07:12:37Z</time>
      </trkpt>
      <trkpt lat="45.97783" lon="2.83897">
        <ele>662.1</ele>
        <time>2021-07-11T07:12:38Z</time>
      </trkpt>
      <trkpt lat="45.97783" lon="2.83895">
        <ele>662.4</ele>
        <time>2021-07-11T07:12:39Z</time>
      </trkpt>
      <trkpt lat="45.97783" lon="2.83894">
        <ele>662.5</ele>
        <time>2021-07-11T07:12:40Z</time>
      </trkpt>
      <trkpt lat="45.97783" lon="2.83892">
        <ele>662.8</ele>
        <time>2021-07-11T07:12:41Z</time>
      </trkpt>
      <trkpt lat="45.97783" lon="2.83891">
        <ele>662.9</ele>
        <time>2021-07-11T07:12:42Z</time>
      </trkpt>
      <trkpt lat="45.97783" lon="2.83889">
        <ele>663.2</ele>
        <time>2021-07-11T07:12:43Z</time>
      </trkpt>
      <trkpt lat="45.97783" lon="2.83887">
        <ele>663.4</ele>
        <time>2021-07-11T07:12:44Z</time>
      </trkpt>
      <trkpt lat="45.97783" lon="2.83886">
        <ele>663.5</ele>
        <time>2021-07-11T07:12:45Z</time>
      </trkpt>
      <trkpt lat="45.97783" lon="2.83884">
        <ele>663.6</ele>
        <time>2021-07-11T07:12:46Z</time>
      </trkpt>
      <trkpt lat="45.97784" lon="2.83882">
        <ele>663.7</ele>
        <time>2021-07-11T07:12:47Z</time>
      </trkpt>
      <trkpt lat="45.97784" lon="2.8388">
        <ele>663.8</ele>
        <time>2021-07-11T07:12:48Z</time>
      </trkpt>
      <trkpt lat="45.97784" lon="2.83878">
        <ele>664</ele>
        <time>2021-07-11T07:12:49Z</time>
      </trkpt>
      <trkpt lat="45.97784" lon="2.83876">
        <ele>664.1</ele>
        <time>2021-07-11T07:12:50Z</time>
      </trkpt>
      <trkpt lat="45.97784" lon="2.83874">
        <ele>664.3</ele>
        <time>2021-07-11T07:12:51Z</time>
      </trkpt>
      <trkpt lat="45.97784" lon="2.83872">
        <ele>664.5</ele>
        <time>2021-07-11T07:12:52Z</time>
      </trkpt>
      <trkpt lat="45.97784" lon="2.8387">
        <ele>664.6</ele>
        <time>2021-07-11T07:12:53Z</time>
      </trkpt>
      <trkpt lat="45.97784" lon="2.83868">
        <ele>664.8</ele>
        <time>2021-07-11T07:12:54Z</time>
      </trkpt>
      <trkpt lat="45.97785" lon="2.83866">
        <ele>664.8</ele>
        <time>2021-07-11T07:12:55Z</time>
      </trkpt>
      <trkpt lat="45.97785" lon="2.83864">
        <ele>665</ele>
        <time>2021-07-11T07:12:56Z</time>
      </trkpt>
      <trkpt lat="45.97786" lon="2.83862">
        <ele>665</ele>
        <time>2021-07-11T07:12:57Z</time>
      </trkpt>
      <trkpt lat="45.97786" lon="2.8386">
        <ele>665.2</ele>
        <time>2021-07-11T07:12:58Z</time>
      </trkpt>
      <trkpt lat="45.97786" lon="2.83858">
        <ele>665.3</ele>
        <time>2021-07-11T07:12:59Z</time>
      </trkpt>
      <trkpt lat="45.97786" lon="2.83856">
        <ele>665.4</ele>
        <time>2021-07-11T07:13:00Z</time>
      </trkpt>
      <trkpt lat="45.97787" lon="2.83855">
        <ele>665.3</ele>
        <time>2021-07-11T07:13:01Z</time>
      </trkpt>
      <trkpt lat="45.97787" lon="2.83853">
        <ele>665.4</ele>
        <time>2021-07-11T07:13:02Z</time>
      </trkpt>
      <trkpt lat="45.97787" lon="2.83852">
        <ele>665.4</ele>
        <time>2021-07-11T07:13:03Z</time>
      </trkpt>
      <trkpt lat="45.97788" lon="2.8385">
        <ele>665.4</ele>
        <time>2021-07-11T07:13:04Z</time>
      </trkpt>
      <trkpt lat="45.97788" lon="2.83849">
        <ele>665.5</ele>
        <time>2021-07-11T07:13:05Z</time>
      </trkpt>
      <trkpt lat="45.97789" lon="2.83847">
        <ele>665.5</ele>
        <time>2021-07-11T07:13:06Z</time>
      </trkpt>
      <trkpt lat="45.9779" lon="2.83846">
        <ele>665.5</ele>
        <time>2021-07-11T07:13:07Z</time>
      </trkpt>
      <trkpt lat="45.97791" lon="2.83845">
        <ele>665.4</ele>
        <time>2021-07-11T07:13:08Z</time>
      </trkpt>
      <trkpt lat="45.97792" lon="2.83843">
        <ele>665.4</ele>
        <time>2021-07-11T07:13:09Z</time>
      </trkpt>
      <trkpt lat="45.97793" lon="2.83842">
        <ele>665.4</ele>
        <time>2021-07-11T07:13:10Z</time>
      </trkpt>
      <trkpt lat="45.97794" lon="2.8384">
        <ele>665.5</ele>
        <time>2021-07-11T07:13:11Z</time>
      </trkpt>
      <trkpt lat="45.97795" lon="2.83838">
        <ele>665.5</ele>
        <time>2021-07-11T07:13:12Z</time>
      </trkpt>
      <trkpt lat="45.97796" lon="2.83837">
        <ele>665.5</ele>
        <time>2021-07-11T07:13:13Z</time>
      </trkpt>
      <trkpt lat="45.97796" lon="2.83835">
        <ele>665.6</ele>
        <time>2021-07-11T07:13:14Z</time>
      </trkpt>
      <trkpt lat="45.97797" lon="2.83833">
        <ele>665.6</ele>
        <time>2021-07-11T07:13:15Z</time>
      </trkpt>
      <trkpt lat="45.97799" lon="2.83831">
        <ele>665.5</ele>
        <time>2021-07-11T07:13:16Z</time>
      </trkpt>
      <trkpt lat="45.97799" lon="2.8383">
        <ele>665.6</ele>
        <time>2021-07-11T07:13:17Z</time>
      </trkpt>
      <trkpt lat="45.978" lon="2.83828">
        <ele>665.6</ele>
        <time>2021-07-11T07:13:18Z</time>
      </trkpt>
      <trkpt lat="45.97801" lon="2.83826">
        <ele>665.5</ele>
        <time>2021-07-11T07:13:19Z</time>
      </trkpt>
      <trkpt lat="45.97802" lon="2.83825">
        <ele>665.5</ele>
        <time>2021-07-11T07:13:20Z</time>
      </trkpt>
      <trkpt lat="45.97802" lon="2.83823">
        <ele>665.6</ele>
        <time>2021-07-11T07:13:21Z</time>
      </trkpt>
      <trkpt lat="45.97804" lon="2.83821">
        <ele>665.5</ele>
        <time>2021-07-11T07:13:22Z</time>
      </trkpt>
      <trkpt lat="45.97804" lon="2.8382">
        <ele>665.6</ele>
        <time>2021-07-11T07:13:23Z</time>
      </trkpt>
      <trkpt lat="45.97805" lon="2.83818">
        <ele>665.6</ele>
        <time>2021-07-11T07:13:24Z</time>
      </trkpt>
      <trkpt lat="45.97805" lon="2.83816">
        <ele>665.7</ele>
        <time>2021-07-11T07:13:25Z</time>
      </trkpt>
      <trkpt lat="45.97805" lon="2.83815">
        <ele>665.7</ele>
        <time>2021-07-11T07:13:26Z</time>
      </trkpt>
      <trkpt lat="45.97806" lon="2.83813">
        <ele>665.7</ele>
        <time>2021-07-11T07:13:27Z</time>
      </trkpt>
      <trkpt lat="45.97807" lon="2.83811">
        <ele>665.8</ele>
        <time>2021-07-11T07:13:28Z</time>
      </trkpt>
      <trkpt lat="45.97807" lon="2.83809">
        <ele>665.9</ele>
        <time>2021-07-11T07:13:29Z</time>
      </trkpt>
      <trkpt lat="45.97808" lon="2.83807">
        <ele>666</ele>
        <time>2021-07-11T07:13:30Z</time>
      </trkpt>
      <trkpt lat="45.97808" lon="2.83805">
        <ele>666.1</ele>
        <time>2021-07-11T07:13:31Z</time>
      </trkpt>
      <trkpt lat="45.97809" lon="2.83802">
        <ele>666.1</ele>
        <time>2021-07-11T07:13:32Z</time>
      </trkpt>
      <trkpt lat="45.97809" lon="2.838">
        <ele>666.1</ele>
        <time>2021-07-11T07:13:33Z</time>
      </trkpt>
      <trkpt lat="45.9781" lon="2.83798">
        <ele>666.2</ele>
        <time>2021-07-11T07:13:34Z</time>
      </trkpt>
      <trkpt lat="45.9781" lon="2.83796">
        <ele>666.2</ele>
        <time>2021-07-11T07:13:35Z</time>
      </trkpt>
      <trkpt lat="45.9781" lon="2.83794">
        <ele>666.2</ele>
        <time>2021-07-11T07:13:36Z</time>
      </trkpt>
      <trkpt lat="45.9781" lon="2.83791">
        <ele>666.2</ele>
        <time>2021-07-11T07:13:37Z</time>
      </trkpt>
      <trkpt lat="45.9781" lon="2.83789">
        <ele>666.3</ele>
        <time>2021-07-11T07:13:38Z</time>
      </trkpt>
      <trkpt lat="45.9781" lon="2.83787">
        <ele>666.3</ele>
        <time>2021-07-11T07:13:39Z</time>
      </trkpt>
      <trkpt lat="45.97809" lon="2.83785">
        <ele>666.2</ele>
        <time>2021-07-11T07:13:40Z</time>
      </trkpt>
      <trkpt lat="45.97809" lon="2.83783">
        <ele>666.2</ele>
        <time>2021-07-11T07:13:41Z</time>
      </trkpt>
      <trkpt lat="45.97808" lon="2.83781">
        <ele>666.2</ele>
        <time>2021-07-11T07:13:42Z</time>
      </trkpt>
      <trkpt lat="45.97808" lon="2.8378">
        <ele>666.2</ele>
        <time>2021-07-11T07:13:43Z</time>
      </trkpt>
      <trkpt lat="45.97807" lon="2.83778">
        <ele>666.1</ele>
        <time>2021-07-11T07:13:44Z</time>
      </trkpt>
      <trkpt lat="45.97807" lon="2.83776">
        <ele>666.1</ele>
        <time>2021-07-11T07:13:45Z</time>
      </trkpt>
      <trkpt lat="45.97805" lon="2.83774">
        <ele>666</ele>
        <time>2021-07-11T07:13:46Z</time>
      </trkpt>
      <trkpt lat="45.97805" lon="2.83773">
        <ele>666</ele>
        <time>2021-07-11T07:13:47Z</time>
      </trkpt>
      <trkpt lat="45.97804" lon="2.83771">
        <ele>666.1</ele>
        <time>2021-07-11T07:13:48Z</time>
      </trkpt>
      <trkpt lat="45.97804" lon="2.83769">
        <ele>666.1</ele>
        <time>2021-07-11T07:13:49Z</time>
      </trkpt>
      <trkpt lat="45.97802" lon="2.83768">
        <ele>666.1</ele>
        <time>2021-07-11T07:13:50Z</time>
      </trkpt>
      <trkpt lat="45.97802" lon="2.83767">
        <ele>666.1</ele>
        <time>2021-07-11T07:13:51Z</time>
      </trkpt>
      <trkpt lat="45.97801" lon="2.83765">
        <ele>666.2</ele>
        <time>2021-07-11T07:13:52Z</time>
      </trkpt>
      <trkpt lat="45.978" lon="2.83764">
        <ele>666.2</ele>
        <time>2021-07-11T07:13:53Z</time>
      </trkpt>
      <trkpt lat="45.978" lon="2.83762">
        <ele>666.2</ele>
        <time>2021-07-11T07:13:54Z</time>
      </trkpt>
      <trkpt lat="45.97799" lon="2.8376">
        <ele>666.2</ele>
        <time>2021-07-11T07:13:55Z</time>
      </trkpt>
      <trkpt lat="45.97799" lon="2.83758">
        <ele>666.2</ele>
        <time>2021-07-11T07:13:56Z</time>
      </trkpt>
      <trkpt lat="45.97798" lon="2.83757">
        <ele>666.3</ele>
        <time>2021-07-11T07:13:57Z</time>
      </trkpt>
      <trkpt lat="45.97797" lon="2.83755">
        <ele>666.3</ele>
        <time>2021-07-11T07:13:58Z</time>
      </trkpt>
      <trkpt lat="45.97796" lon="2.83753">
        <ele>666.3</ele>
        <time>2021-07-11T07:13:59Z</time>
      </trkpt>
      <trkpt lat="45.97796" lon="2.83751">
        <ele>666.3</ele>
        <time>2021-07-11T07:14:00Z</time>
      </trkpt>
      <trkpt lat="45.97794" lon="2.8375">
        <ele>666.4</ele>
        <time>2021-07-11T07:14:01Z</time>
      </trkpt>
      <trkpt lat="45.97794" lon="2.83748">
        <ele>666.3</ele>
        <time>2021-07-11T07:14:02Z</time>
      </trkpt>
      <trkpt lat="45.97793" lon="2.83746">
        <ele>666.3</ele>
        <time>2021-07-11T07:14:03Z</time>
      </trkpt>
      <trkpt lat="45.97792" lon="2.83744">
        <ele>666.3</ele>
        <time>2021-07-11T07:14:04Z</time>
      </trkpt>
      <trkpt lat="45.97791" lon="2.83743">
        <ele>666.3</ele>
        <time>2021-07-11T07:14:05Z</time>
      </trkpt>
      <trkpt lat="45.9779" lon="2.83741">
        <ele>666.2</ele>
        <time>2021-07-11T07:14:06Z</time>
      </trkpt>
      <trkpt lat="45.97789" lon="2.83739">
        <ele>666.2</ele>
        <time>2021-07-11T07:14:07Z</time>
      </trkpt>
      <trkpt lat="45.97788" lon="2.83737">
        <ele>666.2</ele>
        <time>2021-07-11T07:14:08Z</time>
      </trkpt>
      <trkpt lat="45.97787" lon="2.83735">
        <ele>666.1</ele>
        <time>2021-07-11T07:14:09Z</time>
      </trkpt>
      <trkpt lat="45.97787" lon="2.83733">
        <ele>666.1</ele>
        <time>2021-07-11T07:14:10Z</time>
      </trkpt>
      <trkpt lat="45.97786" lon="2.83732">
        <ele>666.1</ele>
        <time>2021-07-11T07:14:11Z</time>
      </trkpt>
      <trkpt lat="45.97786" lon="2.8373">
        <ele>666</ele>
        <time>2021-07-11T07:14:12Z</time>
      </trkpt>
      <trkpt lat="45.97786" lon="2.83728">
        <ele>665.9</ele>
        <time>2021-07-11T07:14:13Z</time>
      </trkpt>
      <trkpt lat="45.97786" lon="2.83726">
        <ele>665.8</ele>
        <time>2021-07-11T07:14:14Z</time>
      </trkpt>
      <trkpt lat="45.97787" lon="2.83724">
        <ele>665.7</ele>
        <time>2021-07-11T07:14:15Z</time>
      </trkpt>
      <trkpt lat="45.97787" lon="2.83723">
        <ele>665.7</ele>
        <time>2021-07-11T07:14:16Z</time>
      </trkpt>
      <trkpt lat="45.97787" lon="2.83722">
        <ele>665.7</ele>
        <time>2021-07-11T07:14:17Z</time>
      </trkpt>
      <trkpt lat="45.97788" lon="2.83721">
        <ele>665.6</ele>
        <time>2021-07-11T07:14:18Z</time>
      </trkpt>
      <trkpt lat="45.97788" lon="2.8372">
        <ele>665.6</ele>
        <time>2021-07-11T07:14:19Z</time>
      </trkpt>
      <trkpt lat="45.97789" lon="2.83719">
        <ele>665.5</ele>
        <time>2021-07-11T07:14:20Z</time>
      </trkpt>
      <trkpt lat="45.97789" lon="2.83718">
        <ele>665.5</ele>
        <time>2021-07-11T07:14:21Z</time>
      </trkpt>
      <trkpt lat="45.9779" lon="2.83717">
        <ele>665.5</ele>
        <time>2021-07-11T07:14:22Z</time>
      </trkpt>
      <trkpt lat="45.97791" lon="2.83716">
        <ele>665.4</ele>
        <time>2021-07-11T07:14:23Z</time>
      </trkpt>
      <trkpt lat="45.97792" lon="2.83715">
        <ele>665.4</ele>
        <time>2021-07-11T07:14:24Z</time>
      </trkpt>
      <trkpt lat="45.97793" lon="2.83714">
        <ele>665.3</ele>
        <time>2021-07-11T07:14:25Z</time>
      </trkpt>
      <trkpt lat="45.97794" lon="2.83714">
        <ele>665.3</ele>
        <time>2021-07-11T07:14:26Z</time>
      </trkpt>
      <trkpt lat="45.97796" lon="2.83712">
        <ele>665.2</ele>
        <time>2021-07-11T07:14:27Z</time>
      </trkpt>
      <trkpt lat="45.97796" lon="2.83711">
        <ele>665.2</ele>
        <time>2021-07-11T07:14:28Z</time>
      </trkpt>
      <trkpt lat="45.97797" lon="2.8371">
        <ele>665.2</ele>
        <time>2021-07-11T07:14:29Z</time>
      </trkpt>
      <trkpt lat="45.97799" lon="2.83709">
        <ele>665.1</ele>
        <time>2021-07-11T07:14:30Z</time>
      </trkpt>
      <trkpt lat="45.978" lon="2.83709">
        <ele>665.1</ele>
        <time>2021-07-11T07:14:31Z</time>
      </trkpt>
      <trkpt lat="45.97802" lon="2.83708">
        <ele>665.1</ele>
        <time>2021-07-11T07:14:32Z</time>
      </trkpt>
      <trkpt lat="45.97802" lon="2.83707">
        <ele>665.1</ele>
        <time>2021-07-11T07:14:33Z</time>
      </trkpt>
      <trkpt lat="45.97804" lon="2.83706">
        <ele>665</ele>
        <time>2021-07-11T07:14:34Z</time>
      </trkpt>
      <trkpt lat="45.97805" lon="2.83705">
        <ele>665</ele>
        <time>2021-07-11T07:14:35Z</time>
      </trkpt>
      <trkpt lat="45.97807" lon="2.83704">
        <ele>665</ele>
        <time>2021-07-11T07:14:36Z</time>
      </trkpt>
      <trkpt lat="45.97808" lon="2.83703">
        <ele>665.1</ele>
        <time>2021-07-11T07:14:37Z</time>
      </trkpt>
      <trkpt lat="45.97809" lon="2.83702">
        <ele>665.1</ele>
        <time>2021-07-11T07:14:38Z</time>
      </trkpt>
      <trkpt lat="45.97811" lon="2.83701">
        <ele>665.1</ele>
        <time>2021-07-11T07:14:39Z</time>
      </trkpt>
      <trkpt lat="45.97812" lon="2.83699">
        <ele>665.1</ele>
        <time>2021-07-11T07:14:40Z</time>
      </trkpt>
      <trkpt lat="45.97813" lon="2.83698">
        <ele>665.1</ele>
        <time>2021-07-11T07:14:41Z</time>
      </trkpt>
      <trkpt lat="45.97815" lon="2.83697">
        <ele>665.1</ele>
        <time>2021-07-11T07:14:42Z</time>
      </trkpt>
      <trkpt lat="45.97817" lon="2.83696">
        <ele>665</ele>
        <time>2021-07-11T07:14:43Z</time>
      </trkpt>
      <trkpt lat="45.97817" lon="2.83695">
        <ele>665</ele>
        <time>2021-07-11T07:14:44Z</time>
      </trkpt>
      <trkpt lat="45.97819" lon="2.83694">
        <ele>665</ele>
        <time>2021-07-11T07:14:45Z</time>
      </trkpt>
      <trkpt lat="45.9782" lon="2.83693">
        <ele>664.9</ele>
        <time>2021-07-11T07:14:46Z</time>
      </trkpt>
      <trkpt lat="45.97821" lon="2.83692">
        <ele>664.8</ele>
        <time>2021-07-11T07:14:47Z</time>
      </trkpt>
      <trkpt lat="45.97822" lon="2.83691">
        <ele>664.8</ele>
        <time>2021-07-11T07:14:48Z</time>
      </trkpt>
      <trkpt lat="45.97823" lon="2.83691">
        <ele>664.8</ele>
        <time>2021-07-11T07:14:49Z</time>
      </trkpt>
      <trkpt lat="45.97825" lon="2.8369">
        <ele>664.7</ele>
        <time>2021-07-11T07:14:50Z</time>
      </trkpt>
      <trkpt lat="45.97826" lon="2.83689">
        <ele>664.6</ele>
        <time>2021-07-11T07:14:51Z</time>
      </trkpt>
      <trkpt lat="45.97827" lon="2.83688">
        <ele>664.5</ele>
        <time>2021-07-11T07:14:52Z</time>
      </trkpt>
      <trkpt lat="45.97829" lon="2.83688">
        <ele>664.5</ele>
        <time>2021-07-11T07:14:53Z</time>
      </trkpt>
      <trkpt lat="45.9783" lon="2.83687">
        <ele>664.5</ele>
        <time>2021-07-11T07:14:54Z</time>
      </trkpt>
      <trkpt lat="45.97832" lon="2.83686">
        <ele>664.4</ele>
        <time>2021-07-11T07:14:55Z</time>
      </trkpt>
      <trkpt lat="45.97833" lon="2.83685">
        <ele>664.3</ele>
        <time>2021-07-11T07:14:57Z</time>
      </trkpt>
      <trkpt lat="45.97834" lon="2.83684">
        <ele>664.3</ele>
        <time>2021-07-11T07:14:58Z</time>
      </trkpt>
      <trkpt lat="45.97838" lon="2.8368">
        <ele>664.2</ele>
        <time>2021-07-11T07:14:59Z</time>
      </trkpt>
      <trkpt lat="45.97839" lon="2.8368">
        <ele>664.3</ele>
        <time>2021-07-11T07:15:00Z</time>
      </trkpt>
      <trkpt lat="45.97839" lon="2.83679">
        <ele>664.2</ele>
        <time>2021-07-11T07:15:01Z</time>
      </trkpt>
      <trkpt lat="45.97841" lon="2.83679">
        <ele>664.3</ele>
        <time>2021-07-11T07:15:02Z</time>
      </trkpt>
      <trkpt lat="45.97842" lon="2.83677">
        <ele>664.3</ele>
        <time>2021-07-11T07:15:03Z</time>
      </trkpt>
      <trkpt lat="45.97844" lon="2.83676">
        <ele>664.3</ele>
        <time>2021-07-11T07:15:04Z</time>
      </trkpt>
      <trkpt lat="45.97845" lon="2.83675">
        <ele>664.3</ele>
        <time>2021-07-11T07:15:05Z</time>
      </trkpt>
      <trkpt lat="45.97846" lon="2.83674">
        <ele>664.3</ele>
        <time>2021-07-11T07:15:06Z</time>
      </trkpt>
      <trkpt lat="45.97847" lon="2.83673">
        <ele>664.3</ele>
        <time>2021-07-11T07:15:07Z</time>
      </trkpt>
      <trkpt lat="45.97849" lon="2.83672">
        <ele>664.4</ele>
        <time>2021-07-11T07:15:08Z</time>
      </trkpt>
      <trkpt lat="45.9785" lon="2.83671">
        <ele>664.4</ele>
        <time>2021-07-11T07:15:09Z</time>
      </trkpt>
      <trkpt lat="45.97852" lon="2.8367">
        <ele>664.5</ele>
        <time>2021-07-11T07:15:10Z</time>
      </trkpt>
      <trkpt lat="45.97853" lon="2.83669">
        <ele>664.5</ele>
        <time>2021-07-11T07:15:11Z</time>
      </trkpt>
      <trkpt lat="45.97855" lon="2.83668">
        <ele>664.6</ele>
        <time>2021-07-11T07:15:12Z</time>
      </trkpt>
      <trkpt lat="45.97856" lon="2.83667">
        <ele>664.6</ele>
        <time>2021-07-11T07:15:13Z</time>
      </trkpt>
      <trkpt lat="45.97857" lon="2.83666">
        <ele>664.6</ele>
        <time>2021-07-11T07:15:14Z</time>
      </trkpt>
      <trkpt lat="45.97858" lon="2.83665">
        <ele>664.6</ele>
        <time>2021-07-11T07:15:15Z</time>
      </trkpt>
      <trkpt lat="45.97859" lon="2.83664">
        <ele>664.6</ele>
        <time>2021-07-11T07:15:16Z</time>
      </trkpt>
      <trkpt lat="45.9786" lon="2.83662">
        <ele>664.4</ele>
        <time>2021-07-11T07:15:17Z</time>
      </trkpt>
      <trkpt lat="45.97862" lon="2.83661">
        <ele>664.4</ele>
        <time>2021-07-11T07:15:18Z</time>
      </trkpt>
      <trkpt lat="45.97863" lon="2.8366">
        <ele>664.3</ele>
        <time>2021-07-11T07:15:19Z</time>
      </trkpt>
      <trkpt lat="45.97864" lon="2.83659">
        <ele>664.2</ele>
        <time>2021-07-11T07:15:20Z</time>
      </trkpt>
      <trkpt lat="45.97865" lon="2.83658">
        <ele>664.1</ele>
        <time>2021-07-11T07:15:21Z</time>
      </trkpt>
      <trkpt lat="45.97866" lon="2.83656">
        <ele>663.9</ele>
        <time>2021-07-11T07:15:22Z</time>
      </trkpt>
      <trkpt lat="45.97868" lon="2.83655">
        <ele>663.8</ele>
        <time>2021-07-11T07:15:23Z</time>
      </trkpt>
      <trkpt lat="45.9787" lon="2.83654">
        <ele>663.8</ele>
        <time>2021-07-11T07:15:24Z</time>
      </trkpt>
      <trkpt lat="45.97871" lon="2.83653">
        <ele>663.7</ele>
        <time>2021-07-11T07:15:25Z</time>
      </trkpt>
      <trkpt lat="45.97872" lon="2.83652">
        <ele>663.6</ele>
        <time>2021-07-11T07:15:26Z</time>
      </trkpt>
      <trkpt lat="45.97874" lon="2.83651">
        <ele>663.6</ele>
        <time>2021-07-11T07:15:27Z</time>
      </trkpt>
      <trkpt lat="45.97875" lon="2.8365">
        <ele>663.5</ele>
        <time>2021-07-11T07:15:28Z</time>
      </trkpt>
      <trkpt lat="45.97876" lon="2.83648">
        <ele>663.3</ele>
        <time>2021-07-11T07:15:29Z</time>
      </trkpt>
      <trkpt lat="45.97877" lon="2.83647">
        <ele>663.3</ele>
        <time>2021-07-11T07:15:30Z</time>
      </trkpt>
      <trkpt lat="45.97878" lon="2.83645">
        <ele>663.1</ele>
        <time>2021-07-11T07:15:31Z</time>
      </trkpt>
      <trkpt lat="45.97879" lon="2.83644">
        <ele>663.1</ele>
        <time>2021-07-11T07:15:32Z</time>
      </trkpt>
      <trkpt lat="45.9788" lon="2.83642">
        <ele>662.9</ele>
        <time>2021-07-11T07:15:33Z</time>
      </trkpt>
      <trkpt lat="45.97881" lon="2.8364">
        <ele>662.8</ele>
        <time>2021-07-11T07:15:34Z</time>
      </trkpt>
      <trkpt lat="45.97881" lon="2.83639">
        <ele>662.7</ele>
        <time>2021-07-11T07:15:35Z</time>
      </trkpt>
      <trkpt lat="45.97882" lon="2.83637">
        <ele>662.7</ele>
        <time>2021-07-11T07:15:36Z</time>
      </trkpt>
      <trkpt lat="45.97882" lon="2.83635">
        <ele>662.6</ele>
        <time>2021-07-11T07:15:37Z</time>
      </trkpt>
      <trkpt lat="45.97882" lon="2.83633">
        <ele>662.5</ele>
        <time>2021-07-11T07:15:38Z</time>
      </trkpt>
      <trkpt lat="45.97882" lon="2.83632">
        <ele>662.5</ele>
        <time>2021-07-11T07:15:39Z</time>
      </trkpt>
      <trkpt lat="45.97882" lon="2.83631">
        <ele>662.5</ele>
        <time>2021-07-11T07:15:40Z</time>
      </trkpt>
      <trkpt lat="45.97881" lon="2.83629">
        <ele>662.4</ele>
        <time>2021-07-11T07:15:41Z</time>
      </trkpt>
      <trkpt lat="45.97881" lon="2.83628">
        <ele>662.3</ele>
        <time>2021-07-11T07:15:42Z</time>
      </trkpt>
      <trkpt lat="45.97881" lon="2.83628">
        <ele>662.3</ele>
        <time>2021-07-11T07:15:43Z</time>
      </trkpt>
      <trkpt lat="45.9788" lon="2.83627">
        <ele>662.3</ele>
        <time>2021-07-11T07:15:44Z</time>
      </trkpt>
      <trkpt lat="45.9788" lon="2.83626">
        <ele>662.2</ele>
        <time>2021-07-11T07:15:45Z</time>
      </trkpt>
      <trkpt lat="45.97879" lon="2.83625">
        <ele>662.1</ele>
        <time>2021-07-11T07:15:46Z</time>
      </trkpt>
      <trkpt lat="45.97879" lon="2.83624">
        <ele>662.1</ele>
        <time>2021-07-11T07:15:47Z</time>
      </trkpt>
      <trkpt lat="45.97879" lon="2.83623">
        <ele>662.1</ele>
        <time>2021-07-11T07:15:48Z</time>
      </trkpt>
      <trkpt lat="45.97878" lon="2.83623">
        <ele>662</ele>
        <time>2021-07-11T07:15:49Z</time>
      </trkpt>
      <trkpt lat="45.97878" lon="2.83622">
        <ele>662</ele>
        <time>2021-07-11T07:15:50Z</time>
      </trkpt>
      <trkpt lat="45.97878" lon="2.83621">
        <ele>662</ele>
        <time>2021-07-11T07:15:51Z</time>
      </trkpt>
      <trkpt lat="45.97878" lon="2.8362">
        <ele>661.9</ele>
        <time>2021-07-11T07:15:52Z</time>
      </trkpt>
      <trkpt lat="45.97877" lon="2.83619">
        <ele>661.9</ele>
        <time>2021-07-11T07:15:53Z</time>
      </trkpt>
      <trkpt lat="45.97877" lon="2.83618">
        <ele>661.8</ele>
        <time>2021-07-11T07:15:54Z</time>
      </trkpt>
      <trkpt lat="45.97877" lon="2.83617">
        <ele>661.8</ele>
        <time>2021-07-11T07:15:55Z</time>
      </trkpt>
      <trkpt lat="45.97876" lon="2.83616">
        <ele>661.7</ele>
        <time>2021-07-11T07:15:56Z</time>
      </trkpt>
      <trkpt lat="45.97875" lon="2.83614">
        <ele>661.6</ele>
        <time>2021-07-11T07:15:57Z</time>
      </trkpt>
      <trkpt lat="45.97875" lon="2.83613">
        <ele>661.6</ele>
        <time>2021-07-11T07:15:57Z</time>
      </trkpt>
      <trkpt lat="45.97874" lon="2.83612">
        <ele>661.5</ele>
        <time>2021-07-11T07:15:58Z</time>
      </trkpt>
      <trkpt lat="45.97874" lon="2.83611">
        <ele>661.5</ele>
        <time>2021-07-11T07:15:59Z</time>
      </trkpt>
      <trkpt lat="45.97874" lon="2.83609">
        <ele>661.3</ele>
        <time>2021-07-11T07:16:00Z</time>
      </trkpt>
      <trkpt lat="45.97873" lon="2.83608">
        <ele>661.1</ele>
        <time>2021-07-11T07:16:01Z</time>
      </trkpt>
      <trkpt lat="45.97873" lon="2.83606">
        <ele>661</ele>
        <time>2021-07-11T07:16:02Z</time>
      </trkpt>
      <trkpt lat="45.97873" lon="2.83605">
        <ele>660.9</ele>
        <time>2021-07-11T07:16:03Z</time>
      </trkpt>
      <trkpt lat="45.97872" lon="2.83603">
        <ele>660.6</ele>
        <time>2021-07-11T07:16:04Z</time>
      </trkpt>
      <trkpt lat="45.97872" lon="2.83601">
        <ele>660.4</ele>
        <time>2021-07-11T07:16:05Z</time>
      </trkpt>
      <trkpt lat="45.97872" lon="2.83599">
        <ele>660.3</ele>
        <time>2021-07-11T07:16:06Z</time>
      </trkpt>
      <trkpt lat="45.97872" lon="2.83597">
        <ele>660.1</ele>
        <time>2021-07-11T07:16:07Z</time>
      </trkpt>
      <trkpt lat="45.97872" lon="2.83595">
        <ele>659.9</ele>
        <time>2021-07-11T07:16:08Z</time>
      </trkpt>
      <trkpt lat="45.97873" lon="2.83594">
        <ele>659.8</ele>
        <time>2021-07-11T07:16:09Z</time>
      </trkpt>
      <trkpt lat="45.97873" lon="2.83592">
        <ele>659.7</ele>
        <time>2021-07-11T07:16:10Z</time>
      </trkpt>
      <trkpt lat="45.97874" lon="2.8359">
        <ele>659.5</ele>
        <time>2021-07-11T07:16:11Z</time>
      </trkpt>
      <trkpt lat="45.97874" lon="2.83588">
        <ele>659.4</ele>
        <time>2021-07-11T07:16:12Z</time>
      </trkpt>
      <trkpt lat="45.97875" lon="2.83586">
        <ele>659.2</ele>
        <time>2021-07-11T07:16:13Z</time>
      </trkpt>
      <trkpt lat="45.97875" lon="2.83585">
        <ele>659.1</ele>
        <time>2021-07-11T07:16:14Z</time>
      </trkpt>
      <trkpt lat="45.97876" lon="2.83583">
        <ele>659</ele>
        <time>2021-07-11T07:16:15Z</time>
      </trkpt>
      <trkpt lat="45.97877" lon="2.83581">
        <ele>658.8</ele>
        <time>2021-07-11T07:16:16Z</time>
      </trkpt>
      <trkpt lat="45.97878" lon="2.8358">
        <ele>658.7</ele>
        <time>2021-07-11T07:16:17Z</time>
      </trkpt>
      <trkpt lat="45.97878" lon="2.83578">
        <ele>658.4</ele>
        <time>2021-07-11T07:16:18Z</time>
      </trkpt>
      <trkpt lat="45.97879" lon="2.83576">
        <ele>658.2</ele>
        <time>2021-07-11T07:16:19Z</time>
      </trkpt>
      <trkpt lat="45.9788" lon="2.83575">
        <ele>658.2</ele>
        <time>2021-07-11T07:16:20Z</time>
      </trkpt>
      <trkpt lat="45.97881" lon="2.83573">
        <ele>657.9</ele>
        <time>2021-07-11T07:16:21Z</time>
      </trkpt>
      <trkpt lat="45.97882" lon="2.83572">
        <ele>657.9</ele>
        <time>2021-07-11T07:16:22Z</time>
      </trkpt>
      <trkpt lat="45.97883" lon="2.8357">
        <ele>657.7</ele>
        <time>2021-07-11T07:16:23Z</time>
      </trkpt>
      <trkpt lat="45.97883" lon="2.83568">
        <ele>657.4</ele>
        <time>2021-07-11T07:16:24Z</time>
      </trkpt>
      <trkpt lat="45.97884" lon="2.83566">
        <ele>657.2</ele>
        <time>2021-07-11T07:16:25Z</time>
      </trkpt>
      <trkpt lat="45.97884" lon="2.83565">
        <ele>657</ele>
        <time>2021-07-11T07:16:26Z</time>
      </trkpt>
      <trkpt lat="45.97885" lon="2.83563">
        <ele>656.8</ele>
        <time>2021-07-11T07:16:27Z</time>
      </trkpt>
      <trkpt lat="45.97886" lon="2.83561">
        <ele>656.6</ele>
        <time>2021-07-11T07:16:28Z</time>
      </trkpt>
      <trkpt lat="45.97886" lon="2.83559">
        <ele>656.3</ele>
        <time>2021-07-11T07:16:29Z</time>
      </trkpt>
      <trkpt lat="45.97887" lon="2.83557">
        <ele>656.1</ele>
        <time>2021-07-11T07:16:30Z</time>
      </trkpt>
      <trkpt lat="45.97888" lon="2.83556">
        <ele>656</ele>
        <time>2021-07-11T07:16:31Z</time>
      </trkpt>
      <trkpt lat="45.97889" lon="2.83555">
        <ele>655.9</ele>
        <time>2021-07-11T07:16:32Z</time>
      </trkpt>
      <trkpt lat="45.9789" lon="2.83553">
        <ele>655.7</ele>
        <time>2021-07-11T07:16:33Z</time>
      </trkpt>
      <trkpt lat="45.97891" lon="2.83552">
        <ele>655.6</ele>
        <time>2021-07-11T07:16:34Z</time>
      </trkpt>
      <trkpt lat="45.97892" lon="2.8355">
        <ele>655.4</ele>
        <time>2021-07-11T07:16:35Z</time>
      </trkpt>
      <trkpt lat="45.97893" lon="2.83549">
        <ele>655.4</ele>
        <time>2021-07-11T07:16:36Z</time>
      </trkpt>
      <trkpt lat="45.97893" lon="2.83547">
        <ele>655.1</ele>
        <time>2021-07-11T07:16:37Z</time>
      </trkpt>
      <trkpt lat="45.97894" lon="2.83546">
        <ele>655.1</ele>
        <time>2021-07-11T07:16:38Z</time>
      </trkpt>
      <trkpt lat="45.97895" lon="2.83545">
        <ele>655</ele>
        <time>2021-07-11T07:16:39Z</time>
      </trkpt>
      <trkpt lat="45.97896" lon="2.83543">
        <ele>654.8</ele>
        <time>2021-07-11T07:16:40Z</time>
      </trkpt>
      <trkpt lat="45.97897" lon="2.83542">
        <ele>654.8</ele>
        <time>2021-07-11T07:16:41Z</time>
      </trkpt>
      <trkpt lat="45.97899" lon="2.8354">
        <ele>654.7</ele>
        <time>2021-07-11T07:16:42Z</time>
      </trkpt>
      <trkpt lat="45.979" lon="2.83538">
        <ele>654.5</ele>
        <time>2021-07-11T07:16:43Z</time>
      </trkpt>
      <trkpt lat="45.979" lon="2.83537">
        <ele>654.4</ele>
        <time>2021-07-11T07:16:44Z</time>
      </trkpt>
      <trkpt lat="45.97901" lon="2.83535">
        <ele>654.2</ele>
        <time>2021-07-11T07:16:45Z</time>
      </trkpt>
      <trkpt lat="45.97902" lon="2.83533">
        <ele>654.1</ele>
        <time>2021-07-11T07:16:46Z</time>
      </trkpt>
      <trkpt lat="45.97902" lon="2.83532">
        <ele>654</ele>
        <time>2021-07-11T07:16:47Z</time>
      </trkpt>
      <trkpt lat="45.97903" lon="2.8353">
        <ele>653.8</ele>
        <time>2021-07-11T07:16:48Z</time>
      </trkpt>
      <trkpt lat="45.97903" lon="2.83528">
        <ele>653.6</ele>
        <time>2021-07-11T07:16:49Z</time>
      </trkpt>
      <trkpt lat="45.97904" lon="2.83527">
        <ele>653.5</ele>
        <time>2021-07-11T07:16:50Z</time>
      </trkpt>
      <trkpt lat="45.97905" lon="2.83525">
        <ele>653.3</ele>
        <time>2021-07-11T07:16:51Z</time>
      </trkpt>
      <trkpt lat="45.97906" lon="2.83523">
        <ele>653.1</ele>
        <time>2021-07-11T07:16:52Z</time>
      </trkpt>
      <trkpt lat="45.97907" lon="2.83522">
        <ele>653.1</ele>
        <time>2021-07-11T07:16:53Z</time>
      </trkpt>
      <trkpt lat="45.97908" lon="2.8352">
        <ele>652.8</ele>
        <time>2021-07-11T07:16:54Z</time>
      </trkpt>
      <trkpt lat="45.97908" lon="2.83519">
        <ele>652.7</ele>
        <time>2021-07-11T07:16:55Z</time>
      </trkpt>
      <trkpt lat="45.9791" lon="2.83518">
        <ele>652.7</ele>
        <time>2021-07-11T07:16:56Z</time>
      </trkpt>
      <trkpt lat="45.97911" lon="2.83516">
        <ele>652.4</ele>
        <time>2021-07-11T07:16:57Z</time>
      </trkpt>
      <trkpt lat="45.97911" lon="2.83515">
        <ele>652.3</ele>
        <time>2021-07-11T07:16:58Z</time>
      </trkpt>
      <trkpt lat="45.97912" lon="2.83513">
        <ele>652</ele>
        <time>2021-07-11T07:16:59Z</time>
      </trkpt>
      <trkpt lat="45.97913" lon="2.83512">
        <ele>651.9</ele>
        <time>2021-07-11T07:17:00Z</time>
      </trkpt>
      <trkpt lat="45.97914" lon="2.8351">
        <ele>651.6</ele>
        <time>2021-07-11T07:17:01Z</time>
      </trkpt>
      <trkpt lat="45.97915" lon="2.83508">
        <ele>651.3</ele>
        <time>2021-07-11T07:17:02Z</time>
      </trkpt>
      <trkpt lat="45.97916" lon="2.83506">
        <ele>651</ele>
        <time>2021-07-11T07:17:03Z</time>
      </trkpt>
      <trkpt lat="45.97916" lon="2.83504">
        <ele>650.7</ele>
        <time>2021-07-11T07:17:04Z</time>
      </trkpt>
      <trkpt lat="45.97917" lon="2.83503">
        <ele>650.6</ele>
        <time>2021-07-11T07:17:05Z</time>
      </trkpt>
      <trkpt lat="45.97918" lon="2.83501">
        <ele>650.3</ele>
        <time>2021-07-11T07:17:06Z</time>
      </trkpt>
      <trkpt lat="45.97919" lon="2.83499">
        <ele>650.1</ele>
        <time>2021-07-11T07:17:07Z</time>
      </trkpt>
      <trkpt lat="45.97919" lon="2.83497">
        <ele>649.8</ele>
        <time>2021-07-11T07:17:08Z</time>
      </trkpt>
      <trkpt lat="45.9792" lon="2.83495">
        <ele>649.7</ele>
        <time>2021-07-11T07:17:09Z</time>
      </trkpt>
      <trkpt lat="45.9792" lon="2.83494">
        <ele>649.6</ele>
        <time>2021-07-11T07:17:10Z</time>
      </trkpt>
      <trkpt lat="45.97921" lon="2.83492">
        <ele>649.4</ele>
        <time>2021-07-11T07:17:11Z</time>
      </trkpt>
      <trkpt lat="45.97922" lon="2.8349">
        <ele>649.3</ele>
        <time>2021-07-11T07:17:12Z</time>
      </trkpt>
      <trkpt lat="45.97923" lon="2.83489">
        <ele>649.3</ele>
        <time>2021-07-11T07:17:13Z</time>
      </trkpt>
      <trkpt lat="45.97924" lon="2.83487">
        <ele>649.1</ele>
        <time>2021-07-11T07:17:14Z</time>
      </trkpt>
      <trkpt lat="45.97925" lon="2.83486">
        <ele>649.1</ele>
        <time>2021-07-11T07:17:15Z</time>
      </trkpt>
      <trkpt lat="45.97926" lon="2.83484">
        <ele>648.9</ele>
        <time>2021-07-11T07:17:16Z</time>
      </trkpt>
      <trkpt lat="45.97927" lon="2.83483">
        <ele>648.9</ele>
        <time>2021-07-11T07:17:17Z</time>
      </trkpt>
      <trkpt lat="45.97929" lon="2.83481">
        <ele>648.8</ele>
        <time>2021-07-11T07:17:18Z</time>
      </trkpt>
      <trkpt lat="45.9793" lon="2.83479">
        <ele>648.7</ele>
        <time>2021-07-11T07:17:19Z</time>
      </trkpt>
      <trkpt lat="45.97931" lon="2.83477">
        <ele>648.5</ele>
        <time>2021-07-11T07:17:20Z</time>
      </trkpt>
      <trkpt lat="45.97932" lon="2.83476">
        <ele>648.5</ele>
        <time>2021-07-11T07:17:21Z</time>
      </trkpt>
      <trkpt lat="45.97934" lon="2.83474">
        <ele>648.4</ele>
        <time>2021-07-11T07:17:22Z</time>
      </trkpt>
      <trkpt lat="45.97935" lon="2.83472">
        <ele>648.3</ele>
        <time>2021-07-11T07:17:23Z</time>
      </trkpt>
      <trkpt lat="45.97936" lon="2.8347">
        <ele>648.1</ele>
        <time>2021-07-11T07:17:24Z</time>
      </trkpt>
      <trkpt lat="45.97938" lon="2.83469">
        <ele>648.1</ele>
        <time>2021-07-11T07:17:25Z</time>
      </trkpt>
      <trkpt lat="45.97939" lon="2.83468">
        <ele>648.1</ele>
        <time>2021-07-11T07:17:26Z</time>
      </trkpt>
      <trkpt lat="45.9794" lon="2.83466">
        <ele>647.9</ele>
        <time>2021-07-11T07:17:27Z</time>
      </trkpt>
      <trkpt lat="45.97941" lon="2.83465">
        <ele>647.9</ele>
        <time>2021-07-11T07:17:28Z</time>
      </trkpt>
      <trkpt lat="45.97941" lon="2.83463">
        <ele>647.7</ele>
        <time>2021-07-11T07:17:29Z</time>
      </trkpt>
      <trkpt lat="45.97942" lon="2.83462">
        <ele>647.7</ele>
        <time>2021-07-11T07:17:30Z</time>
      </trkpt>
      <trkpt lat="45.97942" lon="2.8346">
        <ele>647.4</ele>
        <time>2021-07-11T07:17:31Z</time>
      </trkpt>
      <trkpt lat="45.97943" lon="2.83458">
        <ele>647.3</ele>
        <time>2021-07-11T07:17:32Z</time>
      </trkpt>
      <trkpt lat="45.97943" lon="2.83457">
        <ele>647.2</ele>
        <time>2021-07-11T07:17:33Z</time>
      </trkpt>
      <trkpt lat="45.97944" lon="2.83456">
        <ele>647.2</ele>
        <time>2021-07-11T07:17:34Z</time>
      </trkpt>
      <trkpt lat="45.97944" lon="2.83454">
        <ele>647</ele>
        <time>2021-07-11T07:17:35Z</time>
      </trkpt>
      <trkpt lat="45.97944" lon="2.83453">
        <ele>646.9</ele>
        <time>2021-07-11T07:17:36Z</time>
      </trkpt>
      <trkpt lat="45.97944" lon="2.83452">
        <ele>646.8</ele>
        <time>2021-07-11T07:17:37Z</time>
      </trkpt>
      <trkpt lat="45.97945" lon="2.8345">
        <ele>646.7</ele>
        <time>2021-07-11T07:17:38Z</time>
      </trkpt>
      <trkpt lat="45.97945" lon="2.83448">
        <ele>646.5</ele>
        <time>2021-07-11T07:17:39Z</time>
      </trkpt>
      <trkpt lat="45.97945" lon="2.83447">
        <ele>646.4</ele>
        <time>2021-07-11T07:17:40Z</time>
      </trkpt>
      <trkpt lat="45.97946" lon="2.83445">
        <ele>646.3</ele>
        <time>2021-07-11T07:17:41Z</time>
      </trkpt>
      <trkpt lat="45.97947" lon="2.83443">
        <ele>646.2</ele>
        <time>2021-07-11T07:17:42Z</time>
      </trkpt>
      <trkpt lat="45.97947" lon="2.83441">
        <ele>646</ele>
        <time>2021-07-11T07:17:43Z</time>
      </trkpt>
      <trkpt lat="45.97947" lon="2.83439">
        <ele>645.8</ele>
        <time>2021-07-11T07:17:44Z</time>
      </trkpt>
      <trkpt lat="45.97948" lon="2.83438">
        <ele>645.8</ele>
        <time>2021-07-11T07:17:45Z</time>
      </trkpt>
      <trkpt lat="45.97948" lon="2.83436">
        <ele>645.6</ele>
        <time>2021-07-11T07:17:46Z</time>
      </trkpt>
      <trkpt lat="45.97948" lon="2.83434">
        <ele>645.4</ele>
        <time>2021-07-11T07:17:47Z</time>
      </trkpt>
      <trkpt lat="45.97949" lon="2.83432">
        <ele>645.3</ele>
        <time>2021-07-11T07:17:48Z</time>
      </trkpt>
      <trkpt lat="45.97949" lon="2.8343">
        <ele>645.1</ele>
        <time>2021-07-11T07:17:49Z</time>
      </trkpt>
      <trkpt lat="45.9795" lon="2.83428">
        <ele>645</ele>
        <time>2021-07-11T07:17:50Z</time>
      </trkpt>
      <trkpt lat="45.9795" lon="2.83427">
        <ele>644.9</ele>
        <time>2021-07-11T07:17:51Z</time>
      </trkpt>
      <trkpt lat="45.9795" lon="2.83425">
        <ele>644.7</ele>
        <time>2021-07-11T07:17:52Z</time>
      </trkpt>
      <trkpt lat="45.9795" lon="2.83423">
        <ele>644.5</ele>
        <time>2021-07-11T07:17:53Z</time>
      </trkpt>
      <trkpt lat="45.9795" lon="2.83421">
        <ele>644.3</ele>
        <time>2021-07-11T07:17:54Z</time>
      </trkpt>
      <trkpt lat="45.9795" lon="2.8342">
        <ele>644.2</ele>
        <time>2021-07-11T07:17:56Z</time>
      </trkpt>
      <trkpt lat="45.9795" lon="2.83418">
        <ele>643.9</ele>
        <time>2021-07-11T07:17:57Z</time>
      </trkpt>
      <trkpt lat="45.9795" lon="2.83412">
        <ele>643.2</ele>
        <time>2021-07-11T07:17:58Z</time>
      </trkpt>
      <trkpt lat="45.9795" lon="2.83412">
        <ele>643.2</ele>
        <time>2021-07-11T07:17:59Z</time>
      </trkpt>
      <trkpt lat="45.9795" lon="2.83411">
        <ele>643</ele>
        <time>2021-07-11T07:18:00Z</time>
      </trkpt>
      <trkpt lat="45.9795" lon="2.8341">
        <ele>642.9</ele>
        <time>2021-07-11T07:18:01Z</time>
      </trkpt>
      <trkpt lat="45.9795" lon="2.83408">
        <ele>642.6</ele>
        <time>2021-07-11T07:18:02Z</time>
      </trkpt>
      <trkpt lat="45.9795" lon="2.83407">
        <ele>642.5</ele>
        <time>2021-07-11T07:18:03Z</time>
      </trkpt>
      <trkpt lat="45.9795" lon="2.83405">
        <ele>642.2</ele>
        <time>2021-07-11T07:18:04Z</time>
      </trkpt>
      <trkpt lat="45.9795" lon="2.83403">
        <ele>641.9</ele>
        <time>2021-07-11T07:18:05Z</time>
      </trkpt>
      <trkpt lat="45.9795" lon="2.83402">
        <ele>641.8</ele>
        <time>2021-07-11T07:18:06Z</time>
      </trkpt>
      <trkpt lat="45.9795" lon="2.83401">
        <ele>641.7</ele>
        <time>2021-07-11T07:18:07Z</time>
      </trkpt>
      <trkpt lat="45.97951" lon="2.83399">
        <ele>641.6</ele>
        <time>2021-07-11T07:18:08Z</time>
      </trkpt>
      <trkpt lat="45.97951" lon="2.83397">
        <ele>641.3</ele>
        <time>2021-07-11T07:18:09Z</time>
      </trkpt>
      <trkpt lat="45.97952" lon="2.83396">
        <ele>641.3</ele>
        <time>2021-07-11T07:18:10Z</time>
      </trkpt>
      <trkpt lat="45.97952" lon="2.83394">
        <ele>641</ele>
        <time>2021-07-11T07:18:11Z</time>
      </trkpt>
      <trkpt lat="45.97952" lon="2.83392">
        <ele>640.8</ele>
        <time>2021-07-11T07:18:12Z</time>
      </trkpt>
      <trkpt lat="45.97952" lon="2.8339">
        <ele>640.5</ele>
        <time>2021-07-11T07:18:13Z</time>
      </trkpt>
      <trkpt lat="45.97952" lon="2.83389">
        <ele>640.4</ele>
        <time>2021-07-11T07:18:14Z</time>
      </trkpt>
      <trkpt lat="45.97953" lon="2.83387">
        <ele>640.2</ele>
        <time>2021-07-11T07:18:15Z</time>
      </trkpt>
      <trkpt lat="45.97953" lon="2.83385">
        <ele>639.8</ele>
        <time>2021-07-11T07:18:16Z</time>
      </trkpt>
      <trkpt lat="45.97953" lon="2.83383">
        <ele>639.5</ele>
        <time>2021-07-11T07:18:17Z</time>
      </trkpt>
      <trkpt lat="45.97953" lon="2.83381">
        <ele>639.1</ele>
        <time>2021-07-11T07:18:18Z</time>
      </trkpt>
      <trkpt lat="45.97955" lon="2.83379">
        <ele>639.1</ele>
        <time>2021-07-11T07:18:19Z</time>
      </trkpt>
      <trkpt lat="45.97955" lon="2.83377">
        <ele>638.8</ele>
        <time>2021-07-11T07:18:20Z</time>
      </trkpt>
      <trkpt lat="45.97956" lon="2.83376">
        <ele>638.8</ele>
        <time>2021-07-11T07:18:21Z</time>
      </trkpt>
      <trkpt lat="45.97956" lon="2.83374">
        <ele>638.4</ele>
        <time>2021-07-11T07:18:22Z</time>
      </trkpt>
      <trkpt lat="45.97957" lon="2.83372">
        <ele>638.2</ele>
        <time>2021-07-11T07:18:23Z</time>
      </trkpt>
      <trkpt lat="45.97958" lon="2.8337">
        <ele>638</ele>
        <time>2021-07-11T07:18:24Z</time>
      </trkpt>
      <trkpt lat="45.97958" lon="2.83369">
        <ele>637.9</ele>
        <time>2021-07-11T07:18:25Z</time>
      </trkpt>
      <trkpt lat="45.97959" lon="2.83367">
        <ele>637.7</ele>
        <time>2021-07-11T07:18:26Z</time>
      </trkpt>
      <trkpt lat="45.9796" lon="2.83365">
        <ele>637.5</ele>
        <time>2021-07-11T07:18:27Z</time>
      </trkpt>
      <trkpt lat="45.9796" lon="2.83363">
        <ele>637.1</ele>
        <time>2021-07-11T07:18:28Z</time>
      </trkpt>
      <trkpt lat="45.97961" lon="2.83361">
        <ele>637</ele>
        <time>2021-07-11T07:18:29Z</time>
      </trkpt>
      <trkpt lat="45.97961" lon="2.83359">
        <ele>636.5</ele>
        <time>2021-07-11T07:18:30Z</time>
      </trkpt>
      <trkpt lat="45.97962" lon="2.83357">
        <ele>636.3</ele>
        <time>2021-07-11T07:18:31Z</time>
      </trkpt>
      <trkpt lat="45.97963" lon="2.83355">
        <ele>636</ele>
        <time>2021-07-11T07:18:32Z</time>
      </trkpt>
      <trkpt lat="45.97964" lon="2.83353">
        <ele>635.8</ele>
        <time>2021-07-11T07:18:33Z</time>
      </trkpt>
      <trkpt lat="45.97965" lon="2.83351">
        <ele>635.5</ele>
        <time>2021-07-11T07:18:34Z</time>
      </trkpt>
      <trkpt lat="45.97965" lon="2.83349">
        <ele>635.1</ele>
        <time>2021-07-11T07:18:35Z</time>
      </trkpt>
      <trkpt lat="45.97966" lon="2.83347">
        <ele>634.8</ele>
        <time>2021-07-11T07:18:36Z</time>
      </trkpt>
      <trkpt lat="45.97967" lon="2.83345">
        <ele>634.6</ele>
        <time>2021-07-11T07:18:37Z</time>
      </trkpt>
      <trkpt lat="45.97968" lon="2.83343">
        <ele>634.3</ele>
        <time>2021-07-11T07:18:38Z</time>
      </trkpt>
      <trkpt lat="45.97968" lon="2.83341">
        <ele>633.9</ele>
        <time>2021-07-11T07:18:39Z</time>
      </trkpt>
      <trkpt lat="45.97969" lon="2.8334">
        <ele>633.9</ele>
        <time>2021-07-11T07:18:40Z</time>
      </trkpt>
      <trkpt lat="45.9797" lon="2.83338">
        <ele>633.6</ele>
        <time>2021-07-11T07:18:41Z</time>
      </trkpt>
      <trkpt lat="45.97971" lon="2.83336">
        <ele>633.4</ele>
        <time>2021-07-11T07:18:42Z</time>
      </trkpt>
      <trkpt lat="45.97971" lon="2.83335">
        <ele>633.1</ele>
        <time>2021-07-11T07:18:43Z</time>
      </trkpt>
      <trkpt lat="45.97971" lon="2.83333">
        <ele>632.7</ele>
        <time>2021-07-11T07:18:44Z</time>
      </trkpt>
      <trkpt lat="45.97973" lon="2.83331">
        <ele>632.6</ele>
        <time>2021-07-11T07:18:45Z</time>
      </trkpt>
      <trkpt lat="45.97974" lon="2.8333">
        <ele>632.5</ele>
        <time>2021-07-11T07:18:46Z</time>
      </trkpt>
      <trkpt lat="45.97974" lon="2.83329">
        <ele>632.3</ele>
        <time>2021-07-11T07:18:47Z</time>
      </trkpt>
      <trkpt lat="45.97975" lon="2.83328">
        <ele>632.2</ele>
        <time>2021-07-11T07:18:48Z</time>
      </trkpt>
      <trkpt lat="45.97976" lon="2.83326">
        <ele>632</ele>
        <time>2021-07-11T07:18:49Z</time>
      </trkpt>
      <trkpt lat="45.97977" lon="2.83325">
        <ele>631.9</ele>
        <time>2021-07-11T07:18:50Z</time>
      </trkpt>
      <trkpt lat="45.97978" lon="2.83324">
        <ele>631.8</ele>
        <time>2021-07-11T07:18:51Z</time>
      </trkpt>
      <trkpt lat="45.97979" lon="2.83323">
        <ele>631.7</ele>
        <time>2021-07-11T07:18:52Z</time>
      </trkpt>
      <trkpt lat="45.9798" lon="2.83321">
        <ele>631.5</ele>
        <time>2021-07-11T07:18:53Z</time>
      </trkpt>
      <trkpt lat="45.97981" lon="2.8332">
        <ele>631.4</ele>
        <time>2021-07-11T07:18:54Z</time>
      </trkpt>
      <trkpt lat="45.97982" lon="2.83319">
        <ele>631.3</ele>
        <time>2021-07-11T07:18:56Z</time>
      </trkpt>
      <trkpt lat="45.97985" lon="2.83314">
        <ele>630.7</ele>
        <time>2021-07-11T07:18:57Z</time>
      </trkpt>
      <trkpt lat="45.97985" lon="2.83314">
        <ele>630.7</ele>
        <time>2021-07-11T07:18:58Z</time>
      </trkpt>
      <trkpt lat="45.97985" lon="2.83313">
        <ele>630.4</ele>
        <time>2021-07-11T07:18:59Z</time>
      </trkpt>
      <trkpt lat="45.97986" lon="2.83312">
        <ele>630.4</ele>
        <time>2021-07-11T07:19:00Z</time>
      </trkpt>
      <trkpt lat="45.97986" lon="2.83312">
        <ele>630.4</ele>
        <time>2021-07-11T07:19:01Z</time>
      </trkpt>
      <trkpt lat="45.97986" lon="2.83311">
        <ele>630.2</ele>
        <time>2021-07-11T07:19:02Z</time>
      </trkpt>
      <trkpt lat="45.97986" lon="2.83309">
        <ele>629.7</ele>
        <time>2021-07-11T07:19:03Z</time>
      </trkpt>
      <trkpt lat="45.97986" lon="2.83308">
        <ele>629.5</ele>
        <time>2021-07-11T07:19:04Z</time>
      </trkpt>
      <trkpt lat="45.97987" lon="2.83306">
        <ele>629.2</ele>
        <time>2021-07-11T07:19:05Z</time>
      </trkpt>
      <trkpt lat="45.97987" lon="2.83305">
        <ele>629</ele>
        <time>2021-07-11T07:19:06Z</time>
      </trkpt>
      <trkpt lat="45.97988" lon="2.83302">
        <ele>628.6</ele>
        <time>2021-07-11T07:19:07Z</time>
      </trkpt>
      <trkpt lat="45.97988" lon="2.833">
        <ele>628.3</ele>
        <time>2021-07-11T07:19:08Z</time>
      </trkpt>
      <trkpt lat="45.97989" lon="2.83297">
        <ele>627.9</ele>
        <time>2021-07-11T07:19:09Z</time>
      </trkpt>
      <trkpt lat="45.97989" lon="2.83295">
        <ele>627.6</ele>
        <time>2021-07-11T07:19:10Z</time>
      </trkpt>
      <trkpt lat="45.97989" lon="2.83293">
        <ele>627.3</ele>
        <time>2021-07-11T07:19:11Z</time>
      </trkpt>
      <trkpt lat="45.9799" lon="2.83291">
        <ele>627.1</ele>
        <time>2021-07-11T07:19:12Z</time>
      </trkpt>
      <trkpt lat="45.9799" lon="2.83289">
        <ele>626.7</ele>
        <time>2021-07-11T07:19:13Z</time>
      </trkpt>
      <trkpt lat="45.97991" lon="2.83287">
        <ele>626.6</ele>
        <time>2021-07-11T07:19:14Z</time>
      </trkpt>
      <trkpt lat="45.97992" lon="2.83285">
        <ele>626.5</ele>
        <time>2021-07-11T07:19:15Z</time>
      </trkpt>
      <trkpt lat="45.97992" lon="2.83283">
        <ele>626.1</ele>
        <time>2021-07-11T07:19:16Z</time>
      </trkpt>
      <trkpt lat="45.97993" lon="2.83282">
        <ele>626.2</ele>
        <time>2021-07-11T07:19:17Z</time>
      </trkpt>
      <trkpt lat="45.97994" lon="2.8328">
        <ele>626.1</ele>
        <time>2021-07-11T07:19:18Z</time>
      </trkpt>
      <trkpt lat="45.97994" lon="2.83278">
        <ele>625.7</ele>
        <time>2021-07-11T07:19:19Z</time>
      </trkpt>
      <trkpt lat="45.97995" lon="2.83276">
        <ele>625.7</ele>
        <time>2021-07-11T07:19:20Z</time>
      </trkpt>
      <trkpt lat="45.97995" lon="2.83274">
        <ele>625.4</ele>
        <time>2021-07-11T07:19:21Z</time>
      </trkpt>
      <trkpt lat="45.97997" lon="2.83273">
        <ele>625.6</ele>
        <time>2021-07-11T07:19:22Z</time>
      </trkpt>
      <trkpt lat="45.97998" lon="2.83271">
        <ele>625.6</ele>
        <time>2021-07-11T07:19:23Z</time>
      </trkpt>
      <trkpt lat="45.97998" lon="2.83269">
        <ele>625.3</ele>
        <time>2021-07-11T07:19:24Z</time>
      </trkpt>
      <trkpt lat="45.97999" lon="2.83268">
        <ele>625.4</ele>
        <time>2021-07-11T07:19:25Z</time>
      </trkpt>
      <trkpt lat="45.98" lon="2.83266">
        <ele>625.3</ele>
        <time>2021-07-11T07:19:26Z</time>
      </trkpt>
      <trkpt lat="45.98001" lon="2.83264">
        <ele>625.2</ele>
        <time>2021-07-11T07:19:27Z</time>
      </trkpt>
      <trkpt lat="45.98002" lon="2.83262">
        <ele>625.1</ele>
        <time>2021-07-11T07:19:28Z</time>
      </trkpt>
      <trkpt lat="45.98003" lon="2.8326">
        <ele>625</ele>
        <time>2021-07-11T07:19:29Z</time>
      </trkpt>
      <trkpt lat="45.98004" lon="2.83258">
        <ele>624.9</ele>
        <time>2021-07-11T07:19:30Z</time>
      </trkpt>
      <trkpt lat="45.98005" lon="2.83257">
        <ele>624.9</ele>
        <time>2021-07-11T07:19:31Z</time>
      </trkpt>
      <trkpt lat="45.98006" lon="2.83255">
        <ele>624.8</ele>
        <time>2021-07-11T07:19:32Z</time>
      </trkpt>
      <trkpt lat="45.98007" lon="2.83253">
        <ele>624.7</ele>
        <time>2021-07-11T07:19:33Z</time>
      </trkpt>
      <trkpt lat="45.98008" lon="2.83251">
        <ele>624.6</ele>
        <time>2021-07-11T07:19:34Z</time>
      </trkpt>
      <trkpt lat="45.98008" lon="2.83248">
        <ele>624.1</ele>
        <time>2021-07-11T07:19:35Z</time>
      </trkpt>
      <trkpt lat="45.9801" lon="2.83246">
        <ele>624.1</ele>
        <time>2021-07-11T07:19:36Z</time>
      </trkpt>
      <trkpt lat="45.9801" lon="2.83244">
        <ele>623.8</ele>
        <time>2021-07-11T07:19:37Z</time>
      </trkpt>
      <trkpt lat="45.9801" lon="2.83242">
        <ele>623.5</ele>
        <time>2021-07-11T07:19:38Z</time>
      </trkpt>
      <trkpt lat="45.98011" lon="2.8324">
        <ele>623.3</ele>
        <time>2021-07-11T07:19:39Z</time>
      </trkpt>
      <trkpt lat="45.98012" lon="2.83239">
        <ele>623.4</ele>
        <time>2021-07-11T07:19:40Z</time>
      </trkpt>
      <trkpt lat="45.98013" lon="2.83237">
        <ele>623.2</ele>
        <time>2021-07-11T07:19:41Z</time>
      </trkpt>
      <trkpt lat="45.98013" lon="2.83236">
        <ele>623.1</ele>
        <time>2021-07-11T07:19:42Z</time>
      </trkpt>
      <trkpt lat="45.98015" lon="2.83234">
        <ele>623.1</ele>
        <time>2021-07-11T07:19:43Z</time>
      </trkpt>
      <trkpt lat="45.98016" lon="2.83232">
        <ele>623</ele>
        <time>2021-07-11T07:19:44Z</time>
      </trkpt>
      <trkpt lat="45.98016" lon="2.8323">
        <ele>622.7</ele>
        <time>2021-07-11T07:19:45Z</time>
      </trkpt>
      <trkpt lat="45.98018" lon="2.83229">
        <ele>622.9</ele>
        <time>2021-07-11T07:19:46Z</time>
      </trkpt>
      <trkpt lat="45.98018" lon="2.83227">
        <ele>622.6</ele>
        <time>2021-07-11T07:19:47Z</time>
      </trkpt>
      <trkpt lat="45.98019" lon="2.83224">
        <ele>622.4</ele>
        <time>2021-07-11T07:19:48Z</time>
      </trkpt>
      <trkpt lat="45.9802" lon="2.83222">
        <ele>622.3</ele>
        <time>2021-07-11T07:19:49Z</time>
      </trkpt>
      <trkpt lat="45.98021" lon="2.8322">
        <ele>622.4</ele>
        <time>2021-07-11T07:19:50Z</time>
      </trkpt>
      <trkpt lat="45.98022" lon="2.83218">
        <ele>622.4</ele>
        <time>2021-07-11T07:19:51Z</time>
      </trkpt>
      <trkpt lat="45.98023" lon="2.83215">
        <ele>622.4</ele>
        <time>2021-07-11T07:19:52Z</time>
      </trkpt>
      <trkpt lat="45.98024" lon="2.83213">
        <ele>622.5</ele>
        <time>2021-07-11T07:19:53Z</time>
      </trkpt>
      <trkpt lat="45.98024" lon="2.8321">
        <ele>622.2</ele>
        <time>2021-07-11T07:19:54Z</time>
      </trkpt>
      <trkpt lat="45.98025" lon="2.83207">
        <ele>622.2</ele>
        <time>2021-07-11T07:19:55Z</time>
      </trkpt>
      <trkpt lat="45.98026" lon="2.83205">
        <ele>622.3</ele>
        <time>2021-07-11T07:19:57Z</time>
      </trkpt>
      <trkpt lat="45.98029" lon="2.83195">
        <ele>622.3</ele>
        <time>2021-07-11T07:19:58Z</time>
      </trkpt>
      <trkpt lat="45.98029" lon="2.83195">
        <ele>622.3</ele>
        <time>2021-07-11T07:19:59Z</time>
      </trkpt>
      <trkpt lat="45.98029" lon="2.83194">
        <ele>622.2</ele>
        <time>2021-07-11T07:20:00Z</time>
      </trkpt>
      <trkpt lat="45.9803" lon="2.83193">
        <ele>622.2</ele>
        <time>2021-07-11T07:20:01Z</time>
      </trkpt>
      <trkpt lat="45.9803" lon="2.83192">
        <ele>622.1</ele>
        <time>2021-07-11T07:20:02Z</time>
      </trkpt>
      <trkpt lat="45.98031" lon="2.83191">
        <ele>622.2</ele>
        <time>2021-07-11T07:20:03Z</time>
      </trkpt>
      <trkpt lat="45.9803" lon="2.8319">
        <ele>621.9</ele>
        <time>2021-07-11T07:20:04Z</time>
      </trkpt>
      <trkpt lat="45.9803" lon="2.83189">
        <ele>621.8</ele>
        <time>2021-07-11T07:20:05Z</time>
      </trkpt>
      <trkpt lat="45.98031" lon="2.83188">
        <ele>621.9</ele>
        <time>2021-07-11T07:20:06Z</time>
      </trkpt>
      <trkpt lat="45.98031" lon="2.83187">
        <ele>621.8</ele>
        <time>2021-07-11T07:20:07Z</time>
      </trkpt>
      <trkpt lat="45.98031" lon="2.83185">
        <ele>621.6</ele>
        <time>2021-07-11T07:20:08Z</time>
      </trkpt>
      <trkpt lat="45.98031" lon="2.83184">
        <ele>621.5</ele>
        <time>2021-07-11T07:20:09Z</time>
      </trkpt>
      <trkpt lat="45.98031" lon="2.83183">
        <ele>621.3</ele>
        <time>2021-07-11T07:20:10Z</time>
      </trkpt>
      <trkpt lat="45.98031" lon="2.83182">
        <ele>621.2</ele>
        <time>2021-07-11T07:20:11Z</time>
      </trkpt>
      <trkpt lat="45.98031" lon="2.83181">
        <ele>621.1</ele>
        <time>2021-07-11T07:20:12Z</time>
      </trkpt>
      <trkpt lat="45.98031" lon="2.83181">
        <ele>621.1</ele>
        <time>2021-07-11T07:20:12Z</time>
      </trkpt>
      <trkpt lat="45.98031" lon="2.8318">
        <ele>621</ele>
        <time>2021-07-11T07:20:13Z</time>
      </trkpt>
      <trkpt lat="45.98031" lon="2.83179">
        <ele>620.9</ele>
        <time>2021-07-11T07:20:14Z</time>
      </trkpt>
      <trkpt lat="45.98031" lon="2.83178">
        <ele>620.8</ele>
        <time>2021-07-11T07:20:15Z</time>
      </trkpt>
      <trkpt lat="45.98031" lon="2.83177">
        <ele>620.7</ele>
        <time>2021-07-11T07:20:16Z</time>
      </trkpt>
      <trkpt lat="45.98031" lon="2.83177">
        <ele>620.7</ele>
        <time>2021-07-11T07:20:17Z</time>
      </trkpt>
      <trkpt lat="45.98031" lon="2.83176">
        <ele>620.6</ele>
        <time>2021-07-11T07:20:18Z</time>
      </trkpt>
      <trkpt lat="45.9803" lon="2.83175">
        <ele>620.3</ele>
        <time>2021-07-11T07:20:19Z</time>
      </trkpt>
      <trkpt lat="45.9803" lon="2.83173">
        <ele>620.1</ele>
        <time>2021-07-11T07:20:20Z</time>
      </trkpt>
      <trkpt lat="45.98029" lon="2.83172">
        <ele>619.8</ele>
        <time>2021-07-11T07:20:21Z</time>
      </trkpt>
      <trkpt lat="45.98029" lon="2.83171">
        <ele>619.7</ele>
        <time>2021-07-11T07:20:22Z</time>
      </trkpt>
      <trkpt lat="45.98028" lon="2.83169">
        <ele>619.3</ele>
        <time>2021-07-11T07:20:23Z</time>
      </trkpt>
      <trkpt lat="45.98028" lon="2.83168">
        <ele>619.2</ele>
        <time>2021-07-11T07:20:24Z</time>
      </trkpt>
      <trkpt lat="45.98027" lon="2.83167">
        <ele>618.9</ele>
        <time>2021-07-11T07:20:25Z</time>
      </trkpt>
      <trkpt lat="45.98026" lon="2.83166">
        <ele>618.5</ele>
        <time>2021-07-11T07:20:26Z</time>
      </trkpt>
      <trkpt lat="45.98025" lon="2.83166">
        <ele>618.3</ele>
        <time>2021-07-11T07:20:27Z</time>
      </trkpt>
      <trkpt lat="45.98024" lon="2.83165">
        <ele>618</ele>
        <time>2021-07-11T07:20:28Z</time>
      </trkpt>
      <trkpt lat="45.98022" lon="2.83165">
        <ele>617.5</ele>
        <time>2021-07-11T07:20:29Z</time>
      </trkpt>
      <trkpt lat="45.98021" lon="2.83164">
        <ele>617.2</ele>
        <time>2021-07-11T07:20:30Z</time>
      </trkpt>
      <trkpt lat="45.98021" lon="2.83164">
        <ele>617.2</ele>
        <time>2021-07-11T07:20:31Z</time>
      </trkpt>
      <trkpt lat="45.98019" lon="2.83164">
        <ele>616.8</ele>
        <time>2021-07-11T07:20:32Z</time>
      </trkpt>
      <trkpt lat="45.98019" lon="2.83163">
        <ele>616.6</ele>
        <time>2021-07-11T07:20:33Z</time>
      </trkpt>
      <trkpt lat="45.98018" lon="2.83163">
        <ele>616.4</ele>
        <time>2021-07-11T07:20:34Z</time>
      </trkpt>
      <trkpt lat="45.98018" lon="2.83163">
        <ele>616.4</ele>
        <time>2021-07-11T07:20:35Z</time>
      </trkpt>
      <trkpt lat="45.98017" lon="2.83162">
        <ele>616.1</ele>
        <time>2021-07-11T07:20:36Z</time>
      </trkpt>
      <trkpt lat="45.98016" lon="2.83162">
        <ele>615.9</ele>
        <time>2021-07-11T07:20:37Z</time>
      </trkpt>
      <trkpt lat="45.98016" lon="2.83162">
        <ele>615.9</ele>
        <time>2021-07-11T07:20:38Z</time>
      </trkpt>
      <trkpt lat="45.98016" lon="2.83161">
        <ele>615.7</ele>
        <time>2021-07-11T07:20:39Z</time>
      </trkpt>
      <trkpt lat="45.98016" lon="2.8316">
        <ele>615.6</ele>
        <time>2021-07-11T07:20:40Z</time>
      </trkpt>
      <trkpt lat="45.98015" lon="2.83159">
        <ele>615.3</ele>
        <time>2021-07-11T07:20:41Z</time>
      </trkpt>
      <trkpt lat="45.98015" lon="2.83159">
        <ele>615.3</ele>
        <time>2021-07-11T07:20:42Z</time>
      </trkpt>
      <trkpt lat="45.98013" lon="2.83156">
        <ele>614.5</ele>
        <time>2021-07-11T07:20:44Z</time>
      </trkpt>
      <trkpt lat="45.98013" lon="2.83156">
        <ele>614.5</ele>
        <time>2021-07-11T07:20:45Z</time>
      </trkpt>
      <trkpt lat="45.98013" lon="2.83155">
        <ele>614.4</ele>
        <time>2021-07-11T07:20:46Z</time>
      </trkpt>
      <trkpt lat="45.98013" lon="2.83155">
        <ele>614.4</ele>
        <time>2021-07-11T07:20:47Z</time>
      </trkpt>
      <trkpt lat="45.98012" lon="2.83154">
        <ele>614</ele>
        <time>2021-07-11T07:20:48Z</time>
      </trkpt>
      <trkpt lat="45.98012" lon="2.83153">
        <ele>613.9</ele>
        <time>2021-07-11T07:20:49Z</time>
      </trkpt>
      <trkpt lat="45.98011" lon="2.83153">
        <ele>613.7</ele>
        <time>2021-07-11T07:20:50Z</time>
      </trkpt>
      <trkpt lat="45.98011" lon="2.83152">
        <ele>613.6</ele>
        <time>2021-07-11T07:20:51Z</time>
      </trkpt>
      <trkpt lat="45.98008" lon="2.8315">
        <ele>612.8</ele>
        <time>2021-07-11T07:20:54Z</time>
      </trkpt>
      <trkpt lat="45.98008" lon="2.8315">
        <ele>612.8</ele>
        <time>2021-07-11T07:20:55Z</time>
      </trkpt>
      <trkpt lat="45.98008" lon="2.83149">
        <ele>612.6</ele>
        <time>2021-07-11T07:20:56Z</time>
      </trkpt>
      <trkpt lat="45.98007" lon="2.83149">
        <ele>612.4</ele>
        <time>2021-07-11T07:20:57Z</time>
      </trkpt>
      <trkpt lat="45.98007" lon="2.83148">
        <ele>612.3</ele>
        <time>2021-07-11T07:20:58Z</time>
      </trkpt>
      <trkpt lat="45.98006" lon="2.83148">
        <ele>612.1</ele>
        <time>2021-07-11T07:20:59Z</time>
      </trkpt>
      <trkpt lat="45.98005" lon="2.83148">
        <ele>611.9</ele>
        <time>2021-07-11T07:21:00Z</time>
      </trkpt>
      <trkpt lat="45.98005" lon="2.83147">
        <ele>611.8</ele>
        <time>2021-07-11T07:21:01Z</time>
      </trkpt>
      <trkpt lat="45.98004" lon="2.83147">
        <ele>611.6</ele>
        <time>2021-07-11T07:21:02Z</time>
      </trkpt>
      <trkpt lat="45.98004" lon="2.83146">
        <ele>611.5</ele>
        <time>2021-07-11T07:21:03Z</time>
      </trkpt>
      <trkpt lat="45.98004" lon="2.83146">
        <ele>611.5</ele>
        <time>2021-07-11T07:21:04Z</time>
      </trkpt>
      <trkpt lat="45.98003" lon="2.83146">
        <ele>611.3</ele>
        <time>2021-07-11T07:21:05Z</time>
      </trkpt>
      <trkpt lat="45.98003" lon="2.83145">
        <ele>611.2</ele>
        <time>2021-07-11T07:21:06Z</time>
      </trkpt>
      <trkpt lat="45.98002" lon="2.83145">
        <ele>611</ele>
        <time>2021-07-11T07:21:07Z</time>
      </trkpt>
      <trkpt lat="45.98002" lon="2.83144">
        <ele>610.9</ele>
        <time>2021-07-11T07:21:08Z</time>
      </trkpt>
      <trkpt lat="45.98001" lon="2.83144">
        <ele>610.7</ele>
        <time>2021-07-11T07:21:09Z</time>
      </trkpt>
      <trkpt lat="45.98001" lon="2.83143">
        <ele>610.6</ele>
        <time>2021-07-11T07:21:10Z</time>
      </trkpt>
      <trkpt lat="45.98" lon="2.83143">
        <ele>610.4</ele>
        <time>2021-07-11T07:21:11Z</time>
      </trkpt>
      <trkpt lat="45.98" lon="2.83143">
        <ele>610.4</ele>
        <time>2021-07-11T07:21:12Z</time>
      </trkpt>
      <trkpt lat="45.97999" lon="2.83142">
        <ele>610</ele>
        <time>2021-07-11T07:21:13Z</time>
      </trkpt>
      <trkpt lat="45.97998" lon="2.83142">
        <ele>609.7</ele>
        <time>2021-07-11T07:21:14Z</time>
      </trkpt>
      <trkpt lat="45.97998" lon="2.83142">
        <ele>609.7</ele>
        <time>2021-07-11T07:21:15Z</time>
      </trkpt>
      <trkpt lat="45.97997" lon="2.83142">
        <ele>609.4</ele>
        <time>2021-07-11T07:21:16Z</time>
      </trkpt>
      <trkpt lat="45.97997" lon="2.83142">
        <ele>609.4</ele>
        <time>2021-07-11T07:21:17Z</time>
      </trkpt>
      <trkpt lat="45.97996" lon="2.83142">
        <ele>609</ele>
        <time>2021-07-11T07:21:18Z</time>
      </trkpt>
      <trkpt lat="45.97995" lon="2.83142">
        <ele>608.7</ele>
        <time>2021-07-11T07:21:19Z</time>
      </trkpt>
      <trkpt lat="45.97995" lon="2.83143">
        <ele>608.8</ele>
        <time>2021-07-11T07:21:20Z</time>
      </trkpt>
      <trkpt lat="45.97995" lon="2.83143">
        <ele>608.8</ele>
        <time>2021-07-11T07:21:21Z</time>
      </trkpt>
      <trkpt lat="45.97994" lon="2.83144">
        <ele>608.6</ele>
        <time>2021-07-11T07:21:22Z</time>
      </trkpt>
      <trkpt lat="45.97994" lon="2.83144">
        <ele>608.6</ele>
        <time>2021-07-11T07:21:23Z</time>
      </trkpt>
      <trkpt lat="45.97993" lon="2.83145">
        <ele>608.3</ele>
        <time>2021-07-11T07:21:24Z</time>
      </trkpt>
      <trkpt lat="45.97992" lon="2.83146">
        <ele>608.1</ele>
        <time>2021-07-11T07:21:25Z</time>
      </trkpt>
      <trkpt lat="45.97992" lon="2.83147">
        <ele>608.2</ele>
        <time>2021-07-11T07:21:26Z</time>
      </trkpt>
      <trkpt lat="45.9799" lon="2.83148">
        <ele>607.6</ele>
        <time>2021-07-11T07:21:27Z</time>
      </trkpt>
      <trkpt lat="45.9799" lon="2.83149">
        <ele>607.7</ele>
        <time>2021-07-11T07:21:28Z</time>
      </trkpt>
      <trkpt lat="45.97989" lon="2.8315">
        <ele>607.5</ele>
        <time>2021-07-11T07:21:29Z</time>
      </trkpt>
      <trkpt lat="45.97988" lon="2.83151">
        <ele>607.2</ele>
        <time>2021-07-11T07:21:30Z</time>
      </trkpt>
      <trkpt lat="45.97987" lon="2.83152">
        <ele>607</ele>
        <time>2021-07-11T07:21:31Z</time>
      </trkpt>
      <trkpt lat="45.97986" lon="2.83153">
        <ele>606.7</ele>
        <time>2021-07-11T07:21:32Z</time>
      </trkpt>
      <trkpt lat="45.97986" lon="2.83155">
        <ele>606.9</ele>
        <time>2021-07-11T07:21:33Z</time>
      </trkpt>
      <trkpt lat="45.97984" lon="2.83156">
        <ele>606.3</ele>
        <time>2021-07-11T07:21:34Z</time>
      </trkpt>
      <trkpt lat="45.97983" lon="2.83158">
        <ele>606.1</ele>
        <time>2021-07-11T07:21:35Z</time>
      </trkpt>
      <trkpt lat="45.97983" lon="2.83159">
        <ele>606.2</ele>
        <time>2021-07-11T07:21:36Z</time>
      </trkpt>
      <trkpt lat="45.97982" lon="2.8316">
        <ele>606</ele>
        <time>2021-07-11T07:21:37Z</time>
      </trkpt>
      <trkpt lat="45.97981" lon="2.83162">
        <ele>605.8</ele>
        <time>2021-07-11T07:21:38Z</time>
      </trkpt>
      <trkpt lat="45.9798" lon="2.83163">
        <ele>605.5</ele>
        <time>2021-07-11T07:21:39Z</time>
      </trkpt>
      <trkpt lat="45.97979" lon="2.83165">
        <ele>605.3</ele>
        <time>2021-07-11T07:21:40Z</time>
      </trkpt>
      <trkpt lat="45.97978" lon="2.83166">
        <ele>605</ele>
        <time>2021-07-11T07:21:41Z</time>
      </trkpt>
      <trkpt lat="45.97977" lon="2.83167">
        <ele>604.8</ele>
        <time>2021-07-11T07:21:42Z</time>
      </trkpt>
      <trkpt lat="45.97977" lon="2.83169">
        <ele>605</ele>
        <time>2021-07-11T07:21:43Z</time>
      </trkpt>
      <trkpt lat="45.97976" lon="2.8317">
        <ele>604.7</ele>
        <time>2021-07-11T07:21:44Z</time>
      </trkpt>
      <trkpt lat="45.97975" lon="2.83172">
        <ele>604.6</ele>
        <time>2021-07-11T07:21:45Z</time>
      </trkpt>
      <trkpt lat="45.97974" lon="2.83173">
        <ele>604.3</ele>
        <time>2021-07-11T07:21:46Z</time>
      </trkpt>
      <trkpt lat="45.97974" lon="2.83175">
        <ele>604.5</ele>
        <time>2021-07-11T07:21:47Z</time>
      </trkpt>
      <trkpt lat="45.97973" lon="2.83176">
        <ele>604.3</ele>
        <time>2021-07-11T07:21:48Z</time>
      </trkpt>
      <trkpt lat="45.97972" lon="2.83178">
        <ele>604.1</ele>
        <time>2021-07-11T07:21:49Z</time>
      </trkpt>
      <trkpt lat="45.97971" lon="2.8318">
        <ele>603.9</ele>
        <time>2021-07-11T07:21:50Z</time>
      </trkpt>
      <trkpt lat="45.97971" lon="2.83181">
        <ele>604</ele>
        <time>2021-07-11T07:21:51Z</time>
      </trkpt>
      <trkpt lat="45.9797" lon="2.83182">
        <ele>603.6</ele>
        <time>2021-07-11T07:21:52Z</time>
      </trkpt>
      <trkpt lat="45.97969" lon="2.83183">
        <ele>603.3</ele>
        <time>2021-07-11T07:21:53Z</time>
      </trkpt>
      <trkpt lat="45.97968" lon="2.83184">
        <ele>602.9</ele>
        <time>2021-07-11T07:21:55Z</time>
      </trkpt>
      <trkpt lat="45.97966" lon="2.83188">
        <ele>602.5</ele>
        <time>2021-07-11T07:21:56Z</time>
      </trkpt>
      <trkpt lat="45.97966" lon="2.83189">
        <ele>602.6</ele>
        <time>2021-07-11T07:21:57Z</time>
      </trkpt>
      <trkpt lat="45.97965" lon="2.83189">
        <ele>602.2</ele>
        <time>2021-07-11T07:21:58Z</time>
      </trkpt>
      <trkpt lat="45.97965" lon="2.8319">
        <ele>602.3</ele>
        <time>2021-07-11T07:21:59Z</time>
      </trkpt>
      <trkpt lat="45.97965" lon="2.8319">
        <ele>602.3</ele>
        <time>2021-07-11T07:22:00Z</time>
      </trkpt>
      <trkpt lat="45.97964" lon="2.83191">
        <ele>602</ele>
        <time>2021-07-11T07:22:01Z</time>
      </trkpt>
      <trkpt lat="45.97963" lon="2.83192">
        <ele>601.7</ele>
        <time>2021-07-11T07:22:02Z</time>
      </trkpt>
      <trkpt lat="45.97963" lon="2.83193">
        <ele>601.8</ele>
        <time>2021-07-11T07:22:03Z</time>
      </trkpt>
      <trkpt lat="45.97962" lon="2.83195">
        <ele>601.7</ele>
        <time>2021-07-11T07:22:04Z</time>
      </trkpt>
      <trkpt lat="45.97961" lon="2.83196">
        <ele>601.5</ele>
        <time>2021-07-11T07:22:05Z</time>
      </trkpt>
      <trkpt lat="45.97961" lon="2.83197">
        <ele>601.6</ele>
        <time>2021-07-11T07:22:06Z</time>
      </trkpt>
      <trkpt lat="45.9796" lon="2.83198">
        <ele>601.4</ele>
        <time>2021-07-11T07:22:07Z</time>
      </trkpt>
      <trkpt lat="45.9796" lon="2.83199">
        <ele>601.6</ele>
        <time>2021-07-11T07:22:08Z</time>
      </trkpt>
      <trkpt lat="45.97959" lon="2.832">
        <ele>601.4</ele>
        <time>2021-07-11T07:22:09Z</time>
      </trkpt>
      <trkpt lat="45.97959" lon="2.83201">
        <ele>601.6</ele>
        <time>2021-07-11T07:22:10Z</time>
      </trkpt>
      <trkpt lat="45.97958" lon="2.83202">
        <ele>601.4</ele>
        <time>2021-07-11T07:22:11Z</time>
      </trkpt>
      <trkpt lat="45.97958" lon="2.83203">
        <ele>601.6</ele>
        <time>2021-07-11T07:22:12Z</time>
      </trkpt>
      <trkpt lat="45.97957" lon="2.83204">
        <ele>601.3</ele>
        <time>2021-07-11T07:22:13Z</time>
      </trkpt>
      <trkpt lat="45.97957" lon="2.83205">
        <ele>601.5</ele>
        <time>2021-07-11T07:22:14Z</time>
      </trkpt>
      <trkpt lat="45.97956" lon="2.83206">
        <ele>601.3</ele>
        <time>2021-07-11T07:22:15Z</time>
      </trkpt>
      <trkpt lat="45.97955" lon="2.83207">
        <ele>601.1</ele>
        <time>2021-07-11T07:22:16Z</time>
      </trkpt>
      <trkpt lat="45.97955" lon="2.83208">
        <ele>601.3</ele>
        <time>2021-07-11T07:22:17Z</time>
      </trkpt>
      <trkpt lat="45.97954" lon="2.83208">
        <ele>600.9</ele>
        <time>2021-07-11T07:22:18Z</time>
      </trkpt>
      <trkpt lat="45.97953" lon="2.8321">
        <ele>600.9</ele>
        <time>2021-07-11T07:22:19Z</time>
      </trkpt>
      <trkpt lat="45.97952" lon="2.83211">
        <ele>600.7</ele>
        <time>2021-07-11T07:22:20Z</time>
      </trkpt>
      <trkpt lat="45.97951" lon="2.83212">
        <ele>600.5</ele>
        <time>2021-07-11T07:22:21Z</time>
      </trkpt>
      <trkpt lat="45.9795" lon="2.83213">
        <ele>600.3</ele>
        <time>2021-07-11T07:22:22Z</time>
      </trkpt>
      <trkpt lat="45.97949" lon="2.83213">
        <ele>599.9</ele>
        <time>2021-07-11T07:22:23Z</time>
      </trkpt>
      <trkpt lat="45.97948" lon="2.83213">
        <ele>599.5</ele>
        <time>2021-07-11T07:22:24Z</time>
      </trkpt>
      <trkpt lat="45.97947" lon="2.83214">
        <ele>599.3</ele>
        <time>2021-07-11T07:22:25Z</time>
      </trkpt>
      <trkpt lat="45.97946" lon="2.83214">
        <ele>598.9</ele>
        <time>2021-07-11T07:22:26Z</time>
      </trkpt>
      <trkpt lat="45.97945" lon="2.83214">
        <ele>598.4</ele>
        <time>2021-07-11T07:22:27Z</time>
      </trkpt>
      <trkpt lat="45.97943" lon="2.83214">
        <ele>597.8</ele>
        <time>2021-07-11T07:22:28Z</time>
      </trkpt>
      <trkpt lat="45.97942" lon="2.83214">
        <ele>597.5</ele>
        <time>2021-07-11T07:22:29Z</time>
      </trkpt>
      <trkpt lat="45.97941" lon="2.83214">
        <ele>597.2</ele>
        <time>2021-07-11T07:22:30Z</time>
      </trkpt>
      <trkpt lat="45.97939" lon="2.83213">
        <ele>596.3</ele>
        <time>2021-07-11T07:22:31Z</time>
      </trkpt>
      <trkpt lat="45.97938" lon="2.83213">
        <ele>596</ele>
        <time>2021-07-11T07:22:32Z</time>
      </trkpt>
      <trkpt lat="45.97937" lon="2.83213">
        <ele>595.7</ele>
        <time>2021-07-11T07:22:33Z</time>
      </trkpt>
      <trkpt lat="45.97936" lon="2.83212">
        <ele>595.1</ele>
        <time>2021-07-11T07:22:34Z</time>
      </trkpt>
      <trkpt lat="45.97934" lon="2.83212">
        <ele>594.5</ele>
        <time>2021-07-11T07:22:35Z</time>
      </trkpt>
      <trkpt lat="45.97933" lon="2.83212">
        <ele>594.2</ele>
        <time>2021-07-11T07:22:36Z</time>
      </trkpt>
      <trkpt lat="45.97932" lon="2.83211">
        <ele>593.6</ele>
        <time>2021-07-11T07:22:37Z</time>
      </trkpt>
      <trkpt lat="45.97931" lon="2.83212">
        <ele>593.6</ele>
        <time>2021-07-11T07:22:38Z</time>
      </trkpt>
      <trkpt lat="45.97929" lon="2.83212">
        <ele>592.9</ele>
        <time>2021-07-11T07:22:39Z</time>
      </trkpt>
      <trkpt lat="45.97929" lon="2.83212">
        <ele>592.9</ele>
        <time>2021-07-11T07:22:40Z</time>
      </trkpt>
      <trkpt lat="45.97927" lon="2.83213">
        <ele>592.6</ele>
        <time>2021-07-11T07:22:41Z</time>
      </trkpt>
      <trkpt lat="45.97926" lon="2.83213">
        <ele>592.3</ele>
        <time>2021-07-11T07:22:42Z</time>
      </trkpt>
      <trkpt lat="45.97925" lon="2.83214">
        <ele>592.2</ele>
        <time>2021-07-11T07:22:43Z</time>
      </trkpt>
      <trkpt lat="45.97924" lon="2.83214">
        <ele>591.9</ele>
        <time>2021-07-11T07:22:44Z</time>
      </trkpt>
      <trkpt lat="45.97923" lon="2.83215">
        <ele>591.9</ele>
        <time>2021-07-11T07:22:45Z</time>
      </trkpt>
      <trkpt lat="45.97922" lon="2.83216">
        <ele>591.8</ele>
        <time>2021-07-11T07:22:46Z</time>
      </trkpt>
      <trkpt lat="45.97921" lon="2.83217">
        <ele>591.8</ele>
        <time>2021-07-11T07:22:47Z</time>
      </trkpt>
      <trkpt lat="45.9792" lon="2.83217">
        <ele>591.5</ele>
        <time>2021-07-11T07:22:48Z</time>
      </trkpt>
      <trkpt lat="45.97919" lon="2.83217">
        <ele>591.2</ele>
        <time>2021-07-11T07:22:49Z</time>
      </trkpt>
      <trkpt lat="45.97918" lon="2.83218">
        <ele>591.2</ele>
        <time>2021-07-11T07:22:50Z</time>
      </trkpt>
      <trkpt lat="45.97916" lon="2.83218">
        <ele>590.6</ele>
        <time>2021-07-11T07:22:51Z</time>
      </trkpt>
      <trkpt lat="45.97915" lon="2.83218">
        <ele>590.3</ele>
        <time>2021-07-11T07:22:52Z</time>
      </trkpt>
      <trkpt lat="45.97914" lon="2.83218">
        <ele>589.9</ele>
        <time>2021-07-11T07:22:53Z</time>
      </trkpt>
      <trkpt lat="45.97912" lon="2.83218">
        <ele>589.3</ele>
        <time>2021-07-11T07:22:54Z</time>
      </trkpt>
      <trkpt lat="45.97911" lon="2.83218">
        <ele>589</ele>
        <time>2021-07-11T07:22:56Z</time>
      </trkpt>
      <trkpt lat="45.97907" lon="2.83219">
        <ele>588</ele>
        <time>2021-07-11T07:22:57Z</time>
      </trkpt>
      <trkpt lat="45.97907" lon="2.83219">
        <ele>588</ele>
        <time>2021-07-11T07:22:58Z</time>
      </trkpt>
      <trkpt lat="45.97907" lon="2.83219">
        <ele>588</ele>
        <time>2021-07-11T07:22:59Z</time>
      </trkpt>
      <trkpt lat="45.97906" lon="2.83219">
        <ele>587.7</ele>
        <time>2021-07-11T07:23:00Z</time>
      </trkpt>
      <trkpt lat="45.97905" lon="2.83219">
        <ele>587.4</ele>
        <time>2021-07-11T07:23:01Z</time>
      </trkpt>
      <trkpt lat="45.97905" lon="2.83218">
        <ele>587.1</ele>
        <time>2021-07-11T07:23:02Z</time>
      </trkpt>
      <trkpt lat="45.97905" lon="2.83218">
        <ele>587.1</ele>
        <time>2021-07-11T07:23:03Z</time>
      </trkpt>
      <trkpt lat="45.97905" lon="2.83218">
        <ele>587.1</ele>
        <time>2021-07-11T07:23:04Z</time>
      </trkpt>
      <trkpt lat="45.97904" lon="2.83218">
        <ele>586.8</ele>
        <time>2021-07-11T07:23:05Z</time>
      </trkpt>
      <trkpt lat="45.97904" lon="2.83218">
        <ele>586.8</ele>
        <time>2021-07-11T07:23:06Z</time>
      </trkpt>
      <trkpt lat="45.97904" lon="2.83218">
        <ele>586.8</ele>
        <time>2021-07-11T07:23:07Z</time>
      </trkpt>
      <trkpt lat="45.97904" lon="2.83218">
        <ele>586.8</ele>
        <time>2021-07-11T07:23:08Z</time>
      </trkpt>
      <trkpt lat="45.97903" lon="2.83218">
        <ele>586.5</ele>
        <time>2021-07-11T07:23:09Z</time>
      </trkpt>
      <trkpt lat="45.97903" lon="2.83218">
        <ele>586.5</ele>
        <time>2021-07-11T07:23:10Z</time>
      </trkpt>
      <trkpt lat="45.97902" lon="2.83217">
        <ele>585.9</ele>
        <time>2021-07-11T07:23:11Z</time>
      </trkpt>
      <trkpt lat="45.97902" lon="2.83217">
        <ele>585.9</ele>
        <time>2021-07-11T07:23:12Z</time>
      </trkpt>
      <trkpt lat="45.97901" lon="2.83217">
        <ele>585.6</ele>
        <time>2021-07-11T07:23:13Z</time>
      </trkpt>
      <trkpt lat="45.979" lon="2.83217">
        <ele>585.3</ele>
        <time>2021-07-11T07:23:14Z</time>
      </trkpt>
      <trkpt lat="45.97899" lon="2.83217">
        <ele>585</ele>
        <time>2021-07-11T07:23:15Z</time>
      </trkpt>
      <trkpt lat="45.97898" lon="2.83217">
        <ele>584.7</ele>
        <time>2021-07-11T07:23:16Z</time>
      </trkpt>
      <trkpt lat="45.97897" lon="2.83217">
        <ele>584.4</ele>
        <time>2021-07-11T07:23:17Z</time>
      </trkpt>
      <trkpt lat="45.97896" lon="2.83217">
        <ele>584.1</ele>
        <time>2021-07-11T07:23:18Z</time>
      </trkpt>
      <trkpt lat="45.97895" lon="2.83217">
        <ele>583.8</ele>
        <time>2021-07-11T07:23:19Z</time>
      </trkpt>
      <trkpt lat="45.97894" lon="2.83217">
        <ele>583.5</ele>
        <time>2021-07-11T07:23:20Z</time>
      </trkpt>
      <trkpt lat="45.97893" lon="2.83217">
        <ele>583.1</ele>
        <time>2021-07-11T07:23:21Z</time>
      </trkpt>
      <trkpt lat="45.97892" lon="2.83217">
        <ele>582.8</ele>
        <time>2021-07-11T07:23:22Z</time>
      </trkpt>
      <trkpt lat="45.97891" lon="2.83218">
        <ele>582.7</ele>
        <time>2021-07-11T07:23:23Z</time>
      </trkpt>
      <trkpt lat="45.9789" lon="2.83218">
        <ele>582.4</ele>
        <time>2021-07-11T07:23:24Z</time>
      </trkpt>
      <trkpt lat="45.9789" lon="2.83218">
        <ele>582.4</ele>
        <time>2021-07-11T07:23:25Z</time>
      </trkpt>
      <trkpt lat="45.97889" lon="2.83218">
        <ele>582.1</ele>
        <time>2021-07-11T07:23:26Z</time>
      </trkpt>
      <trkpt lat="45.97887" lon="2.83219">
        <ele>582.4</ele>
        <time>2021-07-11T07:23:27Z</time>
      </trkpt>
      <trkpt lat="45.97886" lon="2.83219">
        <ele>582.5</ele>
        <time>2021-07-11T07:23:28Z</time>
      </trkpt>
      <trkpt lat="45.97884" lon="2.8322">
        <ele>582.8</ele>
        <time>2021-07-11T07:23:29Z</time>
      </trkpt>
      <trkpt lat="45.97883" lon="2.8322">
        <ele>582.9</ele>
        <time>2021-07-11T07:23:30Z</time>
      </trkpt>
      <trkpt lat="45.97882" lon="2.83221">
        <ele>583.1</ele>
        <time>2021-07-11T07:23:31Z</time>
      </trkpt>
      <trkpt lat="45.97881" lon="2.83221">
        <ele>583.1</ele>
        <time>2021-07-11T07:23:32Z</time>
      </trkpt>
      <trkpt lat="45.9788" lon="2.83222">
        <ele>583.3</ele>
        <time>2021-07-11T07:23:33Z</time>
      </trkpt>
      <trkpt lat="45.97879" lon="2.83222">
        <ele>583.3</ele>
        <time>2021-07-11T07:23:34Z</time>
      </trkpt>
      <trkpt lat="45.97878" lon="2.83222">
        <ele>583.4</ele>
        <time>2021-07-11T07:23:35Z</time>
      </trkpt>
      <trkpt lat="45.97877" lon="2.83223">
        <ele>583.7</ele>
        <time>2021-07-11T07:23:36Z</time>
      </trkpt>
      <trkpt lat="45.97876" lon="2.83223">
        <ele>583.7</ele>
        <time>2021-07-11T07:23:37Z</time>
      </trkpt>
      <trkpt lat="45.97875" lon="2.83223">
        <ele>583.7</ele>
        <time>2021-07-11T07:23:38Z</time>
      </trkpt>
      <trkpt lat="45.97874" lon="2.83223">
        <ele>583.8</ele>
        <time>2021-07-11T07:23:39Z</time>
      </trkpt>
      <trkpt lat="45.97873" lon="2.83223">
        <ele>583.8</ele>
        <time>2021-07-11T07:23:40Z</time>
      </trkpt>
      <trkpt lat="45.97872" lon="2.83223">
        <ele>583.9</ele>
        <time>2021-07-11T07:23:41Z</time>
      </trkpt>
      <trkpt lat="45.97871" lon="2.83223">
        <ele>583.9</ele>
        <time>2021-07-11T07:23:42Z</time>
      </trkpt>
      <trkpt lat="45.97871" lon="2.83223">
        <ele>583.9</ele>
        <time>2021-07-11T07:23:43Z</time>
      </trkpt>
      <trkpt lat="45.9787" lon="2.83223">
        <ele>583.9</ele>
        <time>2021-07-11T07:23:44Z</time>
      </trkpt>
      <trkpt lat="45.97868" lon="2.83223">
        <ele>584</ele>
        <time>2021-07-11T07:23:45Z</time>
      </trkpt>
      <trkpt lat="45.97867" lon="2.83223">
        <ele>584.1</ele>
        <time>2021-07-11T07:23:46Z</time>
      </trkpt>
      <trkpt lat="45.97865" lon="2.83223">
        <ele>584.1</ele>
        <time>2021-07-11T07:23:47Z</time>
      </trkpt>
      <trkpt lat="45.97864" lon="2.83223">
        <ele>584.2</ele>
        <time>2021-07-11T07:23:48Z</time>
      </trkpt>
      <trkpt lat="45.97862" lon="2.83223">
        <ele>584.2</ele>
        <time>2021-07-11T07:23:49Z</time>
      </trkpt>
      <trkpt lat="45.9786" lon="2.83223">
        <ele>584.4</ele>
        <time>2021-07-11T07:23:50Z</time>
      </trkpt>
      <trkpt lat="45.97859" lon="2.83222">
        <ele>584.2</ele>
        <time>2021-07-11T07:23:51Z</time>
      </trkpt>
      <trkpt lat="45.97857" lon="2.83222">
        <ele>584.5</ele>
        <time>2021-07-11T07:23:52Z</time>
      </trkpt>
      <trkpt lat="45.97855" lon="2.83222">
        <ele>584.7</ele>
        <time>2021-07-11T07:23:53Z</time>
      </trkpt>
      <trkpt lat="45.97854" lon="2.83222">
        <ele>584.8</ele>
        <time>2021-07-11T07:23:54Z</time>
      </trkpt>
      <trkpt lat="45.97852" lon="2.83222">
        <ele>585</ele>
        <time>2021-07-11T07:23:55Z</time>
      </trkpt>
      <trkpt lat="45.97851" lon="2.83222">
        <ele>585.1</ele>
        <time>2021-07-11T07:23:56Z</time>
      </trkpt>
      <trkpt lat="45.97849" lon="2.83222">
        <ele>585.3</ele>
        <time>2021-07-11T07:23:57Z</time>
      </trkpt>
      <trkpt lat="45.97847" lon="2.83222">
        <ele>585.5</ele>
        <time>2021-07-11T07:23:58Z</time>
      </trkpt>
      <trkpt lat="45.97846" lon="2.83222">
        <ele>585.6</ele>
        <time>2021-07-11T07:23:59Z</time>
      </trkpt>
      <trkpt lat="45.97844" lon="2.83221">
        <ele>585.9</ele>
        <time>2021-07-11T07:24:00Z</time>
      </trkpt>
      <trkpt lat="45.97844" lon="2.83221">
        <ele>585.9</ele>
        <time>2021-07-11T07:24:01Z</time>
      </trkpt>
      <trkpt lat="45.97842" lon="2.83221">
        <ele>586.2</ele>
        <time>2021-07-11T07:24:02Z</time>
      </trkpt>
      <trkpt lat="45.97841" lon="2.83221">
        <ele>586.3</ele>
        <time>2021-07-11T07:24:03Z</time>
      </trkpt>
      <trkpt lat="45.9784" lon="2.83221">
        <ele>586.4</ele>
        <time>2021-07-11T07:24:04Z</time>
      </trkpt>
      <trkpt lat="45.97839" lon="2.8322">
        <ele>586.6</ele>
        <time>2021-07-11T07:24:05Z</time>
      </trkpt>
      <trkpt lat="45.97837" lon="2.8322">
        <ele>586.8</ele>
        <time>2021-07-11T07:24:06Z</time>
      </trkpt>
      <trkpt lat="45.97836" lon="2.8322">
        <ele>586.9</ele>
        <time>2021-07-11T07:24:07Z</time>
      </trkpt>
      <trkpt lat="45.97835" lon="2.83219">
        <ele>587.2</ele>
        <time>2021-07-11T07:24:08Z</time>
      </trkpt>
      <trkpt lat="45.97833" lon="2.83219">
        <ele>587.5</ele>
        <time>2021-07-11T07:24:09Z</time>
      </trkpt>
      <trkpt lat="45.97831" lon="2.83218">
        <ele>588.1</ele>
        <time>2021-07-11T07:24:10Z</time>
      </trkpt>
      <trkpt lat="45.97829" lon="2.83218">
        <ele>588.7</ele>
        <time>2021-07-11T07:24:11Z</time>
      </trkpt>
      <trkpt lat="45.97828" lon="2.83217">
        <ele>589.1</ele>
        <time>2021-07-11T07:24:12Z</time>
      </trkpt>
      <trkpt lat="45.97826" lon="2.83217">
        <ele>589.6</ele>
        <time>2021-07-11T07:24:13Z</time>
      </trkpt>
      <trkpt lat="45.97825" lon="2.83217">
        <ele>589.9</ele>
        <time>2021-07-11T07:24:14Z</time>
      </trkpt>
      <trkpt lat="45.97824" lon="2.83216">
        <ele>590.1</ele>
        <time>2021-07-11T07:24:15Z</time>
      </trkpt>
      <trkpt lat="45.97823" lon="2.83216">
        <ele>590.4</ele>
        <time>2021-07-11T07:24:16Z</time>
      </trkpt>
      <trkpt lat="45.97822" lon="2.83216">
        <ele>590.7</ele>
        <time>2021-07-11T07:24:17Z</time>
      </trkpt>
      <trkpt lat="45.97821" lon="2.83216">
        <ele>590.9</ele>
        <time>2021-07-11T07:24:18Z</time>
      </trkpt>
      <trkpt lat="45.9782" lon="2.83216">
        <ele>591.2</ele>
        <time>2021-07-11T07:24:19Z</time>
      </trkpt>
      <trkpt lat="45.97819" lon="2.83216">
        <ele>591.4</ele>
        <time>2021-07-11T07:24:20Z</time>
      </trkpt>
      <trkpt lat="45.97818" lon="2.83217">
        <ele>591.8</ele>
        <time>2021-07-11T07:24:21Z</time>
      </trkpt>
      <trkpt lat="45.97817" lon="2.83217">
        <ele>592.1</ele>
        <time>2021-07-11T07:24:22Z</time>
      </trkpt>
      <trkpt lat="45.97816" lon="2.83217">
        <ele>592.4</ele>
        <time>2021-07-11T07:24:23Z</time>
      </trkpt>
      <trkpt lat="45.97815" lon="2.83217">
        <ele>592.7</ele>
        <time>2021-07-11T07:24:24Z</time>
      </trkpt>
      <trkpt lat="45.97814" lon="2.83216">
        <ele>592.8</ele>
        <time>2021-07-11T07:24:25Z</time>
      </trkpt>
      <trkpt lat="45.97814" lon="2.83216">
        <ele>592.8</ele>
        <time>2021-07-11T07:24:26Z</time>
      </trkpt>
      <trkpt lat="45.97813" lon="2.83216">
        <ele>593</ele>
        <time>2021-07-11T07:24:27Z</time>
      </trkpt>
      <trkpt lat="45.97812" lon="2.83216">
        <ele>593.3</ele>
        <time>2021-07-11T07:24:27Z</time>
      </trkpt>
      <trkpt lat="45.97811" lon="2.83215">
        <ele>593.3</ele>
        <time>2021-07-11T07:24:28Z</time>
      </trkpt>
      <trkpt lat="45.9781" lon="2.83215">
        <ele>593.6</ele>
        <time>2021-07-11T07:24:29Z</time>
      </trkpt>
      <trkpt lat="45.97809" lon="2.83214">
        <ele>593.5</ele>
        <time>2021-07-11T07:24:30Z</time>
      </trkpt>
      <trkpt lat="45.97808" lon="2.83213">
        <ele>593.5</ele>
        <time>2021-07-11T07:24:31Z</time>
      </trkpt>
      <trkpt lat="45.97807" lon="2.83212">
        <ele>593.4</ele>
        <time>2021-07-11T07:24:32Z</time>
      </trkpt>
      <trkpt lat="45.97805" lon="2.83211">
        <ele>593.6</ele>
        <time>2021-07-11T07:24:33Z</time>
      </trkpt>
      <trkpt lat="45.97805" lon="2.8321">
        <ele>593.3</ele>
        <time>2021-07-11T07:24:34Z</time>
      </trkpt>
      <trkpt lat="45.97803" lon="2.8321">
        <ele>594</ele>
        <time>2021-07-11T07:24:35Z</time>
      </trkpt>
      <trkpt lat="45.97802" lon="2.83209">
        <ele>594.1</ele>
        <time>2021-07-11T07:24:36Z</time>
      </trkpt>
      <trkpt lat="45.97801" lon="2.83208">
        <ele>594.1</ele>
        <time>2021-07-11T07:24:37Z</time>
      </trkpt>
      <trkpt lat="45.97799" lon="2.83208">
        <ele>594.9</ele>
        <time>2021-07-11T07:24:38Z</time>
      </trkpt>
      <trkpt lat="45.97799" lon="2.83207">
        <ele>594.5</ele>
        <time>2021-07-11T07:24:39Z</time>
      </trkpt>
      <trkpt lat="45.97797" lon="2.83206">
        <ele>595</ele>
        <time>2021-07-11T07:24:40Z</time>
      </trkpt>
      <trkpt lat="45.97796" lon="2.83205">
        <ele>595</ele>
        <time>2021-07-11T07:24:41Z</time>
      </trkpt>
      <trkpt lat="45.97796" lon="2.83205">
        <ele>595</ele>
        <time>2021-07-11T07:24:42Z</time>
      </trkpt>
      <trkpt lat="45.97794" lon="2.83204">
        <ele>595.4</ele>
        <time>2021-07-11T07:24:43Z</time>
      </trkpt>
      <trkpt lat="45.97793" lon="2.83203">
        <ele>595.4</ele>
        <time>2021-07-11T07:24:44Z</time>
      </trkpt>
      <trkpt lat="45.97792" lon="2.83203">
        <ele>595.8</ele>
        <time>2021-07-11T07:24:45Z</time>
      </trkpt>
      <trkpt lat="45.97791" lon="2.83202">
        <ele>595.8</ele>
        <time>2021-07-11T07:24:46Z</time>
      </trkpt>
      <trkpt lat="45.9779" lon="2.83202">
        <ele>596.2</ele>
        <time>2021-07-11T07:24:47Z</time>
      </trkpt>
      <trkpt lat="45.97789" lon="2.83201">
        <ele>596.2</ele>
        <time>2021-07-11T07:24:48Z</time>
      </trkpt>
      <trkpt lat="45.97788" lon="2.832">
        <ele>596.2</ele>
        <time>2021-07-11T07:24:49Z</time>
      </trkpt>
      <trkpt lat="45.97787" lon="2.83199">
        <ele>596.3</ele>
        <time>2021-07-11T07:24:50Z</time>
      </trkpt>
      <trkpt lat="45.97786" lon="2.83198">
        <ele>596.3</ele>
        <time>2021-07-11T07:24:51Z</time>
      </trkpt>
      <trkpt lat="45.97785" lon="2.83198">
        <ele>596.6</ele>
        <time>2021-07-11T07:24:52Z</time>
      </trkpt>
      <trkpt lat="45.97784" lon="2.83197">
        <ele>596.7</ele>
        <time>2021-07-11T07:24:53Z</time>
      </trkpt>
      <trkpt lat="45.97783" lon="2.83197">
        <ele>597</ele>
        <time>2021-07-11T07:24:55Z</time>
      </trkpt>
      <trkpt lat="45.97778" lon="2.83195">
        <ele>598.1</ele>
        <time>2021-07-11T07:24:56Z</time>
      </trkpt>
      <trkpt lat="45.97778" lon="2.83194">
        <ele>597.8</ele>
        <time>2021-07-11T07:24:57Z</time>
      </trkpt>
      <trkpt lat="45.97778" lon="2.83194">
        <ele>597.8</ele>
        <time>2021-07-11T07:24:58Z</time>
      </trkpt>
      <trkpt lat="45.97778" lon="2.83193">
        <ele>597.7</ele>
        <time>2021-07-11T07:24:59Z</time>
      </trkpt>
      <trkpt lat="45.97776" lon="2.83192">
        <ele>597.9</ele>
        <time>2021-07-11T07:25:00Z</time>
      </trkpt>
      <trkpt lat="45.97776" lon="2.83191">
        <ele>597.7</ele>
        <time>2021-07-11T07:25:01Z</time>
      </trkpt>
      <trkpt lat="45.97775" lon="2.8319">
        <ele>597.7</ele>
        <time>2021-07-11T07:25:02Z</time>
      </trkpt>
      <trkpt lat="45.97775" lon="2.83189">
        <ele>597.5</ele>
        <time>2021-07-11T07:25:03Z</time>
      </trkpt>
      <trkpt lat="45.97773" lon="2.83188">
        <ele>597.7</ele>
        <time>2021-07-11T07:25:04Z</time>
      </trkpt>
      <trkpt lat="45.97773" lon="2.83187">
        <ele>597.6</ele>
        <time>2021-07-11T07:25:05Z</time>
      </trkpt>
      <trkpt lat="45.97772" lon="2.83185">
        <ele>597.4</ele>
        <time>2021-07-11T07:25:06Z</time>
      </trkpt>
      <trkpt lat="45.97771" lon="2.83184">
        <ele>597.4</ele>
        <time>2021-07-11T07:25:07Z</time>
      </trkpt>
      <trkpt lat="45.9777" lon="2.83183">
        <ele>597.5</ele>
        <time>2021-07-11T07:25:08Z</time>
      </trkpt>
      <trkpt lat="45.97769" lon="2.83182">
        <ele>597.5</ele>
        <time>2021-07-11T07:25:09Z</time>
      </trkpt>
      <trkpt lat="45.97768" lon="2.83181">
        <ele>597.5</ele>
        <time>2021-07-11T07:25:10Z</time>
      </trkpt>
      <trkpt lat="45.97767" lon="2.83179">
        <ele>597.4</ele>
        <time>2021-07-11T07:25:11Z</time>
      </trkpt>
      <trkpt lat="45.97766" lon="2.83178">
        <ele>597.4</ele>
        <time>2021-07-11T07:25:12Z</time>
      </trkpt>
      <trkpt lat="45.97766" lon="2.83176">
        <ele>597.1</ele>
        <time>2021-07-11T07:25:13Z</time>
      </trkpt>
      <trkpt lat="45.97765" lon="2.83175">
        <ele>597.1</ele>
        <time>2021-07-11T07:25:14Z</time>
      </trkpt>
      <trkpt lat="45.97763" lon="2.83174">
        <ele>597.4</ele>
        <time>2021-07-11T07:25:15Z</time>
      </trkpt>
      <trkpt lat="45.97763" lon="2.83173">
        <ele>597.2</ele>
        <time>2021-07-11T07:25:16Z</time>
      </trkpt>
      <trkpt lat="45.97762" lon="2.83172">
        <ele>597.3</ele>
        <time>2021-07-11T07:25:17Z</time>
      </trkpt>
      <trkpt lat="45.9776" lon="2.83171">
        <ele>597.5</ele>
        <time>2021-07-11T07:25:18Z</time>
      </trkpt>
      <trkpt lat="45.9776" lon="2.83169">
        <ele>597.2</ele>
        <time>2021-07-11T07:25:19Z</time>
      </trkpt>
      <trkpt lat="45.97759" lon="2.83168">
        <ele>597.3</ele>
        <time>2021-07-11T07:25:20Z</time>
      </trkpt>
      <trkpt lat="45.97758" lon="2.83167">
        <ele>597.3</ele>
        <time>2021-07-11T07:25:21Z</time>
      </trkpt>
      <trkpt lat="45.97757" lon="2.83165">
        <ele>597.6</ele>
        <time>2021-07-11T07:25:22Z</time>
      </trkpt>
      <trkpt lat="45.97757" lon="2.83165">
        <ele>597.6</ele>
        <time>2021-07-11T07:25:23Z</time>
      </trkpt>
      <trkpt lat="45.97756" lon="2.83164">
        <ele>597.8</ele>
        <time>2021-07-11T07:25:24Z</time>
      </trkpt>
      <trkpt lat="45.97755" lon="2.83163">
        <ele>598</ele>
        <time>2021-07-11T07:25:25Z</time>
      </trkpt>
      <trkpt lat="45.97754" lon="2.83162">
        <ele>598.2</ele>
        <time>2021-07-11T07:25:26Z</time>
      </trkpt>
      <trkpt lat="45.97754" lon="2.83162">
        <ele>598.2</ele>
        <time>2021-07-11T07:25:27Z</time>
      </trkpt>
      <trkpt lat="45.97752" lon="2.83161">
        <ele>598.5</ele>
        <time>2021-07-11T07:25:28Z</time>
      </trkpt>
      <trkpt lat="45.97751" lon="2.83161">
        <ele>598.7</ele>
        <time>2021-07-11T07:25:29Z</time>
      </trkpt>
      <trkpt lat="45.9775" lon="2.8316">
        <ele>598.8</ele>
        <time>2021-07-11T07:25:30Z</time>
      </trkpt>
      <trkpt lat="45.97749" lon="2.8316">
        <ele>598.8</ele>
        <time>2021-07-11T07:25:31Z</time>
      </trkpt>
      <trkpt lat="45.97748" lon="2.8316">
        <ele>598.8</ele>
        <time>2021-07-11T07:25:32Z</time>
      </trkpt>
      <trkpt lat="45.97747" lon="2.8316">
        <ele>598.8</ele>
        <time>2021-07-11T07:25:33Z</time>
      </trkpt>
      <trkpt lat="45.97746" lon="2.83159">
        <ele>598.8</ele>
        <time>2021-07-11T07:25:34Z</time>
      </trkpt>
      <trkpt lat="45.97745" lon="2.83159">
        <ele>598.8</ele>
        <time>2021-07-11T07:25:35Z</time>
      </trkpt>
      <trkpt lat="45.97744" lon="2.83158">
        <ele>598.8</ele>
        <time>2021-07-11T07:25:36Z</time>
      </trkpt>
      <trkpt lat="45.97743" lon="2.83157">
        <ele>598.7</ele>
        <time>2021-07-11T07:25:37Z</time>
      </trkpt>
      <trkpt lat="45.97742" lon="2.83156">
        <ele>598.7</ele>
        <time>2021-07-11T07:25:38Z</time>
      </trkpt>
      <trkpt lat="45.97741" lon="2.83156">
        <ele>598.7</ele>
        <time>2021-07-11T07:25:39Z</time>
      </trkpt>
      <trkpt lat="45.9774" lon="2.83155">
        <ele>598.7</ele>
        <time>2021-07-11T07:25:40Z</time>
      </trkpt>
      <trkpt lat="45.97739" lon="2.83154">
        <ele>598.7</ele>
        <time>2021-07-11T07:25:41Z</time>
      </trkpt>
      <trkpt lat="45.97737" lon="2.83153">
        <ele>598.7</ele>
        <time>2021-07-11T07:25:42Z</time>
      </trkpt>
      <trkpt lat="45.97736" lon="2.83153">
        <ele>598.8</ele>
        <time>2021-07-11T07:25:43Z</time>
      </trkpt>
      <trkpt lat="45.97735" lon="2.83152">
        <ele>598.8</ele>
        <time>2021-07-11T07:25:44Z</time>
      </trkpt>
      <trkpt lat="45.97733" lon="2.83151">
        <ele>598.8</ele>
        <time>2021-07-11T07:25:45Z</time>
      </trkpt>
      <trkpt lat="45.97733" lon="2.8315">
        <ele>598.8</ele>
        <time>2021-07-11T07:25:46Z</time>
      </trkpt>
      <trkpt lat="45.97732" lon="2.8315">
        <ele>598.8</ele>
        <time>2021-07-11T07:25:47Z</time>
      </trkpt>
      <trkpt lat="45.97731" lon="2.83149">
        <ele>598.8</ele>
        <time>2021-07-11T07:25:48Z</time>
      </trkpt>
      <trkpt lat="45.97731" lon="2.83149">
        <ele>598.8</ele>
        <time>2021-07-11T07:25:49Z</time>
      </trkpt>
      <trkpt lat="45.9773" lon="2.83149">
        <ele>598.8</ele>
        <time>2021-07-11T07:25:50Z</time>
      </trkpt>
      <trkpt lat="45.9773" lon="2.83149">
        <ele>598.8</ele>
        <time>2021-07-11T07:25:51Z</time>
      </trkpt>
      <trkpt lat="45.97729" lon="2.83149">
        <ele>598.8</ele>
        <time>2021-07-11T07:25:52Z</time>
      </trkpt>
      <trkpt lat="45.97728" lon="2.83149">
        <ele>598.9</ele>
        <time>2021-07-11T07:25:54Z</time>
      </trkpt>
      <trkpt lat="45.97727" lon="2.83149">
        <ele>598.9</ele>
        <time>2021-07-11T07:25:55Z</time>
      </trkpt>
      <trkpt lat="45.97723" lon="2.83149">
        <ele>599</ele>
        <time>2021-07-11T07:25:56Z</time>
      </trkpt>
      <trkpt lat="45.97723" lon="2.83149">
        <ele>599</ele>
        <time>2021-07-11T07:25:57Z</time>
      </trkpt>
      <trkpt lat="45.97722" lon="2.83149">
        <ele>599.1</ele>
        <time>2021-07-11T07:25:58Z</time>
      </trkpt>
      <trkpt lat="45.97722" lon="2.83149">
        <ele>599.1</ele>
        <time>2021-07-11T07:25:59Z</time>
      </trkpt>
      <trkpt lat="45.97721" lon="2.8315">
        <ele>599.3</ele>
        <time>2021-07-11T07:26:00Z</time>
      </trkpt>
      <trkpt lat="45.9772" lon="2.8315">
        <ele>599.6</ele>
        <time>2021-07-11T07:26:01Z</time>
      </trkpt>
      <trkpt lat="45.97718" lon="2.8315">
        <ele>600.2</ele>
        <time>2021-07-11T07:26:02Z</time>
      </trkpt>
      <trkpt lat="45.97717" lon="2.83151">
        <ele>600.4</ele>
        <time>2021-07-11T07:26:03Z</time>
      </trkpt>
      <trkpt lat="45.97715" lon="2.83151">
        <ele>601</ele>
        <time>2021-07-11T07:26:04Z</time>
      </trkpt>
      <trkpt lat="45.97714" lon="2.83151">
        <ele>601.2</ele>
        <time>2021-07-11T07:26:05Z</time>
      </trkpt>
      <trkpt lat="45.97713" lon="2.83151">
        <ele>601.5</ele>
        <time>2021-07-11T07:26:06Z</time>
      </trkpt>
      <trkpt lat="45.97711" lon="2.83151">
        <ele>602.1</ele>
        <time>2021-07-11T07:26:07Z</time>
      </trkpt>
      <trkpt lat="45.97709" lon="2.83151">
        <ele>602.6</ele>
        <time>2021-07-11T07:26:08Z</time>
      </trkpt>
      <trkpt lat="45.97708" lon="2.83152">
        <ele>602.9</ele>
        <time>2021-07-11T07:26:09Z</time>
      </trkpt>
      <trkpt lat="45.97706" lon="2.83152">
        <ele>603.4</ele>
        <time>2021-07-11T07:26:10Z</time>
      </trkpt>
      <trkpt lat="45.97705" lon="2.83152">
        <ele>603.7</ele>
        <time>2021-07-11T07:26:11Z</time>
      </trkpt>
      <trkpt lat="45.97704" lon="2.83152">
        <ele>603.9</ele>
        <time>2021-07-11T07:26:12Z</time>
      </trkpt>
      <trkpt lat="45.97702" lon="2.83151">
        <ele>604.5</ele>
        <time>2021-07-11T07:26:13Z</time>
      </trkpt>
      <trkpt lat="45.97701" lon="2.83151">
        <ele>604.8</ele>
        <time>2021-07-11T07:26:14Z</time>
      </trkpt>
      <trkpt lat="45.977" lon="2.83151">
        <ele>605.1</ele>
        <time>2021-07-11T07:26:15Z</time>
      </trkpt>
      <trkpt lat="45.97699" lon="2.83151">
        <ele>605.3</ele>
        <time>2021-07-11T07:26:16Z</time>
      </trkpt>
      <trkpt lat="45.97697" lon="2.83152">
        <ele>605.8</ele>
        <time>2021-07-11T07:26:17Z</time>
      </trkpt>
      <trkpt lat="45.97697" lon="2.83152">
        <ele>605.8</ele>
        <time>2021-07-11T07:26:18Z</time>
      </trkpt>
      <trkpt lat="45.97696" lon="2.83152">
        <ele>606.1</ele>
        <time>2021-07-11T07:26:19Z</time>
      </trkpt>
      <trkpt lat="45.97695" lon="2.83152">
        <ele>606.4</ele>
        <time>2021-07-11T07:26:20Z</time>
      </trkpt>
      <trkpt lat="45.97694" lon="2.83152">
        <ele>606.6</ele>
        <time>2021-07-11T07:26:21Z</time>
      </trkpt>
      <trkpt lat="45.97693" lon="2.83152">
        <ele>606.9</ele>
        <time>2021-07-11T07:26:22Z</time>
      </trkpt>
      <trkpt lat="45.97693" lon="2.83152">
        <ele>606.9</ele>
        <time>2021-07-11T07:26:23Z</time>
      </trkpt>
      <trkpt lat="45.97691" lon="2.83152">
        <ele>607.3</ele>
        <time>2021-07-11T07:26:24Z</time>
      </trkpt>
      <trkpt lat="45.9769" lon="2.83152">
        <ele>607.6</ele>
        <time>2021-07-11T07:26:25Z</time>
      </trkpt>
      <trkpt lat="45.97689" lon="2.83152">
        <ele>607.8</ele>
        <time>2021-07-11T07:26:26Z</time>
      </trkpt>
      <trkpt lat="45.97688" lon="2.83152">
        <ele>608</ele>
        <time>2021-07-11T07:26:27Z</time>
      </trkpt>
      <trkpt lat="45.97687" lon="2.83151">
        <ele>608.3</ele>
        <time>2021-07-11T07:26:28Z</time>
      </trkpt>
      <trkpt lat="45.97686" lon="2.8315">
        <ele>608.6</ele>
        <time>2021-07-11T07:26:29Z</time>
      </trkpt>
      <trkpt lat="45.97685" lon="2.8315">
        <ele>608.8</ele>
        <time>2021-07-11T07:26:30Z</time>
      </trkpt>
      <trkpt lat="45.97684" lon="2.83149">
        <ele>609.1</ele>
        <time>2021-07-11T07:26:31Z</time>
      </trkpt>
      <trkpt lat="45.97683" lon="2.83149">
        <ele>609.4</ele>
        <time>2021-07-11T07:26:32Z</time>
      </trkpt>
      <trkpt lat="45.97682" lon="2.83149">
        <ele>609.6</ele>
        <time>2021-07-11T07:26:33Z</time>
      </trkpt>
      <trkpt lat="45.9768" lon="2.83148">
        <ele>610.1</ele>
        <time>2021-07-11T07:26:34Z</time>
      </trkpt>
      <trkpt lat="45.97679" lon="2.83148">
        <ele>610.4</ele>
        <time>2021-07-11T07:26:35Z</time>
      </trkpt>
      <trkpt lat="45.97678" lon="2.83148">
        <ele>610.6</ele>
        <time>2021-07-11T07:26:36Z</time>
      </trkpt>
      <trkpt lat="45.97676" lon="2.83148">
        <ele>611.1</ele>
        <time>2021-07-11T07:26:37Z</time>
      </trkpt>
      <trkpt lat="45.97675" lon="2.83148">
        <ele>611.3</ele>
        <time>2021-07-11T07:26:38Z</time>
      </trkpt>
      <trkpt lat="45.97672" lon="2.83148">
        <ele>612.1</ele>
        <time>2021-07-11T07:26:39Z</time>
      </trkpt>
      <trkpt lat="45.9767" lon="2.83148">
        <ele>612.5</ele>
        <time>2021-07-11T07:26:40Z</time>
      </trkpt>
      <trkpt lat="45.97669" lon="2.83148">
        <ele>612.8</ele>
        <time>2021-07-11T07:26:41Z</time>
      </trkpt>
      <trkpt lat="45.97667" lon="2.83149">
        <ele>613.2</ele>
        <time>2021-07-11T07:26:42Z</time>
      </trkpt>
      <trkpt lat="45.97666" lon="2.83149">
        <ele>613.4</ele>
        <time>2021-07-11T07:26:43Z</time>
      </trkpt>
      <trkpt lat="45.97665" lon="2.8315">
        <ele>613.4</ele>
        <time>2021-07-11T07:26:44Z</time>
      </trkpt>
      <trkpt lat="45.97664" lon="2.8315">
        <ele>613.5</ele>
        <time>2021-07-11T07:26:45Z</time>
      </trkpt>
      <trkpt lat="45.97663" lon="2.83151">
        <ele>613.6</ele>
        <time>2021-07-11T07:26:46Z</time>
      </trkpt>
      <trkpt lat="45.97662" lon="2.83152">
        <ele>613.6</ele>
        <time>2021-07-11T07:26:47Z</time>
      </trkpt>
      <trkpt lat="45.97661" lon="2.83152">
        <ele>613.8</ele>
        <time>2021-07-11T07:26:48Z</time>
      </trkpt>
      <trkpt lat="45.97661" lon="2.83153">
        <ele>613.7</ele>
        <time>2021-07-11T07:26:49Z</time>
      </trkpt>
      <trkpt lat="45.9766" lon="2.83154">
        <ele>613.8</ele>
        <time>2021-07-11T07:26:50Z</time>
      </trkpt>
      <trkpt lat="45.97659" lon="2.83155">
        <ele>613.8</ele>
        <time>2021-07-11T07:26:51Z</time>
      </trkpt>
      <trkpt lat="45.97658" lon="2.83156">
        <ele>613.9</ele>
        <time>2021-07-11T07:26:52Z</time>
      </trkpt>
      <trkpt lat="45.97657" lon="2.83157">
        <ele>614</ele>
        <time>2021-07-11T07:26:53Z</time>
      </trkpt>
      <trkpt lat="45.97656" lon="2.83157">
        <ele>614.1</ele>
        <time>2021-07-11T07:26:54Z</time>
      </trkpt>
      <trkpt lat="45.97654" lon="2.83157">
        <ele>614.4</ele>
        <time>2021-07-11T07:26:55Z</time>
      </trkpt>
      <trkpt lat="45.97653" lon="2.83158">
        <ele>614.4</ele>
        <time>2021-07-11T07:26:56Z</time>
      </trkpt>
      <trkpt lat="45.97651" lon="2.83158">
        <ele>614.7</ele>
        <time>2021-07-11T07:26:57Z</time>
      </trkpt>
      <trkpt lat="45.9765" lon="2.83158">
        <ele>614.8</ele>
        <time>2021-07-11T07:26:58Z</time>
      </trkpt>
      <trkpt lat="45.97649" lon="2.83158">
        <ele>615</ele>
        <time>2021-07-11T07:26:59Z</time>
      </trkpt>
      <trkpt lat="45.97648" lon="2.83159">
        <ele>615.1</ele>
        <time>2021-07-11T07:27:00Z</time>
      </trkpt>
      <trkpt lat="45.97646" lon="2.83159">
        <ele>615.3</ele>
        <time>2021-07-11T07:27:01Z</time>
      </trkpt>
      <trkpt lat="45.97645" lon="2.83159">
        <ele>615.5</ele>
        <time>2021-07-11T07:27:02Z</time>
      </trkpt>
      <trkpt lat="45.97644" lon="2.8316">
        <ele>615.5</ele>
        <time>2021-07-11T07:27:03Z</time>
      </trkpt>
      <trkpt lat="45.97644" lon="2.8316">
        <ele>615.5</ele>
        <time>2021-07-11T07:27:04Z</time>
      </trkpt>
      <trkpt lat="45.97643" lon="2.8316">
        <ele>615.7</ele>
        <time>2021-07-11T07:27:05Z</time>
      </trkpt>
      <trkpt lat="45.97642" lon="2.83161">
        <ele>615.8</ele>
        <time>2021-07-11T07:27:06Z</time>
      </trkpt>
      <trkpt lat="45.9764" lon="2.83161">
        <ele>616.1</ele>
        <time>2021-07-11T07:27:07Z</time>
      </trkpt>
      <trkpt lat="45.97639" lon="2.83161">
        <ele>616.2</ele>
        <time>2021-07-11T07:27:08Z</time>
      </trkpt>
      <trkpt lat="45.97637" lon="2.8316">
        <ele>616.3</ele>
        <time>2021-07-11T07:27:09Z</time>
      </trkpt>
      <trkpt lat="45.97635" lon="2.8316">
        <ele>616.5</ele>
        <time>2021-07-11T07:27:10Z</time>
      </trkpt>
      <trkpt lat="45.97633" lon="2.83159">
        <ele>616.6</ele>
        <time>2021-07-11T07:27:11Z</time>
      </trkpt>
      <trkpt lat="45.97632" lon="2.83159">
        <ele>616.6</ele>
        <time>2021-07-11T07:27:12Z</time>
      </trkpt>
      <trkpt lat="45.9763" lon="2.83158">
        <ele>616.8</ele>
        <time>2021-07-11T07:27:13Z</time>
      </trkpt>
      <trkpt lat="45.97629" lon="2.83158">
        <ele>616.8</ele>
        <time>2021-07-11T07:27:14Z</time>
      </trkpt>
      <trkpt lat="45.97627" lon="2.83158">
        <ele>616.9</ele>
        <time>2021-07-11T07:27:15Z</time>
      </trkpt>
      <trkpt lat="45.97626" lon="2.83157">
        <ele>617</ele>
        <time>2021-07-11T07:27:16Z</time>
      </trkpt>
      <trkpt lat="45.97625" lon="2.83157">
        <ele>617</ele>
        <time>2021-07-11T07:27:17Z</time>
      </trkpt>
      <trkpt lat="45.97624" lon="2.83157">
        <ele>617</ele>
        <time>2021-07-11T07:27:18Z</time>
      </trkpt>
      <trkpt lat="45.97622" lon="2.83156">
        <ele>617.1</ele>
        <time>2021-07-11T07:27:19Z</time>
      </trkpt>
      <trkpt lat="45.97621" lon="2.83156">
        <ele>617.2</ele>
        <time>2021-07-11T07:27:20Z</time>
      </trkpt>
      <trkpt lat="45.9762" lon="2.83156">
        <ele>617.2</ele>
        <time>2021-07-11T07:27:21Z</time>
      </trkpt>
      <trkpt lat="45.97619" lon="2.83155">
        <ele>617.3</ele>
        <time>2021-07-11T07:27:22Z</time>
      </trkpt>
      <trkpt lat="45.97618" lon="2.83155">
        <ele>617.3</ele>
        <time>2021-07-11T07:27:23Z</time>
      </trkpt>
      <trkpt lat="45.97617" lon="2.83155">
        <ele>617.3</ele>
        <time>2021-07-11T07:27:24Z</time>
      </trkpt>
      <trkpt lat="45.97615" lon="2.83156">
        <ele>617.4</ele>
        <time>2021-07-11T07:27:25Z</time>
      </trkpt>
      <trkpt lat="45.97614" lon="2.83156">
        <ele>617.5</ele>
        <time>2021-07-11T07:27:26Z</time>
      </trkpt>
      <trkpt lat="45.97612" lon="2.83156">
        <ele>617.6</ele>
        <time>2021-07-11T07:27:27Z</time>
      </trkpt>
      <trkpt lat="45.97611" lon="2.83157">
        <ele>617.7</ele>
        <time>2021-07-11T07:27:28Z</time>
      </trkpt>
      <trkpt lat="45.9761" lon="2.83157">
        <ele>617.7</ele>
        <time>2021-07-11T07:27:29Z</time>
      </trkpt>
      <trkpt lat="45.97609" lon="2.83157">
        <ele>617.7</ele>
        <time>2021-07-11T07:27:30Z</time>
      </trkpt>
      <trkpt lat="45.97607" lon="2.83157">
        <ele>617.7</ele>
        <time>2021-07-11T07:27:31Z</time>
      </trkpt>
      <trkpt lat="45.97606" lon="2.83157">
        <ele>617.8</ele>
        <time>2021-07-11T07:27:32Z</time>
      </trkpt>
      <trkpt lat="45.97606" lon="2.83157">
        <ele>617.8</ele>
        <time>2021-07-11T07:27:33Z</time>
      </trkpt>
      <trkpt lat="45.97604" lon="2.83156">
        <ele>617.8</ele>
        <time>2021-07-11T07:27:34Z</time>
      </trkpt>
      <trkpt lat="45.97603" lon="2.83156">
        <ele>617.8</ele>
        <time>2021-07-11T07:27:35Z</time>
      </trkpt>
      <trkpt lat="45.97603" lon="2.83156">
        <ele>617.8</ele>
        <time>2021-07-11T07:27:36Z</time>
      </trkpt>
      <trkpt lat="45.97601" lon="2.83155">
        <ele>617.8</ele>
        <time>2021-07-11T07:27:37Z</time>
      </trkpt>
      <trkpt lat="45.976" lon="2.83155">
        <ele>617.8</ele>
        <time>2021-07-11T07:27:38Z</time>
      </trkpt>
      <trkpt lat="45.97599" lon="2.83154">
        <ele>617.8</ele>
        <time>2021-07-11T07:27:39Z</time>
      </trkpt>
      <trkpt lat="45.97597" lon="2.83153">
        <ele>617.8</ele>
        <time>2021-07-11T07:28:28Z</time>
      </trkpt>
      <trkpt lat="45.97597" lon="2.83153">
        <ele>617.8</ele>
        <time>2021-07-11T07:28:29Z</time>
      </trkpt>
      <trkpt lat="45.97597" lon="2.83153">
        <ele>617.8</ele>
        <time>2021-07-11T07:28:30Z</time>
      </trkpt>
      <trkpt lat="45.97596" lon="2.83153">
        <ele>617.8</ele>
        <time>2021-07-11T07:28:31Z</time>
      </trkpt>
      <trkpt lat="45.97595" lon="2.83154">
        <ele>617.9</ele>
        <time>2021-07-11T07:28:34Z</time>
      </trkpt>
      <trkpt lat="45.97594" lon="2.83154">
        <ele>617.9</ele>
        <time>2021-07-11T07:28:35Z</time>
      </trkpt>
      <trkpt lat="45.97594" lon="2.83154">
        <ele>617.9</ele>
        <time>2021-07-11T07:28:36Z</time>
      </trkpt>
      <trkpt lat="45.97593" lon="2.83154">
        <ele>617.9</ele>
        <time>2021-07-11T07:28:37Z</time>
      </trkpt>
      <trkpt lat="45.97593" lon="2.83154">
        <ele>617.9</ele>
        <time>2021-07-11T07:28:38Z</time>
      </trkpt>
      <trkpt lat="45.97591" lon="2.83154">
        <ele>617.9</ele>
        <time>2021-07-11T07:28:39Z</time>
      </trkpt>
      <trkpt lat="45.97591" lon="2.83154">
        <ele>617.9</ele>
        <time>2021-07-11T07:28:40Z</time>
      </trkpt>
      <trkpt lat="45.9759" lon="2.83154">
        <ele>618</ele>
        <time>2021-07-11T07:28:41Z</time>
      </trkpt>
      <trkpt lat="45.97588" lon="2.83155">
        <ele>618.1</ele>
        <time>2021-07-11T07:28:42Z</time>
      </trkpt>
      <trkpt lat="45.97588" lon="2.83155">
        <ele>618.1</ele>
        <time>2021-07-11T07:28:42Z</time>
      </trkpt>
      <trkpt lat="45.97587" lon="2.83155">
        <ele>618.1</ele>
        <time>2021-07-11T07:28:43Z</time>
      </trkpt>
      <trkpt lat="45.97586" lon="2.83155">
        <ele>618.1</ele>
        <time>2021-07-11T07:28:44Z</time>
      </trkpt>
      <trkpt lat="45.97585" lon="2.83155">
        <ele>618.1</ele>
        <time>2021-07-11T07:28:45Z</time>
      </trkpt>
      <trkpt lat="45.97585" lon="2.83155">
        <ele>618.1</ele>
        <time>2021-07-11T07:28:46Z</time>
      </trkpt>
      <trkpt lat="45.97584" lon="2.83155">
        <ele>618.1</ele>
        <time>2021-07-11T07:28:47Z</time>
      </trkpt>
      <trkpt lat="45.97583" lon="2.83155">
        <ele>618.2</ele>
        <time>2021-07-11T07:28:48Z</time>
      </trkpt>
      <trkpt lat="45.97582" lon="2.83155">
        <ele>618.2</ele>
        <time>2021-07-11T07:28:49Z</time>
      </trkpt>
      <trkpt lat="45.97581" lon="2.83155">
        <ele>618.2</ele>
        <time>2021-07-11T07:28:50Z</time>
      </trkpt>
      <trkpt lat="45.9758" lon="2.83155">
        <ele>618.2</ele>
        <time>2021-07-11T07:28:51Z</time>
      </trkpt>
      <trkpt lat="45.97579" lon="2.83155">
        <ele>618.2</ele>
        <time>2021-07-11T07:28:53Z</time>
      </trkpt>
      <trkpt lat="45.97577" lon="2.83155">
        <ele>618.2</ele>
        <time>2021-07-11T07:28:54Z</time>
      </trkpt>
      <trkpt lat="45.97573" lon="2.83154">
        <ele>618.1</ele>
        <time>2021-07-11T07:28:55Z</time>
      </trkpt>
      <trkpt lat="45.97573" lon="2.83154">
        <ele>618.1</ele>
        <time>2021-07-11T07:28:56Z</time>
      </trkpt>
      <trkpt lat="45.97572" lon="2.83154">
        <ele>618.1</ele>
        <time>2021-07-11T07:28:57Z</time>
      </trkpt>
      <trkpt lat="45.97571" lon="2.83154">
        <ele>618.1</ele>
        <time>2021-07-11T07:28:58Z</time>
      </trkpt>
      <trkpt lat="45.9757" lon="2.83154">
        <ele>618.1</ele>
        <time>2021-07-11T07:28:59Z</time>
      </trkpt>
      <trkpt lat="45.97569" lon="2.83153">
        <ele>618</ele>
        <time>2021-07-11T07:29:00Z</time>
      </trkpt>
      <trkpt lat="45.97568" lon="2.83153">
        <ele>618</ele>
        <time>2021-07-11T07:29:01Z</time>
      </trkpt>
      <trkpt lat="45.97567" lon="2.83152">
        <ele>617.9</ele>
        <time>2021-07-11T07:29:02Z</time>
      </trkpt>
      <trkpt lat="45.97566" lon="2.83151">
        <ele>617.9</ele>
        <time>2021-07-11T07:29:03Z</time>
      </trkpt>
      <trkpt lat="45.97564" lon="2.8315">
        <ele>617.8</ele>
        <time>2021-07-11T07:29:04Z</time>
      </trkpt>
      <trkpt lat="45.97564" lon="2.83149">
        <ele>617.7</ele>
        <time>2021-07-11T07:29:05Z</time>
      </trkpt>
      <trkpt lat="45.97562" lon="2.83148">
        <ele>617.7</ele>
        <time>2021-07-11T07:29:06Z</time>
      </trkpt>
      <trkpt lat="45.97561" lon="2.83147">
        <ele>617.6</ele>
        <time>2021-07-11T07:29:07Z</time>
      </trkpt>
      <trkpt lat="45.97559" lon="2.83145">
        <ele>617.4</ele>
        <time>2021-07-11T07:29:08Z</time>
      </trkpt>
      <trkpt lat="45.97558" lon="2.83144">
        <ele>617.4</ele>
        <time>2021-07-11T07:29:09Z</time>
      </trkpt>
      <trkpt lat="45.97557" lon="2.83143">
        <ele>617.3</ele>
        <time>2021-07-11T07:29:10Z</time>
      </trkpt>
      <trkpt lat="45.97555" lon="2.83142">
        <ele>617.3</ele>
        <time>2021-07-11T07:29:11Z</time>
      </trkpt>
      <trkpt lat="45.97554" lon="2.83141">
        <ele>617.3</ele>
        <time>2021-07-11T07:29:12Z</time>
      </trkpt>
      <trkpt lat="45.97553" lon="2.8314">
        <ele>617.3</ele>
        <time>2021-07-11T07:29:13Z</time>
      </trkpt>
      <trkpt lat="45.97552" lon="2.83139">
        <ele>617.3</ele>
        <time>2021-07-11T07:29:14Z</time>
      </trkpt>
      <trkpt lat="45.9755" lon="2.83139">
        <ele>617.4</ele>
        <time>2021-07-11T07:29:15Z</time>
      </trkpt>
      <trkpt lat="45.97549" lon="2.83138">
        <ele>617.5</ele>
        <time>2021-07-11T07:29:16Z</time>
      </trkpt>
      <trkpt lat="45.97548" lon="2.83137">
        <ele>617.7</ele>
        <time>2021-07-11T07:29:17Z</time>
      </trkpt>
      <trkpt lat="45.97546" lon="2.83137">
        <ele>617.8</ele>
        <time>2021-07-11T07:29:18Z</time>
      </trkpt>
      <trkpt lat="45.97545" lon="2.83136">
        <ele>618</ele>
        <time>2021-07-11T07:29:19Z</time>
      </trkpt>
      <trkpt lat="45.97543" lon="2.83136">
        <ele>618.2</ele>
        <time>2021-07-11T07:29:20Z</time>
      </trkpt>
      <trkpt lat="45.97541" lon="2.83136">
        <ele>618.3</ele>
        <time>2021-07-11T07:29:21Z</time>
      </trkpt>
      <trkpt lat="45.97539" lon="2.83136">
        <ele>618.5</ele>
        <time>2021-07-11T07:29:22Z</time>
      </trkpt>
      <trkpt lat="45.97538" lon="2.83136">
        <ele>618.5</ele>
        <time>2021-07-11T07:29:23Z</time>
      </trkpt>
      <trkpt lat="45.97536" lon="2.83136">
        <ele>618.7</ele>
        <time>2021-07-11T07:29:24Z</time>
      </trkpt>
      <trkpt lat="45.97535" lon="2.83137">
        <ele>618.7</ele>
        <time>2021-07-11T07:29:25Z</time>
      </trkpt>
      <trkpt lat="45.97534" lon="2.83137">
        <ele>618.7</ele>
        <time>2021-07-11T07:29:26Z</time>
      </trkpt>
      <trkpt lat="45.97533" lon="2.83138">
        <ele>618.7</ele>
        <time>2021-07-11T07:29:27Z</time>
      </trkpt>
      <trkpt lat="45.97531" lon="2.83138">
        <ele>618.9</ele>
        <time>2021-07-11T07:29:28Z</time>
      </trkpt>
      <trkpt lat="45.9753" lon="2.83139">
        <ele>618.8</ele>
        <time>2021-07-11T07:29:29Z</time>
      </trkpt>
      <trkpt lat="45.97529" lon="2.83139">
        <ele>618.9</ele>
        <time>2021-07-11T07:29:30Z</time>
      </trkpt>
      <trkpt lat="45.97528" lon="2.8314">
        <ele>619</ele>
        <time>2021-07-11T07:29:31Z</time>
      </trkpt>
      <trkpt lat="45.97526" lon="2.8314">
        <ele>619.3</ele>
        <time>2021-07-11T07:29:32Z</time>
      </trkpt>
      <trkpt lat="45.97525" lon="2.83141">
        <ele>619.4</ele>
        <time>2021-07-11T07:29:33Z</time>
      </trkpt>
      <trkpt lat="45.97524" lon="2.83141">
        <ele>619.5</ele>
        <time>2021-07-11T07:29:34Z</time>
      </trkpt>
      <trkpt lat="45.97522" lon="2.83141">
        <ele>619.8</ele>
        <time>2021-07-11T07:29:35Z</time>
      </trkpt>
      <trkpt lat="45.97521" lon="2.83142">
        <ele>619.9</ele>
        <time>2021-07-11T07:29:36Z</time>
      </trkpt>
      <trkpt lat="45.97519" lon="2.83142">
        <ele>620.2</ele>
        <time>2021-07-11T07:29:37Z</time>
      </trkpt>
      <trkpt lat="45.97518" lon="2.83142">
        <ele>620.3</ele>
        <time>2021-07-11T07:29:38Z</time>
      </trkpt>
      <trkpt lat="45.97516" lon="2.83143">
        <ele>620.6</ele>
        <time>2021-07-11T07:29:39Z</time>
      </trkpt>
      <trkpt lat="45.97515" lon="2.83143">
        <ele>620.7</ele>
        <time>2021-07-11T07:29:40Z</time>
      </trkpt>
      <trkpt lat="45.97513" lon="2.83143">
        <ele>621</ele>
        <time>2021-07-11T07:29:41Z</time>
      </trkpt>
      <trkpt lat="45.97512" lon="2.83143">
        <ele>621.1</ele>
        <time>2021-07-11T07:29:42Z</time>
      </trkpt>
      <trkpt lat="45.97511" lon="2.83143">
        <ele>621.2</ele>
        <time>2021-07-11T07:29:43Z</time>
      </trkpt>
      <trkpt lat="45.97509" lon="2.83142">
        <ele>621.6</ele>
        <time>2021-07-11T07:29:44Z</time>
      </trkpt>
      <trkpt lat="45.97508" lon="2.83142">
        <ele>621.7</ele>
        <time>2021-07-11T07:29:45Z</time>
      </trkpt>
      <trkpt lat="45.97507" lon="2.83141">
        <ele>621.9</ele>
        <time>2021-07-11T07:29:46Z</time>
      </trkpt>
      <trkpt lat="45.97505" lon="2.8314">
        <ele>622.2</ele>
        <time>2021-07-11T07:29:47Z</time>
      </trkpt>
      <trkpt lat="45.97504" lon="2.8314">
        <ele>622.4</ele>
        <time>2021-07-11T07:29:48Z</time>
      </trkpt>
      <trkpt lat="45.97503" lon="2.83139">
        <ele>622.6</ele>
        <time>2021-07-11T07:29:49Z</time>
      </trkpt>
      <trkpt lat="45.97501" lon="2.83139">
        <ele>622.8</ele>
        <time>2021-07-11T07:29:50Z</time>
      </trkpt>
      <trkpt lat="45.975" lon="2.83139">
        <ele>623</ele>
        <time>2021-07-11T07:29:51Z</time>
      </trkpt>
      <trkpt lat="45.97499" lon="2.83138">
        <ele>623</ele>
        <time>2021-07-11T07:29:52Z</time>
      </trkpt>
      <trkpt lat="45.97498" lon="2.83138">
        <ele>623.1</ele>
        <time>2021-07-11T07:29:53Z</time>
      </trkpt>
      <trkpt lat="45.97497" lon="2.83138">
        <ele>623.1</ele>
        <time>2021-07-11T07:29:54Z</time>
      </trkpt>
      <trkpt lat="45.97496" lon="2.83138">
        <ele>623.2</ele>
        <time>2021-07-11T07:29:55Z</time>
      </trkpt>
      <trkpt lat="45.97495" lon="2.83137">
        <ele>623.2</ele>
        <time>2021-07-11T07:29:56Z</time>
      </trkpt>
      <trkpt lat="45.97494" lon="2.83137">
        <ele>623.2</ele>
        <time>2021-07-11T07:29:57Z</time>
      </trkpt>
      <trkpt lat="45.97493" lon="2.83137">
        <ele>623.3</ele>
        <time>2021-07-11T07:29:58Z</time>
      </trkpt>
      <trkpt lat="45.97491" lon="2.83137">
        <ele>623.4</ele>
        <time>2021-07-11T07:29:59Z</time>
      </trkpt>
      <trkpt lat="45.9749" lon="2.83137">
        <ele>623.4</ele>
        <time>2021-07-11T07:30:00Z</time>
      </trkpt>
      <trkpt lat="45.97489" lon="2.83137">
        <ele>623.4</ele>
        <time>2021-07-11T07:30:01Z</time>
      </trkpt>
      <trkpt lat="45.97488" lon="2.83137">
        <ele>623.5</ele>
        <time>2021-07-11T07:30:02Z</time>
      </trkpt>
      <trkpt lat="45.97486" lon="2.83137">
        <ele>623.6</ele>
        <time>2021-07-11T07:30:03Z</time>
      </trkpt>
      <trkpt lat="45.97485" lon="2.83137">
        <ele>623.6</ele>
        <time>2021-07-11T07:30:04Z</time>
      </trkpt>
      <trkpt lat="45.97483" lon="2.83138">
        <ele>623.7</ele>
        <time>2021-07-11T07:30:05Z</time>
      </trkpt>
      <trkpt lat="45.97483" lon="2.83139">
        <ele>623.6</ele>
        <time>2021-07-11T07:30:06Z</time>
      </trkpt>
      <trkpt lat="45.97481" lon="2.83139">
        <ele>623.7</ele>
        <time>2021-07-11T07:30:07Z</time>
      </trkpt>
      <trkpt lat="45.97479" lon="2.8314">
        <ele>623.7</ele>
        <time>2021-07-11T07:30:08Z</time>
      </trkpt>
      <trkpt lat="45.97478" lon="2.83141">
        <ele>623.6</ele>
        <time>2021-07-11T07:30:09Z</time>
      </trkpt>
      <trkpt lat="45.97476" lon="2.83142">
        <ele>623.6</ele>
        <time>2021-07-11T07:30:10Z</time>
      </trkpt>
      <trkpt lat="45.97475" lon="2.83142">
        <ele>623.7</ele>
        <time>2021-07-11T07:30:11Z</time>
      </trkpt>
      <trkpt lat="45.97474" lon="2.83143">
        <ele>623.6</ele>
        <time>2021-07-11T07:30:12Z</time>
      </trkpt>
      <trkpt lat="45.97472" lon="2.83143">
        <ele>623.7</ele>
        <time>2021-07-11T07:30:13Z</time>
      </trkpt>
      <trkpt lat="45.97471" lon="2.83143">
        <ele>623.9</ele>
        <time>2021-07-11T07:30:14Z</time>
      </trkpt>
      <trkpt lat="45.97469" lon="2.83144">
        <ele>624.1</ele>
        <time>2021-07-11T07:30:15Z</time>
      </trkpt>
      <trkpt lat="45.97468" lon="2.83144">
        <ele>624.2</ele>
        <time>2021-07-11T07:30:16Z</time>
      </trkpt>
      <trkpt lat="45.97466" lon="2.83144">
        <ele>624.5</ele>
        <time>2021-07-11T07:30:17Z</time>
      </trkpt>
      <trkpt lat="45.97465" lon="2.83144">
        <ele>624.7</ele>
        <time>2021-07-11T07:30:18Z</time>
      </trkpt>
      <trkpt lat="45.97464" lon="2.83144">
        <ele>624.8</ele>
        <time>2021-07-11T07:30:19Z</time>
      </trkpt>
      <trkpt lat="45.97463" lon="2.83144">
        <ele>625</ele>
        <time>2021-07-11T07:30:20Z</time>
      </trkpt>
      <trkpt lat="45.97461" lon="2.83144">
        <ele>625.2</ele>
        <time>2021-07-11T07:30:21Z</time>
      </trkpt>
      <trkpt lat="45.9746" lon="2.83144">
        <ele>625.4</ele>
        <time>2021-07-11T07:30:22Z</time>
      </trkpt>
      <trkpt lat="45.97459" lon="2.83144">
        <ele>625.5</ele>
        <time>2021-07-11T07:30:23Z</time>
      </trkpt>
      <trkpt lat="45.97458" lon="2.83144">
        <ele>625.7</ele>
        <time>2021-07-11T07:30:24Z</time>
      </trkpt>
      <trkpt lat="45.97456" lon="2.83144">
        <ele>626</ele>
        <time>2021-07-11T07:30:25Z</time>
      </trkpt>
      <trkpt lat="45.97455" lon="2.83144">
        <ele>626.1</ele>
        <time>2021-07-11T07:30:26Z</time>
      </trkpt>
      <trkpt lat="45.97453" lon="2.83144">
        <ele>626.4</ele>
        <time>2021-07-11T07:30:27Z</time>
      </trkpt>
      <trkpt lat="45.97452" lon="2.83144">
        <ele>626.5</ele>
        <time>2021-07-11T07:30:28Z</time>
      </trkpt>
      <trkpt lat="45.97451" lon="2.83144">
        <ele>626.7</ele>
        <time>2021-07-11T07:30:29Z</time>
      </trkpt>
      <trkpt lat="45.97449" lon="2.83144">
        <ele>627</ele>
        <time>2021-07-11T07:30:30Z</time>
      </trkpt>
      <trkpt lat="45.97448" lon="2.83144">
        <ele>627.1</ele>
        <time>2021-07-11T07:30:31Z</time>
      </trkpt>
      <trkpt lat="45.97446" lon="2.83144">
        <ele>627.4</ele>
        <time>2021-07-11T07:30:32Z</time>
      </trkpt>
      <trkpt lat="45.97445" lon="2.83144">
        <ele>627.6</ele>
        <time>2021-07-11T07:30:33Z</time>
      </trkpt>
      <trkpt lat="45.97444" lon="2.83144">
        <ele>627.7</ele>
        <time>2021-07-11T07:30:34Z</time>
      </trkpt>
      <trkpt lat="45.97442" lon="2.83144">
        <ele>628</ele>
        <time>2021-07-11T07:30:35Z</time>
      </trkpt>
      <trkpt lat="45.9744" lon="2.83144">
        <ele>628.3</ele>
        <time>2021-07-11T07:30:36Z</time>
      </trkpt>
      <trkpt lat="45.97438" lon="2.83144">
        <ele>628.6</ele>
        <time>2021-07-11T07:30:37Z</time>
      </trkpt>
      <trkpt lat="45.97437" lon="2.83144">
        <ele>628.7</ele>
        <time>2021-07-11T07:30:38Z</time>
      </trkpt>
      <trkpt lat="45.97435" lon="2.83144">
        <ele>629</ele>
        <time>2021-07-11T07:30:39Z</time>
      </trkpt>
      <trkpt lat="45.97434" lon="2.83144">
        <ele>629.1</ele>
        <time>2021-07-11T07:30:40Z</time>
      </trkpt>
      <trkpt lat="45.97432" lon="2.83144">
        <ele>629.4</ele>
        <time>2021-07-11T07:30:41Z</time>
      </trkpt>
      <trkpt lat="45.97431" lon="2.83143">
        <ele>629.6</ele>
        <time>2021-07-11T07:30:42Z</time>
      </trkpt>
      <trkpt lat="45.97429" lon="2.83142">
        <ele>630</ele>
        <time>2021-07-11T07:30:43Z</time>
      </trkpt>
      <trkpt lat="45.97428" lon="2.83142">
        <ele>630.1</ele>
        <time>2021-07-11T07:30:44Z</time>
      </trkpt>
      <trkpt lat="45.97426" lon="2.83141">
        <ele>630.5</ele>
        <time>2021-07-11T07:30:45Z</time>
      </trkpt>
      <trkpt lat="45.97425" lon="2.8314">
        <ele>630.7</ele>
        <time>2021-07-11T07:30:46Z</time>
      </trkpt>
      <trkpt lat="45.97423" lon="2.8314">
        <ele>631</ele>
        <time>2021-07-11T07:30:47Z</time>
      </trkpt>
      <trkpt lat="45.97422" lon="2.83139">
        <ele>631.2</ele>
        <time>2021-07-11T07:30:48Z</time>
      </trkpt>
      <trkpt lat="45.97421" lon="2.83139">
        <ele>631.4</ele>
        <time>2021-07-11T07:30:49Z</time>
      </trkpt>
      <trkpt lat="45.97419" lon="2.83139">
        <ele>631.7</ele>
        <time>2021-07-11T07:30:50Z</time>
      </trkpt>
      <trkpt lat="45.97418" lon="2.83139">
        <ele>631.8</ele>
        <time>2021-07-11T07:30:51Z</time>
      </trkpt>
      <trkpt lat="45.97416" lon="2.83139">
        <ele>632.1</ele>
        <time>2021-07-11T07:30:53Z</time>
      </trkpt>
      <trkpt lat="45.97416" lon="2.83138">
        <ele>632.1</ele>
        <time>2021-07-11T07:30:54Z</time>
      </trkpt>
      <trkpt lat="45.9741" lon="2.83138">
        <ele>632.8</ele>
        <time>2021-07-11T07:30:55Z</time>
      </trkpt>
      <trkpt lat="45.97409" lon="2.83138">
        <ele>632.9</ele>
        <time>2021-07-11T07:30:56Z</time>
      </trkpt>
      <trkpt lat="45.97409" lon="2.83139">
        <ele>632.8</ele>
        <time>2021-07-11T07:30:57Z</time>
      </trkpt>
      <trkpt lat="45.97408" lon="2.83139">
        <ele>632.9</ele>
        <time>2021-07-11T07:30:58Z</time>
      </trkpt>
      <trkpt lat="45.97407" lon="2.8314">
        <ele>633</ele>
        <time>2021-07-11T07:30:59Z</time>
      </trkpt>
      <trkpt lat="45.97406" lon="2.8314">
        <ele>633.1</ele>
        <time>2021-07-11T07:31:00Z</time>
      </trkpt>
      <trkpt lat="45.97405" lon="2.8314">
        <ele>633.2</ele>
        <time>2021-07-11T07:31:01Z</time>
      </trkpt>
      <trkpt lat="45.97403" lon="2.83141">
        <ele>633.4</ele>
        <time>2021-07-11T07:31:02Z</time>
      </trkpt>
      <trkpt lat="45.97401" lon="2.83141">
        <ele>633.6</ele>
        <time>2021-07-11T07:31:03Z</time>
      </trkpt>
      <trkpt lat="45.97401" lon="2.83141">
        <ele>633.6</ele>
        <time>2021-07-11T07:31:04Z</time>
      </trkpt>
      <trkpt lat="45.97399" lon="2.83142">
        <ele>633.8</ele>
        <time>2021-07-11T07:31:05Z</time>
      </trkpt>
      <trkpt lat="45.97398" lon="2.83142">
        <ele>633.9</ele>
        <time>2021-07-11T07:31:06Z</time>
      </trkpt>
      <trkpt lat="45.97396" lon="2.83142">
        <ele>634.1</ele>
        <time>2021-07-11T07:31:07Z</time>
      </trkpt>
      <trkpt lat="45.97395" lon="2.83143">
        <ele>634.2</ele>
        <time>2021-07-11T07:31:08Z</time>
      </trkpt>
      <trkpt lat="45.97393" lon="2.83143">
        <ele>634.4</ele>
        <time>2021-07-11T07:31:09Z</time>
      </trkpt>
      <trkpt lat="45.97392" lon="2.83143">
        <ele>634.5</ele>
        <time>2021-07-11T07:31:10Z</time>
      </trkpt>
      <trkpt lat="45.97391" lon="2.83144">
        <ele>634.6</ele>
        <time>2021-07-11T07:31:11Z</time>
      </trkpt>
      <trkpt lat="45.9739" lon="2.83144">
        <ele>634.7</ele>
        <time>2021-07-11T07:31:12Z</time>
      </trkpt>
      <trkpt lat="45.97389" lon="2.83144">
        <ele>634.8</ele>
        <time>2021-07-11T07:31:13Z</time>
      </trkpt>
      <trkpt lat="45.97387" lon="2.83145">
        <ele>635.1</ele>
        <time>2021-07-11T07:31:14Z</time>
      </trkpt>
      <trkpt lat="45.97386" lon="2.83146">
        <ele>635.2</ele>
        <time>2021-07-11T07:31:15Z</time>
      </trkpt>
      <trkpt lat="45.97385" lon="2.83146">
        <ele>635.3</ele>
        <time>2021-07-11T07:31:16Z</time>
      </trkpt>
      <trkpt lat="45.97384" lon="2.83146">
        <ele>635.4</ele>
        <time>2021-07-11T07:31:17Z</time>
      </trkpt>
      <trkpt lat="45.97383" lon="2.83147">
        <ele>635.6</ele>
        <time>2021-07-11T07:31:18Z</time>
      </trkpt>
      <trkpt lat="45.97382" lon="2.83147">
        <ele>635.7</ele>
        <time>2021-07-11T07:31:19Z</time>
      </trkpt>
      <trkpt lat="45.9738" lon="2.83148">
        <ele>636</ele>
        <time>2021-07-11T07:31:20Z</time>
      </trkpt>
      <trkpt lat="45.9738" lon="2.83148">
        <ele>636</ele>
        <time>2021-07-11T07:31:21Z</time>
      </trkpt>
      <trkpt lat="45.97379" lon="2.83148">
        <ele>636.1</ele>
        <time>2021-07-11T07:31:22Z</time>
      </trkpt>
      <trkpt lat="45.97377" lon="2.83148">
        <ele>636.4</ele>
        <time>2021-07-11T07:31:23Z</time>
      </trkpt>
      <trkpt lat="45.97377" lon="2.83148">
        <ele>636.4</ele>
        <time>2021-07-11T07:31:24Z</time>
      </trkpt>
      <trkpt lat="45.97375" lon="2.83149">
        <ele>636.6</ele>
        <time>2021-07-11T07:31:25Z</time>
      </trkpt>
      <trkpt lat="45.97374" lon="2.83149">
        <ele>636.8</ele>
        <time>2021-07-11T07:31:26Z</time>
      </trkpt>
      <trkpt lat="45.97372" lon="2.83149">
        <ele>637.1</ele>
        <time>2021-07-11T07:31:27Z</time>
      </trkpt>
      <trkpt lat="45.97371" lon="2.8315">
        <ele>637.2</ele>
        <time>2021-07-11T07:31:28Z</time>
      </trkpt>
      <trkpt lat="45.9737" lon="2.8315">
        <ele>637.3</ele>
        <time>2021-07-11T07:31:29Z</time>
      </trkpt>
      <trkpt lat="45.97369" lon="2.83151">
        <ele>637.4</ele>
        <time>2021-07-11T07:31:30Z</time>
      </trkpt>
      <trkpt lat="45.97368" lon="2.83153">
        <ele>637.5</ele>
        <time>2021-07-11T07:31:31Z</time>
      </trkpt>
      <trkpt lat="45.97368" lon="2.83154">
        <ele>637.5</ele>
        <time>2021-07-11T07:31:32Z</time>
      </trkpt>
      <trkpt lat="45.97367" lon="2.83155">
        <ele>637.6</ele>
        <time>2021-07-11T07:31:33Z</time>
      </trkpt>
      <trkpt lat="45.97366" lon="2.83156">
        <ele>637.7</ele>
        <time>2021-07-11T07:31:34Z</time>
      </trkpt>
      <trkpt lat="45.97366" lon="2.83157">
        <ele>637.6</ele>
        <time>2021-07-11T07:31:35Z</time>
      </trkpt>
      <trkpt lat="45.97365" lon="2.83158">
        <ele>637.8</ele>
        <time>2021-07-11T07:31:36Z</time>
      </trkpt>
      <trkpt lat="45.97365" lon="2.83158">
        <ele>637.8</ele>
        <time>2021-07-11T07:31:37Z</time>
      </trkpt>
      <trkpt lat="45.97365" lon="2.83159">
        <ele>637.7</ele>
        <time>2021-07-11T07:31:38Z</time>
      </trkpt>
      <trkpt lat="45.97364" lon="2.8316">
        <ele>637.8</ele>
        <time>2021-07-11T07:31:39Z</time>
      </trkpt>
      <trkpt lat="45.97363" lon="2.83161">
        <ele>637.9</ele>
        <time>2021-07-11T07:31:40Z</time>
      </trkpt>
      <trkpt lat="45.97363" lon="2.83162">
        <ele>637.9</ele>
        <time>2021-07-11T07:31:41Z</time>
      </trkpt>
      <trkpt lat="45.97362" lon="2.83163">
        <ele>638</ele>
        <time>2021-07-11T07:31:42Z</time>
      </trkpt>
      <trkpt lat="45.97361" lon="2.83164">
        <ele>638.1</ele>
        <time>2021-07-11T07:31:43Z</time>
      </trkpt>
      <trkpt lat="45.9736" lon="2.83165">
        <ele>638.2</ele>
        <time>2021-07-11T07:31:44Z</time>
      </trkpt>
      <trkpt lat="45.97359" lon="2.83166">
        <ele>638.3</ele>
        <time>2021-07-11T07:31:45Z</time>
      </trkpt>
      <trkpt lat="45.97358" lon="2.83167">
        <ele>638.3</ele>
        <time>2021-07-11T07:31:46Z</time>
      </trkpt>
      <trkpt lat="45.97357" lon="2.83168">
        <ele>638.4</ele>
        <time>2021-07-11T07:31:47Z</time>
      </trkpt>
      <trkpt lat="45.97356" lon="2.83169">
        <ele>638.6</ele>
        <time>2021-07-11T07:31:48Z</time>
      </trkpt>
      <trkpt lat="45.97356" lon="2.83169">
        <ele>638.6</ele>
        <time>2021-07-11T07:31:49Z</time>
      </trkpt>
      <trkpt lat="45.97355" lon="2.8317">
        <ele>638.7</ele>
        <time>2021-07-11T07:31:50Z</time>
      </trkpt>
      <trkpt lat="45.97354" lon="2.83171">
        <ele>638.8</ele>
        <time>2021-07-11T07:31:51Z</time>
      </trkpt>
      <trkpt lat="45.97353" lon="2.83172">
        <ele>638.9</ele>
        <time>2021-07-11T07:31:52Z</time>
      </trkpt>
      <trkpt lat="45.97353" lon="2.83172">
        <ele>638.9</ele>
        <time>2021-07-11T07:31:53Z</time>
      </trkpt>
      <trkpt lat="45.97352" lon="2.83173">
        <ele>639</ele>
        <time>2021-07-11T07:31:55Z</time>
      </trkpt>
      <trkpt lat="45.97348" lon="2.83175">
        <ele>639.4</ele>
        <time>2021-07-11T07:31:56Z</time>
      </trkpt>
      <trkpt lat="45.97348" lon="2.83175">
        <ele>639.4</ele>
        <time>2021-07-11T07:31:57Z</time>
      </trkpt>
      <trkpt lat="45.97347" lon="2.83176">
        <ele>639.5</ele>
        <time>2021-07-11T07:31:58Z</time>
      </trkpt>
      <trkpt lat="45.97346" lon="2.83176">
        <ele>639.6</ele>
        <time>2021-07-11T07:31:59Z</time>
      </trkpt>
      <trkpt lat="45.97345" lon="2.83177">
        <ele>639.7</ele>
        <time>2021-07-11T07:32:00Z</time>
      </trkpt>
      <trkpt lat="45.97344" lon="2.83177">
        <ele>639.8</ele>
        <time>2021-07-11T07:32:01Z</time>
      </trkpt>
      <trkpt lat="45.97343" lon="2.83178">
        <ele>640</ele>
        <time>2021-07-11T07:32:02Z</time>
      </trkpt>
      <trkpt lat="45.97342" lon="2.83179">
        <ele>640.1</ele>
        <time>2021-07-11T07:32:03Z</time>
      </trkpt>
      <trkpt lat="45.97341" lon="2.8318">
        <ele>640.2</ele>
        <time>2021-07-11T07:32:04Z</time>
      </trkpt>
      <trkpt lat="45.9734" lon="2.83181">
        <ele>640.3</ele>
        <time>2021-07-11T07:32:05Z</time>
      </trkpt>
      <trkpt lat="45.97338" lon="2.83182">
        <ele>640.5</ele>
        <time>2021-07-11T07:32:06Z</time>
      </trkpt>
      <trkpt lat="45.97337" lon="2.83184">
        <ele>640.6</ele>
        <time>2021-07-11T07:32:07Z</time>
      </trkpt>
      <trkpt lat="45.97336" lon="2.83185">
        <ele>640.7</ele>
        <time>2021-07-11T07:32:08Z</time>
      </trkpt>
      <trkpt lat="45.97335" lon="2.83186">
        <ele>640.8</ele>
        <time>2021-07-11T07:32:09Z</time>
      </trkpt>
      <trkpt lat="45.97333" lon="2.83187">
        <ele>641</ele>
        <time>2021-07-11T07:32:10Z</time>
      </trkpt>
      <trkpt lat="45.97332" lon="2.83189">
        <ele>641.2</ele>
        <time>2021-07-11T07:32:11Z</time>
      </trkpt>
      <trkpt lat="45.9733" lon="2.8319">
        <ele>641.5</ele>
        <time>2021-07-11T07:32:12Z</time>
      </trkpt>
      <trkpt lat="45.97329" lon="2.83191">
        <ele>641.6</ele>
        <time>2021-07-11T07:32:13Z</time>
      </trkpt>
      <trkpt lat="45.97326" lon="2.83192">
        <ele>642.1</ele>
        <time>2021-07-11T07:32:14Z</time>
      </trkpt>
      <trkpt lat="45.97324" lon="2.83193">
        <ele>642.3</ele>
        <time>2021-07-11T07:32:15Z</time>
      </trkpt>
      <trkpt lat="45.97322" lon="2.83194">
        <ele>642.6</ele>
        <time>2021-07-11T07:32:16Z</time>
      </trkpt>
      <trkpt lat="45.9732" lon="2.83195">
        <ele>642.9</ele>
        <time>2021-07-11T07:32:17Z</time>
      </trkpt>
      <trkpt lat="45.97318" lon="2.83196">
        <ele>643.3</ele>
        <time>2021-07-11T07:32:18Z</time>
      </trkpt>
      <trkpt lat="45.97316" lon="2.83197">
        <ele>643.6</ele>
        <time>2021-07-11T07:32:19Z</time>
      </trkpt>
      <trkpt lat="45.97314" lon="2.83197">
        <ele>643.8</ele>
        <time>2021-07-11T07:32:20Z</time>
      </trkpt>
      <trkpt lat="45.97313" lon="2.83198">
        <ele>644</ele>
        <time>2021-07-11T07:32:21Z</time>
      </trkpt>
      <trkpt lat="45.97311" lon="2.83199">
        <ele>644.3</ele>
        <time>2021-07-11T07:32:22Z</time>
      </trkpt>
      <trkpt lat="45.9731" lon="2.832">
        <ele>644.4</ele>
        <time>2021-07-11T07:32:23Z</time>
      </trkpt>
      <trkpt lat="45.97307" lon="2.83201">
        <ele>644.8</ele>
        <time>2021-07-11T07:32:24Z</time>
      </trkpt>
      <trkpt lat="45.97306" lon="2.83201">
        <ele>644.9</ele>
        <time>2021-07-11T07:32:25Z</time>
      </trkpt>
      <trkpt lat="45.97304" lon="2.83202">
        <ele>645.1</ele>
        <time>2021-07-11T07:32:26Z</time>
      </trkpt>
      <trkpt lat="45.97303" lon="2.83202">
        <ele>645.2</ele>
        <time>2021-07-11T07:32:27Z</time>
      </trkpt>
      <trkpt lat="45.97301" lon="2.83203">
        <ele>645.3</ele>
        <time>2021-07-11T07:32:28Z</time>
      </trkpt>
      <trkpt lat="45.973" lon="2.83203">
        <ele>645.3</ele>
        <time>2021-07-11T07:32:29Z</time>
      </trkpt>
      <trkpt lat="45.97298" lon="2.83203">
        <ele>645.5</ele>
        <time>2021-07-11T07:32:30Z</time>
      </trkpt>
      <trkpt lat="45.97297" lon="2.83204">
        <ele>645.5</ele>
        <time>2021-07-11T07:32:31Z</time>
      </trkpt>
      <trkpt lat="45.97295" lon="2.83204">
        <ele>645.6</ele>
        <time>2021-07-11T07:32:32Z</time>
      </trkpt>
      <trkpt lat="45.97294" lon="2.83205">
        <ele>645.7</ele>
        <time>2021-07-11T07:32:33Z</time>
      </trkpt>
      <trkpt lat="45.97292" lon="2.83205">
        <ele>645.8</ele>
        <time>2021-07-11T07:32:34Z</time>
      </trkpt>
      <trkpt lat="45.9729" lon="2.83205">
        <ele>645.9</ele>
        <time>2021-07-11T07:32:35Z</time>
      </trkpt>
      <trkpt lat="45.9729" lon="2.83206">
        <ele>645.9</ele>
        <time>2021-07-11T07:32:36Z</time>
      </trkpt>
      <trkpt lat="45.97288" lon="2.83206">
        <ele>646</ele>
        <time>2021-07-11T07:32:37Z</time>
      </trkpt>
      <trkpt lat="45.97286" lon="2.83207">
        <ele>646.1</ele>
        <time>2021-07-11T07:32:38Z</time>
      </trkpt>
      <trkpt lat="45.97286" lon="2.83207">
        <ele>646.1</ele>
        <time>2021-07-11T07:32:39Z</time>
      </trkpt>
      <trkpt lat="45.97284" lon="2.83208">
        <ele>646.2</ele>
        <time>2021-07-11T07:32:40Z</time>
      </trkpt>
      <trkpt lat="45.97282" lon="2.83208">
        <ele>646.3</ele>
        <time>2021-07-11T07:32:41Z</time>
      </trkpt>
      <trkpt lat="45.97281" lon="2.83208">
        <ele>646.3</ele>
        <time>2021-07-11T07:32:42Z</time>
      </trkpt>
      <trkpt lat="45.9728" lon="2.83208">
        <ele>646.4</ele>
        <time>2021-07-11T07:32:43Z</time>
      </trkpt>
      <trkpt lat="45.97278" lon="2.83208">
        <ele>646.5</ele>
        <time>2021-07-11T07:32:44Z</time>
      </trkpt>
      <trkpt lat="45.97277" lon="2.83208">
        <ele>646.6</ele>
        <time>2021-07-11T07:32:45Z</time>
      </trkpt>
      <trkpt lat="45.97275" lon="2.83207">
        <ele>646.7</ele>
        <time>2021-07-11T07:32:46Z</time>
      </trkpt>
      <trkpt lat="45.97274" lon="2.83207">
        <ele>646.8</ele>
        <time>2021-07-11T07:32:47Z</time>
      </trkpt>
      <trkpt lat="45.97273" lon="2.83207">
        <ele>646.8</ele>
        <time>2021-07-11T07:32:48Z</time>
      </trkpt>
      <trkpt lat="45.97272" lon="2.83208">
        <ele>646.8</ele>
        <time>2021-07-11T07:32:49Z</time>
      </trkpt>
      <trkpt lat="45.9727" lon="2.83208">
        <ele>646.9</ele>
        <time>2021-07-11T07:32:50Z</time>
      </trkpt>
      <trkpt lat="45.97269" lon="2.83208">
        <ele>647</ele>
        <time>2021-07-11T07:32:51Z</time>
      </trkpt>
      <trkpt lat="45.97268" lon="2.83208">
        <ele>647.1</ele>
        <time>2021-07-11T07:32:52Z</time>
      </trkpt>
      <trkpt lat="45.97267" lon="2.83208">
        <ele>647.1</ele>
        <time>2021-07-11T07:32:53Z</time>
      </trkpt>
      <trkpt lat="45.97266" lon="2.83208">
        <ele>647.2</ele>
        <time>2021-07-11T07:32:54Z</time>
      </trkpt>
      <trkpt lat="45.97265" lon="2.83209">
        <ele>647.1</ele>
        <time>2021-07-11T07:32:55Z</time>
      </trkpt>
      <trkpt lat="45.97263" lon="2.83209">
        <ele>647.2</ele>
        <time>2021-07-11T07:32:56Z</time>
      </trkpt>
      <trkpt lat="45.97262" lon="2.83209">
        <ele>647.3</ele>
        <time>2021-07-11T07:32:57Z</time>
      </trkpt>
      <trkpt lat="45.97261" lon="2.83209">
        <ele>647.3</ele>
        <time>2021-07-11T07:32:57Z</time>
      </trkpt>
      <trkpt lat="45.9726" lon="2.8321">
        <ele>647.3</ele>
        <time>2021-07-11T07:32:58Z</time>
      </trkpt>
      <trkpt lat="45.97259" lon="2.8321">
        <ele>647.3</ele>
        <time>2021-07-11T07:32:59Z</time>
      </trkpt>
      <trkpt lat="45.97258" lon="2.8321">
        <ele>647.4</ele>
        <time>2021-07-11T07:33:00Z</time>
      </trkpt>
      <trkpt lat="45.97257" lon="2.83211">
        <ele>647.3</ele>
        <time>2021-07-11T07:33:01Z</time>
      </trkpt>
      <trkpt lat="45.97256" lon="2.83211">
        <ele>647.4</ele>
        <time>2021-07-11T07:33:02Z</time>
      </trkpt>
      <trkpt lat="45.97255" lon="2.83212">
        <ele>647.3</ele>
        <time>2021-07-11T07:33:03Z</time>
      </trkpt>
      <trkpt lat="45.97253" lon="2.83213">
        <ele>647.2</ele>
        <time>2021-07-11T07:33:04Z</time>
      </trkpt>
      <trkpt lat="45.97252" lon="2.83214">
        <ele>647.1</ele>
        <time>2021-07-11T07:33:05Z</time>
      </trkpt>
      <trkpt lat="45.9725" lon="2.83215">
        <ele>647</ele>
        <time>2021-07-11T07:33:06Z</time>
      </trkpt>
      <trkpt lat="45.97249" lon="2.83216">
        <ele>647</ele>
        <time>2021-07-11T07:33:07Z</time>
      </trkpt>
      <trkpt lat="45.97247" lon="2.83217">
        <ele>647.1</ele>
        <time>2021-07-11T07:33:08Z</time>
      </trkpt>
      <trkpt lat="45.97245" lon="2.83218">
        <ele>647.1</ele>
        <time>2021-07-11T07:33:09Z</time>
      </trkpt>
      <trkpt lat="45.97244" lon="2.83218">
        <ele>647.2</ele>
        <time>2021-07-11T07:33:10Z</time>
      </trkpt>
      <trkpt lat="45.97242" lon="2.83218">
        <ele>647.4</ele>
        <time>2021-07-11T07:33:11Z</time>
      </trkpt>
      <trkpt lat="45.97241" lon="2.83218">
        <ele>647.5</ele>
        <time>2021-07-11T07:33:12Z</time>
      </trkpt>
      <trkpt lat="45.97239" lon="2.83218">
        <ele>647.7</ele>
        <time>2021-07-11T07:33:13Z</time>
      </trkpt>
      <trkpt lat="45.97238" lon="2.83218">
        <ele>647.8</ele>
        <time>2021-07-11T07:33:14Z</time>
      </trkpt>
      <trkpt lat="45.97237" lon="2.83218">
        <ele>647.9</ele>
        <time>2021-07-11T07:33:15Z</time>
      </trkpt>
      <trkpt lat="45.97235" lon="2.83218">
        <ele>648.1</ele>
        <time>2021-07-11T07:33:16Z</time>
      </trkpt>
      <trkpt lat="45.97234" lon="2.83218">
        <ele>648.2</ele>
        <time>2021-07-11T07:33:17Z</time>
      </trkpt>
      <trkpt lat="45.97233" lon="2.83218">
        <ele>648.4</ele>
        <time>2021-07-11T07:33:18Z</time>
      </trkpt>
      <trkpt lat="45.97232" lon="2.83218">
        <ele>648.5</ele>
        <time>2021-07-11T07:33:19Z</time>
      </trkpt>
      <trkpt lat="45.9723" lon="2.83219">
        <ele>648.5</ele>
        <time>2021-07-11T07:33:20Z</time>
      </trkpt>
      <trkpt lat="45.97229" lon="2.83219">
        <ele>648.6</ele>
        <time>2021-07-11T07:33:21Z</time>
      </trkpt>
      <trkpt lat="45.97228" lon="2.8322">
        <ele>648.6</ele>
        <time>2021-07-11T07:33:22Z</time>
      </trkpt>
      <trkpt lat="45.97226" lon="2.8322">
        <ele>648.8</ele>
        <time>2021-07-11T07:33:23Z</time>
      </trkpt>
      <trkpt lat="45.97224" lon="2.83221">
        <ele>648.9</ele>
        <time>2021-07-11T07:33:24Z</time>
      </trkpt>
      <trkpt lat="45.97223" lon="2.83222">
        <ele>648.9</ele>
        <time>2021-07-11T07:33:25Z</time>
      </trkpt>
      <trkpt lat="45.97221" lon="2.83222">
        <ele>649.2</ele>
        <time>2021-07-11T07:33:26Z</time>
      </trkpt>
      <trkpt lat="45.9722" lon="2.83223">
        <ele>649.3</ele>
        <time>2021-07-11T07:33:27Z</time>
      </trkpt>
      <trkpt lat="45.97219" lon="2.83224">
        <ele>649.4</ele>
        <time>2021-07-11T07:33:28Z</time>
      </trkpt>
      <trkpt lat="45.97217" lon="2.83225">
        <ele>649.7</ele>
        <time>2021-07-11T07:33:29Z</time>
      </trkpt>
      <trkpt lat="45.97216" lon="2.83226">
        <ele>649.8</ele>
        <time>2021-07-11T07:33:30Z</time>
      </trkpt>
      <trkpt lat="45.97215" lon="2.83227">
        <ele>649.9</ele>
        <time>2021-07-11T07:33:31Z</time>
      </trkpt>
      <trkpt lat="45.97213" lon="2.83228">
        <ele>650.1</ele>
        <time>2021-07-11T07:33:32Z</time>
      </trkpt>
      <trkpt lat="45.97212" lon="2.83229">
        <ele>650.2</ele>
        <time>2021-07-11T07:33:33Z</time>
      </trkpt>
      <trkpt lat="45.97211" lon="2.83229">
        <ele>650.4</ele>
        <time>2021-07-11T07:33:34Z</time>
      </trkpt>
      <trkpt lat="45.9721" lon="2.8323">
        <ele>650.5</ele>
        <time>2021-07-11T07:33:35Z</time>
      </trkpt>
      <trkpt lat="45.97208" lon="2.8323">
        <ele>650.8</ele>
        <time>2021-07-11T07:33:36Z</time>
      </trkpt>
      <trkpt lat="45.97208" lon="2.83231">
        <ele>650.7</ele>
        <time>2021-07-11T07:33:37Z</time>
      </trkpt>
      <trkpt lat="45.97207" lon="2.83231">
        <ele>650.9</ele>
        <time>2021-07-11T07:33:38Z</time>
      </trkpt>
      <trkpt lat="45.97205" lon="2.83231">
        <ele>651.2</ele>
        <time>2021-07-11T07:33:39Z</time>
      </trkpt>
      <trkpt lat="45.97205" lon="2.83231">
        <ele>651.2</ele>
        <time>2021-07-11T07:33:40Z</time>
      </trkpt>
      <trkpt lat="45.97203" lon="2.83231">
        <ele>651.5</ele>
        <time>2021-07-11T07:33:41Z</time>
      </trkpt>
      <trkpt lat="45.97202" lon="2.83231">
        <ele>651.6</ele>
        <time>2021-07-11T07:33:42Z</time>
      </trkpt>
      <trkpt lat="45.97201" lon="2.83232">
        <ele>651.7</ele>
        <time>2021-07-11T07:33:43Z</time>
      </trkpt>
      <trkpt lat="45.972" lon="2.83232">
        <ele>651.8</ele>
        <time>2021-07-11T07:33:44Z</time>
      </trkpt>
      <trkpt lat="45.97199" lon="2.83232">
        <ele>652</ele>
        <time>2021-07-11T07:33:45Z</time>
      </trkpt>
      <trkpt lat="45.97197" lon="2.83232">
        <ele>652.3</ele>
        <time>2021-07-11T07:33:46Z</time>
      </trkpt>
      <trkpt lat="45.97196" lon="2.83231">
        <ele>652.5</ele>
        <time>2021-07-11T07:33:47Z</time>
      </trkpt>
      <trkpt lat="45.97195" lon="2.83231">
        <ele>652.6</ele>
        <time>2021-07-11T07:33:48Z</time>
      </trkpt>
      <trkpt lat="45.97194" lon="2.83231">
        <ele>652.7</ele>
        <time>2021-07-11T07:33:49Z</time>
      </trkpt>
      <trkpt lat="45.97192" lon="2.8323">
        <ele>653.1</ele>
        <time>2021-07-11T07:33:50Z</time>
      </trkpt>
      <trkpt lat="45.97191" lon="2.8323">
        <ele>653.2</ele>
        <time>2021-07-11T07:33:51Z</time>
      </trkpt>
      <trkpt lat="45.9719" lon="2.8323">
        <ele>653.4</ele>
        <time>2021-07-11T07:33:52Z</time>
      </trkpt>
      <trkpt lat="45.97188" lon="2.8323">
        <ele>653.6</ele>
        <time>2021-07-11T07:33:54Z</time>
      </trkpt>
      <trkpt lat="45.97183" lon="2.8323">
        <ele>654.4</ele>
        <time>2021-07-11T07:33:55Z</time>
      </trkpt>
      <trkpt lat="45.97183" lon="2.8323">
        <ele>654.4</ele>
        <time>2021-07-11T07:33:56Z</time>
      </trkpt>
      <trkpt lat="45.97182" lon="2.8323">
        <ele>654.5</ele>
        <time>2021-07-11T07:33:57Z</time>
      </trkpt>
      <trkpt lat="45.97181" lon="2.83231">
        <ele>654.6</ele>
        <time>2021-07-11T07:33:58Z</time>
      </trkpt>
      <trkpt lat="45.9718" lon="2.83231">
        <ele>654.8</ele>
        <time>2021-07-11T07:33:59Z</time>
      </trkpt>
      <trkpt lat="45.97179" lon="2.83232">
        <ele>654.9</ele>
        <time>2021-07-11T07:34:00Z</time>
      </trkpt>
      <trkpt lat="45.97178" lon="2.83232">
        <ele>655</ele>
        <time>2021-07-11T07:34:01Z</time>
      </trkpt>
      <trkpt lat="45.97177" lon="2.83232">
        <ele>655.2</ele>
        <time>2021-07-11T07:34:02Z</time>
      </trkpt>
      <trkpt lat="45.97176" lon="2.83233">
        <ele>655.3</ele>
        <time>2021-07-11T07:34:03Z</time>
      </trkpt>
      <trkpt lat="45.97175" lon="2.83233">
        <ele>655.4</ele>
        <time>2021-07-11T07:34:04Z</time>
      </trkpt>
      <trkpt lat="45.97174" lon="2.83233">
        <ele>655.6</ele>
        <time>2021-07-11T07:34:05Z</time>
      </trkpt>
      <trkpt lat="45.97173" lon="2.83233">
        <ele>655.7</ele>
        <time>2021-07-11T07:34:06Z</time>
      </trkpt>
      <trkpt lat="45.97171" lon="2.83233">
        <ele>656</ele>
        <time>2021-07-11T07:34:07Z</time>
      </trkpt>
      <trkpt lat="45.9717" lon="2.83233">
        <ele>656.1</ele>
        <time>2021-07-11T07:34:08Z</time>
      </trkpt>
      <trkpt lat="45.97169" lon="2.83233">
        <ele>656.3</ele>
        <time>2021-07-11T07:34:09Z</time>
      </trkpt>
      <trkpt lat="45.97167" lon="2.83233">
        <ele>656.6</ele>
        <time>2021-07-11T07:34:10Z</time>
      </trkpt>
      <trkpt lat="45.97166" lon="2.83233">
        <ele>656.7</ele>
        <time>2021-07-11T07:34:11Z</time>
      </trkpt>
      <trkpt lat="45.97164" lon="2.83232">
        <ele>657.1</ele>
        <time>2021-07-11T07:34:12Z</time>
      </trkpt>
      <trkpt lat="45.97163" lon="2.83232">
        <ele>657.2</ele>
        <time>2021-07-11T07:34:13Z</time>
      </trkpt>
      <trkpt lat="45.9716" lon="2.83232">
        <ele>657.7</ele>
        <time>2021-07-11T07:34:14Z</time>
      </trkpt>
      <trkpt lat="45.9716" lon="2.83232">
        <ele>657.7</ele>
        <time>2021-07-11T07:34:15Z</time>
      </trkpt>
      <trkpt lat="45.97158" lon="2.83231">
        <ele>658</ele>
        <time>2021-07-11T07:34:16Z</time>
      </trkpt>
      <trkpt lat="45.97157" lon="2.83231">
        <ele>658.2</ele>
        <time>2021-07-11T07:34:17Z</time>
      </trkpt>
      <trkpt lat="45.97155" lon="2.83231">
        <ele>658.5</ele>
        <time>2021-07-11T07:34:18Z</time>
      </trkpt>
      <trkpt lat="45.97154" lon="2.8323">
        <ele>658.7</ele>
        <time>2021-07-11T07:34:19Z</time>
      </trkpt>
      <trkpt lat="45.97153" lon="2.8323">
        <ele>658.8</ele>
        <time>2021-07-11T07:34:20Z</time>
      </trkpt>
      <trkpt lat="45.97152" lon="2.83229">
        <ele>659</ele>
        <time>2021-07-11T07:34:21Z</time>
      </trkpt>
      <trkpt lat="45.97151" lon="2.83229">
        <ele>659.1</ele>
        <time>2021-07-11T07:34:22Z</time>
      </trkpt>
      <trkpt lat="45.9715" lon="2.83228">
        <ele>659.3</ele>
        <time>2021-07-11T07:34:23Z</time>
      </trkpt>
      <trkpt lat="45.9715" lon="2.83227">
        <ele>659.3</ele>
        <time>2021-07-11T07:34:24Z</time>
      </trkpt>
      <trkpt lat="45.97149" lon="2.83227">
        <ele>659.5</ele>
        <time>2021-07-11T07:34:25Z</time>
      </trkpt>
      <trkpt lat="45.97148" lon="2.83226">
        <ele>659.6</ele>
        <time>2021-07-11T07:34:26Z</time>
      </trkpt>
      <trkpt lat="45.97147" lon="2.83225">
        <ele>659.8</ele>
        <time>2021-07-11T07:34:27Z</time>
      </trkpt>
      <trkpt lat="45.97147" lon="2.83224">
        <ele>659.8</ele>
        <time>2021-07-11T07:34:28Z</time>
      </trkpt>
      <trkpt lat="45.97146" lon="2.83223">
        <ele>660</ele>
        <time>2021-07-11T07:34:29Z</time>
      </trkpt>
      <trkpt lat="45.97146" lon="2.83222">
        <ele>660</ele>
        <time>2021-07-11T07:34:30Z</time>
      </trkpt>
      <trkpt lat="45.97146" lon="2.83221">
        <ele>660</ele>
        <time>2021-07-11T07:34:31Z</time>
      </trkpt>
      <trkpt lat="45.97145" lon="2.83221">
        <ele>660.2</ele>
        <time>2021-07-11T07:34:32Z</time>
      </trkpt>
      <trkpt lat="45.97145" lon="2.8322">
        <ele>660.2</ele>
        <time>2021-07-11T07:34:33Z</time>
      </trkpt>
      <trkpt lat="45.97144" lon="2.83219">
        <ele>660.4</ele>
        <time>2021-07-11T07:34:34Z</time>
      </trkpt>
      <trkpt lat="45.97144" lon="2.83219">
        <ele>660.4</ele>
        <time>2021-07-11T07:34:35Z</time>
      </trkpt>
      <trkpt lat="45.97142" lon="2.83219">
        <ele>660.7</ele>
        <time>2021-07-11T07:34:36Z</time>
      </trkpt>
      <trkpt lat="45.97142" lon="2.83218">
        <ele>660.7</ele>
        <time>2021-07-11T07:34:37Z</time>
      </trkpt>
      <trkpt lat="45.97141" lon="2.83218">
        <ele>660.8</ele>
        <time>2021-07-11T07:34:38Z</time>
      </trkpt>
      <trkpt lat="45.97141" lon="2.83217">
        <ele>660.9</ele>
        <time>2021-07-11T07:34:39Z</time>
      </trkpt>
      <trkpt lat="45.97139" lon="2.83217">
        <ele>661.2</ele>
        <time>2021-07-11T07:34:40Z</time>
      </trkpt>
      <trkpt lat="45.97139" lon="2.83216">
        <ele>661.2</ele>
        <time>2021-07-11T07:34:41Z</time>
      </trkpt>
      <trkpt lat="45.97139" lon="2.83216">
        <ele>661.2</ele>
        <time>2021-07-11T07:34:42Z</time>
      </trkpt>
      <trkpt lat="45.97138" lon="2.83215">
        <ele>661.4</ele>
        <time>2021-07-11T07:34:43Z</time>
      </trkpt>
      <trkpt lat="45.97136" lon="2.83214">
        <ele>661.8</ele>
        <time>2021-07-11T07:34:44Z</time>
      </trkpt>
      <trkpt lat="45.97136" lon="2.83213">
        <ele>661.9</ele>
        <time>2021-07-11T07:34:45Z</time>
      </trkpt>
      <trkpt lat="45.97135" lon="2.83213">
        <ele>662.1</ele>
        <time>2021-07-11T07:34:46Z</time>
      </trkpt>
      <trkpt lat="45.97134" lon="2.83212">
        <ele>662.3</ele>
        <time>2021-07-11T07:34:47Z</time>
      </trkpt>
      <trkpt lat="45.97133" lon="2.83211">
        <ele>662.5</ele>
        <time>2021-07-11T07:34:48Z</time>
      </trkpt>
      <trkpt lat="45.97132" lon="2.83211">
        <ele>662.7</ele>
        <time>2021-07-11T07:34:49Z</time>
      </trkpt>
      <trkpt lat="45.97131" lon="2.8321">
        <ele>663</ele>
        <time>2021-07-11T07:34:50Z</time>
      </trkpt>
      <trkpt lat="45.9713" lon="2.83209">
        <ele>663.2</ele>
        <time>2021-07-11T07:34:52Z</time>
      </trkpt>
      <trkpt lat="45.97125" lon="2.83207">
        <ele>664.3</ele>
        <time>2021-07-11T07:34:54Z</time>
      </trkpt>
      <trkpt lat="45.97122" lon="2.83207">
        <ele>664.9</ele>
        <time>2021-07-11T07:34:55Z</time>
      </trkpt>
      <trkpt lat="45.97122" lon="2.83207">
        <ele>664.9</ele>
        <time>2021-07-11T07:34:56Z</time>
      </trkpt>
      <trkpt lat="45.97121" lon="2.83207">
        <ele>665.1</ele>
        <time>2021-07-11T07:34:57Z</time>
      </trkpt>
      <trkpt lat="45.97121" lon="2.83207">
        <ele>665.1</ele>
        <time>2021-07-11T07:34:58Z</time>
      </trkpt>
      <trkpt lat="45.9712" lon="2.83206">
        <ele>665.4</ele>
        <time>2021-07-11T07:34:59Z</time>
      </trkpt>
      <trkpt lat="45.9712" lon="2.83206">
        <ele>665.4</ele>
        <time>2021-07-11T07:35:00Z</time>
      </trkpt>
      <trkpt lat="45.97119" lon="2.83205">
        <ele>665.6</ele>
        <time>2021-07-11T07:35:01Z</time>
      </trkpt>
      <trkpt lat="45.97118" lon="2.83205">
        <ele>665.8</ele>
        <time>2021-07-11T07:35:02Z</time>
      </trkpt>
      <trkpt lat="45.97117" lon="2.83204">
        <ele>666.1</ele>
        <time>2021-07-11T07:35:03Z</time>
      </trkpt>
      <trkpt lat="45.97117" lon="2.83203">
        <ele>666.2</ele>
        <time>2021-07-11T07:35:04Z</time>
      </trkpt>
      <trkpt lat="45.97115" lon="2.83202">
        <ele>666.7</ele>
        <time>2021-07-11T07:35:05Z</time>
      </trkpt>
      <trkpt lat="45.97115" lon="2.83201">
        <ele>666.7</ele>
        <time>2021-07-11T07:35:06Z</time>
      </trkpt>
      <trkpt lat="45.97114" lon="2.83201">
        <ele>666.9</ele>
        <time>2021-07-11T07:35:07Z</time>
      </trkpt>
      <trkpt lat="45.97113" lon="2.832">
        <ele>667.2</ele>
        <time>2021-07-11T07:35:08Z</time>
      </trkpt>
      <trkpt lat="45.97112" lon="2.83199">
        <ele>667.5</ele>
        <time>2021-07-11T07:35:09Z</time>
      </trkpt>
      <trkpt lat="45.97111" lon="2.83198">
        <ele>667.8</ele>
        <time>2021-07-11T07:35:10Z</time>
      </trkpt>
      <trkpt lat="45.97111" lon="2.83198">
        <ele>667.8</ele>
        <time>2021-07-11T07:35:11Z</time>
      </trkpt>
      <trkpt lat="45.9711" lon="2.83197">
        <ele>668.1</ele>
        <time>2021-07-11T07:35:12Z</time>
      </trkpt>
      <trkpt lat="45.97109" lon="2.83196">
        <ele>668.4</ele>
        <time>2021-07-11T07:35:13Z</time>
      </trkpt>
      <trkpt lat="45.97108" lon="2.83196">
        <ele>668.7</ele>
        <time>2021-07-11T07:35:14Z</time>
      </trkpt>
      <trkpt lat="45.97108" lon="2.83195">
        <ele>668.7</ele>
        <time>2021-07-11T07:35:15Z</time>
      </trkpt>
      <trkpt lat="45.97107" lon="2.83195">
        <ele>669</ele>
        <time>2021-07-11T07:35:16Z</time>
      </trkpt>
      <trkpt lat="45.97106" lon="2.83194">
        <ele>669.3</ele>
        <time>2021-07-11T07:35:17Z</time>
      </trkpt>
      <trkpt lat="45.97105" lon="2.83193">
        <ele>669.7</ele>
        <time>2021-07-11T07:35:18Z</time>
      </trkpt>
      <trkpt lat="45.97105" lon="2.83192">
        <ele>669.7</ele>
        <time>2021-07-11T07:35:19Z</time>
      </trkpt>
      <trkpt lat="45.97104" lon="2.83191">
        <ele>670.1</ele>
        <time>2021-07-11T07:35:20Z</time>
      </trkpt>
      <trkpt lat="45.97104" lon="2.8319">
        <ele>670.2</ele>
        <time>2021-07-11T07:35:21Z</time>
      </trkpt>
      <trkpt lat="45.97104" lon="2.83189">
        <ele>670.2</ele>
        <time>2021-07-11T07:35:22Z</time>
      </trkpt>
      <trkpt lat="45.97103" lon="2.83188">
        <ele>670.6</ele>
        <time>2021-07-11T07:35:23Z</time>
      </trkpt>
      <trkpt lat="45.97103" lon="2.83186">
        <ele>670.7</ele>
        <time>2021-07-11T07:35:24Z</time>
      </trkpt>
      <trkpt lat="45.97103" lon="2.83185">
        <ele>670.8</ele>
        <time>2021-07-11T07:35:25Z</time>
      </trkpt>
      <trkpt lat="45.97103" lon="2.83183">
        <ele>671</ele>
        <time>2021-07-11T07:35:26Z</time>
      </trkpt>
      <trkpt lat="45.97103" lon="2.83182">
        <ele>671.1</ele>
        <time>2021-07-11T07:35:27Z</time>
      </trkpt>
      <trkpt lat="45.97103" lon="2.8318">
        <ele>671.2</ele>
        <time>2021-07-11T07:35:28Z</time>
      </trkpt>
      <trkpt lat="45.97103" lon="2.83179">
        <ele>671.3</ele>
        <time>2021-07-11T07:35:29Z</time>
      </trkpt>
      <trkpt lat="45.97103" lon="2.83178">
        <ele>671.4</ele>
        <time>2021-07-11T07:35:30Z</time>
      </trkpt>
      <trkpt lat="45.97104" lon="2.83176">
        <ele>671.3</ele>
        <time>2021-07-11T07:35:31Z</time>
      </trkpt>
      <trkpt lat="45.97104" lon="2.83175">
        <ele>671.4</ele>
        <time>2021-07-11T07:35:32Z</time>
      </trkpt>
      <trkpt lat="45.97104" lon="2.83174">
        <ele>671.5</ele>
        <time>2021-07-11T07:35:33Z</time>
      </trkpt>
      <trkpt lat="45.97105" lon="2.83172">
        <ele>671.3</ele>
        <time>2021-07-11T07:35:34Z</time>
      </trkpt>
      <trkpt lat="45.97105" lon="2.8317">
        <ele>671.5</ele>
        <time>2021-07-11T07:35:35Z</time>
      </trkpt>
      <trkpt lat="45.97106" lon="2.83169">
        <ele>671.3</ele>
        <time>2021-07-11T07:35:36Z</time>
      </trkpt>
      <trkpt lat="45.97106" lon="2.83167">
        <ele>671.4</ele>
        <time>2021-07-11T07:35:37Z</time>
      </trkpt>
      <trkpt lat="45.97107" lon="2.83165">
        <ele>671.4</ele>
        <time>2021-07-11T07:35:38Z</time>
      </trkpt>
      <trkpt lat="45.97108" lon="2.83163">
        <ele>671.3</ele>
        <time>2021-07-11T07:35:39Z</time>
      </trkpt>
      <trkpt lat="45.97108" lon="2.83161">
        <ele>671.5</ele>
        <time>2021-07-11T07:35:40Z</time>
      </trkpt>
      <trkpt lat="45.97109" lon="2.8316">
        <ele>671.3</ele>
        <time>2021-07-11T07:35:41Z</time>
      </trkpt>
      <trkpt lat="45.97109" lon="2.83158">
        <ele>671.5</ele>
        <time>2021-07-11T07:35:42Z</time>
      </trkpt>
      <trkpt lat="45.9711" lon="2.83156">
        <ele>671.5</ele>
        <time>2021-07-11T07:35:43Z</time>
      </trkpt>
      <trkpt lat="45.9711" lon="2.83155">
        <ele>671.6</ele>
        <time>2021-07-11T07:35:44Z</time>
      </trkpt>
      <trkpt lat="45.97111" lon="2.83153">
        <ele>671.5</ele>
        <time>2021-07-11T07:35:45Z</time>
      </trkpt>
      <trkpt lat="45.97112" lon="2.83152">
        <ele>671.4</ele>
        <time>2021-07-11T07:35:46Z</time>
      </trkpt>
      <trkpt lat="45.97113" lon="2.8315">
        <ele>671.4</ele>
        <time>2021-07-11T07:35:47Z</time>
      </trkpt>
      <trkpt lat="45.97114" lon="2.83149">
        <ele>671.2</ele>
        <time>2021-07-11T07:35:48Z</time>
      </trkpt>
      <trkpt lat="45.97115" lon="2.83147">
        <ele>671.2</ele>
        <time>2021-07-11T07:35:49Z</time>
      </trkpt>
      <trkpt lat="45.97117" lon="2.83145">
        <ele>671</ele>
        <time>2021-07-11T07:35:50Z</time>
      </trkpt>
      <trkpt lat="45.97118" lon="2.83143">
        <ele>671</ele>
        <time>2021-07-11T07:35:51Z</time>
      </trkpt>
      <trkpt lat="45.97119" lon="2.83141">
        <ele>671</ele>
        <time>2021-07-11T07:35:52Z</time>
      </trkpt>
      <trkpt lat="45.9712" lon="2.83138">
        <ele>671.2</ele>
        <time>2021-07-11T07:35:53Z</time>
      </trkpt>
      <trkpt lat="45.97121" lon="2.83136">
        <ele>671.4</ele>
        <time>2021-07-11T07:35:54Z</time>
      </trkpt>
      <trkpt lat="45.97123" lon="2.83134">
        <ele>671.3</ele>
        <time>2021-07-11T07:35:55Z</time>
      </trkpt>
      <trkpt lat="45.97124" lon="2.83132">
        <ele>671.5</ele>
        <time>2021-07-11T07:35:56Z</time>
      </trkpt>
      <trkpt lat="45.97125" lon="2.8313">
        <ele>671.6</ele>
        <time>2021-07-11T07:35:57Z</time>
      </trkpt>
      <trkpt lat="45.97126" lon="2.83128">
        <ele>671.7</ele>
        <time>2021-07-11T07:35:58Z</time>
      </trkpt>
      <trkpt lat="45.97128" lon="2.83126">
        <ele>671.7</ele>
        <time>2021-07-11T07:35:59Z</time>
      </trkpt>
      <trkpt lat="45.97129" lon="2.83124">
        <ele>671.8</ele>
        <time>2021-07-11T07:36:00Z</time>
      </trkpt>
      <trkpt lat="45.9713" lon="2.83122">
        <ele>672</ele>
        <time>2021-07-11T07:36:01Z</time>
      </trkpt>
      <trkpt lat="45.97131" lon="2.8312">
        <ele>672.1</ele>
        <time>2021-07-11T07:36:02Z</time>
      </trkpt>
      <trkpt lat="45.97132" lon="2.83118">
        <ele>672.2</ele>
        <time>2021-07-11T07:36:03Z</time>
      </trkpt>
      <trkpt lat="45.97133" lon="2.83116">
        <ele>672.4</ele>
        <time>2021-07-11T07:36:04Z</time>
      </trkpt>
      <trkpt lat="45.97134" lon="2.83114">
        <ele>672.5</ele>
        <time>2021-07-11T07:36:05Z</time>
      </trkpt>
      <trkpt lat="45.97136" lon="2.83112">
        <ele>672.5</ele>
        <time>2021-07-11T07:36:06Z</time>
      </trkpt>
      <trkpt lat="45.97136" lon="2.83111">
        <ele>672.6</ele>
        <time>2021-07-11T07:36:07Z</time>
      </trkpt>
      <trkpt lat="45.97138" lon="2.83109">
        <ele>672.6</ele>
        <time>2021-07-11T07:36:08Z</time>
      </trkpt>
      <trkpt lat="45.97139" lon="2.83107">
        <ele>672.7</ele>
        <time>2021-07-11T07:36:09Z</time>
      </trkpt>
      <trkpt lat="45.97139" lon="2.83105">
        <ele>673.1</ele>
        <time>2021-07-11T07:36:10Z</time>
      </trkpt>
      <trkpt lat="45.9714" lon="2.83103">
        <ele>673.4</ele>
        <time>2021-07-11T07:36:11Z</time>
      </trkpt>
      <trkpt lat="45.97141" lon="2.83101">
        <ele>673.7</ele>
        <time>2021-07-11T07:36:12Z</time>
      </trkpt>
      <trkpt lat="45.97142" lon="2.83099">
        <ele>674</ele>
        <time>2021-07-11T07:36:13Z</time>
      </trkpt>
      <trkpt lat="45.97142" lon="2.83097">
        <ele>674.3</ele>
        <time>2021-07-11T07:36:14Z</time>
      </trkpt>
      <trkpt lat="45.97144" lon="2.83095">
        <ele>674.5</ele>
        <time>2021-07-11T07:36:15Z</time>
      </trkpt>
      <trkpt lat="45.97144" lon="2.83093">
        <ele>674.9</ele>
        <time>2021-07-11T07:36:16Z</time>
      </trkpt>
      <trkpt lat="45.97145" lon="2.83091">
        <ele>675.2</ele>
        <time>2021-07-11T07:36:17Z</time>
      </trkpt>
      <trkpt lat="45.97145" lon="2.83089">
        <ele>675.5</ele>
        <time>2021-07-11T07:36:18Z</time>
      </trkpt>
      <trkpt lat="45.97146" lon="2.83087">
        <ele>675.8</ele>
        <time>2021-07-11T07:36:19Z</time>
      </trkpt>
      <trkpt lat="45.97146" lon="2.83086">
        <ele>676</ele>
        <time>2021-07-11T07:36:20Z</time>
      </trkpt>
      <trkpt lat="45.97147" lon="2.83084">
        <ele>676.3</ele>
        <time>2021-07-11T07:36:21Z</time>
      </trkpt>
      <trkpt lat="45.97147" lon="2.83082">
        <ele>676.5</ele>
        <time>2021-07-11T07:36:22Z</time>
      </trkpt>
      <trkpt lat="45.97148" lon="2.8308">
        <ele>676.6</ele>
        <time>2021-07-11T07:36:23Z</time>
      </trkpt>
      <trkpt lat="45.97148" lon="2.83079">
        <ele>676.7</ele>
        <time>2021-07-11T07:36:24Z</time>
      </trkpt>
      <trkpt lat="45.97149" lon="2.83077">
        <ele>676.7</ele>
        <time>2021-07-11T07:36:25Z</time>
      </trkpt>
      <trkpt lat="45.9715" lon="2.83075">
        <ele>676.8</ele>
        <time>2021-07-11T07:36:26Z</time>
      </trkpt>
      <trkpt lat="45.9715" lon="2.83074">
        <ele>676.9</ele>
        <time>2021-07-11T07:36:27Z</time>
      </trkpt>
      <trkpt lat="45.97151" lon="2.83072">
        <ele>676.9</ele>
        <time>2021-07-11T07:36:28Z</time>
      </trkpt>
      <trkpt lat="45.97152" lon="2.8307">
        <ele>677</ele>
        <time>2021-07-11T07:36:29Z</time>
      </trkpt>
      <trkpt lat="45.97152" lon="2.83069">
        <ele>677.1</ele>
        <time>2021-07-11T07:36:30Z</time>
      </trkpt>
      <trkpt lat="45.97153" lon="2.83067">
        <ele>677.2</ele>
        <time>2021-07-11T07:36:31Z</time>
      </trkpt>
      <trkpt lat="45.97154" lon="2.83065">
        <ele>677.2</ele>
        <time>2021-07-11T07:36:32Z</time>
      </trkpt>
      <trkpt lat="45.97154" lon="2.83063">
        <ele>677.4</ele>
        <time>2021-07-11T07:36:33Z</time>
      </trkpt>
      <trkpt lat="45.97155" lon="2.83061">
        <ele>677.4</ele>
        <time>2021-07-11T07:36:34Z</time>
      </trkpt>
      <trkpt lat="45.97156" lon="2.8306">
        <ele>677.4</ele>
        <time>2021-07-11T07:36:35Z</time>
      </trkpt>
      <trkpt lat="45.97157" lon="2.83058">
        <ele>677.5</ele>
        <time>2021-07-11T07:36:36Z</time>
      </trkpt>
      <trkpt lat="45.97157" lon="2.83056">
        <ele>677.7</ele>
        <time>2021-07-11T07:36:37Z</time>
      </trkpt>
      <trkpt lat="45.97158" lon="2.83054">
        <ele>677.8</ele>
        <time>2021-07-11T07:36:38Z</time>
      </trkpt>
      <trkpt lat="45.97159" lon="2.83052">
        <ele>677.9</ele>
        <time>2021-07-11T07:36:39Z</time>
      </trkpt>
      <trkpt lat="45.9716" lon="2.83051">
        <ele>677.9</ele>
        <time>2021-07-11T07:36:40Z</time>
      </trkpt>
      <trkpt lat="45.9716" lon="2.83049">
        <ele>678.1</ele>
        <time>2021-07-11T07:36:41Z</time>
      </trkpt>
      <trkpt lat="45.97161" lon="2.83047">
        <ele>678.3</ele>
        <time>2021-07-11T07:36:42Z</time>
      </trkpt>
      <trkpt lat="45.97162" lon="2.83045">
        <ele>678.4</ele>
        <time>2021-07-11T07:36:43Z</time>
      </trkpt>
      <trkpt lat="45.97163" lon="2.83043">
        <ele>678.6</ele>
        <time>2021-07-11T07:36:44Z</time>
      </trkpt>
      <trkpt lat="45.97163" lon="2.83042">
        <ele>678.7</ele>
        <time>2021-07-11T07:36:45Z</time>
      </trkpt>
      <trkpt lat="45.97164" lon="2.8304">
        <ele>678.8</ele>
        <time>2021-07-11T07:36:46Z</time>
      </trkpt>
      <trkpt lat="45.97165" lon="2.83038">
        <ele>679</ele>
        <time>2021-07-11T07:36:47Z</time>
      </trkpt>
      <trkpt lat="45.97166" lon="2.83037">
        <ele>679</ele>
        <time>2021-07-11T07:36:48Z</time>
      </trkpt>
      <trkpt lat="45.97166" lon="2.83035">
        <ele>679.3</ele>
        <time>2021-07-11T07:36:49Z</time>
      </trkpt>
      <trkpt lat="45.97166" lon="2.83033">
        <ele>679.5</ele>
        <time>2021-07-11T07:36:50Z</time>
      </trkpt>
      <trkpt lat="45.97168" lon="2.83031">
        <ele>679.6</ele>
        <time>2021-07-11T07:36:52Z</time>
      </trkpt>
      <trkpt lat="45.97171" lon="2.83023">
        <ele>679.9</ele>
        <time>2021-07-11T07:36:54Z</time>
      </trkpt>
      <trkpt lat="45.97172" lon="2.83019">
        <ele>680</ele>
        <time>2021-07-11T07:36:55Z</time>
      </trkpt>
      <trkpt lat="45.97172" lon="2.83019">
        <ele>680</ele>
        <time>2021-07-11T07:36:56Z</time>
      </trkpt>
      <trkpt lat="45.97172" lon="2.83018">
        <ele>680</ele>
        <time>2021-07-11T07:36:57Z</time>
      </trkpt>
      <trkpt lat="45.97173" lon="2.83017">
        <ele>680</ele>
        <time>2021-07-11T07:36:58Z</time>
      </trkpt>
      <trkpt lat="45.97173" lon="2.83015">
        <ele>680.1</ele>
        <time>2021-07-11T07:36:59Z</time>
      </trkpt>
      <trkpt lat="45.97175" lon="2.83014">
        <ele>680</ele>
        <time>2021-07-11T07:37:00Z</time>
      </trkpt>
      <trkpt lat="45.97175" lon="2.83012">
        <ele>680.1</ele>
        <time>2021-07-11T07:37:01Z</time>
      </trkpt>
      <trkpt lat="45.97176" lon="2.83011">
        <ele>680.1</ele>
        <time>2021-07-11T07:37:02Z</time>
      </trkpt>
      <trkpt lat="45.97177" lon="2.83009">
        <ele>680.2</ele>
        <time>2021-07-11T07:37:03Z</time>
      </trkpt>
      <trkpt lat="45.97178" lon="2.83008">
        <ele>680.2</ele>
        <time>2021-07-11T07:37:04Z</time>
      </trkpt>
      <trkpt lat="45.97179" lon="2.83006">
        <ele>680.2</ele>
        <time>2021-07-11T07:37:05Z</time>
      </trkpt>
      <trkpt lat="45.9718" lon="2.83005">
        <ele>680.3</ele>
        <time>2021-07-11T07:37:06Z</time>
      </trkpt>
      <trkpt lat="45.97181" lon="2.83003">
        <ele>680.3</ele>
        <time>2021-07-11T07:37:07Z</time>
      </trkpt>
      <trkpt lat="45.97183" lon="2.83002">
        <ele>680.3</ele>
        <time>2021-07-11T07:37:08Z</time>
      </trkpt>
      <trkpt lat="45.97184" lon="2.83">
        <ele>680.4</ele>
        <time>2021-07-11T07:37:09Z</time>
      </trkpt>
      <trkpt lat="45.97185" lon="2.82999">
        <ele>680.4</ele>
        <time>2021-07-11T07:37:10Z</time>
      </trkpt>
      <trkpt lat="45.97186" lon="2.82998">
        <ele>680.4</ele>
        <time>2021-07-11T07:37:11Z</time>
      </trkpt>
      <trkpt lat="45.97187" lon="2.82997">
        <ele>680.3</ele>
        <time>2021-07-11T07:37:12Z</time>
      </trkpt>
      <trkpt lat="45.97189" lon="2.82995">
        <ele>680.3</ele>
        <time>2021-07-11T07:37:12Z</time>
      </trkpt>
      <trkpt lat="45.9719" lon="2.82994">
        <ele>680.3</ele>
        <time>2021-07-11T07:37:13Z</time>
      </trkpt>
      <trkpt lat="45.97191" lon="2.82992">
        <ele>680.4</ele>
        <time>2021-07-11T07:37:14Z</time>
      </trkpt>
      <trkpt lat="45.97192" lon="2.82991">
        <ele>680.4</ele>
        <time>2021-07-11T07:37:15Z</time>
      </trkpt>
      <trkpt lat="45.97193" lon="2.82989">
        <ele>680.4</ele>
        <time>2021-07-11T07:37:16Z</time>
      </trkpt>
      <trkpt lat="45.97194" lon="2.82988">
        <ele>680.4</ele>
        <time>2021-07-11T07:37:17Z</time>
      </trkpt>
      <trkpt lat="45.97196" lon="2.82987">
        <ele>680.5</ele>
        <time>2021-07-11T07:37:18Z</time>
      </trkpt>
      <trkpt lat="45.97197" lon="2.82985">
        <ele>680.5</ele>
        <time>2021-07-11T07:37:19Z</time>
      </trkpt>
      <trkpt lat="45.97198" lon="2.82984">
        <ele>680.6</ele>
        <time>2021-07-11T07:37:20Z</time>
      </trkpt>
      <trkpt lat="45.97199" lon="2.82982">
        <ele>680.6</ele>
        <time>2021-07-11T07:37:21Z</time>
      </trkpt>
      <trkpt lat="45.972" lon="2.82981">
        <ele>680.7</ele>
        <time>2021-07-11T07:37:22Z</time>
      </trkpt>
      <trkpt lat="45.97202" lon="2.82979">
        <ele>680.8</ele>
        <time>2021-07-11T07:37:23Z</time>
      </trkpt>
      <trkpt lat="45.97202" lon="2.82977">
        <ele>680.8</ele>
        <time>2021-07-11T07:37:24Z</time>
      </trkpt>
      <trkpt lat="45.97203" lon="2.82976">
        <ele>680.9</ele>
        <time>2021-07-11T07:37:25Z</time>
      </trkpt>
      <trkpt lat="45.97205" lon="2.82974">
        <ele>680.9</ele>
        <time>2021-07-11T07:37:26Z</time>
      </trkpt>
      <trkpt lat="45.97206" lon="2.82973">
        <ele>681</ele>
        <time>2021-07-11T07:37:27Z</time>
      </trkpt>
      <trkpt lat="45.97207" lon="2.82971">
        <ele>681</ele>
        <time>2021-07-11T07:37:28Z</time>
      </trkpt>
      <trkpt lat="45.97208" lon="2.8297">
        <ele>681</ele>
        <time>2021-07-11T07:37:29Z</time>
      </trkpt>
      <trkpt lat="45.97209" lon="2.82968">
        <ele>681</ele>
        <time>2021-07-11T07:37:30Z</time>
      </trkpt>
      <trkpt lat="45.9721" lon="2.82967">
        <ele>681</ele>
        <time>2021-07-11T07:37:31Z</time>
      </trkpt>
      <trkpt lat="45.97212" lon="2.82966">
        <ele>681</ele>
        <time>2021-07-11T07:37:32Z</time>
      </trkpt>
      <trkpt lat="45.97213" lon="2.82964">
        <ele>681</ele>
        <time>2021-07-11T07:37:33Z</time>
      </trkpt>
      <trkpt lat="45.97214" lon="2.82963">
        <ele>681</ele>
        <time>2021-07-11T07:37:34Z</time>
      </trkpt>
      <trkpt lat="45.97215" lon="2.82961">
        <ele>681</ele>
        <time>2021-07-11T07:37:35Z</time>
      </trkpt>
      <trkpt lat="45.97216" lon="2.8296">
        <ele>681</ele>
        <time>2021-07-11T07:37:36Z</time>
      </trkpt>
      <trkpt lat="45.97217" lon="2.82958">
        <ele>681</ele>
        <time>2021-07-11T07:37:37Z</time>
      </trkpt>
      <trkpt lat="45.97218" lon="2.82957">
        <ele>681</ele>
        <time>2021-07-11T07:37:38Z</time>
      </trkpt>
      <trkpt lat="45.97219" lon="2.82955">
        <ele>681</ele>
        <time>2021-07-11T07:37:39Z</time>
      </trkpt>
      <trkpt lat="45.9722" lon="2.82954">
        <ele>681</ele>
        <time>2021-07-11T07:37:40Z</time>
      </trkpt>
      <trkpt lat="45.97221" lon="2.82953">
        <ele>681</ele>
        <time>2021-07-11T07:37:41Z</time>
      </trkpt>
      <trkpt lat="45.97222" lon="2.82951">
        <ele>681</ele>
        <time>2021-07-11T07:37:42Z</time>
      </trkpt>
      <trkpt lat="45.97223" lon="2.8295">
        <ele>681</ele>
        <time>2021-07-11T07:37:43Z</time>
      </trkpt>
      <trkpt lat="45.97224" lon="2.82948">
        <ele>680.9</ele>
        <time>2021-07-11T07:37:44Z</time>
      </trkpt>
      <trkpt lat="45.97226" lon="2.82947">
        <ele>680.9</ele>
        <time>2021-07-11T07:37:45Z</time>
      </trkpt>
      <trkpt lat="45.97226" lon="2.82946">
        <ele>680.9</ele>
        <time>2021-07-11T07:37:46Z</time>
      </trkpt>
      <trkpt lat="45.97228" lon="2.82944">
        <ele>680.8</ele>
        <time>2021-07-11T07:37:47Z</time>
      </trkpt>
      <trkpt lat="45.97229" lon="2.82943">
        <ele>680.7</ele>
        <time>2021-07-11T07:37:48Z</time>
      </trkpt>
      <trkpt lat="45.9723" lon="2.82941">
        <ele>680.6</ele>
        <time>2021-07-11T07:37:49Z</time>
      </trkpt>
      <trkpt lat="45.97231" lon="2.8294">
        <ele>680.6</ele>
        <time>2021-07-11T07:37:50Z</time>
      </trkpt>
      <trkpt lat="45.97232" lon="2.82938">
        <ele>680.5</ele>
        <time>2021-07-11T07:37:53Z</time>
      </trkpt>
      <trkpt lat="45.97238" lon="2.8293">
        <ele>680.2</ele>
        <time>2021-07-11T07:37:54Z</time>
      </trkpt>
      <trkpt lat="45.97239" lon="2.82929">
        <ele>680.2</ele>
        <time>2021-07-11T07:37:55Z</time>
      </trkpt>
      <trkpt lat="45.97239" lon="2.82929">
        <ele>680.2</ele>
        <time>2021-07-11T07:37:56Z</time>
      </trkpt>
      <trkpt lat="45.9724" lon="2.82928">
        <ele>680.1</ele>
        <time>2021-07-11T07:37:57Z</time>
      </trkpt>
      <trkpt lat="45.97241" lon="2.82926">
        <ele>680.1</ele>
        <time>2021-07-11T07:37:58Z</time>
      </trkpt>
      <trkpt lat="45.97242" lon="2.82925">
        <ele>680.1</ele>
        <time>2021-07-11T07:37:59Z</time>
      </trkpt>
      <trkpt lat="45.97243" lon="2.82924">
        <ele>680.1</ele>
        <time>2021-07-11T07:38:00Z</time>
      </trkpt>
      <trkpt lat="45.97244" lon="2.82923">
        <ele>680</ele>
        <time>2021-07-11T07:38:01Z</time>
      </trkpt>
      <trkpt lat="45.97245" lon="2.82921">
        <ele>680</ele>
        <time>2021-07-11T07:38:02Z</time>
      </trkpt>
      <trkpt lat="45.97247" lon="2.8292">
        <ele>680</ele>
        <time>2021-07-11T07:38:03Z</time>
      </trkpt>
      <trkpt lat="45.97247" lon="2.82918">
        <ele>680</ele>
        <time>2021-07-11T07:38:04Z</time>
      </trkpt>
      <trkpt lat="45.97249" lon="2.82917">
        <ele>680</ele>
        <time>2021-07-11T07:38:05Z</time>
      </trkpt>
      <trkpt lat="45.9725" lon="2.82915">
        <ele>680</ele>
        <time>2021-07-11T07:38:06Z</time>
      </trkpt>
      <trkpt lat="45.97251" lon="2.82914">
        <ele>679.9</ele>
        <time>2021-07-11T07:38:07Z</time>
      </trkpt>
      <trkpt lat="45.97251" lon="2.82912">
        <ele>679.9</ele>
        <time>2021-07-11T07:38:08Z</time>
      </trkpt>
      <trkpt lat="45.97252" lon="2.82911">
        <ele>679.9</ele>
        <time>2021-07-11T07:38:09Z</time>
      </trkpt>
      <trkpt lat="45.97253" lon="2.82909">
        <ele>679.8</ele>
        <time>2021-07-11T07:38:10Z</time>
      </trkpt>
      <trkpt lat="45.97254" lon="2.82908">
        <ele>679.8</ele>
        <time>2021-07-11T07:38:11Z</time>
      </trkpt>
      <trkpt lat="45.97255" lon="2.82906">
        <ele>679.7</ele>
        <time>2021-07-11T07:38:12Z</time>
      </trkpt>
      <trkpt lat="45.97256" lon="2.82905">
        <ele>679.7</ele>
        <time>2021-07-11T07:38:13Z</time>
      </trkpt>
      <trkpt lat="45.97257" lon="2.82904">
        <ele>679.6</ele>
        <time>2021-07-11T07:38:14Z</time>
      </trkpt>
      <trkpt lat="45.97258" lon="2.82902">
        <ele>679.6</ele>
        <time>2021-07-11T07:38:15Z</time>
      </trkpt>
      <trkpt lat="45.97259" lon="2.82901">
        <ele>679.5</ele>
        <time>2021-07-11T07:38:16Z</time>
      </trkpt>
      <trkpt lat="45.9726" lon="2.82899">
        <ele>679.5</ele>
        <time>2021-07-11T07:38:17Z</time>
      </trkpt>
      <trkpt lat="45.97261" lon="2.82898">
        <ele>679.5</ele>
        <time>2021-07-11T07:38:18Z</time>
      </trkpt>
      <trkpt lat="45.97262" lon="2.82896">
        <ele>679.5</ele>
        <time>2021-07-11T07:38:19Z</time>
      </trkpt>
      <trkpt lat="45.97263" lon="2.82895">
        <ele>679.4</ele>
        <time>2021-07-11T07:38:20Z</time>
      </trkpt>
      <trkpt lat="45.97265" lon="2.82893">
        <ele>679.4</ele>
        <time>2021-07-11T07:38:21Z</time>
      </trkpt>
      <trkpt lat="45.97265" lon="2.82892">
        <ele>679.4</ele>
        <time>2021-07-11T07:38:22Z</time>
      </trkpt>
      <trkpt lat="45.97266" lon="2.8289">
        <ele>679.4</ele>
        <time>2021-07-11T07:38:23Z</time>
      </trkpt>
      <trkpt lat="45.97268" lon="2.82889">
        <ele>679.3</ele>
        <time>2021-07-11T07:38:24Z</time>
      </trkpt>
      <trkpt lat="45.97268" lon="2.82887">
        <ele>679.4</ele>
        <time>2021-07-11T07:38:25Z</time>
      </trkpt>
      <trkpt lat="45.97269" lon="2.82886">
        <ele>679.4</ele>
        <time>2021-07-11T07:38:26Z</time>
      </trkpt>
      <trkpt lat="45.97271" lon="2.82884">
        <ele>679.3</ele>
        <time>2021-07-11T07:38:27Z</time>
      </trkpt>
      <trkpt lat="45.97272" lon="2.82883">
        <ele>679.3</ele>
        <time>2021-07-11T07:38:28Z</time>
      </trkpt>
      <trkpt lat="45.97273" lon="2.82882">
        <ele>679.3</ele>
        <time>2021-07-11T07:38:29Z</time>
      </trkpt>
      <trkpt lat="45.97274" lon="2.8288">
        <ele>679.4</ele>
        <time>2021-07-11T07:38:30Z</time>
      </trkpt>
      <trkpt lat="45.97275" lon="2.82879">
        <ele>679.4</ele>
        <time>2021-07-11T07:38:31Z</time>
      </trkpt>
      <trkpt lat="45.97276" lon="2.82878">
        <ele>679.4</ele>
        <time>2021-07-11T07:38:32Z</time>
      </trkpt>
      <trkpt lat="45.97278" lon="2.82876">
        <ele>679.4</ele>
        <time>2021-07-11T07:38:33Z</time>
      </trkpt>
      <trkpt lat="45.97279" lon="2.82875">
        <ele>679.4</ele>
        <time>2021-07-11T07:38:34Z</time>
      </trkpt>
      <trkpt lat="45.9728" lon="2.82874">
        <ele>679.3</ele>
        <time>2021-07-11T07:38:35Z</time>
      </trkpt>
      <trkpt lat="45.97281" lon="2.82872">
        <ele>679.3</ele>
        <time>2021-07-11T07:38:36Z</time>
      </trkpt>
      <trkpt lat="45.97282" lon="2.82871">
        <ele>679.3</ele>
        <time>2021-07-11T07:38:37Z</time>
      </trkpt>
      <trkpt lat="45.97283" lon="2.8287">
        <ele>679.2</ele>
        <time>2021-07-11T07:38:38Z</time>
      </trkpt>
      <trkpt lat="45.97284" lon="2.82868">
        <ele>679.2</ele>
        <time>2021-07-11T07:38:39Z</time>
      </trkpt>
      <trkpt lat="45.97286" lon="2.82867">
        <ele>679.1</ele>
        <time>2021-07-11T07:38:40Z</time>
      </trkpt>
      <trkpt lat="45.97286" lon="2.82865">
        <ele>679.2</ele>
        <time>2021-07-11T07:38:41Z</time>
      </trkpt>
      <trkpt lat="45.97287" lon="2.82864">
        <ele>679.2</ele>
        <time>2021-07-11T07:38:42Z</time>
      </trkpt>
      <trkpt lat="45.97289" lon="2.82862">
        <ele>679.1</ele>
        <time>2021-07-11T07:38:43Z</time>
      </trkpt>
      <trkpt lat="45.9729" lon="2.82861">
        <ele>679.1</ele>
        <time>2021-07-11T07:38:44Z</time>
      </trkpt>
      <trkpt lat="45.9729" lon="2.82859">
        <ele>679.2</ele>
        <time>2021-07-11T07:38:45Z</time>
      </trkpt>
      <trkpt lat="45.97292" lon="2.82858">
        <ele>679</ele>
        <time>2021-07-11T07:38:46Z</time>
      </trkpt>
      <trkpt lat="45.97293" lon="2.82856">
        <ele>679</ele>
        <time>2021-07-11T07:38:47Z</time>
      </trkpt>
      <trkpt lat="45.97294" lon="2.82855">
        <ele>679</ele>
        <time>2021-07-11T07:38:48Z</time>
      </trkpt>
      <trkpt lat="45.97295" lon="2.82853">
        <ele>678.9</ele>
        <time>2021-07-11T07:38:49Z</time>
      </trkpt>
      <trkpt lat="45.97296" lon="2.82852">
        <ele>678.9</ele>
        <time>2021-07-11T07:38:50Z</time>
      </trkpt>
      <trkpt lat="45.97297" lon="2.8285">
        <ele>678.9</ele>
        <time>2021-07-11T07:38:52Z</time>
      </trkpt>
      <trkpt lat="45.97301" lon="2.82845">
        <ele>678.8</ele>
        <time>2021-07-11T07:38:53Z</time>
      </trkpt>
      <trkpt lat="45.97301" lon="2.82845">
        <ele>678.8</ele>
        <time>2021-07-11T07:38:54Z</time>
      </trkpt>
      <trkpt lat="45.97302" lon="2.82844">
        <ele>678.8</ele>
        <time>2021-07-11T07:38:55Z</time>
      </trkpt>
      <trkpt lat="45.97302" lon="2.82843">
        <ele>678.8</ele>
        <time>2021-07-11T07:38:56Z</time>
      </trkpt>
      <trkpt lat="45.97303" lon="2.82842">
        <ele>678.8</ele>
        <time>2021-07-11T07:38:57Z</time>
      </trkpt>
      <trkpt lat="45.97304" lon="2.82841">
        <ele>678.8</ele>
        <time>2021-07-11T07:38:58Z</time>
      </trkpt>
      <trkpt lat="45.97305" lon="2.82839">
        <ele>678.8</ele>
        <time>2021-07-11T07:38:59Z</time>
      </trkpt>
      <trkpt lat="45.97306" lon="2.82838">
        <ele>678.8</ele>
        <time>2021-07-11T07:39:00Z</time>
      </trkpt>
      <trkpt lat="45.97307" lon="2.82837">
        <ele>678.7</ele>
        <time>2021-07-11T07:39:01Z</time>
      </trkpt>
      <trkpt lat="45.97308" lon="2.82835">
        <ele>678.7</ele>
        <time>2021-07-11T07:39:02Z</time>
      </trkpt>
      <trkpt lat="45.9731" lon="2.82834">
        <ele>678.5</ele>
        <time>2021-07-11T07:39:03Z</time>
      </trkpt>
      <trkpt lat="45.97311" lon="2.82833">
        <ele>678.4</ele>
        <time>2021-07-11T07:39:04Z</time>
      </trkpt>
      <trkpt lat="45.97311" lon="2.82831">
        <ele>678.5</ele>
        <time>2021-07-11T07:39:05Z</time>
      </trkpt>
      <trkpt lat="45.97313" lon="2.8283">
        <ele>678.3</ele>
        <time>2021-07-11T07:39:06Z</time>
      </trkpt>
      <trkpt lat="45.97314" lon="2.82828">
        <ele>678.3</ele>
        <time>2021-07-11T07:39:07Z</time>
      </trkpt>
      <trkpt lat="45.97315" lon="2.82827">
        <ele>678.2</ele>
        <time>2021-07-11T07:39:08Z</time>
      </trkpt>
      <trkpt lat="45.97316" lon="2.82825">
        <ele>678.2</ele>
        <time>2021-07-11T07:39:09Z</time>
      </trkpt>
      <trkpt lat="45.97317" lon="2.82824">
        <ele>678.1</ele>
        <time>2021-07-11T07:39:10Z</time>
      </trkpt>
      <trkpt lat="45.97318" lon="2.82822">
        <ele>678.1</ele>
        <time>2021-07-11T07:39:11Z</time>
      </trkpt>
      <trkpt lat="45.97319" lon="2.8282">
        <ele>678</ele>
        <time>2021-07-11T07:39:12Z</time>
      </trkpt>
      <trkpt lat="45.9732" lon="2.82818">
        <ele>678</ele>
        <time>2021-07-11T07:39:13Z</time>
      </trkpt>
      <trkpt lat="45.97321" lon="2.82817">
        <ele>677.9</ele>
        <time>2021-07-11T07:39:14Z</time>
      </trkpt>
      <trkpt lat="45.97322" lon="2.82815">
        <ele>677.9</ele>
        <time>2021-07-11T07:39:15Z</time>
      </trkpt>
      <trkpt lat="45.97322" lon="2.82813">
        <ele>678</ele>
        <time>2021-07-11T07:39:16Z</time>
      </trkpt>
      <trkpt lat="45.97323" lon="2.82812">
        <ele>677.9</ele>
        <time>2021-07-11T07:39:17Z</time>
      </trkpt>
      <trkpt lat="45.97324" lon="2.82811">
        <ele>677.8</ele>
        <time>2021-07-11T07:39:18Z</time>
      </trkpt>
      <trkpt lat="45.97324" lon="2.82809">
        <ele>677.9</ele>
        <time>2021-07-11T07:39:19Z</time>
      </trkpt>
      <trkpt lat="45.97325" lon="2.82808">
        <ele>677.8</ele>
        <time>2021-07-11T07:39:20Z</time>
      </trkpt>
      <trkpt lat="45.97326" lon="2.82806">
        <ele>677.8</ele>
        <time>2021-07-11T07:39:21Z</time>
      </trkpt>
      <trkpt lat="45.97327" lon="2.82805">
        <ele>677.7</ele>
        <time>2021-07-11T07:39:22Z</time>
      </trkpt>
      <trkpt lat="45.97328" lon="2.82803">
        <ele>677.6</ele>
        <time>2021-07-11T07:39:23Z</time>
      </trkpt>
      <trkpt lat="45.97329" lon="2.82802">
        <ele>677.6</ele>
        <time>2021-07-11T07:39:24Z</time>
      </trkpt>
      <trkpt lat="45.9733" lon="2.82801">
        <ele>677.5</ele>
        <time>2021-07-11T07:39:25Z</time>
      </trkpt>
      <trkpt lat="45.97331" lon="2.82799">
        <ele>677.4</ele>
        <time>2021-07-11T07:39:26Z</time>
      </trkpt>
      <trkpt lat="45.97332" lon="2.82797">
        <ele>677.4</ele>
        <time>2021-07-11T07:39:27Z</time>
      </trkpt>
      <trkpt lat="45.97333" lon="2.82796">
        <ele>677.4</ele>
        <time>2021-07-11T07:39:28Z</time>
      </trkpt>
      <trkpt lat="45.97334" lon="2.82794">
        <ele>677.4</ele>
        <time>2021-07-11T07:39:29Z</time>
      </trkpt>
      <trkpt lat="45.97335" lon="2.82792">
        <ele>677.3</ele>
        <time>2021-07-11T07:39:30Z</time>
      </trkpt>
      <trkpt lat="45.97335" lon="2.82791">
        <ele>677.4</ele>
        <time>2021-07-11T07:39:31Z</time>
      </trkpt>
      <trkpt lat="45.97337" lon="2.82789">
        <ele>677.3</ele>
        <time>2021-07-11T07:39:32Z</time>
      </trkpt>
      <trkpt lat="45.97337" lon="2.82787">
        <ele>677.4</ele>
        <time>2021-07-11T07:39:33Z</time>
      </trkpt>
      <trkpt lat="45.97338" lon="2.82785">
        <ele>677.4</ele>
        <time>2021-07-11T07:39:34Z</time>
      </trkpt>
      <trkpt lat="45.97339" lon="2.82783">
        <ele>677.4</ele>
        <time>2021-07-11T07:39:35Z</time>
      </trkpt>
      <trkpt lat="45.9734" lon="2.82782">
        <ele>677.3</ele>
        <time>2021-07-11T07:39:36Z</time>
      </trkpt>
      <trkpt lat="45.97341" lon="2.8278">
        <ele>677.3</ele>
        <time>2021-07-11T07:39:37Z</time>
      </trkpt>
      <trkpt lat="45.97342" lon="2.82778">
        <ele>677.4</ele>
        <time>2021-07-11T07:39:38Z</time>
      </trkpt>
      <trkpt lat="45.97343" lon="2.82777">
        <ele>677.3</ele>
        <time>2021-07-11T07:39:39Z</time>
      </trkpt>
      <trkpt lat="45.97344" lon="2.82775">
        <ele>677.3</ele>
        <time>2021-07-11T07:39:40Z</time>
      </trkpt>
      <trkpt lat="45.97345" lon="2.82773">
        <ele>677.3</ele>
        <time>2021-07-11T07:39:41Z</time>
      </trkpt>
      <trkpt lat="45.97346" lon="2.82771">
        <ele>677.3</ele>
        <time>2021-07-11T07:39:42Z</time>
      </trkpt>
      <trkpt lat="45.97347" lon="2.8277">
        <ele>677.3</ele>
        <time>2021-07-11T07:39:43Z</time>
      </trkpt>
      <trkpt lat="45.97348" lon="2.82768">
        <ele>677.3</ele>
        <time>2021-07-11T07:39:44Z</time>
      </trkpt>
      <trkpt lat="45.97349" lon="2.82766">
        <ele>677.3</ele>
        <time>2021-07-11T07:39:45Z</time>
      </trkpt>
      <trkpt lat="45.9735" lon="2.82764">
        <ele>677.3</ele>
        <time>2021-07-11T07:39:46Z</time>
      </trkpt>
      <trkpt lat="45.9735" lon="2.82762">
        <ele>677.4</ele>
        <time>2021-07-11T07:39:47Z</time>
      </trkpt>
      <trkpt lat="45.97352" lon="2.82761">
        <ele>677.3</ele>
        <time>2021-07-11T07:39:48Z</time>
      </trkpt>
      <trkpt lat="45.97353" lon="2.82759">
        <ele>677.3</ele>
        <time>2021-07-11T07:39:49Z</time>
      </trkpt>
      <trkpt lat="45.97353" lon="2.82758">
        <ele>677.3</ele>
        <time>2021-07-11T07:39:51Z</time>
      </trkpt>
      <trkpt lat="45.97354" lon="2.82756">
        <ele>677.3</ele>
        <time>2021-07-11T07:39:52Z</time>
      </trkpt>
      <trkpt lat="45.97358" lon="2.8275">
        <ele>677.2</ele>
        <time>2021-07-11T07:39:53Z</time>
      </trkpt>
      <trkpt lat="45.97358" lon="2.8275">
        <ele>677.2</ele>
        <time>2021-07-11T07:39:54Z</time>
      </trkpt>
      <trkpt lat="45.97358" lon="2.82749">
        <ele>677.3</ele>
        <time>2021-07-11T07:39:55Z</time>
      </trkpt>
      <trkpt lat="45.97359" lon="2.82748">
        <ele>677.3</ele>
        <time>2021-07-11T07:39:56Z</time>
      </trkpt>
      <trkpt lat="45.9736" lon="2.82746">
        <ele>677.4</ele>
        <time>2021-07-11T07:39:57Z</time>
      </trkpt>
      <trkpt lat="45.97361" lon="2.82745">
        <ele>677.4</ele>
        <time>2021-07-11T07:39:58Z</time>
      </trkpt>
      <trkpt lat="45.97362" lon="2.82743">
        <ele>677.4</ele>
        <time>2021-07-11T07:39:59Z</time>
      </trkpt>
      <trkpt lat="45.97363" lon="2.82742">
        <ele>677.4</ele>
        <time>2021-07-11T07:40:00Z</time>
      </trkpt>
      <trkpt lat="45.97364" lon="2.8274">
        <ele>677.4</ele>
        <time>2021-07-11T07:40:01Z</time>
      </trkpt>
      <trkpt lat="45.97365" lon="2.82738">
        <ele>677.4</ele>
        <time>2021-07-11T07:40:02Z</time>
      </trkpt>
      <trkpt lat="45.97366" lon="2.82737">
        <ele>677.4</ele>
        <time>2021-07-11T07:40:03Z</time>
      </trkpt>
      <trkpt lat="45.97368" lon="2.82735">
        <ele>677.3</ele>
        <time>2021-07-11T07:40:04Z</time>
      </trkpt>
      <trkpt lat="45.97368" lon="2.82733">
        <ele>677.5</ele>
        <time>2021-07-11T07:40:05Z</time>
      </trkpt>
      <trkpt lat="45.97369" lon="2.82732">
        <ele>677.4</ele>
        <time>2021-07-11T07:40:06Z</time>
      </trkpt>
      <trkpt lat="45.9737" lon="2.8273">
        <ele>677.5</ele>
        <time>2021-07-11T07:40:07Z</time>
      </trkpt>
      <trkpt lat="45.97371" lon="2.82729">
        <ele>677.4</ele>
        <time>2021-07-11T07:40:08Z</time>
      </trkpt>
      <trkpt lat="45.97372" lon="2.82727">
        <ele>677.5</ele>
        <time>2021-07-11T07:40:09Z</time>
      </trkpt>
      <trkpt lat="45.97373" lon="2.82726">
        <ele>677.4</ele>
        <time>2021-07-11T07:40:10Z</time>
      </trkpt>
      <trkpt lat="45.97374" lon="2.82724">
        <ele>677.5</ele>
        <time>2021-07-11T07:40:11Z</time>
      </trkpt>
      <trkpt lat="45.97375" lon="2.82722">
        <ele>677.5</ele>
        <time>2021-07-11T07:40:12Z</time>
      </trkpt>
      <trkpt lat="45.97376" lon="2.82721">
        <ele>677.4</ele>
        <time>2021-07-11T07:40:13Z</time>
      </trkpt>
      <trkpt lat="45.97377" lon="2.82719">
        <ele>677.4</ele>
        <time>2021-07-11T07:40:14Z</time>
      </trkpt>
      <trkpt lat="45.97378" lon="2.82717">
        <ele>677.3</ele>
        <time>2021-07-11T07:40:15Z</time>
      </trkpt>
      <trkpt lat="45.97379" lon="2.82715">
        <ele>677.2</ele>
        <time>2021-07-11T07:40:16Z</time>
      </trkpt>
      <trkpt lat="45.9738" lon="2.82713">
        <ele>677.2</ele>
        <time>2021-07-11T07:40:17Z</time>
      </trkpt>
      <trkpt lat="45.9738" lon="2.82712">
        <ele>677.2</ele>
        <time>2021-07-11T07:40:18Z</time>
      </trkpt>
      <trkpt lat="45.97381" lon="2.8271">
        <ele>677.2</ele>
        <time>2021-07-11T07:40:19Z</time>
      </trkpt>
      <trkpt lat="45.97382" lon="2.82709">
        <ele>677.1</ele>
        <time>2021-07-11T07:40:20Z</time>
      </trkpt>
      <trkpt lat="45.97383" lon="2.82707">
        <ele>677.1</ele>
        <time>2021-07-11T07:40:21Z</time>
      </trkpt>
      <trkpt lat="45.97384" lon="2.82706">
        <ele>677</ele>
        <time>2021-07-11T07:40:22Z</time>
      </trkpt>
      <trkpt lat="45.97384" lon="2.82704">
        <ele>677.1</ele>
        <time>2021-07-11T07:40:23Z</time>
      </trkpt>
      <trkpt lat="45.97385" lon="2.82703">
        <ele>677</ele>
        <time>2021-07-11T07:40:24Z</time>
      </trkpt>
      <trkpt lat="45.97386" lon="2.82701">
        <ele>677</ele>
        <time>2021-07-11T07:40:25Z</time>
      </trkpt>
      <trkpt lat="45.97387" lon="2.82699">
        <ele>677</ele>
        <time>2021-07-11T07:40:26Z</time>
      </trkpt>
      <trkpt lat="45.97388" lon="2.82698">
        <ele>676.9</ele>
        <time>2021-07-11T07:40:27Z</time>
      </trkpt>
      <trkpt lat="45.97389" lon="2.82696">
        <ele>676.9</ele>
        <time>2021-07-11T07:40:28Z</time>
      </trkpt>
      <trkpt lat="45.97389" lon="2.82694">
        <ele>677</ele>
        <time>2021-07-11T07:40:29Z</time>
      </trkpt>
      <trkpt lat="45.9739" lon="2.82692">
        <ele>677</ele>
        <time>2021-07-11T07:40:30Z</time>
      </trkpt>
      <trkpt lat="45.97391" lon="2.82691">
        <ele>677</ele>
        <time>2021-07-11T07:40:31Z</time>
      </trkpt>
      <trkpt lat="45.97392" lon="2.82689">
        <ele>677</ele>
        <time>2021-07-11T07:40:32Z</time>
      </trkpt>
      <trkpt lat="45.97393" lon="2.82687">
        <ele>677</ele>
        <time>2021-07-11T07:40:33Z</time>
      </trkpt>
      <trkpt lat="45.97393" lon="2.82685">
        <ele>677</ele>
        <time>2021-07-11T07:40:34Z</time>
      </trkpt>
      <trkpt lat="45.97395" lon="2.82684">
        <ele>676.9</ele>
        <time>2021-07-11T07:40:35Z</time>
      </trkpt>
      <trkpt lat="45.97395" lon="2.82682">
        <ele>677</ele>
        <time>2021-07-11T07:40:36Z</time>
      </trkpt>
      <trkpt lat="45.97397" lon="2.8268">
        <ele>676.9</ele>
        <time>2021-07-11T07:40:37Z</time>
      </trkpt>
      <trkpt lat="45.97398" lon="2.82678">
        <ele>676.9</ele>
        <time>2021-07-11T07:40:38Z</time>
      </trkpt>
      <trkpt lat="45.97398" lon="2.82677">
        <ele>677</ele>
        <time>2021-07-11T07:40:39Z</time>
      </trkpt>
      <trkpt lat="45.97399" lon="2.82675">
        <ele>677</ele>
        <time>2021-07-11T07:40:40Z</time>
      </trkpt>
      <trkpt lat="45.974" lon="2.82674">
        <ele>676.9</ele>
        <time>2021-07-11T07:40:41Z</time>
      </trkpt>
      <trkpt lat="45.97401" lon="2.82672">
        <ele>676.9</ele>
        <time>2021-07-11T07:40:42Z</time>
      </trkpt>
      <trkpt lat="45.97401" lon="2.8267">
        <ele>677</ele>
        <time>2021-07-11T07:40:43Z</time>
      </trkpt>
      <trkpt lat="45.97402" lon="2.82669">
        <ele>677</ele>
        <time>2021-07-11T07:40:44Z</time>
      </trkpt>
      <trkpt lat="45.97403" lon="2.82667">
        <ele>677</ele>
        <time>2021-07-11T07:40:45Z</time>
      </trkpt>
      <trkpt lat="45.97403" lon="2.82665">
        <ele>677</ele>
        <time>2021-07-11T07:40:46Z</time>
      </trkpt>
      <trkpt lat="45.97404" lon="2.82663">
        <ele>676.9</ele>
        <time>2021-07-11T07:40:47Z</time>
      </trkpt>
      <trkpt lat="45.97405" lon="2.82661">
        <ele>676.9</ele>
        <time>2021-07-11T07:40:48Z</time>
      </trkpt>
      <trkpt lat="45.97406" lon="2.82659">
        <ele>676.8</ele>
        <time>2021-07-11T07:40:49Z</time>
      </trkpt>
      <trkpt lat="45.97406" lon="2.82657">
        <ele>676.8</ele>
        <time>2021-07-11T07:40:50Z</time>
      </trkpt>
      <trkpt lat="45.97407" lon="2.82655">
        <ele>676.8</ele>
        <time>2021-07-11T07:40:52Z</time>
      </trkpt>
      <trkpt lat="45.97409" lon="2.82648">
        <ele>676.9</ele>
        <time>2021-07-11T07:40:53Z</time>
      </trkpt>
      <trkpt lat="45.97409" lon="2.82647">
        <ele>676.9</ele>
        <time>2021-07-11T07:40:54Z</time>
      </trkpt>
      <trkpt lat="45.97409" lon="2.82646">
        <ele>676.9</ele>
        <time>2021-07-11T07:40:55Z</time>
      </trkpt>
      <trkpt lat="45.97409" lon="2.82645">
        <ele>676.9</ele>
        <time>2021-07-11T07:40:56Z</time>
      </trkpt>
      <trkpt lat="45.97409" lon="2.82644">
        <ele>676.9</ele>
        <time>2021-07-11T07:40:57Z</time>
      </trkpt>
      <trkpt lat="45.9741" lon="2.82642">
        <ele>676.9</ele>
        <time>2021-07-11T07:40:58Z</time>
      </trkpt>
      <trkpt lat="45.9741" lon="2.82641">
        <ele>677</ele>
        <time>2021-07-11T07:40:59Z</time>
      </trkpt>
      <trkpt lat="45.9741" lon="2.82639">
        <ele>677</ele>
        <time>2021-07-11T07:41:00Z</time>
      </trkpt>
      <trkpt lat="45.9741" lon="2.82638">
        <ele>677</ele>
        <time>2021-07-11T07:41:01Z</time>
      </trkpt>
      <trkpt lat="45.97409" lon="2.82637">
        <ele>676.9</ele>
        <time>2021-07-11T07:41:02Z</time>
      </trkpt>
      <trkpt lat="45.97409" lon="2.82635">
        <ele>676.8</ele>
        <time>2021-07-11T07:41:03Z</time>
      </trkpt>
      <trkpt lat="45.97408" lon="2.82635">
        <ele>676.8</ele>
        <time>2021-07-11T07:41:04Z</time>
      </trkpt>
      <trkpt lat="45.97407" lon="2.82634">
        <ele>676.8</ele>
        <time>2021-07-11T07:41:05Z</time>
      </trkpt>
      <trkpt lat="45.97406" lon="2.82633">
        <ele>676.7</ele>
        <time>2021-07-11T07:41:06Z</time>
      </trkpt>
      <trkpt lat="45.97404" lon="2.82632">
        <ele>676.6</ele>
        <time>2021-07-11T07:41:07Z</time>
      </trkpt>
      <trkpt lat="45.97403" lon="2.82631">
        <ele>676.6</ele>
        <time>2021-07-11T07:41:08Z</time>
      </trkpt>
      <trkpt lat="45.97401" lon="2.82631">
        <ele>676.6</ele>
        <time>2021-07-11T07:41:09Z</time>
      </trkpt>
      <trkpt lat="45.97401" lon="2.8263">
        <ele>676.5</ele>
        <time>2021-07-11T07:41:10Z</time>
      </trkpt>
      <trkpt lat="45.974" lon="2.82629">
        <ele>676.4</ele>
        <time>2021-07-11T07:41:11Z</time>
      </trkpt>
      <trkpt lat="45.97398" lon="2.82628">
        <ele>676.3</ele>
        <time>2021-07-11T07:41:12Z</time>
      </trkpt>
      <trkpt lat="45.97398" lon="2.82627">
        <ele>676.3</ele>
        <time>2021-07-11T07:41:13Z</time>
      </trkpt>
      <trkpt lat="45.97397" lon="2.82626">
        <ele>676.2</ele>
        <time>2021-07-11T07:41:14Z</time>
      </trkpt>
      <trkpt lat="45.97395" lon="2.82625">
        <ele>676.1</ele>
        <time>2021-07-11T07:41:15Z</time>
      </trkpt>
      <trkpt lat="45.97394" lon="2.82624">
        <ele>676</ele>
        <time>2021-07-11T07:41:16Z</time>
      </trkpt>
      <trkpt lat="45.97393" lon="2.82623">
        <ele>675.9</ele>
        <time>2021-07-11T07:41:17Z</time>
      </trkpt>
      <trkpt lat="45.97392" lon="2.82622">
        <ele>675.9</ele>
        <time>2021-07-11T07:41:18Z</time>
      </trkpt>
      <trkpt lat="45.9739" lon="2.82622">
        <ele>675.8</ele>
        <time>2021-07-11T07:41:19Z</time>
      </trkpt>
      <trkpt lat="45.97389" lon="2.82621">
        <ele>675.7</ele>
        <time>2021-07-11T07:41:20Z</time>
      </trkpt>
      <trkpt lat="45.97387" lon="2.82621">
        <ele>675.6</ele>
        <time>2021-07-11T07:41:21Z</time>
      </trkpt>
      <trkpt lat="45.97386" lon="2.82621">
        <ele>675.6</ele>
        <time>2021-07-11T07:41:22Z</time>
      </trkpt>
      <trkpt lat="45.97384" lon="2.8262">
        <ele>675.5</ele>
        <time>2021-07-11T07:41:23Z</time>
      </trkpt>
      <trkpt lat="45.97383" lon="2.8262">
        <ele>675.4</ele>
        <time>2021-07-11T07:41:24Z</time>
      </trkpt>
      <trkpt lat="45.97382" lon="2.8262">
        <ele>675.4</ele>
        <time>2021-07-11T07:41:25Z</time>
      </trkpt>
      <trkpt lat="45.9738" lon="2.82619">
        <ele>675.2</ele>
        <time>2021-07-11T07:41:26Z</time>
      </trkpt>
      <trkpt lat="45.97379" lon="2.82619">
        <ele>675.2</ele>
        <time>2021-07-11T07:41:27Z</time>
      </trkpt>
      <trkpt lat="45.97377" lon="2.82619">
        <ele>675.1</ele>
        <time>2021-07-11T07:41:27Z</time>
      </trkpt>
      <trkpt lat="45.97376" lon="2.82618">
        <ele>675</ele>
        <time>2021-07-11T07:41:28Z</time>
      </trkpt>
      <trkpt lat="45.97374" lon="2.82618">
        <ele>675</ele>
        <time>2021-07-11T07:41:29Z</time>
      </trkpt>
      <trkpt lat="45.97372" lon="2.82617">
        <ele>674.8</ele>
        <time>2021-07-11T07:41:30Z</time>
      </trkpt>
      <trkpt lat="45.97371" lon="2.82616">
        <ele>674.7</ele>
        <time>2021-07-11T07:41:31Z</time>
      </trkpt>
      <trkpt lat="45.97369" lon="2.82616">
        <ele>674.6</ele>
        <time>2021-07-11T07:41:32Z</time>
      </trkpt>
      <trkpt lat="45.97367" lon="2.82615">
        <ele>674.5</ele>
        <time>2021-07-11T07:41:33Z</time>
      </trkpt>
      <trkpt lat="45.97365" lon="2.82614">
        <ele>674.3</ele>
        <time>2021-07-11T07:41:34Z</time>
      </trkpt>
      <trkpt lat="45.97364" lon="2.82613">
        <ele>674.2</ele>
        <time>2021-07-11T07:41:35Z</time>
      </trkpt>
      <trkpt lat="45.97362" lon="2.82613">
        <ele>674.2</ele>
        <time>2021-07-11T07:41:36Z</time>
      </trkpt>
      <trkpt lat="45.97361" lon="2.82612">
        <ele>674.1</ele>
        <time>2021-07-11T07:41:37Z</time>
      </trkpt>
      <trkpt lat="45.97359" lon="2.82611">
        <ele>674</ele>
        <time>2021-07-11T07:41:38Z</time>
      </trkpt>
      <trkpt lat="45.97358" lon="2.82611">
        <ele>674</ele>
        <time>2021-07-11T07:41:39Z</time>
      </trkpt>
      <trkpt lat="45.97356" lon="2.8261">
        <ele>673.9</ele>
        <time>2021-07-11T07:41:40Z</time>
      </trkpt>
      <trkpt lat="45.97355" lon="2.82609">
        <ele>673.8</ele>
        <time>2021-07-11T07:41:41Z</time>
      </trkpt>
      <trkpt lat="45.97353" lon="2.82608">
        <ele>673.8</ele>
        <time>2021-07-11T07:41:42Z</time>
      </trkpt>
      <trkpt lat="45.97352" lon="2.82608">
        <ele>673.8</ele>
        <time>2021-07-11T07:41:43Z</time>
      </trkpt>
      <trkpt lat="45.9735" lon="2.82607">
        <ele>673.7</ele>
        <time>2021-07-11T07:41:44Z</time>
      </trkpt>
      <trkpt lat="45.97349" lon="2.82606">
        <ele>673.6</ele>
        <time>2021-07-11T07:41:45Z</time>
      </trkpt>
      <trkpt lat="45.97347" lon="2.82606">
        <ele>673.6</ele>
        <time>2021-07-11T07:41:46Z</time>
      </trkpt>
      <trkpt lat="45.97346" lon="2.82605">
        <ele>673.6</ele>
        <time>2021-07-11T07:41:47Z</time>
      </trkpt>
      <trkpt lat="45.97344" lon="2.82605">
        <ele>673.6</ele>
        <time>2021-07-11T07:41:48Z</time>
      </trkpt>
      <trkpt lat="45.97343" lon="2.82604">
        <ele>673.5</ele>
        <time>2021-07-11T07:41:49Z</time>
      </trkpt>
      <trkpt lat="45.97342" lon="2.82603">
        <ele>673.4</ele>
        <time>2021-07-11T07:41:50Z</time>
      </trkpt>
      <trkpt lat="45.9734" lon="2.82603">
        <ele>673.4</ele>
        <time>2021-07-11T07:41:51Z</time>
      </trkpt>
      <trkpt lat="45.97339" lon="2.82602">
        <ele>673.3</ele>
        <time>2021-07-11T07:41:52Z</time>
      </trkpt>
      <trkpt lat="45.97337" lon="2.82601">
        <ele>673.3</ele>
        <time>2021-07-11T07:41:53Z</time>
      </trkpt>
      <trkpt lat="45.97336" lon="2.826">
        <ele>673.2</ele>
        <time>2021-07-11T07:41:54Z</time>
      </trkpt>
      <trkpt lat="45.97335" lon="2.826">
        <ele>673.2</ele>
        <time>2021-07-11T07:41:55Z</time>
      </trkpt>
      <trkpt lat="45.97333" lon="2.82599">
        <ele>673.1</ele>
        <time>2021-07-11T07:41:56Z</time>
      </trkpt>
      <trkpt lat="45.97332" lon="2.82598">
        <ele>673</ele>
        <time>2021-07-11T07:41:57Z</time>
      </trkpt>
      <trkpt lat="45.97331" lon="2.82597">
        <ele>672.9</ele>
        <time>2021-07-11T07:41:58Z</time>
      </trkpt>
      <trkpt lat="45.97329" lon="2.82597">
        <ele>672.8</ele>
        <time>2021-07-11T07:41:59Z</time>
      </trkpt>
      <trkpt lat="45.97327" lon="2.82596">
        <ele>672.7</ele>
        <time>2021-07-11T07:42:00Z</time>
      </trkpt>
      <trkpt lat="45.97326" lon="2.82596">
        <ele>672.6</ele>
        <time>2021-07-11T07:42:01Z</time>
      </trkpt>
      <trkpt lat="45.97325" lon="2.82595">
        <ele>672.5</ele>
        <time>2021-07-11T07:42:02Z</time>
      </trkpt>
      <trkpt lat="45.97323" lon="2.82595">
        <ele>672.5</ele>
        <time>2021-07-11T07:42:03Z</time>
      </trkpt>
      <trkpt lat="45.97322" lon="2.82594">
        <ele>672.4</ele>
        <time>2021-07-11T07:42:04Z</time>
      </trkpt>
      <trkpt lat="45.97321" lon="2.82593">
        <ele>672.3</ele>
        <time>2021-07-11T07:42:05Z</time>
      </trkpt>
      <trkpt lat="45.9732" lon="2.82592">
        <ele>672.1</ele>
        <time>2021-07-11T07:42:06Z</time>
      </trkpt>
      <trkpt lat="45.97318" lon="2.82592">
        <ele>672.1</ele>
        <time>2021-07-11T07:42:07Z</time>
      </trkpt>
      <trkpt lat="45.97317" lon="2.82591">
        <ele>672</ele>
        <time>2021-07-11T07:42:08Z</time>
      </trkpt>
      <trkpt lat="45.97315" lon="2.8259">
        <ele>671.8</ele>
        <time>2021-07-11T07:42:09Z</time>
      </trkpt>
      <trkpt lat="45.97314" lon="2.82589">
        <ele>671.7</ele>
        <time>2021-07-11T07:42:10Z</time>
      </trkpt>
      <trkpt lat="45.97313" lon="2.82589">
        <ele>671.7</ele>
        <time>2021-07-11T07:42:11Z</time>
      </trkpt>
      <trkpt lat="45.97311" lon="2.82588">
        <ele>671.5</ele>
        <time>2021-07-11T07:42:12Z</time>
      </trkpt>
      <trkpt lat="45.9731" lon="2.82587">
        <ele>671.4</ele>
        <time>2021-07-11T07:42:13Z</time>
      </trkpt>
      <trkpt lat="45.97308" lon="2.82586">
        <ele>671.3</ele>
        <time>2021-07-11T07:42:14Z</time>
      </trkpt>
      <trkpt lat="45.97307" lon="2.82585">
        <ele>671.2</ele>
        <time>2021-07-11T07:42:15Z</time>
      </trkpt>
      <trkpt lat="45.97305" lon="2.82584">
        <ele>671</ele>
        <time>2021-07-11T07:42:16Z</time>
      </trkpt>
      <trkpt lat="45.97304" lon="2.82583">
        <ele>670.9</ele>
        <time>2021-07-11T07:42:17Z</time>
      </trkpt>
      <trkpt lat="45.97303" lon="2.82582">
        <ele>670.8</ele>
        <time>2021-07-11T07:42:18Z</time>
      </trkpt>
      <trkpt lat="45.97301" lon="2.82581">
        <ele>670.6</ele>
        <time>2021-07-11T07:42:19Z</time>
      </trkpt>
      <trkpt lat="45.973" lon="2.8258">
        <ele>670.5</ele>
        <time>2021-07-11T07:42:20Z</time>
      </trkpt>
      <trkpt lat="45.97298" lon="2.82579">
        <ele>670.3</ele>
        <time>2021-07-11T07:42:21Z</time>
      </trkpt>
      <trkpt lat="45.97297" lon="2.82578">
        <ele>670.3</ele>
        <time>2021-07-11T07:42:22Z</time>
      </trkpt>
      <trkpt lat="45.97296" lon="2.82577">
        <ele>670.2</ele>
        <time>2021-07-11T07:42:23Z</time>
      </trkpt>
      <trkpt lat="45.97295" lon="2.82577">
        <ele>670.1</ele>
        <time>2021-07-11T07:42:24Z</time>
      </trkpt>
      <trkpt lat="45.97293" lon="2.82576">
        <ele>670</ele>
        <time>2021-07-11T07:42:25Z</time>
      </trkpt>
      <trkpt lat="45.97292" lon="2.82575">
        <ele>669.9</ele>
        <time>2021-07-11T07:42:26Z</time>
      </trkpt>
      <trkpt lat="45.97291" lon="2.82574">
        <ele>669.8</ele>
        <time>2021-07-11T07:42:27Z</time>
      </trkpt>
      <trkpt lat="45.9729" lon="2.82573">
        <ele>669.7</ele>
        <time>2021-07-11T07:42:28Z</time>
      </trkpt>
      <trkpt lat="45.97289" lon="2.82572">
        <ele>669.6</ele>
        <time>2021-07-11T07:42:29Z</time>
      </trkpt>
      <trkpt lat="45.97287" lon="2.82571">
        <ele>669.5</ele>
        <time>2021-07-11T07:42:30Z</time>
      </trkpt>
      <trkpt lat="45.97286" lon="2.8257">
        <ele>669.4</ele>
        <time>2021-07-11T07:42:31Z</time>
      </trkpt>
      <trkpt lat="45.97285" lon="2.82569">
        <ele>669.4</ele>
        <time>2021-07-11T07:42:32Z</time>
      </trkpt>
      <trkpt lat="45.97284" lon="2.82568">
        <ele>669.3</ele>
        <time>2021-07-11T07:42:33Z</time>
      </trkpt>
      <trkpt lat="45.97283" lon="2.82567">
        <ele>669.3</ele>
        <time>2021-07-11T07:42:34Z</time>
      </trkpt>
      <trkpt lat="45.97281" lon="2.82566">
        <ele>669.2</ele>
        <time>2021-07-11T07:42:35Z</time>
      </trkpt>
      <trkpt lat="45.9728" lon="2.82565">
        <ele>669.1</ele>
        <time>2021-07-11T07:42:36Z</time>
      </trkpt>
      <trkpt lat="45.97279" lon="2.82564">
        <ele>669.1</ele>
        <time>2021-07-11T07:42:37Z</time>
      </trkpt>
      <trkpt lat="45.97278" lon="2.82564">
        <ele>669</ele>
        <time>2021-07-11T07:42:38Z</time>
      </trkpt>
      <trkpt lat="45.97276" lon="2.82563">
        <ele>668.8</ele>
        <time>2021-07-11T07:42:39Z</time>
      </trkpt>
      <trkpt lat="45.97275" lon="2.82562">
        <ele>668.7</ele>
        <time>2021-07-11T07:42:40Z</time>
      </trkpt>
      <trkpt lat="45.97274" lon="2.82562">
        <ele>668.6</ele>
        <time>2021-07-11T07:42:41Z</time>
      </trkpt>
      <trkpt lat="45.97273" lon="2.82562">
        <ele>668.5</ele>
        <time>2021-07-11T07:42:42Z</time>
      </trkpt>
      <trkpt lat="45.97271" lon="2.82561">
        <ele>668.3</ele>
        <time>2021-07-11T07:42:43Z</time>
      </trkpt>
      <trkpt lat="45.9727" lon="2.82561">
        <ele>668.2</ele>
        <time>2021-07-11T07:42:44Z</time>
      </trkpt>
      <trkpt lat="45.97269" lon="2.8256">
        <ele>668.1</ele>
        <time>2021-07-11T07:42:45Z</time>
      </trkpt>
      <trkpt lat="45.97268" lon="2.82559">
        <ele>667.9</ele>
        <time>2021-07-11T07:42:46Z</time>
      </trkpt>
      <trkpt lat="45.97267" lon="2.82559">
        <ele>667.8</ele>
        <time>2021-07-11T07:42:47Z</time>
      </trkpt>
      <trkpt lat="45.97266" lon="2.82559">
        <ele>667.7</ele>
        <time>2021-07-11T07:42:48Z</time>
      </trkpt>
      <trkpt lat="45.97265" lon="2.82558">
        <ele>667.6</ele>
        <time>2021-07-11T07:42:50Z</time>
      </trkpt>
      <trkpt lat="45.97264" lon="2.82558">
        <ele>667.5</ele>
        <time>2021-07-11T07:42:51Z</time>
      </trkpt>
      <trkpt lat="45.97259" lon="2.82556">
        <ele>667</ele>
        <time>2021-07-11T07:42:52Z</time>
      </trkpt>
      <trkpt lat="45.97259" lon="2.82556">
        <ele>667</ele>
        <time>2021-07-11T07:42:53Z</time>
      </trkpt>
      <trkpt lat="45.97258" lon="2.82556">
        <ele>666.9</ele>
        <time>2021-07-11T07:42:54Z</time>
      </trkpt>
      <trkpt lat="45.97257" lon="2.82555">
        <ele>666.8</ele>
        <time>2021-07-11T07:42:55Z</time>
      </trkpt>
      <trkpt lat="45.97256" lon="2.82555">
        <ele>666.6</ele>
        <time>2021-07-11T07:42:56Z</time>
      </trkpt>
      <trkpt lat="45.97255" lon="2.82554">
        <ele>666.5</ele>
        <time>2021-07-11T07:42:57Z</time>
      </trkpt>
      <trkpt lat="45.97254" lon="2.82553">
        <ele>666.4</ele>
        <time>2021-07-11T07:42:58Z</time>
      </trkpt>
      <trkpt lat="45.97253" lon="2.82553">
        <ele>666.3</ele>
        <time>2021-07-11T07:42:59Z</time>
      </trkpt>
      <trkpt lat="45.97252" lon="2.82552">
        <ele>666.2</ele>
        <time>2021-07-11T07:43:00Z</time>
      </trkpt>
      <trkpt lat="45.97251" lon="2.82551">
        <ele>666.1</ele>
        <time>2021-07-11T07:43:01Z</time>
      </trkpt>
      <trkpt lat="45.9725" lon="2.82551">
        <ele>666</ele>
        <time>2021-07-11T07:43:02Z</time>
      </trkpt>
      <trkpt lat="45.97249" lon="2.8255">
        <ele>665.9</ele>
        <time>2021-07-11T07:43:03Z</time>
      </trkpt>
      <trkpt lat="45.97248" lon="2.8255">
        <ele>665.8</ele>
        <time>2021-07-11T07:43:04Z</time>
      </trkpt>
      <trkpt lat="45.97247" lon="2.8255">
        <ele>665.7</ele>
        <time>2021-07-11T07:43:05Z</time>
      </trkpt>
      <trkpt lat="45.97245" lon="2.8255">
        <ele>665.5</ele>
        <time>2021-07-11T07:43:06Z</time>
      </trkpt>
      <trkpt lat="45.97244" lon="2.8255">
        <ele>665.4</ele>
        <time>2021-07-11T07:43:07Z</time>
      </trkpt>
      <trkpt lat="45.97243" lon="2.82549">
        <ele>665.2</ele>
        <time>2021-07-11T07:43:08Z</time>
      </trkpt>
      <trkpt lat="45.97242" lon="2.82549">
        <ele>665.1</ele>
        <time>2021-07-11T07:43:09Z</time>
      </trkpt>
      <trkpt lat="45.97241" lon="2.82549">
        <ele>665</ele>
        <time>2021-07-11T07:43:10Z</time>
      </trkpt>
      <trkpt lat="45.9724" lon="2.8255">
        <ele>664.9</ele>
        <time>2021-07-11T07:43:11Z</time>
      </trkpt>
      <trkpt lat="45.97239" lon="2.8255">
        <ele>664.8</ele>
        <time>2021-07-11T07:43:12Z</time>
      </trkpt>
      <trkpt lat="45.97238" lon="2.8255">
        <ele>664.7</ele>
        <time>2021-07-11T07:43:13Z</time>
      </trkpt>
      <trkpt lat="45.97237" lon="2.8255">
        <ele>664.6</ele>
        <time>2021-07-11T07:43:14Z</time>
      </trkpt>
      <trkpt lat="45.97236" lon="2.8255">
        <ele>664.5</ele>
        <time>2021-07-11T07:43:15Z</time>
      </trkpt>
      <trkpt lat="45.97235" lon="2.8255">
        <ele>664.4</ele>
        <time>2021-07-11T07:43:16Z</time>
      </trkpt>
      <trkpt lat="45.97234" lon="2.82551">
        <ele>664.3</ele>
        <time>2021-07-11T07:43:17Z</time>
      </trkpt>
      <trkpt lat="45.97232" lon="2.82551">
        <ele>664.1</ele>
        <time>2021-07-11T07:43:18Z</time>
      </trkpt>
      <trkpt lat="45.97231" lon="2.82552">
        <ele>663.9</ele>
        <time>2021-07-11T07:43:19Z</time>
      </trkpt>
      <trkpt lat="45.9723" lon="2.82552">
        <ele>663.8</ele>
        <time>2021-07-11T07:43:20Z</time>
      </trkpt>
      <trkpt lat="45.97229" lon="2.82553">
        <ele>663.7</ele>
        <time>2021-07-11T07:43:21Z</time>
      </trkpt>
      <trkpt lat="45.97227" lon="2.82553">
        <ele>663.5</ele>
        <time>2021-07-11T07:43:22Z</time>
      </trkpt>
      <trkpt lat="45.97226" lon="2.82554">
        <ele>663.4</ele>
        <time>2021-07-11T07:43:23Z</time>
      </trkpt>
      <trkpt lat="45.97224" lon="2.82554">
        <ele>663.2</ele>
        <time>2021-07-11T07:43:24Z</time>
      </trkpt>
      <trkpt lat="45.97223" lon="2.82555">
        <ele>663.1</ele>
        <time>2021-07-11T07:43:25Z</time>
      </trkpt>
      <trkpt lat="45.97222" lon="2.82555">
        <ele>663</ele>
        <time>2021-07-11T07:43:26Z</time>
      </trkpt>
      <trkpt lat="45.9722" lon="2.82556">
        <ele>662.7</ele>
        <time>2021-07-11T07:43:27Z</time>
      </trkpt>
      <trkpt lat="45.9722" lon="2.82556">
        <ele>662.7</ele>
        <time>2021-07-11T07:43:28Z</time>
      </trkpt>
      <trkpt lat="45.97218" lon="2.82557">
        <ele>662.4</ele>
        <time>2021-07-11T07:43:29Z</time>
      </trkpt>
      <trkpt lat="45.97216" lon="2.82557">
        <ele>662.2</ele>
        <time>2021-07-11T07:43:30Z</time>
      </trkpt>
      <trkpt lat="45.97215" lon="2.82558">
        <ele>662</ele>
        <time>2021-07-11T07:43:31Z</time>
      </trkpt>
      <trkpt lat="45.97214" lon="2.82558">
        <ele>661.9</ele>
        <time>2021-07-11T07:43:32Z</time>
      </trkpt>
      <trkpt lat="45.97212" lon="2.82559">
        <ele>661.7</ele>
        <time>2021-07-11T07:43:33Z</time>
      </trkpt>
      <trkpt lat="45.97211" lon="2.82559">
        <ele>661.5</ele>
        <time>2021-07-11T07:43:34Z</time>
      </trkpt>
      <trkpt lat="45.9721" lon="2.8256">
        <ele>661.4</ele>
        <time>2021-07-11T07:43:35Z</time>
      </trkpt>
      <trkpt lat="45.97208" lon="2.82561">
        <ele>661.1</ele>
        <time>2021-07-11T07:43:36Z</time>
      </trkpt>
      <trkpt lat="45.97207" lon="2.82561">
        <ele>661</ele>
        <time>2021-07-11T07:43:37Z</time>
      </trkpt>
      <trkpt lat="45.97205" lon="2.82562">
        <ele>660.8</ele>
        <time>2021-07-11T07:43:38Z</time>
      </trkpt>
      <trkpt lat="45.97205" lon="2.82563">
        <ele>660.8</ele>
        <time>2021-07-11T07:43:39Z</time>
      </trkpt>
      <trkpt lat="45.97203" lon="2.82563">
        <ele>660.5</ele>
        <time>2021-07-11T07:43:40Z</time>
      </trkpt>
      <trkpt lat="45.97202" lon="2.82564">
        <ele>660.4</ele>
        <time>2021-07-11T07:43:41Z</time>
      </trkpt>
      <trkpt lat="45.972" lon="2.82565">
        <ele>660.1</ele>
        <time>2021-07-11T07:43:42Z</time>
      </trkpt>
      <trkpt lat="45.97199" lon="2.82566">
        <ele>660</ele>
        <time>2021-07-11T07:43:43Z</time>
      </trkpt>
      <trkpt lat="45.97198" lon="2.82566">
        <ele>659.9</ele>
        <time>2021-07-11T07:43:44Z</time>
      </trkpt>
      <trkpt lat="45.97196" lon="2.82567">
        <ele>659.6</ele>
        <time>2021-07-11T07:43:45Z</time>
      </trkpt>
      <trkpt lat="45.97195" lon="2.82567">
        <ele>659.5</ele>
        <time>2021-07-11T07:43:46Z</time>
      </trkpt>
      <trkpt lat="45.97194" lon="2.82568">
        <ele>659.4</ele>
        <time>2021-07-11T07:43:47Z</time>
      </trkpt>
      <trkpt lat="45.97192" lon="2.82568">
        <ele>659.2</ele>
        <time>2021-07-11T07:43:48Z</time>
      </trkpt>
      <trkpt lat="45.97191" lon="2.82569">
        <ele>659.1</ele>
        <time>2021-07-11T07:43:49Z</time>
      </trkpt>
      <trkpt lat="45.97189" lon="2.82569">
        <ele>658.9</ele>
        <time>2021-07-11T07:43:51Z</time>
      </trkpt>
      <trkpt lat="45.97184" lon="2.8257">
        <ele>658.4</ele>
        <time>2021-07-11T07:43:52Z</time>
      </trkpt>
      <trkpt lat="45.97183" lon="2.8257">
        <ele>658.3</ele>
        <time>2021-07-11T07:43:53Z</time>
      </trkpt>
      <trkpt lat="45.97183" lon="2.8257">
        <ele>658.3</ele>
        <time>2021-07-11T07:43:54Z</time>
      </trkpt>
      <trkpt lat="45.97181" lon="2.8257">
        <ele>658.1</ele>
        <time>2021-07-11T07:43:55Z</time>
      </trkpt>
      <trkpt lat="45.9718" lon="2.8257">
        <ele>658</ele>
        <time>2021-07-11T07:43:56Z</time>
      </trkpt>
      <trkpt lat="45.97179" lon="2.8257">
        <ele>657.9</ele>
        <time>2021-07-11T07:43:57Z</time>
      </trkpt>
      <trkpt lat="45.97178" lon="2.8257">
        <ele>657.7</ele>
        <time>2021-07-11T07:43:58Z</time>
      </trkpt>
      <trkpt lat="45.97176" lon="2.82569">
        <ele>657.5</ele>
        <time>2021-07-11T07:43:59Z</time>
      </trkpt>
      <trkpt lat="45.97175" lon="2.82569">
        <ele>657.4</ele>
        <time>2021-07-11T07:44:00Z</time>
      </trkpt>
      <trkpt lat="45.97173" lon="2.82568">
        <ele>657.1</ele>
        <time>2021-07-11T07:44:01Z</time>
      </trkpt>
      <trkpt lat="45.97172" lon="2.82568">
        <ele>657</ele>
        <time>2021-07-11T07:44:02Z</time>
      </trkpt>
      <trkpt lat="45.97171" lon="2.82567">
        <ele>656.9</ele>
        <time>2021-07-11T07:44:03Z</time>
      </trkpt>
      <trkpt lat="45.97169" lon="2.82566">
        <ele>656.6</ele>
        <time>2021-07-11T07:44:04Z</time>
      </trkpt>
      <trkpt lat="45.97168" lon="2.82566">
        <ele>656.5</ele>
        <time>2021-07-11T07:44:05Z</time>
      </trkpt>
      <trkpt lat="45.97168" lon="2.82565">
        <ele>656.5</ele>
        <time>2021-07-11T07:44:06Z</time>
      </trkpt>
      <trkpt lat="45.97166" lon="2.82563">
        <ele>656.3</ele>
        <time>2021-07-11T07:44:07Z</time>
      </trkpt>
      <trkpt lat="45.97166" lon="2.82562">
        <ele>656.3</ele>
        <time>2021-07-11T07:44:08Z</time>
      </trkpt>
      <trkpt lat="45.97165" lon="2.8256">
        <ele>656.3</ele>
        <time>2021-07-11T07:44:09Z</time>
      </trkpt>
      <trkpt lat="45.97165" lon="2.82559">
        <ele>656.3</ele>
        <time>2021-07-11T07:44:10Z</time>
      </trkpt>
      <trkpt lat="45.97164" lon="2.82557">
        <ele>656.2</ele>
        <time>2021-07-11T07:44:11Z</time>
      </trkpt>
      <trkpt lat="45.97163" lon="2.82555">
        <ele>656.2</ele>
        <time>2021-07-11T07:44:12Z</time>
      </trkpt>
      <trkpt lat="45.97163" lon="2.82554">
        <ele>656.2</ele>
        <time>2021-07-11T07:44:13Z</time>
      </trkpt>
      <trkpt lat="45.97162" lon="2.82552">
        <ele>656.1</ele>
        <time>2021-07-11T07:44:14Z</time>
      </trkpt>
      <trkpt lat="45.97162" lon="2.82551">
        <ele>656</ele>
        <time>2021-07-11T07:44:15Z</time>
      </trkpt>
      <trkpt lat="45.97161" lon="2.82549">
        <ele>655.9</ele>
        <time>2021-07-11T07:44:16Z</time>
      </trkpt>
      <trkpt lat="45.9716" lon="2.82548">
        <ele>655.9</ele>
        <time>2021-07-11T07:44:17Z</time>
      </trkpt>
      <trkpt lat="45.9716" lon="2.82546">
        <ele>655.8</ele>
        <time>2021-07-11T07:44:18Z</time>
      </trkpt>
      <trkpt lat="45.9716" lon="2.82544">
        <ele>655.6</ele>
        <time>2021-07-11T07:44:19Z</time>
      </trkpt>
      <trkpt lat="45.9716" lon="2.82542">
        <ele>655.5</ele>
        <time>2021-07-11T07:44:20Z</time>
      </trkpt>
      <trkpt lat="45.97159" lon="2.8254">
        <ele>655.4</ele>
        <time>2021-07-11T07:44:21Z</time>
      </trkpt>
      <trkpt lat="45.97158" lon="2.82538">
        <ele>655.4</ele>
        <time>2021-07-11T07:44:22Z</time>
      </trkpt>
      <trkpt lat="45.97158" lon="2.82536">
        <ele>655.2</ele>
        <time>2021-07-11T07:44:23Z</time>
      </trkpt>
      <trkpt lat="45.97158" lon="2.82534">
        <ele>655.1</ele>
        <time>2021-07-11T07:44:24Z</time>
      </trkpt>
      <trkpt lat="45.97157" lon="2.82532">
        <ele>655</ele>
        <time>2021-07-11T07:44:25Z</time>
      </trkpt>
      <trkpt lat="45.97157" lon="2.8253">
        <ele>654.9</ele>
        <time>2021-07-11T07:44:26Z</time>
      </trkpt>
      <trkpt lat="45.97157" lon="2.82529">
        <ele>654.8</ele>
        <time>2021-07-11T07:44:27Z</time>
      </trkpt>
      <trkpt lat="45.97157" lon="2.82527">
        <ele>654.6</ele>
        <time>2021-07-11T07:44:28Z</time>
      </trkpt>
      <trkpt lat="45.97156" lon="2.82526">
        <ele>654.6</ele>
        <time>2021-07-11T07:44:29Z</time>
      </trkpt>
      <trkpt lat="45.97155" lon="2.82524">
        <ele>654.6</ele>
        <time>2021-07-11T07:44:30Z</time>
      </trkpt>
      <trkpt lat="45.97155" lon="2.82523">
        <ele>654.5</ele>
        <time>2021-07-11T07:44:31Z</time>
      </trkpt>
      <trkpt lat="45.97155" lon="2.82522">
        <ele>654.4</ele>
        <time>2021-07-11T07:44:32Z</time>
      </trkpt>
      <trkpt lat="45.97155" lon="2.82521">
        <ele>654.4</ele>
        <time>2021-07-11T07:44:33Z</time>
      </trkpt>
      <trkpt lat="45.97155" lon="2.8252">
        <ele>654.3</ele>
        <time>2021-07-11T07:44:34Z</time>
      </trkpt>
      <trkpt lat="45.97154" lon="2.82518">
        <ele>654.2</ele>
        <time>2021-07-11T07:44:35Z</time>
      </trkpt>
      <trkpt lat="45.97154" lon="2.82517">
        <ele>654.1</ele>
        <time>2021-07-11T07:44:36Z</time>
      </trkpt>
      <trkpt lat="45.97154" lon="2.82516">
        <ele>654.1</ele>
        <time>2021-07-11T07:44:37Z</time>
      </trkpt>
      <trkpt lat="45.97154" lon="2.82514">
        <ele>653.9</ele>
        <time>2021-07-11T07:44:38Z</time>
      </trkpt>
      <trkpt lat="45.97154" lon="2.82513">
        <ele>653.8</ele>
        <time>2021-07-11T07:44:39Z</time>
      </trkpt>
      <trkpt lat="45.97154" lon="2.82512">
        <ele>653.8</ele>
        <time>2021-07-11T07:44:40Z</time>
      </trkpt>
      <trkpt lat="45.97154" lon="2.82511">
        <ele>653.7</ele>
        <time>2021-07-11T07:44:41Z</time>
      </trkpt>
      <trkpt lat="45.97153" lon="2.82509">
        <ele>653.6</ele>
        <time>2021-07-11T07:44:42Z</time>
      </trkpt>
      <trkpt lat="45.97153" lon="2.82508">
        <ele>653.6</ele>
        <time>2021-07-11T07:44:43Z</time>
      </trkpt>
      <trkpt lat="45.97153" lon="2.82507">
        <ele>653.5</ele>
        <time>2021-07-11T07:44:44Z</time>
      </trkpt>
      <trkpt lat="45.97152" lon="2.82505">
        <ele>653.4</ele>
        <time>2021-07-11T07:44:45Z</time>
      </trkpt>
      <trkpt lat="45.97152" lon="2.82503">
        <ele>653.3</ele>
        <time>2021-07-11T07:44:46Z</time>
      </trkpt>
      <trkpt lat="45.97152" lon="2.82502">
        <ele>653.2</ele>
        <time>2021-07-11T07:44:47Z</time>
      </trkpt>
      <trkpt lat="45.97152" lon="2.825">
        <ele>653.1</ele>
        <time>2021-07-11T07:44:48Z</time>
      </trkpt>
      <trkpt lat="45.97151" lon="2.82499">
        <ele>653</ele>
        <time>2021-07-11T07:44:49Z</time>
      </trkpt>
      <trkpt lat="45.97151" lon="2.82497">
        <ele>652.8</ele>
        <time>2021-07-11T07:44:50Z</time>
      </trkpt>
      <trkpt lat="45.97151" lon="2.82495">
        <ele>652.6</ele>
        <time>2021-07-11T07:44:51Z</time>
      </trkpt>
      <trkpt lat="45.97151" lon="2.82493">
        <ele>652.4</ele>
        <time>2021-07-11T07:44:52Z</time>
      </trkpt>
      <trkpt lat="45.97151" lon="2.82491">
        <ele>652.2</ele>
        <time>2021-07-11T07:44:53Z</time>
      </trkpt>
      <trkpt lat="45.9715" lon="2.82489">
        <ele>652</ele>
        <time>2021-07-11T07:44:54Z</time>
      </trkpt>
      <trkpt lat="45.9715" lon="2.82487">
        <ele>651.8</ele>
        <time>2021-07-11T07:44:55Z</time>
      </trkpt>
      <trkpt lat="45.9715" lon="2.82486">
        <ele>651.7</ele>
        <time>2021-07-11T07:44:56Z</time>
      </trkpt>
      <trkpt lat="45.9715" lon="2.82484">
        <ele>651.5</ele>
        <time>2021-07-11T07:44:57Z</time>
      </trkpt>
      <trkpt lat="45.9715" lon="2.82482">
        <ele>651.3</ele>
        <time>2021-07-11T07:44:58Z</time>
      </trkpt>
      <trkpt lat="45.9715" lon="2.8248">
        <ele>651</ele>
        <time>2021-07-11T07:44:59Z</time>
      </trkpt>
      <trkpt lat="45.9715" lon="2.82479">
        <ele>650.9</ele>
        <time>2021-07-11T07:45:00Z</time>
      </trkpt>
      <trkpt lat="45.9715" lon="2.82477">
        <ele>650.7</ele>
        <time>2021-07-11T07:45:01Z</time>
      </trkpt>
      <trkpt lat="45.9715" lon="2.82475">
        <ele>650.5</ele>
        <time>2021-07-11T07:45:02Z</time>
      </trkpt>
      <trkpt lat="45.9715" lon="2.82473">
        <ele>650.3</ele>
        <time>2021-07-11T07:45:03Z</time>
      </trkpt>
      <trkpt lat="45.9715" lon="2.82471">
        <ele>650.1</ele>
        <time>2021-07-11T07:45:04Z</time>
      </trkpt>
      <trkpt lat="45.9715" lon="2.8247">
        <ele>650</ele>
        <time>2021-07-11T07:45:05Z</time>
      </trkpt>
      <trkpt lat="45.9715" lon="2.82468">
        <ele>649.8</ele>
        <time>2021-07-11T07:45:06Z</time>
      </trkpt>
      <trkpt lat="45.9715" lon="2.82467">
        <ele>649.7</ele>
        <time>2021-07-11T07:45:07Z</time>
      </trkpt>
      <trkpt lat="45.9715" lon="2.82465">
        <ele>649.6</ele>
        <time>2021-07-11T07:45:08Z</time>
      </trkpt>
      <trkpt lat="45.9715" lon="2.82464">
        <ele>649.5</ele>
        <time>2021-07-11T07:45:09Z</time>
      </trkpt>
      <trkpt lat="45.9715" lon="2.82462">
        <ele>649.3</ele>
        <time>2021-07-11T07:45:10Z</time>
      </trkpt>
      <trkpt lat="45.9715" lon="2.82461">
        <ele>649.2</ele>
        <time>2021-07-11T07:45:11Z</time>
      </trkpt>
      <trkpt lat="45.9715" lon="2.82459">
        <ele>649.1</ele>
        <time>2021-07-11T07:45:12Z</time>
      </trkpt>
      <trkpt lat="45.9715" lon="2.82457">
        <ele>648.9</ele>
        <time>2021-07-11T07:45:13Z</time>
      </trkpt>
      <trkpt lat="45.9715" lon="2.82456">
        <ele>648.8</ele>
        <time>2021-07-11T07:45:14Z</time>
      </trkpt>
      <trkpt lat="45.9715" lon="2.82454">
        <ele>648.6</ele>
        <time>2021-07-11T07:45:15Z</time>
      </trkpt>
      <trkpt lat="45.9715" lon="2.82452">
        <ele>648.5</ele>
        <time>2021-07-11T07:45:16Z</time>
      </trkpt>
      <trkpt lat="45.9715" lon="2.8245">
        <ele>648.3</ele>
        <time>2021-07-11T07:45:17Z</time>
      </trkpt>
      <trkpt lat="45.9715" lon="2.82448">
        <ele>648.1</ele>
        <time>2021-07-11T07:45:18Z</time>
      </trkpt>
      <trkpt lat="45.97149" lon="2.82446">
        <ele>648</ele>
        <time>2021-07-11T07:45:19Z</time>
      </trkpt>
      <trkpt lat="45.9715" lon="2.82444">
        <ele>647.8</ele>
        <time>2021-07-11T07:45:20Z</time>
      </trkpt>
      <trkpt lat="45.9715" lon="2.82442">
        <ele>647.6</ele>
        <time>2021-07-11T07:45:21Z</time>
      </trkpt>
      <trkpt lat="45.9715" lon="2.8244">
        <ele>647.4</ele>
        <time>2021-07-11T07:45:22Z</time>
      </trkpt>
      <trkpt lat="45.97149" lon="2.82438">
        <ele>647.3</ele>
        <time>2021-07-11T07:45:23Z</time>
      </trkpt>
      <trkpt lat="45.97149" lon="2.82436">
        <ele>647.1</ele>
        <time>2021-07-11T07:45:24Z</time>
      </trkpt>
      <trkpt lat="45.97149" lon="2.82435">
        <ele>647</ele>
        <time>2021-07-11T07:45:25Z</time>
      </trkpt>
      <trkpt lat="45.97149" lon="2.82433">
        <ele>646.8</ele>
        <time>2021-07-11T07:45:26Z</time>
      </trkpt>
      <trkpt lat="45.97149" lon="2.82431">
        <ele>646.6</ele>
        <time>2021-07-11T07:45:27Z</time>
      </trkpt>
      <trkpt lat="45.97149" lon="2.82429">
        <ele>646.4</ele>
        <time>2021-07-11T07:45:28Z</time>
      </trkpt>
      <trkpt lat="45.97149" lon="2.82427">
        <ele>646.3</ele>
        <time>2021-07-11T07:45:29Z</time>
      </trkpt>
      <trkpt lat="45.97149" lon="2.82424">
        <ele>646</ele>
        <time>2021-07-11T07:45:30Z</time>
      </trkpt>
      <trkpt lat="45.97149" lon="2.82422">
        <ele>645.8</ele>
        <time>2021-07-11T07:45:31Z</time>
      </trkpt>
      <trkpt lat="45.97149" lon="2.8242">
        <ele>645.6</ele>
        <time>2021-07-11T07:45:32Z</time>
      </trkpt>
      <trkpt lat="45.97149" lon="2.82418">
        <ele>645.4</ele>
        <time>2021-07-11T07:45:33Z</time>
      </trkpt>
      <trkpt lat="45.97149" lon="2.82417">
        <ele>645.3</ele>
        <time>2021-07-11T07:45:34Z</time>
      </trkpt>
      <trkpt lat="45.97148" lon="2.82415">
        <ele>645.1</ele>
        <time>2021-07-11T07:45:35Z</time>
      </trkpt>
      <trkpt lat="45.97148" lon="2.82413">
        <ele>644.8</ele>
        <time>2021-07-11T07:45:36Z</time>
      </trkpt>
      <trkpt lat="45.97148" lon="2.82412">
        <ele>644.6</ele>
        <time>2021-07-11T07:45:37Z</time>
      </trkpt>
      <trkpt lat="45.97148" lon="2.8241">
        <ele>644.3</ele>
        <time>2021-07-11T07:45:38Z</time>
      </trkpt>
      <trkpt lat="45.97148" lon="2.82408">
        <ele>644</ele>
        <time>2021-07-11T07:45:39Z</time>
      </trkpt>
      <trkpt lat="45.97148" lon="2.82407">
        <ele>643.8</ele>
        <time>2021-07-11T07:45:40Z</time>
      </trkpt>
      <trkpt lat="45.97148" lon="2.82406">
        <ele>643.7</ele>
        <time>2021-07-11T07:45:41Z</time>
      </trkpt>
      <trkpt lat="45.97148" lon="2.82404">
        <ele>643.4</ele>
        <time>2021-07-11T07:45:42Z</time>
      </trkpt>
      <trkpt lat="45.97147" lon="2.82403">
        <ele>643.2</ele>
        <time>2021-07-11T07:45:42Z</time>
      </trkpt>
      <trkpt lat="45.97147" lon="2.82401">
        <ele>642.9</ele>
        <time>2021-07-11T07:45:43Z</time>
      </trkpt>
      <trkpt lat="45.97147" lon="2.82399">
        <ele>642.6</ele>
        <time>2021-07-11T07:45:44Z</time>
      </trkpt>
      <trkpt lat="45.97147" lon="2.82398">
        <ele>642.4</ele>
        <time>2021-07-11T07:45:45Z</time>
      </trkpt>
      <trkpt lat="45.97147" lon="2.82397">
        <ele>642.3</ele>
        <time>2021-07-11T07:45:46Z</time>
      </trkpt>
      <trkpt lat="45.97147" lon="2.82395">
        <ele>642</ele>
        <time>2021-07-11T07:45:47Z</time>
      </trkpt>
      <trkpt lat="45.97146" lon="2.82394">
        <ele>641.8</ele>
        <time>2021-07-11T07:45:48Z</time>
      </trkpt>
      <trkpt lat="45.97146" lon="2.82393">
        <ele>641.7</ele>
        <time>2021-07-11T07:45:49Z</time>
      </trkpt>
      <trkpt lat="45.97146" lon="2.82391">
        <ele>641.3</ele>
        <time>2021-07-11T07:45:50Z</time>
      </trkpt>
      <trkpt lat="45.97146" lon="2.8239">
        <ele>641.2</ele>
        <time>2021-07-11T07:45:51Z</time>
      </trkpt>
      <trkpt lat="45.97146" lon="2.82389">
        <ele>641</ele>
        <time>2021-07-11T07:45:52Z</time>
      </trkpt>
      <trkpt lat="45.97145" lon="2.82387">
        <ele>640.7</ele>
        <time>2021-07-11T07:45:53Z</time>
      </trkpt>
      <trkpt lat="45.97145" lon="2.82386">
        <ele>640.6</ele>
        <time>2021-07-11T07:45:54Z</time>
      </trkpt>
      <trkpt lat="45.97144" lon="2.82384">
        <ele>640.2</ele>
        <time>2021-07-11T07:45:55Z</time>
      </trkpt>
      <trkpt lat="45.97144" lon="2.82383">
        <ele>640.1</ele>
        <time>2021-07-11T07:45:56Z</time>
      </trkpt>
      <trkpt lat="45.97144" lon="2.82382">
        <ele>639.9</ele>
        <time>2021-07-11T07:45:57Z</time>
      </trkpt>
      <trkpt lat="45.97143" lon="2.8238">
        <ele>639.6</ele>
        <time>2021-07-11T07:45:58Z</time>
      </trkpt>
      <trkpt lat="45.97142" lon="2.82379">
        <ele>639.4</ele>
        <time>2021-07-11T07:45:59Z</time>
      </trkpt>
      <trkpt lat="45.97142" lon="2.82378">
        <ele>639.2</ele>
        <time>2021-07-11T07:46:00Z</time>
      </trkpt>
      <trkpt lat="45.97142" lon="2.82377">
        <ele>639.1</ele>
        <time>2021-07-11T07:46:01Z</time>
      </trkpt>
      <trkpt lat="45.97141" lon="2.82375">
        <ele>638.7</ele>
        <time>2021-07-11T07:46:02Z</time>
      </trkpt>
      <trkpt lat="45.97141" lon="2.82374">
        <ele>638.5</ele>
        <time>2021-07-11T07:46:03Z</time>
      </trkpt>
      <trkpt lat="45.9714" lon="2.82373">
        <ele>638.2</ele>
        <time>2021-07-11T07:46:04Z</time>
      </trkpt>
      <trkpt lat="45.97139" lon="2.82371">
        <ele>637.8</ele>
        <time>2021-07-11T07:46:05Z</time>
      </trkpt>
      <trkpt lat="45.97139" lon="2.8237">
        <ele>637.6</ele>
        <time>2021-07-11T07:46:06Z</time>
      </trkpt>
      <trkpt lat="45.97139" lon="2.82369">
        <ele>637.4</ele>
        <time>2021-07-11T07:46:07Z</time>
      </trkpt>
      <trkpt lat="45.97138" lon="2.82368">
        <ele>637.3</ele>
        <time>2021-07-11T07:46:08Z</time>
      </trkpt>
      <trkpt lat="45.97137" lon="2.82367">
        <ele>637.1</ele>
        <time>2021-07-11T07:46:09Z</time>
      </trkpt>
      <trkpt lat="45.97136" lon="2.82366">
        <ele>637</ele>
        <time>2021-07-11T07:46:10Z</time>
      </trkpt>
      <trkpt lat="45.97136" lon="2.82365">
        <ele>636.8</ele>
        <time>2021-07-11T07:46:11Z</time>
      </trkpt>
      <trkpt lat="45.97135" lon="2.82364">
        <ele>636.7</ele>
        <time>2021-07-11T07:46:12Z</time>
      </trkpt>
      <trkpt lat="45.97134" lon="2.82362">
        <ele>636.3</ele>
        <time>2021-07-11T07:46:13Z</time>
      </trkpt>
      <trkpt lat="45.97133" lon="2.82361">
        <ele>636.2</ele>
        <time>2021-07-11T07:46:14Z</time>
      </trkpt>
      <trkpt lat="45.97132" lon="2.82359">
        <ele>635.8</ele>
        <time>2021-07-11T07:46:15Z</time>
      </trkpt>
      <trkpt lat="45.97132" lon="2.82358">
        <ele>635.6</ele>
        <time>2021-07-11T07:46:16Z</time>
      </trkpt>
      <trkpt lat="45.97131" lon="2.82356">
        <ele>635.2</ele>
        <time>2021-07-11T07:46:17Z</time>
      </trkpt>
      <trkpt lat="45.9713" lon="2.82355">
        <ele>635</ele>
        <time>2021-07-11T07:46:18Z</time>
      </trkpt>
      <trkpt lat="45.9713" lon="2.82354">
        <ele>634.8</ele>
        <time>2021-07-11T07:46:19Z</time>
      </trkpt>
      <trkpt lat="45.97129" lon="2.82352">
        <ele>634.4</ele>
        <time>2021-07-11T07:46:20Z</time>
      </trkpt>
      <trkpt lat="45.97128" lon="2.82351">
        <ele>634.2</ele>
        <time>2021-07-11T07:46:21Z</time>
      </trkpt>
      <trkpt lat="45.97128" lon="2.8235">
        <ele>634</ele>
        <time>2021-07-11T07:46:22Z</time>
      </trkpt>
      <trkpt lat="45.97127" lon="2.82349">
        <ele>633.8</ele>
        <time>2021-07-11T07:46:23Z</time>
      </trkpt>
      <trkpt lat="45.97126" lon="2.82348">
        <ele>633.6</ele>
        <time>2021-07-11T07:46:24Z</time>
      </trkpt>
      <trkpt lat="45.97126" lon="2.82346">
        <ele>633.2</ele>
        <time>2021-07-11T07:46:25Z</time>
      </trkpt>
      <trkpt lat="45.97125" lon="2.82345">
        <ele>633</ele>
        <time>2021-07-11T07:46:26Z</time>
      </trkpt>
      <trkpt lat="45.97124" lon="2.82344">
        <ele>632.8</ele>
        <time>2021-07-11T07:46:27Z</time>
      </trkpt>
      <trkpt lat="45.97124" lon="2.82342">
        <ele>632.4</ele>
        <time>2021-07-11T07:46:28Z</time>
      </trkpt>
      <trkpt lat="45.97123" lon="2.82341">
        <ele>632.2</ele>
        <time>2021-07-11T07:46:29Z</time>
      </trkpt>
      <trkpt lat="45.97123" lon="2.8234">
        <ele>632</ele>
        <time>2021-07-11T07:46:30Z</time>
      </trkpt>
      <trkpt lat="45.97122" lon="2.82338">
        <ele>631.6</ele>
        <time>2021-07-11T07:46:31Z</time>
      </trkpt>
      <trkpt lat="45.97121" lon="2.82337">
        <ele>631.4</ele>
        <time>2021-07-11T07:46:32Z</time>
      </trkpt>
      <trkpt lat="45.97121" lon="2.82336">
        <ele>631.2</ele>
        <time>2021-07-11T07:46:33Z</time>
      </trkpt>
      <trkpt lat="45.9712" lon="2.82334">
        <ele>630.8</ele>
        <time>2021-07-11T07:46:34Z</time>
      </trkpt>
      <trkpt lat="45.97119" lon="2.82333">
        <ele>630.6</ele>
        <time>2021-07-11T07:46:35Z</time>
      </trkpt>
      <trkpt lat="45.97118" lon="2.82332">
        <ele>630.5</ele>
        <time>2021-07-11T07:46:36Z</time>
      </trkpt>
      <trkpt lat="45.97117" lon="2.82331">
        <ele>630.2</ele>
        <time>2021-07-11T07:46:37Z</time>
      </trkpt>
      <trkpt lat="45.97117" lon="2.8233">
        <ele>630</ele>
        <time>2021-07-11T07:46:38Z</time>
      </trkpt>
      <trkpt lat="45.97115" lon="2.82329">
        <ele>629.8</ele>
        <time>2021-07-11T07:46:39Z</time>
      </trkpt>
      <trkpt lat="45.97115" lon="2.82328">
        <ele>629.5</ele>
        <time>2021-07-11T07:46:40Z</time>
      </trkpt>
      <trkpt lat="45.97114" lon="2.82327">
        <ele>629.2</ele>
        <time>2021-07-11T07:46:41Z</time>
      </trkpt>
      <trkpt lat="45.97114" lon="2.82325">
        <ele>628.7</ele>
        <time>2021-07-11T07:46:42Z</time>
      </trkpt>
      <trkpt lat="45.97113" lon="2.82324">
        <ele>628.4</ele>
        <time>2021-07-11T07:46:43Z</time>
      </trkpt>
      <trkpt lat="45.97112" lon="2.82322">
        <ele>627.8</ele>
        <time>2021-07-11T07:46:44Z</time>
      </trkpt>
      <trkpt lat="45.97112" lon="2.82321">
        <ele>627.5</ele>
        <time>2021-07-11T07:46:45Z</time>
      </trkpt>
      <trkpt lat="45.97111" lon="2.82319">
        <ele>626.9</ele>
        <time>2021-07-11T07:46:46Z</time>
      </trkpt>
      <trkpt lat="45.97111" lon="2.82317">
        <ele>626.3</ele>
        <time>2021-07-11T07:46:47Z</time>
      </trkpt>
      <trkpt lat="45.97111" lon="2.82316">
        <ele>626</ele>
        <time>2021-07-11T07:46:49Z</time>
      </trkpt>
      <trkpt lat="45.9711" lon="2.82309">
        <ele>624.4</ele>
        <time>2021-07-11T07:46:51Z</time>
      </trkpt>
      <trkpt lat="45.97111" lon="2.82305">
        <ele>623</ele>
        <time>2021-07-11T07:46:52Z</time>
      </trkpt>
      <trkpt lat="45.97111" lon="2.82305">
        <ele>623</ele>
        <time>2021-07-11T07:46:53Z</time>
      </trkpt>
      <trkpt lat="45.97111" lon="2.82304">
        <ele>622.9</ele>
        <time>2021-07-11T07:46:54Z</time>
      </trkpt>
      <trkpt lat="45.97111" lon="2.82303">
        <ele>622.9</ele>
        <time>2021-07-11T07:46:55Z</time>
      </trkpt>
      <trkpt lat="45.97111" lon="2.82302">
        <ele>622.8</ele>
        <time>2021-07-11T07:46:56Z</time>
      </trkpt>
      <trkpt lat="45.9711" lon="2.82301">
        <ele>623.2</ele>
        <time>2021-07-11T07:46:57Z</time>
      </trkpt>
      <trkpt lat="45.9711" lon="2.823">
        <ele>623.1</ele>
        <time>2021-07-11T07:46:58Z</time>
      </trkpt>
      <trkpt lat="45.9711" lon="2.82298">
        <ele>622.9</ele>
        <time>2021-07-11T07:46:59Z</time>
      </trkpt>
      <trkpt lat="45.97109" lon="2.82297">
        <ele>623.3</ele>
        <time>2021-07-11T07:47:00Z</time>
      </trkpt>
      <trkpt lat="45.97109" lon="2.82295">
        <ele>623.2</ele>
        <time>2021-07-11T07:47:01Z</time>
      </trkpt>
      <trkpt lat="45.97108" lon="2.82293">
        <ele>623.5</ele>
        <time>2021-07-11T07:47:02Z</time>
      </trkpt>
      <trkpt lat="45.97108" lon="2.82291">
        <ele>623.4</ele>
        <time>2021-07-11T07:47:03Z</time>
      </trkpt>
      <trkpt lat="45.97107" lon="2.82289">
        <ele>623.7</ele>
        <time>2021-07-11T07:47:04Z</time>
      </trkpt>
      <trkpt lat="45.97107" lon="2.82287">
        <ele>623.5</ele>
        <time>2021-07-11T07:47:05Z</time>
      </trkpt>
      <trkpt lat="45.97106" lon="2.82285">
        <ele>623.9</ele>
        <time>2021-07-11T07:47:06Z</time>
      </trkpt>
      <trkpt lat="45.97106" lon="2.82283">
        <ele>623.7</ele>
        <time>2021-07-11T07:47:07Z</time>
      </trkpt>
      <trkpt lat="45.97105" lon="2.82282">
        <ele>624.1</ele>
        <time>2021-07-11T07:47:08Z</time>
      </trkpt>
      <trkpt lat="45.97105" lon="2.8228">
        <ele>624</ele>
        <time>2021-07-11T07:47:09Z</time>
      </trkpt>
      <trkpt lat="45.97105" lon="2.82278">
        <ele>623.9</ele>
        <time>2021-07-11T07:47:10Z</time>
      </trkpt>
      <trkpt lat="45.97104" lon="2.82277">
        <ele>624.2</ele>
        <time>2021-07-11T07:47:11Z</time>
      </trkpt>
      <trkpt lat="45.97104" lon="2.82275">
        <ele>624</ele>
        <time>2021-07-11T07:47:12Z</time>
      </trkpt>
      <trkpt lat="45.97103" lon="2.82273">
        <ele>624.3</ele>
        <time>2021-07-11T07:47:13Z</time>
      </trkpt>
      <trkpt lat="45.97103" lon="2.82272">
        <ele>624.2</ele>
        <time>2021-07-11T07:47:14Z</time>
      </trkpt>
      <trkpt lat="45.97102" lon="2.8227">
        <ele>624.4</ele>
        <time>2021-07-11T07:47:15Z</time>
      </trkpt>
      <trkpt lat="45.97101" lon="2.82269">
        <ele>624.8</ele>
        <time>2021-07-11T07:47:16Z</time>
      </trkpt>
      <trkpt lat="45.971" lon="2.82267">
        <ele>625</ele>
        <time>2021-07-11T07:47:17Z</time>
      </trkpt>
      <trkpt lat="45.971" lon="2.82266">
        <ele>624.9</ele>
        <time>2021-07-11T07:47:18Z</time>
      </trkpt>
      <trkpt lat="45.97099" lon="2.82264">
        <ele>625.2</ele>
        <time>2021-07-11T07:47:19Z</time>
      </trkpt>
      <trkpt lat="45.97099" lon="2.82263">
        <ele>625.1</ele>
        <time>2021-07-11T07:47:20Z</time>
      </trkpt>
      <trkpt lat="45.97098" lon="2.82261">
        <ele>625.3</ele>
        <time>2021-07-11T07:47:21Z</time>
      </trkpt>
      <trkpt lat="45.97097" lon="2.82259">
        <ele>625.6</ele>
        <time>2021-07-11T07:47:22Z</time>
      </trkpt>
      <trkpt lat="45.97097" lon="2.82258">
        <ele>625.5</ele>
        <time>2021-07-11T07:47:23Z</time>
      </trkpt>
      <trkpt lat="45.97096" lon="2.82256">
        <ele>625.7</ele>
        <time>2021-07-11T07:47:24Z</time>
      </trkpt>
      <trkpt lat="45.97096" lon="2.82255">
        <ele>625.6</ele>
        <time>2021-07-11T07:47:25Z</time>
      </trkpt>
      <trkpt lat="45.97095" lon="2.82253">
        <ele>625.9</ele>
        <time>2021-07-11T07:47:26Z</time>
      </trkpt>
      <trkpt lat="45.97094" lon="2.82251">
        <ele>626.1</ele>
        <time>2021-07-11T07:47:27Z</time>
      </trkpt>
      <trkpt lat="45.97094" lon="2.8225">
        <ele>626</ele>
        <time>2021-07-11T07:47:28Z</time>
      </trkpt>
      <trkpt lat="45.97094" lon="2.82249">
        <ele>625.8</ele>
        <time>2021-07-11T07:47:29Z</time>
      </trkpt>
      <trkpt lat="45.97093" lon="2.82247">
        <ele>625.8</ele>
        <time>2021-07-11T07:47:30Z</time>
      </trkpt>
      <trkpt lat="45.97093" lon="2.82246">
        <ele>625.6</ele>
        <time>2021-07-11T07:47:31Z</time>
      </trkpt>
      <trkpt lat="45.97092" lon="2.82245">
        <ele>625.8</ele>
        <time>2021-07-11T07:47:32Z</time>
      </trkpt>
      <trkpt lat="45.97092" lon="2.82243">
        <ele>625.3</ele>
        <time>2021-07-11T07:47:33Z</time>
      </trkpt>
      <trkpt lat="45.97091" lon="2.82241">
        <ele>625.3</ele>
        <time>2021-07-11T07:47:34Z</time>
      </trkpt>
      <trkpt lat="45.97091" lon="2.8224">
        <ele>625.1</ele>
        <time>2021-07-11T07:47:35Z</time>
      </trkpt>
      <trkpt lat="45.9709" lon="2.82238">
        <ele>625.1</ele>
        <time>2021-07-11T07:47:36Z</time>
      </trkpt>
      <trkpt lat="45.9709" lon="2.82236">
        <ele>624.6</ele>
        <time>2021-07-11T07:47:37Z</time>
      </trkpt>
      <trkpt lat="45.97089" lon="2.82234">
        <ele>624.6</ele>
        <time>2021-07-11T07:47:38Z</time>
      </trkpt>
      <trkpt lat="45.97089" lon="2.82232">
        <ele>624.1</ele>
        <time>2021-07-11T07:47:39Z</time>
      </trkpt>
      <trkpt lat="45.97089" lon="2.8223">
        <ele>623.6</ele>
        <time>2021-07-11T07:47:40Z</time>
      </trkpt>
      <trkpt lat="45.97088" lon="2.82229">
        <ele>623.8</ele>
        <time>2021-07-11T07:47:41Z</time>
      </trkpt>
      <trkpt lat="45.97088" lon="2.82227">
        <ele>623.3</ele>
        <time>2021-07-11T07:47:42Z</time>
      </trkpt>
      <trkpt lat="45.97087" lon="2.82225">
        <ele>623.2</ele>
        <time>2021-07-11T07:47:43Z</time>
      </trkpt>
      <trkpt lat="45.97087" lon="2.82224">
        <ele>623</ele>
        <time>2021-07-11T07:47:44Z</time>
      </trkpt>
      <trkpt lat="45.97087" lon="2.82223">
        <ele>622.7</ele>
        <time>2021-07-11T07:47:45Z</time>
      </trkpt>
      <trkpt lat="45.97086" lon="2.82222">
        <ele>622.9</ele>
        <time>2021-07-11T07:47:46Z</time>
      </trkpt>
      <trkpt lat="45.97086" lon="2.8222">
        <ele>622.6</ele>
        <time>2021-07-11T07:47:47Z</time>
      </trkpt>
      <trkpt lat="45.97086" lon="2.82219">
        <ele>622.5</ele>
        <time>2021-07-11T07:47:48Z</time>
      </trkpt>
      <trkpt lat="45.97085" lon="2.82218">
        <ele>622.7</ele>
        <time>2021-07-11T07:47:49Z</time>
      </trkpt>
      <trkpt lat="45.97085" lon="2.82216">
        <ele>622.4</ele>
        <time>2021-07-11T07:47:50Z</time>
      </trkpt>
      <trkpt lat="45.97084" lon="2.82214">
        <ele>622.5</ele>
        <time>2021-07-11T07:47:51Z</time>
      </trkpt>
      <trkpt lat="45.97084" lon="2.82211">
        <ele>622.1</ele>
        <time>2021-07-11T07:47:52Z</time>
      </trkpt>
      <trkpt lat="45.97084" lon="2.82208">
        <ele>621.7</ele>
        <time>2021-07-11T07:47:53Z</time>
      </trkpt>
      <trkpt lat="45.97083" lon="2.82206">
        <ele>621.8</ele>
        <time>2021-07-11T07:47:54Z</time>
      </trkpt>
      <trkpt lat="45.97083" lon="2.82203">
        <ele>621.4</ele>
        <time>2021-07-11T07:47:55Z</time>
      </trkpt>
      <trkpt lat="45.97083" lon="2.82201">
        <ele>621.1</ele>
        <time>2021-07-11T07:47:56Z</time>
      </trkpt>
      <trkpt lat="45.97083" lon="2.82198">
        <ele>620.6</ele>
        <time>2021-07-11T07:47:57Z</time>
      </trkpt>
      <trkpt lat="45.97084" lon="2.82195">
        <ele>619.8</ele>
        <time>2021-07-11T07:47:58Z</time>
      </trkpt>
      <trkpt lat="45.97084" lon="2.82193">
        <ele>619.8</ele>
        <time>2021-07-11T07:47:59Z</time>
      </trkpt>
      <trkpt lat="45.97085" lon="2.8219">
        <ele>619.4</ele>
        <time>2021-07-11T07:48:00Z</time>
      </trkpt>
      <trkpt lat="45.97085" lon="2.82188">
        <ele>619.5</ele>
        <time>2021-07-11T07:48:01Z</time>
      </trkpt>
      <trkpt lat="45.97085" lon="2.82185">
        <ele>619.6</ele>
        <time>2021-07-11T07:48:02Z</time>
      </trkpt>
      <trkpt lat="45.97086" lon="2.82183">
        <ele>619.2</ele>
        <time>2021-07-11T07:48:03Z</time>
      </trkpt>
      <trkpt lat="45.97086" lon="2.82181">
        <ele>619.2</ele>
        <time>2021-07-11T07:48:04Z</time>
      </trkpt>
      <trkpt lat="45.97087" lon="2.82179">
        <ele>618.8</ele>
        <time>2021-07-11T07:48:05Z</time>
      </trkpt>
      <trkpt lat="45.97087" lon="2.82177">
        <ele>618.9</ele>
        <time>2021-07-11T07:48:06Z</time>
      </trkpt>
      <trkpt lat="45.97088" lon="2.82174">
        <ele>618.5</ele>
        <time>2021-07-11T07:48:07Z</time>
      </trkpt>
      <trkpt lat="45.97088" lon="2.82172">
        <ele>618.5</ele>
        <time>2021-07-11T07:48:08Z</time>
      </trkpt>
      <trkpt lat="45.97088" lon="2.8217">
        <ele>618.6</ele>
        <time>2021-07-11T07:48:09Z</time>
      </trkpt>
      <trkpt lat="45.97088" lon="2.82168">
        <ele>618.6</ele>
        <time>2021-07-11T07:48:10Z</time>
      </trkpt>
      <trkpt lat="45.97089" lon="2.82166">
        <ele>618.2</ele>
        <time>2021-07-11T07:48:11Z</time>
      </trkpt>
      <trkpt lat="45.97089" lon="2.82163">
        <ele>618.2</ele>
        <time>2021-07-11T07:48:12Z</time>
      </trkpt>
      <trkpt lat="45.97089" lon="2.82161">
        <ele>618.3</ele>
        <time>2021-07-11T07:48:13Z</time>
      </trkpt>
      <trkpt lat="45.9709" lon="2.82158">
        <ele>617.8</ele>
        <time>2021-07-11T07:48:14Z</time>
      </trkpt>
      <trkpt lat="45.9709" lon="2.82156">
        <ele>617.8</ele>
        <time>2021-07-11T07:48:15Z</time>
      </trkpt>
      <trkpt lat="45.9709" lon="2.82154">
        <ele>617.9</ele>
        <time>2021-07-11T07:48:16Z</time>
      </trkpt>
      <trkpt lat="45.9709" lon="2.82152">
        <ele>617.9</ele>
        <time>2021-07-11T07:48:17Z</time>
      </trkpt>
      <trkpt lat="45.9709" lon="2.8215">
        <ele>618</ele>
        <time>2021-07-11T07:48:18Z</time>
      </trkpt>
      <trkpt lat="45.9709" lon="2.82149">
        <ele>618</ele>
        <time>2021-07-11T07:48:19Z</time>
      </trkpt>
      <trkpt lat="45.97091" lon="2.82147">
        <ele>617.5</ele>
        <time>2021-07-11T07:48:20Z</time>
      </trkpt>
      <trkpt lat="45.97091" lon="2.82146">
        <ele>617.5</ele>
        <time>2021-07-11T07:48:21Z</time>
      </trkpt>
      <trkpt lat="45.97091" lon="2.82144">
        <ele>617.5</ele>
        <time>2021-07-11T07:48:22Z</time>
      </trkpt>
      <trkpt lat="45.97091" lon="2.82142">
        <ele>617.5</ele>
        <time>2021-07-11T07:48:23Z</time>
      </trkpt>
      <trkpt lat="45.97091" lon="2.82141">
        <ele>617.5</ele>
        <time>2021-07-11T07:48:24Z</time>
      </trkpt>
      <trkpt lat="45.97091" lon="2.82139">
        <ele>617.6</ele>
        <time>2021-07-11T07:48:25Z</time>
      </trkpt>
      <trkpt lat="45.97091" lon="2.82137">
        <ele>617.3</ele>
        <time>2021-07-11T07:48:26Z</time>
      </trkpt>
      <trkpt lat="45.97091" lon="2.82135">
        <ele>617.1</ele>
        <time>2021-07-11T07:48:27Z</time>
      </trkpt>
      <trkpt lat="45.97091" lon="2.82134">
        <ele>617</ele>
        <time>2021-07-11T07:48:28Z</time>
      </trkpt>
      <trkpt lat="45.97091" lon="2.82132">
        <ele>616.7</ele>
        <time>2021-07-11T07:48:29Z</time>
      </trkpt>
      <trkpt lat="45.9709" lon="2.8213">
        <ele>617</ele>
        <time>2021-07-11T07:48:30Z</time>
      </trkpt>
      <trkpt lat="45.9709" lon="2.82129">
        <ele>616.9</ele>
        <time>2021-07-11T07:48:31Z</time>
      </trkpt>
      <trkpt lat="45.9709" lon="2.82127">
        <ele>616.7</ele>
        <time>2021-07-11T07:48:32Z</time>
      </trkpt>
      <trkpt lat="45.97089" lon="2.82126">
        <ele>617.1</ele>
        <time>2021-07-11T07:48:33Z</time>
      </trkpt>
      <trkpt lat="45.97088" lon="2.82124">
        <ele>617.3</ele>
        <time>2021-07-11T07:48:34Z</time>
      </trkpt>
      <trkpt lat="45.97087" lon="2.82123">
        <ele>617.8</ele>
        <time>2021-07-11T07:48:35Z</time>
      </trkpt>
      <trkpt lat="45.97087" lon="2.82121">
        <ele>617.5</ele>
        <time>2021-07-11T07:48:36Z</time>
      </trkpt>
      <trkpt lat="45.97086" lon="2.8212">
        <ele>617.9</ele>
        <time>2021-07-11T07:48:37Z</time>
      </trkpt>
      <trkpt lat="45.97085" lon="2.82119">
        <ele>618.3</ele>
        <time>2021-07-11T07:48:38Z</time>
      </trkpt>
      <trkpt lat="45.97084" lon="2.82117">
        <ele>618.5</ele>
        <time>2021-07-11T07:48:39Z</time>
      </trkpt>
      <trkpt lat="45.97083" lon="2.82115">
        <ele>618.6</ele>
        <time>2021-07-11T07:48:40Z</time>
      </trkpt>
      <trkpt lat="45.97083" lon="2.82114">
        <ele>618.5</ele>
        <time>2021-07-11T07:48:41Z</time>
      </trkpt>
      <trkpt lat="45.97082" lon="2.82112">
        <ele>618.5</ele>
        <time>2021-07-11T07:48:42Z</time>
      </trkpt>
      <trkpt lat="45.97081" lon="2.8211">
        <ele>618.4</ele>
        <time>2021-07-11T07:48:43Z</time>
      </trkpt>
      <trkpt lat="45.97081" lon="2.82108">
        <ele>617.9</ele>
        <time>2021-07-11T07:48:44Z</time>
      </trkpt>
      <trkpt lat="45.9708" lon="2.82106">
        <ele>617.8</ele>
        <time>2021-07-11T07:48:45Z</time>
      </trkpt>
      <trkpt lat="45.9708" lon="2.82104">
        <ele>617.4</ele>
        <time>2021-07-11T07:48:46Z</time>
      </trkpt>
      <trkpt lat="45.97079" lon="2.82102">
        <ele>617.2</ele>
        <time>2021-07-11T07:48:47Z</time>
      </trkpt>
      <trkpt lat="45.97079" lon="2.821">
        <ele>616.8</ele>
        <time>2021-07-11T07:48:48Z</time>
      </trkpt>
      <trkpt lat="45.97078" lon="2.82098">
        <ele>616.7</ele>
        <time>2021-07-11T07:48:50Z</time>
      </trkpt>
      <trkpt lat="45.97075" lon="2.82089">
        <ele>615.8</ele>
        <time>2021-07-11T07:48:51Z</time>
      </trkpt>
      <trkpt lat="45.97075" lon="2.82088">
        <ele>615.6</ele>
        <time>2021-07-11T07:48:52Z</time>
      </trkpt>
      <trkpt lat="45.97075" lon="2.82087">
        <ele>615.4</ele>
        <time>2021-07-11T07:48:53Z</time>
      </trkpt>
      <trkpt lat="45.97074" lon="2.82086">
        <ele>615.5</ele>
        <time>2021-07-11T07:48:54Z</time>
      </trkpt>
      <trkpt lat="45.97073" lon="2.82084">
        <ele>615.5</ele>
        <time>2021-07-11T07:48:55Z</time>
      </trkpt>
      <trkpt lat="45.97072" lon="2.82082">
        <ele>615.4</ele>
        <time>2021-07-11T07:48:56Z</time>
      </trkpt>
      <trkpt lat="45.97072" lon="2.8208">
        <ele>615</ele>
        <time>2021-07-11T07:48:57Z</time>
      </trkpt>
      <trkpt lat="45.97072" lon="2.82078">
        <ele>614.6</ele>
        <time>2021-07-11T07:48:58Z</time>
      </trkpt>
      <trkpt lat="45.97071" lon="2.82076">
        <ele>614.5</ele>
        <time>2021-07-11T07:48:59Z</time>
      </trkpt>
      <trkpt lat="45.9707" lon="2.82075">
        <ele>614.7</ele>
        <time>2021-07-11T07:49:00Z</time>
      </trkpt>
      <trkpt lat="45.9707" lon="2.82073">
        <ele>614.3</ele>
        <time>2021-07-11T07:49:01Z</time>
      </trkpt>
      <trkpt lat="45.9707" lon="2.82071">
        <ele>613.9</ele>
        <time>2021-07-11T07:49:02Z</time>
      </trkpt>
      <trkpt lat="45.97069" lon="2.82069">
        <ele>613.8</ele>
        <time>2021-07-11T07:49:03Z</time>
      </trkpt>
      <trkpt lat="45.97069" lon="2.82067">
        <ele>613.4</ele>
        <time>2021-07-11T07:49:04Z</time>
      </trkpt>
      <trkpt lat="45.97069" lon="2.82064">
        <ele>612.8</ele>
        <time>2021-07-11T07:49:05Z</time>
      </trkpt>
      <trkpt lat="45.97069" lon="2.82061">
        <ele>612.2</ele>
        <time>2021-07-11T07:49:06Z</time>
      </trkpt>
      <trkpt lat="45.97069" lon="2.82058">
        <ele>611.6</ele>
        <time>2021-07-11T07:49:07Z</time>
      </trkpt>
      <trkpt lat="45.9707" lon="2.82055">
        <ele>610.8</ele>
        <time>2021-07-11T07:49:08Z</time>
      </trkpt>
      <trkpt lat="45.9707" lon="2.82051">
        <ele>610.7</ele>
        <time>2021-07-11T07:49:09Z</time>
      </trkpt>
      <trkpt lat="45.97071" lon="2.82048">
        <ele>610.4</ele>
        <time>2021-07-11T07:49:10Z</time>
      </trkpt>
      <trkpt lat="45.97072" lon="2.82045">
        <ele>610.1</ele>
        <time>2021-07-11T07:49:11Z</time>
      </trkpt>
      <trkpt lat="45.97073" lon="2.82042">
        <ele>609.8</ele>
        <time>2021-07-11T07:49:12Z</time>
      </trkpt>
      <trkpt lat="45.97074" lon="2.8204">
        <ele>609.5</ele>
        <time>2021-07-11T07:49:13Z</time>
      </trkpt>
      <trkpt lat="45.97075" lon="2.82037">
        <ele>609.3</ele>
        <time>2021-07-11T07:49:14Z</time>
      </trkpt>
      <trkpt lat="45.97076" lon="2.82035">
        <ele>609.1</ele>
        <time>2021-07-11T07:49:15Z</time>
      </trkpt>
      <trkpt lat="45.97078" lon="2.82033">
        <ele>608.8</ele>
        <time>2021-07-11T07:49:16Z</time>
      </trkpt>
      <trkpt lat="45.97079" lon="2.82031">
        <ele>608.6</ele>
        <time>2021-07-11T07:49:17Z</time>
      </trkpt>
      <trkpt lat="45.97081" lon="2.82029">
        <ele>608.4</ele>
        <time>2021-07-11T07:49:18Z</time>
      </trkpt>
      <trkpt lat="45.97082" lon="2.82027">
        <ele>608.4</ele>
        <time>2021-07-11T07:49:19Z</time>
      </trkpt>
      <trkpt lat="45.97084" lon="2.82025">
        <ele>608.5</ele>
        <time>2021-07-11T07:49:20Z</time>
      </trkpt>
      <trkpt lat="45.97085" lon="2.82024">
        <ele>608.6</ele>
        <time>2021-07-11T07:49:21Z</time>
      </trkpt>
      <trkpt lat="45.97086" lon="2.82022">
        <ele>608.9</ele>
        <time>2021-07-11T07:49:22Z</time>
      </trkpt>
      <trkpt lat="45.97088" lon="2.82021">
        <ele>608.9</ele>
        <time>2021-07-11T07:49:23Z</time>
      </trkpt>
      <trkpt lat="45.97089" lon="2.82019">
        <ele>609.2</ele>
        <time>2021-07-11T07:49:24Z</time>
      </trkpt>
      <trkpt lat="45.9709" lon="2.82018">
        <ele>609.3</ele>
        <time>2021-07-11T07:49:25Z</time>
      </trkpt>
      <trkpt lat="45.97091" lon="2.82017">
        <ele>609.4</ele>
        <time>2021-07-11T07:49:26Z</time>
      </trkpt>
      <trkpt lat="45.97092" lon="2.82015">
        <ele>609.8</ele>
        <time>2021-07-11T07:49:27Z</time>
      </trkpt>
      <trkpt lat="45.97093" lon="2.82014">
        <ele>609.9</ele>
        <time>2021-07-11T07:49:28Z</time>
      </trkpt>
      <trkpt lat="45.97095" lon="2.82013">
        <ele>610</ele>
        <time>2021-07-11T07:49:29Z</time>
      </trkpt>
      <trkpt lat="45.97096" lon="2.82012">
        <ele>610.1</ele>
        <time>2021-07-11T07:49:30Z</time>
      </trkpt>
      <trkpt lat="45.97097" lon="2.8201">
        <ele>610.5</ele>
        <time>2021-07-11T07:49:31Z</time>
      </trkpt>
      <trkpt lat="45.97099" lon="2.82009">
        <ele>610.6</ele>
        <time>2021-07-11T07:49:32Z</time>
      </trkpt>
      <trkpt lat="45.971" lon="2.82008">
        <ele>610.7</ele>
        <time>2021-07-11T07:49:33Z</time>
      </trkpt>
      <trkpt lat="45.971" lon="2.82007">
        <ele>611</ele>
        <time>2021-07-11T07:49:34Z</time>
      </trkpt>
      <trkpt lat="45.97102" lon="2.82005">
        <ele>611.3</ele>
        <time>2021-07-11T07:49:35Z</time>
      </trkpt>
      <trkpt lat="45.97103" lon="2.82004">
        <ele>611.5</ele>
        <time>2021-07-11T07:49:36Z</time>
      </trkpt>
      <trkpt lat="45.97104" lon="2.82004">
        <ele>611.4</ele>
        <time>2021-07-11T07:49:37Z</time>
      </trkpt>
      <trkpt lat="45.97105" lon="2.82003">
        <ele>611.6</ele>
        <time>2021-07-11T07:49:38Z</time>
      </trkpt>
      <trkpt lat="45.97106" lon="2.82002">
        <ele>611.8</ele>
        <time>2021-07-11T07:49:39Z</time>
      </trkpt>
      <trkpt lat="45.97107" lon="2.82002">
        <ele>611.7</ele>
        <time>2021-07-11T07:49:40Z</time>
      </trkpt>
      <trkpt lat="45.97108" lon="2.82001">
        <ele>611.9</ele>
        <time>2021-07-11T07:49:41Z</time>
      </trkpt>
      <trkpt lat="45.97109" lon="2.82001">
        <ele>611.9</ele>
        <time>2021-07-11T07:49:42Z</time>
      </trkpt>
      <trkpt lat="45.9711" lon="2.82">
        <ele>612.1</ele>
        <time>2021-07-11T07:49:43Z</time>
      </trkpt>
      <trkpt lat="45.97111" lon="2.81999">
        <ele>612.2</ele>
        <time>2021-07-11T07:49:44Z</time>
      </trkpt>
      <trkpt lat="45.97113" lon="2.81999">
        <ele>611.5</ele>
        <time>2021-07-11T07:49:45Z</time>
      </trkpt>
      <trkpt lat="45.97114" lon="2.81998">
        <ele>611.4</ele>
        <time>2021-07-11T07:49:46Z</time>
      </trkpt>
      <trkpt lat="45.97115" lon="2.81998">
        <ele>611</ele>
        <time>2021-07-11T07:49:47Z</time>
      </trkpt>
      <trkpt lat="45.97117" lon="2.81997">
        <ele>610.5</ele>
        <time>2021-07-11T07:49:49Z</time>
      </trkpt>
      <trkpt lat="45.97121" lon="2.81993">
        <ele>609.9</ele>
        <time>2021-07-11T07:49:50Z</time>
      </trkpt>
      <trkpt lat="45.97121" lon="2.81993">
        <ele>609.9</ele>
        <time>2021-07-11T07:49:51Z</time>
      </trkpt>
      <trkpt lat="45.97121" lon="2.81992">
        <ele>610.1</ele>
        <time>2021-07-11T07:49:52Z</time>
      </trkpt>
      <trkpt lat="45.97122" lon="2.81991">
        <ele>609.9</ele>
        <time>2021-07-11T07:49:53Z</time>
      </trkpt>
      <trkpt lat="45.97123" lon="2.8199">
        <ele>609.7</ele>
        <time>2021-07-11T07:49:54Z</time>
      </trkpt>
      <trkpt lat="45.97124" lon="2.81989">
        <ele>609.6</ele>
        <time>2021-07-11T07:49:55Z</time>
      </trkpt>
      <trkpt lat="45.97125" lon="2.81987">
        <ele>609.6</ele>
        <time>2021-07-11T07:49:56Z</time>
      </trkpt>
      <trkpt lat="45.97126" lon="2.81986">
        <ele>609.4</ele>
        <time>2021-07-11T07:49:57Z</time>
      </trkpt>
      <trkpt lat="45.97127" lon="2.81984">
        <ele>609.4</ele>
        <time>2021-07-11T07:49:57Z</time>
      </trkpt>
      <trkpt lat="45.97128" lon="2.81982">
        <ele>609.4</ele>
        <time>2021-07-11T07:49:58Z</time>
      </trkpt>
      <trkpt lat="45.97129" lon="2.8198">
        <ele>609.4</ele>
        <time>2021-07-11T07:49:59Z</time>
      </trkpt>
      <trkpt lat="45.9713" lon="2.81979">
        <ele>609.2</ele>
        <time>2021-07-11T07:50:00Z</time>
      </trkpt>
      <trkpt lat="45.97131" lon="2.81977">
        <ele>609.2</ele>
        <time>2021-07-11T07:50:01Z</time>
      </trkpt>
      <trkpt lat="45.97131" lon="2.81975">
        <ele>609.6</ele>
        <time>2021-07-11T07:50:02Z</time>
      </trkpt>
      <trkpt lat="45.97132" lon="2.81974">
        <ele>609.4</ele>
        <time>2021-07-11T07:50:03Z</time>
      </trkpt>
      <trkpt lat="45.97132" lon="2.81973">
        <ele>609.6</ele>
        <time>2021-07-11T07:50:04Z</time>
      </trkpt>
      <trkpt lat="45.97132" lon="2.81972">
        <ele>609.7</ele>
        <time>2021-07-11T07:50:05Z</time>
      </trkpt>
      <trkpt lat="45.97133" lon="2.81971">
        <ele>609.4</ele>
        <time>2021-07-11T07:50:06Z</time>
      </trkpt>
      <trkpt lat="45.97134" lon="2.81969">
        <ele>609.2</ele>
        <time>2021-07-11T07:50:07Z</time>
      </trkpt>
      <trkpt lat="45.97134" lon="2.81968">
        <ele>609.3</ele>
        <time>2021-07-11T07:50:08Z</time>
      </trkpt>
      <trkpt lat="45.97134" lon="2.81966">
        <ele>609.5</ele>
        <time>2021-07-11T07:50:09Z</time>
      </trkpt>
      <trkpt lat="45.97135" lon="2.81965">
        <ele>609.2</ele>
        <time>2021-07-11T07:50:10Z</time>
      </trkpt>
      <trkpt lat="45.97136" lon="2.81963">
        <ele>609.1</ele>
        <time>2021-07-11T07:50:11Z</time>
      </trkpt>
      <trkpt lat="45.97136" lon="2.81961">
        <ele>609.3</ele>
        <time>2021-07-11T07:50:12Z</time>
      </trkpt>
      <trkpt lat="45.97137" lon="2.81959">
        <ele>609.1</ele>
        <time>2021-07-11T07:50:13Z</time>
      </trkpt>
      <trkpt lat="45.97138" lon="2.81957">
        <ele>609</ele>
        <time>2021-07-11T07:50:14Z</time>
      </trkpt>
      <trkpt lat="45.97138" lon="2.81955">
        <ele>609.2</ele>
        <time>2021-07-11T07:50:15Z</time>
      </trkpt>
      <trkpt lat="45.97139" lon="2.81953">
        <ele>609</ele>
        <time>2021-07-11T07:50:16Z</time>
      </trkpt>
      <trkpt lat="45.97139" lon="2.81952">
        <ele>609.1</ele>
        <time>2021-07-11T07:50:17Z</time>
      </trkpt>
      <trkpt lat="45.97139" lon="2.8195">
        <ele>609.4</ele>
        <time>2021-07-11T07:50:18Z</time>
      </trkpt>
      <trkpt lat="45.9714" lon="2.81949">
        <ele>609</ele>
        <time>2021-07-11T07:50:19Z</time>
      </trkpt>
      <trkpt lat="45.97141" lon="2.81947">
        <ele>608.9</ele>
        <time>2021-07-11T07:50:20Z</time>
      </trkpt>
      <trkpt lat="45.97141" lon="2.81946">
        <ele>609</ele>
        <time>2021-07-11T07:50:21Z</time>
      </trkpt>
      <trkpt lat="45.97141" lon="2.81945">
        <ele>609.1</ele>
        <time>2021-07-11T07:50:22Z</time>
      </trkpt>
      <trkpt lat="45.97142" lon="2.81944">
        <ele>608.8</ele>
        <time>2021-07-11T07:50:23Z</time>
      </trkpt>
      <trkpt lat="45.97142" lon="2.81943">
        <ele>608.7</ele>
        <time>2021-07-11T07:50:24Z</time>
      </trkpt>
      <trkpt lat="45.97142" lon="2.81943">
        <ele>608.7</ele>
        <time>2021-07-11T07:50:25Z</time>
      </trkpt>
      <trkpt lat="45.97142" lon="2.81942">
        <ele>608.7</ele>
        <time>2021-07-11T07:50:26Z</time>
      </trkpt>
      <trkpt lat="45.97144" lon="2.81941">
        <ele>608</ele>
        <time>2021-07-11T07:50:27Z</time>
      </trkpt>
      <trkpt lat="45.97144" lon="2.8194">
        <ele>608</ele>
        <time>2021-07-11T07:50:28Z</time>
      </trkpt>
      <trkpt lat="45.97145" lon="2.81939">
        <ele>607.7</ele>
        <time>2021-07-11T07:50:29Z</time>
      </trkpt>
      <trkpt lat="45.97146" lon="2.81938">
        <ele>607.4</ele>
        <time>2021-07-11T07:50:30Z</time>
      </trkpt>
      <trkpt lat="45.97146" lon="2.81937">
        <ele>607.4</ele>
        <time>2021-07-11T07:50:31Z</time>
      </trkpt>
      <trkpt lat="45.97147" lon="2.81936">
        <ele>607.2</ele>
        <time>2021-07-11T07:50:32Z</time>
      </trkpt>
      <trkpt lat="45.97148" lon="2.81935">
        <ele>606.9</ele>
        <time>2021-07-11T07:50:33Z</time>
      </trkpt>
      <trkpt lat="45.97148" lon="2.81934">
        <ele>607</ele>
        <time>2021-07-11T07:50:34Z</time>
      </trkpt>
      <trkpt lat="45.97149" lon="2.81933">
        <ele>606.8</ele>
        <time>2021-07-11T07:50:35Z</time>
      </trkpt>
      <trkpt lat="45.9715" lon="2.81932">
        <ele>606.7</ele>
        <time>2021-07-11T07:50:36Z</time>
      </trkpt>
      <trkpt lat="45.97151" lon="2.81931">
        <ele>606.6</ele>
        <time>2021-07-11T07:50:37Z</time>
      </trkpt>
      <trkpt lat="45.97152" lon="2.8193">
        <ele>606.5</ele>
        <time>2021-07-11T07:50:38Z</time>
      </trkpt>
      <trkpt lat="45.97153" lon="2.81929">
        <ele>606.4</ele>
        <time>2021-07-11T07:50:39Z</time>
      </trkpt>
      <trkpt lat="45.97154" lon="2.81928">
        <ele>606.4</ele>
        <time>2021-07-11T07:50:40Z</time>
      </trkpt>
      <trkpt lat="45.97156" lon="2.81927">
        <ele>606.2</ele>
        <time>2021-07-11T07:50:41Z</time>
      </trkpt>
      <trkpt lat="45.97157" lon="2.81927">
        <ele>606.1</ele>
        <time>2021-07-11T07:50:42Z</time>
      </trkpt>
      <trkpt lat="45.97158" lon="2.81926">
        <ele>606.1</ele>
        <time>2021-07-11T07:50:43Z</time>
      </trkpt>
      <trkpt lat="45.97159" lon="2.81925">
        <ele>606.2</ele>
        <time>2021-07-11T07:50:44Z</time>
      </trkpt>
      <trkpt lat="45.9716" lon="2.81925">
        <ele>606.1</ele>
        <time>2021-07-11T07:50:45Z</time>
      </trkpt>
      <trkpt lat="45.97161" lon="2.81925">
        <ele>606</ele>
        <time>2021-07-11T07:50:46Z</time>
      </trkpt>
      <trkpt lat="45.97162" lon="2.81924">
        <ele>606.1</ele>
        <time>2021-07-11T07:50:47Z</time>
      </trkpt>
      <trkpt lat="45.97163" lon="2.81924">
        <ele>606</ele>
        <time>2021-07-11T07:50:48Z</time>
      </trkpt>
      <trkpt lat="45.97164" lon="2.81924">
        <ele>605.9</ele>
        <time>2021-07-11T07:50:49Z</time>
      </trkpt>
      <trkpt lat="45.97163" lon="2.81925">
        <ele>605.7</ele>
        <time>2021-07-11T07:51:21Z</time>
      </trkpt>
      <trkpt lat="45.97163" lon="2.81924">
        <ele>606</ele>
        <time>2021-07-11T07:51:22Z</time>
      </trkpt>
      <trkpt lat="45.97163" lon="2.81924">
        <ele>606</ele>
        <time>2021-07-11T07:51:23Z</time>
      </trkpt>
      <trkpt lat="45.97162" lon="2.81924">
        <ele>606.1</ele>
        <time>2021-07-11T07:51:24Z</time>
      </trkpt>
      <trkpt lat="45.97162" lon="2.81924">
        <ele>606.1</ele>
        <time>2021-07-11T07:51:25Z</time>
      </trkpt>
      <trkpt lat="45.9716" lon="2.81925">
        <ele>606.1</ele>
        <time>2021-07-11T07:51:26Z</time>
      </trkpt>
      <trkpt lat="45.9716" lon="2.81924">
        <ele>606.3</ele>
        <time>2021-07-11T07:51:27Z</time>
      </trkpt>
      <trkpt lat="45.9716" lon="2.81925">
        <ele>606.1</ele>
        <time>2021-07-11T07:51:28Z</time>
      </trkpt>
      <trkpt lat="45.97158" lon="2.81925">
        <ele>606.3</ele>
        <time>2021-07-11T07:51:29Z</time>
      </trkpt>
      <trkpt lat="45.97157" lon="2.81925">
        <ele>606.4</ele>
        <time>2021-07-11T07:51:30Z</time>
      </trkpt>
      <trkpt lat="45.97157" lon="2.81926">
        <ele>606.3</ele>
        <time>2021-07-11T07:51:31Z</time>
      </trkpt>
      <trkpt lat="45.97156" lon="2.81926">
        <ele>606.4</ele>
        <time>2021-07-11T07:51:32Z</time>
      </trkpt>
      <trkpt lat="45.97155" lon="2.81927">
        <ele>606.4</ele>
        <time>2021-07-11T07:51:33Z</time>
      </trkpt>
      <trkpt lat="45.97154" lon="2.81927">
        <ele>606.5</ele>
        <time>2021-07-11T07:51:34Z</time>
      </trkpt>
      <trkpt lat="45.97153" lon="2.81927">
        <ele>606.7</ele>
        <time>2021-07-11T07:51:35Z</time>
      </trkpt>
      <trkpt lat="45.97152" lon="2.81928">
        <ele>606.7</ele>
        <time>2021-07-11T07:51:36Z</time>
      </trkpt>
      <trkpt lat="45.97151" lon="2.81928">
        <ele>606.9</ele>
        <time>2021-07-11T07:51:37Z</time>
      </trkpt>
      <trkpt lat="45.9715" lon="2.81928">
        <ele>607</ele>
        <time>2021-07-11T07:51:38Z</time>
      </trkpt>
      <trkpt lat="45.9715" lon="2.81928">
        <ele>607</ele>
        <time>2021-07-11T07:51:39Z</time>
      </trkpt>
      <trkpt lat="45.97149" lon="2.81929">
        <ele>607.1</ele>
        <time>2021-07-11T07:51:40Z</time>
      </trkpt>
      <trkpt lat="45.97148" lon="2.81929">
        <ele>607.3</ele>
        <time>2021-07-11T07:51:41Z</time>
      </trkpt>
      <trkpt lat="45.97148" lon="2.81928">
        <ele>607.3</ele>
        <time>2021-07-11T07:51:42Z</time>
      </trkpt>
      <trkpt lat="45.97147" lon="2.81928">
        <ele>607.5</ele>
        <time>2021-07-11T07:51:43Z</time>
      </trkpt>
      <trkpt lat="45.97147" lon="2.81928">
        <ele>607.5</ele>
        <time>2021-07-11T07:51:44Z</time>
      </trkpt>
      <trkpt lat="45.97146" lon="2.81929">
        <ele>607.6</ele>
        <time>2021-07-11T07:51:45Z</time>
      </trkpt>
      <trkpt lat="45.97146" lon="2.81929">
        <ele>607.6</ele>
        <time>2021-07-11T07:51:46Z</time>
      </trkpt>
      <trkpt lat="45.97145" lon="2.81929">
        <ele>607.8</ele>
        <time>2021-07-11T07:51:47Z</time>
      </trkpt>
      <trkpt lat="45.97144" lon="2.81929">
        <ele>608</ele>
        <time>2021-07-11T07:51:49Z</time>
      </trkpt>
      <trkpt lat="45.97142" lon="2.81929">
        <ele>608.3</ele>
        <time>2021-07-11T07:51:50Z</time>
      </trkpt>
      <trkpt lat="45.97139" lon="2.81929">
        <ele>608.9</ele>
        <time>2021-07-11T07:51:51Z</time>
      </trkpt>
      <trkpt lat="45.97138" lon="2.81928">
        <ele>609</ele>
        <time>2021-07-11T07:51:52Z</time>
      </trkpt>
      <trkpt lat="45.97138" lon="2.81928">
        <ele>609</ele>
        <time>2021-07-11T07:51:53Z</time>
      </trkpt>
      <trkpt lat="45.97137" lon="2.81928">
        <ele>609.2</ele>
        <time>2021-07-11T07:51:54Z</time>
      </trkpt>
      <trkpt lat="45.97136" lon="2.81928">
        <ele>609.4</ele>
        <time>2021-07-11T07:51:55Z</time>
      </trkpt>
      <trkpt lat="45.97136" lon="2.81928">
        <ele>609.4</ele>
        <time>2021-07-11T07:51:56Z</time>
      </trkpt>
      <trkpt lat="45.97135" lon="2.81927">
        <ele>609.6</ele>
        <time>2021-07-11T07:51:57Z</time>
      </trkpt>
      <trkpt lat="45.97134" lon="2.81927">
        <ele>609.8</ele>
        <time>2021-07-11T07:51:58Z</time>
      </trkpt>
      <trkpt lat="45.97133" lon="2.81927">
        <ele>610</ele>
        <time>2021-07-11T07:51:59Z</time>
      </trkpt>
      <trkpt lat="45.97132" lon="2.81927">
        <ele>610.2</ele>
        <time>2021-07-11T07:52:00Z</time>
      </trkpt>
      <trkpt lat="45.97131" lon="2.81926">
        <ele>610.3</ele>
        <time>2021-07-11T07:52:01Z</time>
      </trkpt>
      <trkpt lat="45.9713" lon="2.81925">
        <ele>610.4</ele>
        <time>2021-07-11T07:52:02Z</time>
      </trkpt>
      <trkpt lat="45.97129" lon="2.81925">
        <ele>610.6</ele>
        <time>2021-07-11T07:52:03Z</time>
      </trkpt>
      <trkpt lat="45.97129" lon="2.81924">
        <ele>610.4</ele>
        <time>2021-07-11T07:52:04Z</time>
      </trkpt>
      <trkpt lat="45.97128" lon="2.81924">
        <ele>610.6</ele>
        <time>2021-07-11T07:52:05Z</time>
      </trkpt>
      <trkpt lat="45.97127" lon="2.81923">
        <ele>610.7</ele>
        <time>2021-07-11T07:52:06Z</time>
      </trkpt>
      <trkpt lat="45.97126" lon="2.81923">
        <ele>610.8</ele>
        <time>2021-07-11T07:52:07Z</time>
      </trkpt>
      <trkpt lat="45.97125" lon="2.81922">
        <ele>610.9</ele>
        <time>2021-07-11T07:52:08Z</time>
      </trkpt>
      <trkpt lat="45.97124" lon="2.81922">
        <ele>611</ele>
        <time>2021-07-11T07:52:09Z</time>
      </trkpt>
      <trkpt lat="45.97123" lon="2.81922">
        <ele>611.2</ele>
        <time>2021-07-11T07:52:10Z</time>
      </trkpt>
      <trkpt lat="45.97121" lon="2.81921">
        <ele>611.4</ele>
        <time>2021-07-11T07:52:11Z</time>
      </trkpt>
      <trkpt lat="45.97121" lon="2.81921">
        <ele>611.4</ele>
        <time>2021-07-11T07:52:12Z</time>
      </trkpt>
      <trkpt lat="45.97119" lon="2.8192">
        <ele>611.5</ele>
        <time>2021-07-11T07:52:13Z</time>
      </trkpt>
      <trkpt lat="45.97118" lon="2.81919">
        <ele>611.5</ele>
        <time>2021-07-11T07:52:14Z</time>
      </trkpt>
      <trkpt lat="45.97117" lon="2.81919">
        <ele>611.7</ele>
        <time>2021-07-11T07:52:15Z</time>
      </trkpt>
      <trkpt lat="45.97115" lon="2.81918">
        <ele>611.7</ele>
        <time>2021-07-11T07:52:16Z</time>
      </trkpt>
      <trkpt lat="45.97114" lon="2.81917">
        <ele>611.7</ele>
        <time>2021-07-11T07:52:17Z</time>
      </trkpt>
      <trkpt lat="45.97112" lon="2.81916">
        <ele>611.6</ele>
        <time>2021-07-11T07:52:18Z</time>
      </trkpt>
      <trkpt lat="45.97111" lon="2.81915">
        <ele>611.4</ele>
        <time>2021-07-11T07:52:19Z</time>
      </trkpt>
      <trkpt lat="45.9711" lon="2.81914">
        <ele>611.3</ele>
        <time>2021-07-11T07:52:20Z</time>
      </trkpt>
      <trkpt lat="45.97109" lon="2.81913">
        <ele>611.2</ele>
        <time>2021-07-11T07:52:21Z</time>
      </trkpt>
      <trkpt lat="45.97107" lon="2.81912">
        <ele>611.4</ele>
        <time>2021-07-11T07:52:22Z</time>
      </trkpt>
      <trkpt lat="45.97105" lon="2.81911">
        <ele>611.6</ele>
        <time>2021-07-11T07:52:23Z</time>
      </trkpt>
      <trkpt lat="45.97104" lon="2.8191">
        <ele>611.5</ele>
        <time>2021-07-11T07:52:24Z</time>
      </trkpt>
      <trkpt lat="45.97102" lon="2.81909">
        <ele>611.7</ele>
        <time>2021-07-11T07:52:25Z</time>
      </trkpt>
      <trkpt lat="45.971" lon="2.81908">
        <ele>611.9</ele>
        <time>2021-07-11T07:52:26Z</time>
      </trkpt>
      <trkpt lat="45.97099" lon="2.81907">
        <ele>611.9</ele>
        <time>2021-07-11T07:52:27Z</time>
      </trkpt>
      <trkpt lat="45.97097" lon="2.81906">
        <ele>612.1</ele>
        <time>2021-07-11T07:52:28Z</time>
      </trkpt>
      <trkpt lat="45.97095" lon="2.81905">
        <ele>612.3</ele>
        <time>2021-07-11T07:52:29Z</time>
      </trkpt>
      <trkpt lat="45.97093" lon="2.81904">
        <ele>612.6</ele>
        <time>2021-07-11T07:52:30Z</time>
      </trkpt>
      <trkpt lat="45.97092" lon="2.81903">
        <ele>612.6</ele>
        <time>2021-07-11T07:52:31Z</time>
      </trkpt>
      <trkpt lat="45.9709" lon="2.81902">
        <ele>612.8</ele>
        <time>2021-07-11T07:52:32Z</time>
      </trkpt>
      <trkpt lat="45.97089" lon="2.819">
        <ele>612.5</ele>
        <time>2021-07-11T07:52:33Z</time>
      </trkpt>
      <trkpt lat="45.97087" lon="2.81899">
        <ele>612.8</ele>
        <time>2021-07-11T07:52:34Z</time>
      </trkpt>
      <trkpt lat="45.97086" lon="2.81898">
        <ele>612.8</ele>
        <time>2021-07-11T07:52:35Z</time>
      </trkpt>
      <trkpt lat="45.97085" lon="2.81896">
        <ele>612.5</ele>
        <time>2021-07-11T07:52:36Z</time>
      </trkpt>
      <trkpt lat="45.97083" lon="2.81895">
        <ele>612.9</ele>
        <time>2021-07-11T07:52:37Z</time>
      </trkpt>
      <trkpt lat="45.97081" lon="2.81894">
        <ele>613.4</ele>
        <time>2021-07-11T07:52:38Z</time>
      </trkpt>
      <trkpt lat="45.9708" lon="2.81892">
        <ele>613.2</ele>
        <time>2021-07-11T07:52:39Z</time>
      </trkpt>
      <trkpt lat="45.97078" lon="2.81891">
        <ele>613.7</ele>
        <time>2021-07-11T07:52:40Z</time>
      </trkpt>
      <trkpt lat="45.97076" lon="2.8189">
        <ele>614.2</ele>
        <time>2021-07-11T07:52:41Z</time>
      </trkpt>
      <trkpt lat="45.97075" lon="2.81889">
        <ele>614.3</ele>
        <time>2021-07-11T07:52:42Z</time>
      </trkpt>
      <trkpt lat="45.97073" lon="2.81888">
        <ele>614.8</ele>
        <time>2021-07-11T07:52:43Z</time>
      </trkpt>
      <trkpt lat="45.97072" lon="2.81887">
        <ele>614.9</ele>
        <time>2021-07-11T07:52:44Z</time>
      </trkpt>
      <trkpt lat="45.97071" lon="2.81886">
        <ele>615</ele>
        <time>2021-07-11T07:52:45Z</time>
      </trkpt>
      <trkpt lat="45.9707" lon="2.81885">
        <ele>615.1</ele>
        <time>2021-07-11T07:52:46Z</time>
      </trkpt>
      <trkpt lat="45.97069" lon="2.81883">
        <ele>614.9</ele>
        <time>2021-07-11T07:52:47Z</time>
      </trkpt>
      <trkpt lat="45.97069" lon="2.81882">
        <ele>614.6</ele>
        <time>2021-07-11T07:52:48Z</time>
      </trkpt>
      <trkpt lat="45.97068" lon="2.8188">
        <ele>614.4</ele>
        <time>2021-07-11T07:52:49Z</time>
      </trkpt>
      <trkpt lat="45.97067" lon="2.81878">
        <ele>614.2</ele>
        <time>2021-07-11T07:52:50Z</time>
      </trkpt>
      <trkpt lat="45.97067" lon="2.81876">
        <ele>613.6</ele>
        <time>2021-07-11T07:52:51Z</time>
      </trkpt>
      <trkpt lat="45.97066" lon="2.81874">
        <ele>613.5</ele>
        <time>2021-07-11T07:52:52Z</time>
      </trkpt>
      <trkpt lat="45.97065" lon="2.81872">
        <ele>613.4</ele>
        <time>2021-07-11T07:52:53Z</time>
      </trkpt>
      <trkpt lat="45.97065" lon="2.8187">
        <ele>612.8</ele>
        <time>2021-07-11T07:52:54Z</time>
      </trkpt>
      <trkpt lat="45.97064" lon="2.81868">
        <ele>612.7</ele>
        <time>2021-07-11T07:52:55Z</time>
      </trkpt>
      <trkpt lat="45.97063" lon="2.81866">
        <ele>612.6</ele>
        <time>2021-07-11T07:52:56Z</time>
      </trkpt>
      <trkpt lat="45.97063" lon="2.81864">
        <ele>612.1</ele>
        <time>2021-07-11T07:52:57Z</time>
      </trkpt>
      <trkpt lat="45.97062" lon="2.81863">
        <ele>612.3</ele>
        <time>2021-07-11T07:52:58Z</time>
      </trkpt>
      <trkpt lat="45.97061" lon="2.81861">
        <ele>612.2</ele>
        <time>2021-07-11T07:52:59Z</time>
      </trkpt>
      <trkpt lat="45.9706" lon="2.81859">
        <ele>612.3</ele>
        <time>2021-07-11T07:53:00Z</time>
      </trkpt>
      <trkpt lat="45.97059" lon="2.81858">
        <ele>612.6</ele>
        <time>2021-07-11T07:53:01Z</time>
      </trkpt>
      <trkpt lat="45.97058" lon="2.81856">
        <ele>612.6</ele>
        <time>2021-07-11T07:53:02Z</time>
      </trkpt>
      <trkpt lat="45.97057" lon="2.81855">
        <ele>612.9</ele>
        <time>2021-07-11T07:53:03Z</time>
      </trkpt>
      <trkpt lat="45.97056" lon="2.81853">
        <ele>613</ele>
        <time>2021-07-11T07:53:04Z</time>
      </trkpt>
      <trkpt lat="45.97055" lon="2.81852">
        <ele>613.3</ele>
        <time>2021-07-11T07:53:05Z</time>
      </trkpt>
      <trkpt lat="45.97054" lon="2.8185">
        <ele>613.5</ele>
        <time>2021-07-11T07:53:06Z</time>
      </trkpt>
      <trkpt lat="45.97053" lon="2.81848">
        <ele>613.6</ele>
        <time>2021-07-11T07:53:07Z</time>
      </trkpt>
      <trkpt lat="45.97052" lon="2.81847">
        <ele>613.9</ele>
        <time>2021-07-11T07:53:08Z</time>
      </trkpt>
      <trkpt lat="45.97051" lon="2.81845">
        <ele>614.1</ele>
        <time>2021-07-11T07:53:09Z</time>
      </trkpt>
      <trkpt lat="45.97051" lon="2.81843">
        <ele>613.7</ele>
        <time>2021-07-11T07:53:10Z</time>
      </trkpt>
      <trkpt lat="45.97049" lon="2.81841">
        <ele>614.4</ele>
        <time>2021-07-11T07:53:11Z</time>
      </trkpt>
      <trkpt lat="45.97048" lon="2.81839">
        <ele>614.5</ele>
        <time>2021-07-11T07:53:12Z</time>
      </trkpt>
      <trkpt lat="45.97047" lon="2.81837">
        <ele>614.7</ele>
        <time>2021-07-11T07:53:13Z</time>
      </trkpt>
      <trkpt lat="45.97046" lon="2.81836">
        <ele>615</ele>
        <time>2021-07-11T07:53:14Z</time>
      </trkpt>
      <trkpt lat="45.97045" lon="2.81834">
        <ele>615.2</ele>
        <time>2021-07-11T07:53:15Z</time>
      </trkpt>
      <trkpt lat="45.97043" lon="2.81833">
        <ele>616.1</ele>
        <time>2021-07-11T07:53:16Z</time>
      </trkpt>
      <trkpt lat="45.97042" lon="2.81832">
        <ele>616.4</ele>
        <time>2021-07-11T07:53:17Z</time>
      </trkpt>
      <trkpt lat="45.9704" lon="2.8183">
        <ele>616.8</ele>
        <time>2021-07-11T07:53:18Z</time>
      </trkpt>
      <trkpt lat="45.97039" lon="2.81829">
        <ele>617</ele>
        <time>2021-07-11T07:53:19Z</time>
      </trkpt>
      <trkpt lat="45.97038" lon="2.81827">
        <ele>616.9</ele>
        <time>2021-07-11T07:53:20Z</time>
      </trkpt>
      <trkpt lat="45.97036" lon="2.81826">
        <ele>617.7</ele>
        <time>2021-07-11T07:53:21Z</time>
      </trkpt>
      <trkpt lat="45.97035" lon="2.81824">
        <ele>617.6</ele>
        <time>2021-07-11T07:53:22Z</time>
      </trkpt>
      <trkpt lat="45.97034" lon="2.81823">
        <ele>617.8</ele>
        <time>2021-07-11T07:53:23Z</time>
      </trkpt>
      <trkpt lat="45.97033" lon="2.81822">
        <ele>618</ele>
        <time>2021-07-11T07:53:24Z</time>
      </trkpt>
      <trkpt lat="45.97031" lon="2.81821">
        <ele>618.8</ele>
        <time>2021-07-11T07:53:25Z</time>
      </trkpt>
      <trkpt lat="45.9703" lon="2.81819">
        <ele>618.6</ele>
        <time>2021-07-11T07:53:26Z</time>
      </trkpt>
      <trkpt lat="45.9703" lon="2.81818">
        <ele>618.2</ele>
        <time>2021-07-11T07:53:27Z</time>
      </trkpt>
      <trkpt lat="45.97028" lon="2.81817">
        <ele>619</ele>
        <time>2021-07-11T07:53:28Z</time>
      </trkpt>
      <trkpt lat="45.97027" lon="2.81815">
        <ele>618.8</ele>
        <time>2021-07-11T07:53:29Z</time>
      </trkpt>
      <trkpt lat="45.97026" lon="2.81814">
        <ele>619</ele>
        <time>2021-07-11T07:53:30Z</time>
      </trkpt>
      <trkpt lat="45.97025" lon="2.81813">
        <ele>619.2</ele>
        <time>2021-07-11T07:53:31Z</time>
      </trkpt>
      <trkpt lat="45.97024" lon="2.81811">
        <ele>619</ele>
        <time>2021-07-11T07:53:32Z</time>
      </trkpt>
      <trkpt lat="45.97023" lon="2.8181">
        <ele>619.2</ele>
        <time>2021-07-11T07:53:33Z</time>
      </trkpt>
      <trkpt lat="45.97022" lon="2.81809">
        <ele>619.3</ele>
        <time>2021-07-11T07:53:34Z</time>
      </trkpt>
      <trkpt lat="45.97021" lon="2.81807">
        <ele>619.2</ele>
        <time>2021-07-11T07:53:35Z</time>
      </trkpt>
      <trkpt lat="45.9702" lon="2.81806">
        <ele>619.4</ele>
        <time>2021-07-11T07:53:36Z</time>
      </trkpt>
      <trkpt lat="45.97019" lon="2.81805">
        <ele>619.5</ele>
        <time>2021-07-11T07:53:37Z</time>
      </trkpt>
      <trkpt lat="45.97018" lon="2.81804">
        <ele>619.7</ele>
        <time>2021-07-11T07:53:38Z</time>
      </trkpt>
      <trkpt lat="45.97017" lon="2.81803">
        <ele>619.8</ele>
        <time>2021-07-11T07:53:39Z</time>
      </trkpt>
      <trkpt lat="45.97015" lon="2.81801">
        <ele>620.1</ele>
        <time>2021-07-11T07:53:40Z</time>
      </trkpt>
      <trkpt lat="45.97014" lon="2.818">
        <ele>620.2</ele>
        <time>2021-07-11T07:53:41Z</time>
      </trkpt>
      <trkpt lat="45.97013" lon="2.81799">
        <ele>620.4</ele>
        <time>2021-07-11T07:53:42Z</time>
      </trkpt>
      <trkpt lat="45.97012" lon="2.81797">
        <ele>620.1</ele>
        <time>2021-07-11T07:53:43Z</time>
      </trkpt>
      <trkpt lat="45.9701" lon="2.81796">
        <ele>620.8</ele>
        <time>2021-07-11T07:53:44Z</time>
      </trkpt>
      <trkpt lat="45.9701" lon="2.81795">
        <ele>620.4</ele>
        <time>2021-07-11T07:53:45Z</time>
      </trkpt>
      <trkpt lat="45.97009" lon="2.81793">
        <ele>620.2</ele>
        <time>2021-07-11T07:53:46Z</time>
      </trkpt>
      <trkpt lat="45.97008" lon="2.81792">
        <ele>620.3</ele>
        <time>2021-07-11T07:53:47Z</time>
      </trkpt>
      <trkpt lat="45.97007" lon="2.8179">
        <ele>620.1</ele>
        <time>2021-07-11T07:53:49Z</time>
      </trkpt>
      <trkpt lat="45.97003" lon="2.81784">
        <ele>619.8</ele>
        <time>2021-07-11T07:53:50Z</time>
      </trkpt>
      <trkpt lat="45.97002" lon="2.81784">
        <ele>620.4</ele>
        <time>2021-07-11T07:53:51Z</time>
      </trkpt>
      <trkpt lat="45.97002" lon="2.81783">
        <ele>620</ele>
        <time>2021-07-11T07:53:52Z</time>
      </trkpt>
      <trkpt lat="45.97001" lon="2.81782">
        <ele>620.1</ele>
        <time>2021-07-11T07:53:53Z</time>
      </trkpt>
      <trkpt lat="45.97" lon="2.81782">
        <ele>620.7</ele>
        <time>2021-07-11T07:53:54Z</time>
      </trkpt>
      <trkpt lat="45.97" lon="2.81781">
        <ele>620.3</ele>
        <time>2021-07-11T07:53:55Z</time>
      </trkpt>
      <trkpt lat="45.96999" lon="2.8178">
        <ele>620.5</ele>
        <time>2021-07-11T07:53:56Z</time>
      </trkpt>
      <trkpt lat="45.96998" lon="2.81779">
        <ele>620.6</ele>
        <time>2021-07-11T07:53:57Z</time>
      </trkpt>
      <trkpt lat="45.96997" lon="2.81778">
        <ele>620.8</ele>
        <time>2021-07-11T07:53:58Z</time>
      </trkpt>
      <trkpt lat="45.96995" lon="2.81777">
        <ele>621.6</ele>
        <time>2021-07-11T07:53:59Z</time>
      </trkpt>
      <trkpt lat="45.96994" lon="2.81776">
        <ele>621.8</ele>
        <time>2021-07-11T07:54:00Z</time>
      </trkpt>
      <trkpt lat="45.96993" lon="2.81775">
        <ele>621.9</ele>
        <time>2021-07-11T07:54:01Z</time>
      </trkpt>
      <trkpt lat="45.96992" lon="2.81773">
        <ele>621.7</ele>
        <time>2021-07-11T07:54:02Z</time>
      </trkpt>
      <trkpt lat="45.96991" lon="2.81772">
        <ele>621.9</ele>
        <time>2021-07-11T07:54:03Z</time>
      </trkpt>
      <trkpt lat="45.9699" lon="2.8177">
        <ele>621.7</ele>
        <time>2021-07-11T07:54:04Z</time>
      </trkpt>
      <trkpt lat="45.96989" lon="2.81768">
        <ele>621.5</ele>
        <time>2021-07-11T07:54:05Z</time>
      </trkpt>
      <trkpt lat="45.96988" lon="2.81767">
        <ele>621.6</ele>
        <time>2021-07-11T07:54:06Z</time>
      </trkpt>
      <trkpt lat="45.96988" lon="2.81765">
        <ele>620.9</ele>
        <time>2021-07-11T07:54:07Z</time>
      </trkpt>
      <trkpt lat="45.96986" lon="2.81764">
        <ele>621.6</ele>
        <time>2021-07-11T07:54:08Z</time>
      </trkpt>
      <trkpt lat="45.96986" lon="2.81763">
        <ele>621.2</ele>
        <time>2021-07-11T07:54:09Z</time>
      </trkpt>
      <trkpt lat="45.96985" lon="2.81762">
        <ele>621.4</ele>
        <time>2021-07-11T07:54:10Z</time>
      </trkpt>
      <trkpt lat="45.96984" lon="2.81761">
        <ele>621.6</ele>
        <time>2021-07-11T07:54:11Z</time>
      </trkpt>
      <trkpt lat="45.96983" lon="2.8176">
        <ele>621.8</ele>
        <time>2021-07-11T07:54:12Z</time>
      </trkpt>
      <trkpt lat="45.96982" lon="2.81759">
        <ele>621.9</ele>
        <time>2021-07-11T07:54:12Z</time>
      </trkpt>
      <trkpt lat="45.96981" lon="2.81758">
        <ele>622.1</ele>
        <time>2021-07-11T07:54:13Z</time>
      </trkpt>
      <trkpt lat="45.96981" lon="2.81757">
        <ele>621.7</ele>
        <time>2021-07-11T07:54:14Z</time>
      </trkpt>
      <trkpt lat="45.9698" lon="2.81756">
        <ele>621.9</ele>
        <time>2021-07-11T07:54:15Z</time>
      </trkpt>
      <trkpt lat="45.96979" lon="2.81755">
        <ele>622.1</ele>
        <time>2021-07-11T07:54:16Z</time>
      </trkpt>
      <trkpt lat="45.96979" lon="2.81754">
        <ele>621.7</ele>
        <time>2021-07-11T07:54:17Z</time>
      </trkpt>
      <trkpt lat="45.96978" lon="2.81753">
        <ele>621.9</ele>
        <time>2021-07-11T07:54:18Z</time>
      </trkpt>
      <trkpt lat="45.96977" lon="2.81752">
        <ele>622</ele>
        <time>2021-07-11T07:54:19Z</time>
      </trkpt>
      <trkpt lat="45.96976" lon="2.81751">
        <ele>622.2</ele>
        <time>2021-07-11T07:54:20Z</time>
      </trkpt>
      <trkpt lat="45.96975" lon="2.8175">
        <ele>622.4</ele>
        <time>2021-07-11T07:54:21Z</time>
      </trkpt>
      <trkpt lat="45.96974" lon="2.81749">
        <ele>622.6</ele>
        <time>2021-07-11T07:54:22Z</time>
      </trkpt>
      <trkpt lat="45.96973" lon="2.81748">
        <ele>622.9</ele>
        <time>2021-07-11T07:54:23Z</time>
      </trkpt>
      <trkpt lat="45.96973" lon="2.81747">
        <ele>622.6</ele>
        <time>2021-07-11T07:54:24Z</time>
      </trkpt>
      <trkpt lat="45.96972" lon="2.81746">
        <ele>622.8</ele>
        <time>2021-07-11T07:54:25Z</time>
      </trkpt>
      <trkpt lat="45.96971" lon="2.81745">
        <ele>623.1</ele>
        <time>2021-07-11T07:54:26Z</time>
      </trkpt>
      <trkpt lat="45.9697" lon="2.81743">
        <ele>623</ele>
        <time>2021-07-11T07:54:27Z</time>
      </trkpt>
      <trkpt lat="45.96969" lon="2.81742">
        <ele>623.3</ele>
        <time>2021-07-11T07:54:28Z</time>
      </trkpt>
      <trkpt lat="45.96968" lon="2.81741">
        <ele>623.5</ele>
        <time>2021-07-11T07:54:29Z</time>
      </trkpt>
      <trkpt lat="45.96967" lon="2.8174">
        <ele>623.8</ele>
        <time>2021-07-11T07:54:30Z</time>
      </trkpt>
      <trkpt lat="45.96966" lon="2.81739">
        <ele>624</ele>
        <time>2021-07-11T07:54:31Z</time>
      </trkpt>
      <trkpt lat="45.96965" lon="2.81737">
        <ele>623.9</ele>
        <time>2021-07-11T07:54:32Z</time>
      </trkpt>
      <trkpt lat="45.96964" lon="2.81737">
        <ele>624.5</ele>
        <time>2021-07-11T07:54:33Z</time>
      </trkpt>
      <trkpt lat="45.96964" lon="2.81736">
        <ele>624.2</ele>
        <time>2021-07-11T07:54:34Z</time>
      </trkpt>
      <trkpt lat="45.96962" lon="2.81735">
        <ele>625</ele>
        <time>2021-07-11T07:54:35Z</time>
      </trkpt>
      <trkpt lat="45.96961" lon="2.81734">
        <ele>625.3</ele>
        <time>2021-07-11T07:54:36Z</time>
      </trkpt>
      <trkpt lat="45.9696" lon="2.81733">
        <ele>625.5</ele>
        <time>2021-07-11T07:54:37Z</time>
      </trkpt>
      <trkpt lat="45.9696" lon="2.81732">
        <ele>625.2</ele>
        <time>2021-07-11T07:54:38Z</time>
      </trkpt>
      <trkpt lat="45.96959" lon="2.81731">
        <ele>625.5</ele>
        <time>2021-07-11T07:54:39Z</time>
      </trkpt>
      <trkpt lat="45.96958" lon="2.8173">
        <ele>625.7</ele>
        <time>2021-07-11T07:54:40Z</time>
      </trkpt>
      <trkpt lat="45.96957" lon="2.81729">
        <ele>626</ele>
        <time>2021-07-11T07:54:41Z</time>
      </trkpt>
      <trkpt lat="45.96957" lon="2.81727">
        <ele>625.3</ele>
        <time>2021-07-11T07:54:42Z</time>
      </trkpt>
      <trkpt lat="45.96956" lon="2.81726">
        <ele>625.6</ele>
        <time>2021-07-11T07:54:43Z</time>
      </trkpt>
      <trkpt lat="45.96955" lon="2.81724">
        <ele>625.5</ele>
        <time>2021-07-11T07:54:44Z</time>
      </trkpt>
      <trkpt lat="45.96955" lon="2.81723">
        <ele>625.2</ele>
        <time>2021-07-11T07:54:45Z</time>
      </trkpt>
      <trkpt lat="45.96954" lon="2.81721">
        <ele>625.3</ele>
        <time>2021-07-11T07:54:46Z</time>
      </trkpt>
      <trkpt lat="45.96952" lon="2.8172">
        <ele>626.3</ele>
        <time>2021-07-11T07:54:47Z</time>
      </trkpt>
      <trkpt lat="45.96952" lon="2.81719">
        <ele>626.1</ele>
        <time>2021-07-11T07:54:48Z</time>
      </trkpt>
      <trkpt lat="45.96951" lon="2.81717">
        <ele>626.3</ele>
        <time>2021-07-11T07:54:49Z</time>
      </trkpt>
      <trkpt lat="45.96951" lon="2.81715">
        <ele>626</ele>
        <time>2021-07-11T07:54:50Z</time>
      </trkpt>
      <trkpt lat="45.96949" lon="2.81714">
        <ele>627</ele>
        <time>2021-07-11T07:54:51Z</time>
      </trkpt>
      <trkpt lat="45.96949" lon="2.81713">
        <ele>626.9</ele>
        <time>2021-07-11T07:54:52Z</time>
      </trkpt>
      <trkpt lat="45.96948" lon="2.81711">
        <ele>627.2</ele>
        <time>2021-07-11T07:54:53Z</time>
      </trkpt>
      <trkpt lat="45.96948" lon="2.8171">
        <ele>627</ele>
        <time>2021-07-11T07:54:54Z</time>
      </trkpt>
      <trkpt lat="45.96947" lon="2.81709">
        <ele>627.5</ele>
        <time>2021-07-11T07:54:55Z</time>
      </trkpt>
      <trkpt lat="45.96946" lon="2.81708">
        <ele>628</ele>
        <time>2021-07-11T07:54:56Z</time>
      </trkpt>
      <trkpt lat="45.96946" lon="2.81707">
        <ele>627.8</ele>
        <time>2021-07-11T07:54:57Z</time>
      </trkpt>
      <trkpt lat="45.96946" lon="2.81705">
        <ele>627.5</ele>
        <time>2021-07-11T07:54:58Z</time>
      </trkpt>
      <trkpt lat="45.96945" lon="2.81704">
        <ele>628</ele>
        <time>2021-07-11T07:54:59Z</time>
      </trkpt>
      <trkpt lat="45.96945" lon="2.81703">
        <ele>627.9</ele>
        <time>2021-07-11T07:55:00Z</time>
      </trkpt>
      <trkpt lat="45.96944" lon="2.81701">
        <ele>628.2</ele>
        <time>2021-07-11T07:55:01Z</time>
      </trkpt>
      <trkpt lat="45.96943" lon="2.81699">
        <ele>628.6</ele>
        <time>2021-07-11T07:55:02Z</time>
      </trkpt>
      <trkpt lat="45.96943" lon="2.81698">
        <ele>628.5</ele>
        <time>2021-07-11T07:55:03Z</time>
      </trkpt>
      <trkpt lat="45.96943" lon="2.81696">
        <ele>628.2</ele>
        <time>2021-07-11T07:55:04Z</time>
      </trkpt>
      <trkpt lat="45.96942" lon="2.81694">
        <ele>628.7</ele>
        <time>2021-07-11T07:55:05Z</time>
      </trkpt>
      <trkpt lat="45.96941" lon="2.81693">
        <ele>629.4</ele>
        <time>2021-07-11T07:55:06Z</time>
      </trkpt>
      <trkpt lat="45.96941" lon="2.81691">
        <ele>629.6</ele>
        <time>2021-07-11T07:55:07Z</time>
      </trkpt>
      <trkpt lat="45.9694" lon="2.81689">
        <ele>630.4</ele>
        <time>2021-07-11T07:55:08Z</time>
      </trkpt>
      <trkpt lat="45.9694" lon="2.81688">
        <ele>630.4</ele>
        <time>2021-07-11T07:55:09Z</time>
      </trkpt>
      <trkpt lat="45.96939" lon="2.81686">
        <ele>631.2</ele>
        <time>2021-07-11T07:55:10Z</time>
      </trkpt>
      <trkpt lat="45.96939" lon="2.81685">
        <ele>631.3</ele>
        <time>2021-07-11T07:55:11Z</time>
      </trkpt>
      <trkpt lat="45.96939" lon="2.81683">
        <ele>631.4</ele>
        <time>2021-07-11T07:55:12Z</time>
      </trkpt>
      <trkpt lat="45.96938" lon="2.81681">
        <ele>632.2</ele>
        <time>2021-07-11T07:55:13Z</time>
      </trkpt>
      <trkpt lat="45.96938" lon="2.81679">
        <ele>632.3</ele>
        <time>2021-07-11T07:55:14Z</time>
      </trkpt>
      <trkpt lat="45.96938" lon="2.81677">
        <ele>632.4</ele>
        <time>2021-07-11T07:55:15Z</time>
      </trkpt>
      <trkpt lat="45.96937" lon="2.81675">
        <ele>633.1</ele>
        <time>2021-07-11T07:55:16Z</time>
      </trkpt>
      <trkpt lat="45.96937" lon="2.81674">
        <ele>633.2</ele>
        <time>2021-07-11T07:55:17Z</time>
      </trkpt>
      <trkpt lat="45.96937" lon="2.81672">
        <ele>633.3</ele>
        <time>2021-07-11T07:55:18Z</time>
      </trkpt>
      <trkpt lat="45.96936" lon="2.8167">
        <ele>634</ele>
        <time>2021-07-11T07:55:19Z</time>
      </trkpt>
      <trkpt lat="45.96936" lon="2.81668">
        <ele>634.1</ele>
        <time>2021-07-11T07:55:20Z</time>
      </trkpt>
      <trkpt lat="45.96936" lon="2.81666">
        <ele>634.1</ele>
        <time>2021-07-11T07:55:21Z</time>
      </trkpt>
      <trkpt lat="45.96935" lon="2.81665">
        <ele>634.7</ele>
        <time>2021-07-11T07:55:22Z</time>
      </trkpt>
      <trkpt lat="45.96935" lon="2.81663">
        <ele>634.5</ele>
        <time>2021-07-11T07:55:23Z</time>
      </trkpt>
      <trkpt lat="45.96935" lon="2.81661">
        <ele>634.4</ele>
        <time>2021-07-11T07:55:24Z</time>
      </trkpt>
      <trkpt lat="45.96934" lon="2.8166">
        <ele>634.9</ele>
        <time>2021-07-11T07:55:25Z</time>
      </trkpt>
      <trkpt lat="45.96934" lon="2.81658">
        <ele>634.7</ele>
        <time>2021-07-11T07:55:26Z</time>
      </trkpt>
      <trkpt lat="45.96933" lon="2.81657">
        <ele>635.2</ele>
        <time>2021-07-11T07:55:27Z</time>
      </trkpt>
      <trkpt lat="45.96933" lon="2.81655">
        <ele>635.1</ele>
        <time>2021-07-11T07:55:28Z</time>
      </trkpt>
      <trkpt lat="45.96932" lon="2.81654">
        <ele>635.5</ele>
        <time>2021-07-11T07:55:29Z</time>
      </trkpt>
      <trkpt lat="45.96931" lon="2.81653">
        <ele>636</ele>
        <time>2021-07-11T07:55:30Z</time>
      </trkpt>
      <trkpt lat="45.96931" lon="2.81652">
        <ele>635.9</ele>
        <time>2021-07-11T07:55:31Z</time>
      </trkpt>
      <trkpt lat="45.9693" lon="2.8165">
        <ele>636.3</ele>
        <time>2021-07-11T07:55:32Z</time>
      </trkpt>
      <trkpt lat="45.96929" lon="2.81649">
        <ele>636.8</ele>
        <time>2021-07-11T07:55:33Z</time>
      </trkpt>
      <trkpt lat="45.96928" lon="2.81648">
        <ele>637.2</ele>
        <time>2021-07-11T07:55:34Z</time>
      </trkpt>
      <trkpt lat="45.96928" lon="2.81646">
        <ele>637</ele>
        <time>2021-07-11T07:55:35Z</time>
      </trkpt>
      <trkpt lat="45.96927" lon="2.81645">
        <ele>637.4</ele>
        <time>2021-07-11T07:55:36Z</time>
      </trkpt>
      <trkpt lat="45.96927" lon="2.81643">
        <ele>637.2</ele>
        <time>2021-07-11T07:55:37Z</time>
      </trkpt>
      <trkpt lat="45.96926" lon="2.81642">
        <ele>637.6</ele>
        <time>2021-07-11T07:55:38Z</time>
      </trkpt>
      <trkpt lat="45.96925" lon="2.8164">
        <ele>637.9</ele>
        <time>2021-07-11T07:55:39Z</time>
      </trkpt>
      <trkpt lat="45.96925" lon="2.81639">
        <ele>637.8</ele>
        <time>2021-07-11T07:55:40Z</time>
      </trkpt>
      <trkpt lat="45.96924" lon="2.81638">
        <ele>638.2</ele>
        <time>2021-07-11T07:55:41Z</time>
      </trkpt>
      <trkpt lat="45.96923" lon="2.81636">
        <ele>638.4</ele>
        <time>2021-07-11T07:55:42Z</time>
      </trkpt>
      <trkpt lat="45.96922" lon="2.81635">
        <ele>638.7</ele>
        <time>2021-07-11T07:55:43Z</time>
      </trkpt>
      <trkpt lat="45.96922" lon="2.81634">
        <ele>638.6</ele>
        <time>2021-07-11T07:55:44Z</time>
      </trkpt>
      <trkpt lat="45.96921" lon="2.81632">
        <ele>638.8</ele>
        <time>2021-07-11T07:55:45Z</time>
      </trkpt>
      <trkpt lat="45.9692" lon="2.81631">
        <ele>639.1</ele>
        <time>2021-07-11T07:55:46Z</time>
      </trkpt>
      <trkpt lat="45.9692" lon="2.8163">
        <ele>639</ele>
        <time>2021-07-11T07:55:47Z</time>
      </trkpt>
      <trkpt lat="45.96919" lon="2.81628">
        <ele>639.2</ele>
        <time>2021-07-11T07:55:49Z</time>
      </trkpt>
      <trkpt lat="45.96916" lon="2.81623">
        <ele>639.9</ele>
        <time>2021-07-11T07:55:50Z</time>
      </trkpt>
      <trkpt lat="45.96916" lon="2.81623">
        <ele>639.9</ele>
        <time>2021-07-11T07:55:51Z</time>
      </trkpt>
      <trkpt lat="45.96915" lon="2.81622">
        <ele>640.1</ele>
        <time>2021-07-11T07:55:52Z</time>
      </trkpt>
      <trkpt lat="45.96915" lon="2.81621">
        <ele>640</ele>
        <time>2021-07-11T07:55:53Z</time>
      </trkpt>
      <trkpt lat="45.96914" lon="2.8162">
        <ele>640.2</ele>
        <time>2021-07-11T07:55:54Z</time>
      </trkpt>
      <trkpt lat="45.96914" lon="2.81619">
        <ele>640</ele>
        <time>2021-07-11T07:55:55Z</time>
      </trkpt>
      <trkpt lat="45.96913" lon="2.81618">
        <ele>640.2</ele>
        <time>2021-07-11T07:55:56Z</time>
      </trkpt>
      <trkpt lat="45.96912" lon="2.81617">
        <ele>640.5</ele>
        <time>2021-07-11T07:55:57Z</time>
      </trkpt>
      <trkpt lat="45.96911" lon="2.81616">
        <ele>640.7</ele>
        <time>2021-07-11T07:55:58Z</time>
      </trkpt>
      <trkpt lat="45.9691" lon="2.81614">
        <ele>640.8</ele>
        <time>2021-07-11T07:55:59Z</time>
      </trkpt>
      <trkpt lat="45.96909" lon="2.81613">
        <ele>641</ele>
        <time>2021-07-11T07:56:00Z</time>
      </trkpt>
      <trkpt lat="45.96908" lon="2.81612">
        <ele>641.2</ele>
        <time>2021-07-11T07:56:01Z</time>
      </trkpt>
      <trkpt lat="45.96907" lon="2.8161">
        <ele>641.3</ele>
        <time>2021-07-11T07:56:02Z</time>
      </trkpt>
      <trkpt lat="45.96906" lon="2.81609">
        <ele>641.6</ele>
        <time>2021-07-11T07:56:03Z</time>
      </trkpt>
      <trkpt lat="45.96905" lon="2.81608">
        <ele>641.8</ele>
        <time>2021-07-11T07:56:04Z</time>
      </trkpt>
      <trkpt lat="45.96904" lon="2.81607">
        <ele>642</ele>
        <time>2021-07-11T07:56:05Z</time>
      </trkpt>
      <trkpt lat="45.96903" lon="2.81606">
        <ele>642.3</ele>
        <time>2021-07-11T07:56:06Z</time>
      </trkpt>
      <trkpt lat="45.96901" lon="2.81605">
        <ele>642.9</ele>
        <time>2021-07-11T07:56:07Z</time>
      </trkpt>
      <trkpt lat="45.969" lon="2.81604">
        <ele>643.1</ele>
        <time>2021-07-11T07:56:08Z</time>
      </trkpt>
      <trkpt lat="45.96899" lon="2.81604">
        <ele>643.5</ele>
        <time>2021-07-11T07:56:09Z</time>
      </trkpt>
      <trkpt lat="45.96898" lon="2.81604">
        <ele>643.9</ele>
        <time>2021-07-11T07:56:10Z</time>
      </trkpt>
      <trkpt lat="45.96896" lon="2.81603">
        <ele>644.5</ele>
        <time>2021-07-11T07:56:11Z</time>
      </trkpt>
      <trkpt lat="45.96895" lon="2.81602">
        <ele>644.7</ele>
        <time>2021-07-11T07:56:12Z</time>
      </trkpt>
      <trkpt lat="45.96894" lon="2.81602">
        <ele>645.1</ele>
        <time>2021-07-11T07:56:13Z</time>
      </trkpt>
      <trkpt lat="45.96893" lon="2.81601">
        <ele>645.4</ele>
        <time>2021-07-11T07:56:14Z</time>
      </trkpt>
      <trkpt lat="45.96892" lon="2.816">
        <ele>645.6</ele>
        <time>2021-07-11T07:56:15Z</time>
      </trkpt>
      <trkpt lat="45.96891" lon="2.81599">
        <ele>645.9</ele>
        <time>2021-07-11T07:56:16Z</time>
      </trkpt>
      <trkpt lat="45.9689" lon="2.81598">
        <ele>646.2</ele>
        <time>2021-07-11T07:56:17Z</time>
      </trkpt>
      <trkpt lat="45.96889" lon="2.81596">
        <ele>646.3</ele>
        <time>2021-07-11T07:56:18Z</time>
      </trkpt>
      <trkpt lat="45.96889" lon="2.81595">
        <ele>646.2</ele>
        <time>2021-07-11T07:56:19Z</time>
      </trkpt>
      <trkpt lat="45.96888" lon="2.81594">
        <ele>646.1</ele>
        <time>2021-07-11T07:56:20Z</time>
      </trkpt>
      <trkpt lat="45.96888" lon="2.81592">
        <ele>645.9</ele>
        <time>2021-07-11T07:56:21Z</time>
      </trkpt>
      <trkpt lat="45.96888" lon="2.81591">
        <ele>645.8</ele>
        <time>2021-07-11T07:56:22Z</time>
      </trkpt>
      <trkpt lat="45.96888" lon="2.8159">
        <ele>645.7</ele>
        <time>2021-07-11T07:56:23Z</time>
      </trkpt>
      <trkpt lat="45.96888" lon="2.81588">
        <ele>645.5</ele>
        <time>2021-07-11T07:56:24Z</time>
      </trkpt>
      <trkpt lat="45.96888" lon="2.81586">
        <ele>645.2</ele>
        <time>2021-07-11T07:56:25Z</time>
      </trkpt>
      <trkpt lat="45.96887" lon="2.81585">
        <ele>645.1</ele>
        <time>2021-07-11T07:56:26Z</time>
      </trkpt>
      <trkpt lat="45.96887" lon="2.81583">
        <ele>644.9</ele>
        <time>2021-07-11T07:56:27Z</time>
      </trkpt>
      <trkpt lat="45.96886" lon="2.81581">
        <ele>644.7</ele>
        <time>2021-07-11T07:56:28Z</time>
      </trkpt>
      <trkpt lat="45.96886" lon="2.8158">
        <ele>644.5</ele>
        <time>2021-07-11T07:56:29Z</time>
      </trkpt>
      <trkpt lat="45.96886" lon="2.81578">
        <ele>644.3</ele>
        <time>2021-07-11T07:56:30Z</time>
      </trkpt>
      <trkpt lat="45.96886" lon="2.81577">
        <ele>644.2</ele>
        <time>2021-07-11T07:56:31Z</time>
      </trkpt>
      <trkpt lat="45.96886" lon="2.81575">
        <ele>644</ele>
        <time>2021-07-11T07:56:32Z</time>
      </trkpt>
      <trkpt lat="45.96886" lon="2.81573">
        <ele>643.8</ele>
        <time>2021-07-11T07:56:33Z</time>
      </trkpt>
      <trkpt lat="45.96886" lon="2.81571">
        <ele>643.6</ele>
        <time>2021-07-11T07:56:34Z</time>
      </trkpt>
      <trkpt lat="45.96886" lon="2.8157">
        <ele>643.5</ele>
        <time>2021-07-11T07:56:35Z</time>
      </trkpt>
      <trkpt lat="45.96886" lon="2.81568">
        <ele>643.3</ele>
        <time>2021-07-11T07:56:36Z</time>
      </trkpt>
      <trkpt lat="45.96885" lon="2.81566">
        <ele>643.1</ele>
        <time>2021-07-11T07:56:37Z</time>
      </trkpt>
      <trkpt lat="45.96885" lon="2.81564">
        <ele>642.9</ele>
        <time>2021-07-11T07:56:38Z</time>
      </trkpt>
      <trkpt lat="45.96885" lon="2.81562">
        <ele>642.7</ele>
        <time>2021-07-11T07:56:39Z</time>
      </trkpt>
      <trkpt lat="45.96884" lon="2.8156">
        <ele>642.5</ele>
        <time>2021-07-11T07:56:40Z</time>
      </trkpt>
      <trkpt lat="45.96884" lon="2.81559">
        <ele>642.4</ele>
        <time>2021-07-11T07:56:41Z</time>
      </trkpt>
      <trkpt lat="45.96883" lon="2.81557">
        <ele>642.1</ele>
        <time>2021-07-11T07:56:42Z</time>
      </trkpt>
      <trkpt lat="45.96883" lon="2.81555">
        <ele>642</ele>
        <time>2021-07-11T07:56:43Z</time>
      </trkpt>
      <trkpt lat="45.96883" lon="2.81553">
        <ele>641.8</ele>
        <time>2021-07-11T07:56:44Z</time>
      </trkpt>
      <trkpt lat="45.96882" lon="2.81551">
        <ele>641.7</ele>
        <time>2021-07-11T07:56:45Z</time>
      </trkpt>
      <trkpt lat="45.96882" lon="2.81549">
        <ele>641.5</ele>
        <time>2021-07-11T07:56:47Z</time>
      </trkpt>
      <trkpt lat="45.96882" lon="2.81547">
        <ele>641.4</ele>
        <time>2021-07-11T07:56:48Z</time>
      </trkpt>
      <trkpt lat="45.9688" lon="2.8154">
        <ele>640.9</ele>
        <time>2021-07-11T07:56:49Z</time>
      </trkpt>
      <trkpt lat="45.9688" lon="2.8154">
        <ele>640.9</ele>
        <time>2021-07-11T07:56:50Z</time>
      </trkpt>
      <trkpt lat="45.9688" lon="2.81539">
        <ele>640.8</ele>
        <time>2021-07-11T07:56:51Z</time>
      </trkpt>
      <trkpt lat="45.9688" lon="2.81538">
        <ele>640.7</ele>
        <time>2021-07-11T07:56:52Z</time>
      </trkpt>
      <trkpt lat="45.96881" lon="2.81537">
        <ele>640.7</ele>
        <time>2021-07-11T07:56:53Z</time>
      </trkpt>
      <trkpt lat="45.96881" lon="2.81535">
        <ele>640.5</ele>
        <time>2021-07-11T07:56:54Z</time>
      </trkpt>
      <trkpt lat="45.96881" lon="2.81533">
        <ele>640.4</ele>
        <time>2021-07-11T07:56:55Z</time>
      </trkpt>
      <trkpt lat="45.96881" lon="2.81531">
        <ele>640.2</ele>
        <time>2021-07-11T07:56:56Z</time>
      </trkpt>
      <trkpt lat="45.9688" lon="2.81529">
        <ele>640.1</ele>
        <time>2021-07-11T07:56:57Z</time>
      </trkpt>
      <trkpt lat="45.96881" lon="2.81527">
        <ele>640</ele>
        <time>2021-07-11T07:56:58Z</time>
      </trkpt>
      <trkpt lat="45.96881" lon="2.81525">
        <ele>639.9</ele>
        <time>2021-07-11T07:56:59Z</time>
      </trkpt>
      <trkpt lat="45.96881" lon="2.81523">
        <ele>639.9</ele>
        <time>2021-07-11T07:57:00Z</time>
      </trkpt>
      <trkpt lat="45.96881" lon="2.81521">
        <ele>639.8</ele>
        <time>2021-07-11T07:57:01Z</time>
      </trkpt>
      <trkpt lat="45.9688" lon="2.81519">
        <ele>639.8</ele>
        <time>2021-07-11T07:57:02Z</time>
      </trkpt>
      <trkpt lat="45.9688" lon="2.81517">
        <ele>639.7</ele>
        <time>2021-07-11T07:57:03Z</time>
      </trkpt>
      <trkpt lat="45.9688" lon="2.81514">
        <ele>639.7</ele>
        <time>2021-07-11T07:57:04Z</time>
      </trkpt>
      <trkpt lat="45.9688" lon="2.81512">
        <ele>639.6</ele>
        <time>2021-07-11T07:57:05Z</time>
      </trkpt>
      <trkpt lat="45.9688" lon="2.8151">
        <ele>639.6</ele>
        <time>2021-07-11T07:57:06Z</time>
      </trkpt>
      <trkpt lat="45.9688" lon="2.81507">
        <ele>639.5</ele>
        <time>2021-07-11T07:57:07Z</time>
      </trkpt>
      <trkpt lat="45.96881" lon="2.81504">
        <ele>639.4</ele>
        <time>2021-07-11T07:57:08Z</time>
      </trkpt>
      <trkpt lat="45.96882" lon="2.81502">
        <ele>639.3</ele>
        <time>2021-07-11T07:57:09Z</time>
      </trkpt>
      <trkpt lat="45.96882" lon="2.81499">
        <ele>639.3</ele>
        <time>2021-07-11T07:57:10Z</time>
      </trkpt>
      <trkpt lat="45.96882" lon="2.81497">
        <ele>639.4</ele>
        <time>2021-07-11T07:57:11Z</time>
      </trkpt>
      <trkpt lat="45.96882" lon="2.81494">
        <ele>639.6</ele>
        <time>2021-07-11T07:57:12Z</time>
      </trkpt>
      <trkpt lat="45.96883" lon="2.81492">
        <ele>639.7</ele>
        <time>2021-07-11T07:57:13Z</time>
      </trkpt>
      <trkpt lat="45.96883" lon="2.81489">
        <ele>639.8</ele>
        <time>2021-07-11T07:57:14Z</time>
      </trkpt>
      <trkpt lat="45.96883" lon="2.81487">
        <ele>639.9</ele>
        <time>2021-07-11T07:57:15Z</time>
      </trkpt>
      <trkpt lat="45.96883" lon="2.81485">
        <ele>640.1</ele>
        <time>2021-07-11T07:57:16Z</time>
      </trkpt>
      <trkpt lat="45.96883" lon="2.81483">
        <ele>640.2</ele>
        <time>2021-07-11T07:57:17Z</time>
      </trkpt>
      <trkpt lat="45.96884" lon="2.81481">
        <ele>640.3</ele>
        <time>2021-07-11T07:57:18Z</time>
      </trkpt>
      <trkpt lat="45.96884" lon="2.81479">
        <ele>640.4</ele>
        <time>2021-07-11T07:57:19Z</time>
      </trkpt>
      <trkpt lat="45.96884" lon="2.81477">
        <ele>640.5</ele>
        <time>2021-07-11T07:57:20Z</time>
      </trkpt>
      <trkpt lat="45.96885" lon="2.81475">
        <ele>640.7</ele>
        <time>2021-07-11T07:57:21Z</time>
      </trkpt>
      <trkpt lat="45.96884" lon="2.81473">
        <ele>640.8</ele>
        <time>2021-07-11T07:57:22Z</time>
      </trkpt>
      <trkpt lat="45.96884" lon="2.81471">
        <ele>640.8</ele>
        <time>2021-07-11T07:57:23Z</time>
      </trkpt>
      <trkpt lat="45.96884" lon="2.8147">
        <ele>640.8</ele>
        <time>2021-07-11T07:57:24Z</time>
      </trkpt>
      <trkpt lat="45.96883" lon="2.81468">
        <ele>640.8</ele>
        <time>2021-07-11T07:57:25Z</time>
      </trkpt>
      <trkpt lat="45.96883" lon="2.81466">
        <ele>640.7</ele>
        <time>2021-07-11T07:57:26Z</time>
      </trkpt>
      <trkpt lat="45.96883" lon="2.81464">
        <ele>640.7</ele>
        <time>2021-07-11T07:57:27Z</time>
      </trkpt>
      <trkpt lat="45.96883" lon="2.81462">
        <ele>640.7</ele>
        <time>2021-07-11T07:57:28Z</time>
      </trkpt>
      <trkpt lat="45.96883" lon="2.8146">
        <ele>640.7</ele>
        <time>2021-07-11T07:57:29Z</time>
      </trkpt>
      <trkpt lat="45.96882" lon="2.81458">
        <ele>640.6</ele>
        <time>2021-07-11T07:57:30Z</time>
      </trkpt>
      <trkpt lat="45.96882" lon="2.81457">
        <ele>640.6</ele>
        <time>2021-07-11T07:57:31Z</time>
      </trkpt>
      <trkpt lat="45.96882" lon="2.81455">
        <ele>640.6</ele>
        <time>2021-07-11T07:57:32Z</time>
      </trkpt>
      <trkpt lat="45.96882" lon="2.81453">
        <ele>640.6</ele>
        <time>2021-07-11T07:57:33Z</time>
      </trkpt>
      <trkpt lat="45.96882" lon="2.81451">
        <ele>640.6</ele>
        <time>2021-07-11T07:57:34Z</time>
      </trkpt>
      <trkpt lat="45.96882" lon="2.81449">
        <ele>640.5</ele>
        <time>2021-07-11T07:57:35Z</time>
      </trkpt>
      <trkpt lat="45.96882" lon="2.81448">
        <ele>640.5</ele>
        <time>2021-07-11T07:57:36Z</time>
      </trkpt>
      <trkpt lat="45.96882" lon="2.81446">
        <ele>640.5</ele>
        <time>2021-07-11T07:57:37Z</time>
      </trkpt>
      <trkpt lat="45.96882" lon="2.81444">
        <ele>640.5</ele>
        <time>2021-07-11T07:57:38Z</time>
      </trkpt>
      <trkpt lat="45.96882" lon="2.81443">
        <ele>640.5</ele>
        <time>2021-07-11T07:57:39Z</time>
      </trkpt>
      <trkpt lat="45.96882" lon="2.81441">
        <ele>640.4</ele>
        <time>2021-07-11T07:57:40Z</time>
      </trkpt>
      <trkpt lat="45.96882" lon="2.81439">
        <ele>640.3</ele>
        <time>2021-07-11T07:57:41Z</time>
      </trkpt>
      <trkpt lat="45.96883" lon="2.81437">
        <ele>640.3</ele>
        <time>2021-07-11T07:57:42Z</time>
      </trkpt>
      <trkpt lat="45.96883" lon="2.81435">
        <ele>640.2</ele>
        <time>2021-07-11T07:57:43Z</time>
      </trkpt>
      <trkpt lat="45.96885" lon="2.81433">
        <ele>640.3</ele>
        <time>2021-07-11T07:57:44Z</time>
      </trkpt>
      <trkpt lat="45.96885" lon="2.81432">
        <ele>640.3</ele>
        <time>2021-07-11T07:57:45Z</time>
      </trkpt>
      <trkpt lat="45.96886" lon="2.81431">
        <ele>640.3</ele>
        <time>2021-07-11T07:57:47Z</time>
      </trkpt>
      <trkpt lat="45.96889" lon="2.81427">
        <ele>640.3</ele>
        <time>2021-07-11T07:57:48Z</time>
      </trkpt>
      <trkpt lat="45.96889" lon="2.81427">
        <ele>640.3</ele>
        <time>2021-07-11T07:57:49Z</time>
      </trkpt>
      <trkpt lat="45.96889" lon="2.81426">
        <ele>640.3</ele>
        <time>2021-07-11T07:57:50Z</time>
      </trkpt>
      <trkpt lat="45.96889" lon="2.81425">
        <ele>640.3</ele>
        <time>2021-07-11T07:57:51Z</time>
      </trkpt>
      <trkpt lat="45.9689" lon="2.81424">
        <ele>639.9</ele>
        <time>2021-07-11T07:57:52Z</time>
      </trkpt>
      <trkpt lat="45.9689" lon="2.81422">
        <ele>639.8</ele>
        <time>2021-07-11T07:57:53Z</time>
      </trkpt>
      <trkpt lat="45.9689" lon="2.81421">
        <ele>639.8</ele>
        <time>2021-07-11T07:57:54Z</time>
      </trkpt>
      <trkpt lat="45.96891" lon="2.81419">
        <ele>639.5</ele>
        <time>2021-07-11T07:57:55Z</time>
      </trkpt>
      <trkpt lat="45.96891" lon="2.81417">
        <ele>639.4</ele>
        <time>2021-07-11T07:57:56Z</time>
      </trkpt>
      <trkpt lat="45.96891" lon="2.81415">
        <ele>639.3</ele>
        <time>2021-07-11T07:57:57Z</time>
      </trkpt>
      <trkpt lat="45.96892" lon="2.81413">
        <ele>639</ele>
        <time>2021-07-11T07:57:58Z</time>
      </trkpt>
      <trkpt lat="45.96892" lon="2.81412">
        <ele>639</ele>
        <time>2021-07-11T07:57:59Z</time>
      </trkpt>
      <trkpt lat="45.96892" lon="2.8141">
        <ele>638.9</ele>
        <time>2021-07-11T07:58:00Z</time>
      </trkpt>
      <trkpt lat="45.96893" lon="2.81409">
        <ele>638.6</ele>
        <time>2021-07-11T07:58:01Z</time>
      </trkpt>
      <trkpt lat="45.96893" lon="2.81408">
        <ele>638.6</ele>
        <time>2021-07-11T07:58:02Z</time>
      </trkpt>
      <trkpt lat="45.96893" lon="2.81407">
        <ele>638.5</ele>
        <time>2021-07-11T07:58:03Z</time>
      </trkpt>
      <trkpt lat="45.96893" lon="2.81407">
        <ele>638.5</ele>
        <time>2021-07-11T07:58:04Z</time>
      </trkpt>
      <trkpt lat="45.96893" lon="2.81406">
        <ele>638.5</ele>
        <time>2021-07-11T07:58:05Z</time>
      </trkpt>
      <trkpt lat="45.96893" lon="2.81406">
        <ele>638.5</ele>
        <time>2021-07-11T07:58:06Z</time>
      </trkpt>
      <trkpt lat="45.96893" lon="2.81407">
        <ele>638.5</ele>
        <time>2021-07-11T07:58:07Z</time>
      </trkpt>
      <trkpt lat="45.96893" lon="2.81407">
        <ele>638.5</ele>
        <time>2021-07-11T07:58:08Z</time>
      </trkpt>
      <trkpt lat="45.96893" lon="2.81408">
        <ele>638.6</ele>
        <time>2021-07-11T07:58:09Z</time>
      </trkpt>
      <trkpt lat="45.96893" lon="2.81409">
        <ele>638.6</ele>
        <time>2021-07-11T07:58:10Z</time>
      </trkpt>
      <trkpt lat="45.96893" lon="2.8141">
        <ele>638.6</ele>
        <time>2021-07-11T07:58:11Z</time>
      </trkpt>
      <trkpt lat="45.96893" lon="2.81411">
        <ele>638.6</ele>
        <time>2021-07-11T07:58:12Z</time>
      </trkpt>
      <trkpt lat="45.96893" lon="2.81412">
        <ele>638.7</ele>
        <time>2021-07-11T07:58:13Z</time>
      </trkpt>
      <trkpt lat="45.96893" lon="2.81414">
        <ele>638.7</ele>
        <time>2021-07-11T07:58:14Z</time>
      </trkpt>
      <trkpt lat="45.96893" lon="2.81415">
        <ele>638.8</ele>
        <time>2021-07-11T07:58:15Z</time>
      </trkpt>
      <trkpt lat="45.96892" lon="2.81416">
        <ele>639.1</ele>
        <time>2021-07-11T07:58:16Z</time>
      </trkpt>
      <trkpt lat="45.96891" lon="2.81418">
        <ele>639.4</ele>
        <time>2021-07-11T07:58:17Z</time>
      </trkpt>
      <trkpt lat="45.96891" lon="2.81419">
        <ele>639.5</ele>
        <time>2021-07-11T07:58:18Z</time>
      </trkpt>
      <trkpt lat="45.9689" lon="2.8142">
        <ele>639.8</ele>
        <time>2021-07-11T07:58:19Z</time>
      </trkpt>
      <trkpt lat="45.96889" lon="2.81421">
        <ele>640.1</ele>
        <time>2021-07-11T07:58:20Z</time>
      </trkpt>
      <trkpt lat="45.96889" lon="2.81423">
        <ele>640.2</ele>
        <time>2021-07-11T07:58:21Z</time>
      </trkpt>
      <trkpt lat="45.96889" lon="2.81424">
        <ele>640.2</ele>
        <time>2021-07-11T07:58:22Z</time>
      </trkpt>
      <trkpt lat="45.96888" lon="2.81426">
        <ele>640.3</ele>
        <time>2021-07-11T07:58:23Z</time>
      </trkpt>
      <trkpt lat="45.96888" lon="2.81428">
        <ele>640.3</ele>
        <time>2021-07-11T07:58:24Z</time>
      </trkpt>
      <trkpt lat="45.96888" lon="2.81429">
        <ele>640.4</ele>
        <time>2021-07-11T07:58:25Z</time>
      </trkpt>
      <trkpt lat="45.96888" lon="2.81431">
        <ele>640.5</ele>
        <time>2021-07-11T07:58:26Z</time>
      </trkpt>
      <trkpt lat="45.96888" lon="2.81432">
        <ele>640.5</ele>
        <time>2021-07-11T07:58:27Z</time>
      </trkpt>
      <trkpt lat="45.96888" lon="2.81434">
        <ele>640.6</ele>
        <time>2021-07-11T07:58:27Z</time>
      </trkpt>
      <trkpt lat="45.96888" lon="2.81436">
        <ele>640.6</ele>
        <time>2021-07-11T07:58:28Z</time>
      </trkpt>
      <trkpt lat="45.96888" lon="2.81437">
        <ele>640.7</ele>
        <time>2021-07-11T07:58:29Z</time>
      </trkpt>
      <trkpt lat="45.96888" lon="2.81439">
        <ele>640.7</ele>
        <time>2021-07-11T07:58:30Z</time>
      </trkpt>
      <trkpt lat="45.96888" lon="2.81441">
        <ele>640.8</ele>
        <time>2021-07-11T07:58:31Z</time>
      </trkpt>
      <trkpt lat="45.96888" lon="2.81442">
        <ele>640.8</ele>
        <time>2021-07-11T07:58:32Z</time>
      </trkpt>
      <trkpt lat="45.96888" lon="2.81444">
        <ele>640.9</ele>
        <time>2021-07-11T07:58:33Z</time>
      </trkpt>
      <trkpt lat="45.96888" lon="2.81446">
        <ele>640.9</ele>
        <time>2021-07-11T07:58:34Z</time>
      </trkpt>
      <trkpt lat="45.96888" lon="2.81448">
        <ele>640.9</ele>
        <time>2021-07-11T07:58:35Z</time>
      </trkpt>
      <trkpt lat="45.96888" lon="2.8145">
        <ele>640.9</ele>
        <time>2021-07-11T07:58:36Z</time>
      </trkpt>
      <trkpt lat="45.96889" lon="2.81451">
        <ele>641</ele>
        <time>2021-07-11T07:58:37Z</time>
      </trkpt>
      <trkpt lat="45.96889" lon="2.81453">
        <ele>641</ele>
        <time>2021-07-11T07:58:38Z</time>
      </trkpt>
      <trkpt lat="45.96889" lon="2.81455">
        <ele>641</ele>
        <time>2021-07-11T07:58:39Z</time>
      </trkpt>
      <trkpt lat="45.96889" lon="2.81457">
        <ele>641</ele>
        <time>2021-07-11T07:58:40Z</time>
      </trkpt>
      <trkpt lat="45.96889" lon="2.81459">
        <ele>640.9</ele>
        <time>2021-07-11T07:58:41Z</time>
      </trkpt>
      <trkpt lat="45.96889" lon="2.81461">
        <ele>640.9</ele>
        <time>2021-07-11T07:58:42Z</time>
      </trkpt>
      <trkpt lat="45.96889" lon="2.81463">
        <ele>640.9</ele>
        <time>2021-07-11T07:58:43Z</time>
      </trkpt>
      <trkpt lat="45.96889" lon="2.81465">
        <ele>640.9</ele>
        <time>2021-07-11T07:58:44Z</time>
      </trkpt>
      <trkpt lat="45.96889" lon="2.81467">
        <ele>640.9</ele>
        <time>2021-07-11T07:58:45Z</time>
      </trkpt>
      <trkpt lat="45.96889" lon="2.81469">
        <ele>640.9</ele>
        <time>2021-07-11T07:58:46Z</time>
      </trkpt>
      <trkpt lat="45.96889" lon="2.81472">
        <ele>640.9</ele>
        <time>2021-07-11T07:58:47Z</time>
      </trkpt>
      <trkpt lat="45.96889" lon="2.81474">
        <ele>640.8</ele>
        <time>2021-07-11T07:58:48Z</time>
      </trkpt>
      <trkpt lat="45.96889" lon="2.81476">
        <ele>640.7</ele>
        <time>2021-07-11T07:58:49Z</time>
      </trkpt>
      <trkpt lat="45.96889" lon="2.81478">
        <ele>640.5</ele>
        <time>2021-07-11T07:58:50Z</time>
      </trkpt>
      <trkpt lat="45.96888" lon="2.8148">
        <ele>640.4</ele>
        <time>2021-07-11T07:58:51Z</time>
      </trkpt>
      <trkpt lat="45.96888" lon="2.81482">
        <ele>640.3</ele>
        <time>2021-07-11T07:58:52Z</time>
      </trkpt>
      <trkpt lat="45.96888" lon="2.81484">
        <ele>640.1</ele>
        <time>2021-07-11T07:58:53Z</time>
      </trkpt>
      <trkpt lat="45.96888" lon="2.81487">
        <ele>639.9</ele>
        <time>2021-07-11T07:58:54Z</time>
      </trkpt>
      <trkpt lat="45.96888" lon="2.81489">
        <ele>639.8</ele>
        <time>2021-07-11T07:58:55Z</time>
      </trkpt>
      <trkpt lat="45.96887" lon="2.81491">
        <ele>639.7</ele>
        <time>2021-07-11T07:58:56Z</time>
      </trkpt>
      <trkpt lat="45.96887" lon="2.81494">
        <ele>639.5</ele>
        <time>2021-07-11T07:58:57Z</time>
      </trkpt>
      <trkpt lat="45.96886" lon="2.81496">
        <ele>639.4</ele>
        <time>2021-07-11T07:58:58Z</time>
      </trkpt>
      <trkpt lat="45.96886" lon="2.81498">
        <ele>639.2</ele>
        <time>2021-07-11T07:58:59Z</time>
      </trkpt>
      <trkpt lat="45.96886" lon="2.81501">
        <ele>639.1</ele>
        <time>2021-07-11T07:59:00Z</time>
      </trkpt>
      <trkpt lat="45.96886" lon="2.81503">
        <ele>639.2</ele>
        <time>2021-07-11T07:59:01Z</time>
      </trkpt>
      <trkpt lat="45.96886" lon="2.81505">
        <ele>639.3</ele>
        <time>2021-07-11T07:59:02Z</time>
      </trkpt>
      <trkpt lat="45.96886" lon="2.81507">
        <ele>639.3</ele>
        <time>2021-07-11T07:59:03Z</time>
      </trkpt>
      <trkpt lat="45.96885" lon="2.81509">
        <ele>639.4</ele>
        <time>2021-07-11T07:59:04Z</time>
      </trkpt>
      <trkpt lat="45.96885" lon="2.81511">
        <ele>639.5</ele>
        <time>2021-07-11T07:59:05Z</time>
      </trkpt>
      <trkpt lat="45.96885" lon="2.81513">
        <ele>639.5</ele>
        <time>2021-07-11T07:59:06Z</time>
      </trkpt>
      <trkpt lat="45.96884" lon="2.81515">
        <ele>639.6</ele>
        <time>2021-07-11T07:59:07Z</time>
      </trkpt>
      <trkpt lat="45.96884" lon="2.81517">
        <ele>639.7</ele>
        <time>2021-07-11T07:59:08Z</time>
      </trkpt>
      <trkpt lat="45.96884" lon="2.81519">
        <ele>639.7</ele>
        <time>2021-07-11T07:59:09Z</time>
      </trkpt>
      <trkpt lat="45.96883" lon="2.81521">
        <ele>639.8</ele>
        <time>2021-07-11T07:59:10Z</time>
      </trkpt>
      <trkpt lat="45.96883" lon="2.81523">
        <ele>639.9</ele>
        <time>2021-07-11T07:59:11Z</time>
      </trkpt>
      <trkpt lat="45.96883" lon="2.81525">
        <ele>639.9</ele>
        <time>2021-07-11T07:59:12Z</time>
      </trkpt>
      <trkpt lat="45.96883" lon="2.81527">
        <ele>640</ele>
        <time>2021-07-11T07:59:13Z</time>
      </trkpt>
      <trkpt lat="45.96883" lon="2.81529">
        <ele>640.1</ele>
        <time>2021-07-11T07:59:14Z</time>
      </trkpt>
      <trkpt lat="45.96883" lon="2.81531">
        <ele>640.2</ele>
        <time>2021-07-11T07:59:15Z</time>
      </trkpt>
      <trkpt lat="45.96883" lon="2.81533">
        <ele>640.4</ele>
        <time>2021-07-11T07:59:16Z</time>
      </trkpt>
      <trkpt lat="45.96884" lon="2.81535">
        <ele>640.5</ele>
        <time>2021-07-11T07:59:17Z</time>
      </trkpt>
      <trkpt lat="45.96884" lon="2.81537">
        <ele>640.7</ele>
        <time>2021-07-11T07:59:18Z</time>
      </trkpt>
      <trkpt lat="45.96885" lon="2.81539">
        <ele>640.8</ele>
        <time>2021-07-11T07:59:19Z</time>
      </trkpt>
      <trkpt lat="45.96885" lon="2.81542">
        <ele>641</ele>
        <time>2021-07-11T07:59:20Z</time>
      </trkpt>
      <trkpt lat="45.96885" lon="2.81544">
        <ele>641.2</ele>
        <time>2021-07-11T07:59:21Z</time>
      </trkpt>
      <trkpt lat="45.96886" lon="2.81546">
        <ele>641.3</ele>
        <time>2021-07-11T07:59:22Z</time>
      </trkpt>
      <trkpt lat="45.96886" lon="2.81548">
        <ele>641.5</ele>
        <time>2021-07-11T07:59:23Z</time>
      </trkpt>
      <trkpt lat="45.96886" lon="2.8155">
        <ele>641.6</ele>
        <time>2021-07-11T07:59:24Z</time>
      </trkpt>
      <trkpt lat="45.96886" lon="2.81552">
        <ele>641.7</ele>
        <time>2021-07-11T07:59:25Z</time>
      </trkpt>
      <trkpt lat="45.96886" lon="2.81554">
        <ele>641.9</ele>
        <time>2021-07-11T07:59:26Z</time>
      </trkpt>
      <trkpt lat="45.96886" lon="2.81556">
        <ele>642</ele>
        <time>2021-07-11T07:59:27Z</time>
      </trkpt>
      <trkpt lat="45.96886" lon="2.81557">
        <ele>642.2</ele>
        <time>2021-07-11T07:59:28Z</time>
      </trkpt>
      <trkpt lat="45.96886" lon="2.81559">
        <ele>642.4</ele>
        <time>2021-07-11T07:59:29Z</time>
      </trkpt>
      <trkpt lat="45.96886" lon="2.81561">
        <ele>642.6</ele>
        <time>2021-07-11T07:59:30Z</time>
      </trkpt>
      <trkpt lat="45.96886" lon="2.81563">
        <ele>642.8</ele>
        <time>2021-07-11T07:59:31Z</time>
      </trkpt>
      <trkpt lat="45.96886" lon="2.81564">
        <ele>642.9</ele>
        <time>2021-07-11T07:59:32Z</time>
      </trkpt>
      <trkpt lat="45.96886" lon="2.81566">
        <ele>643.1</ele>
        <time>2021-07-11T07:59:33Z</time>
      </trkpt>
      <trkpt lat="45.96887" lon="2.81568">
        <ele>643.3</ele>
        <time>2021-07-11T07:59:34Z</time>
      </trkpt>
      <trkpt lat="45.96887" lon="2.8157">
        <ele>643.5</ele>
        <time>2021-07-11T07:59:35Z</time>
      </trkpt>
      <trkpt lat="45.96887" lon="2.81572">
        <ele>643.7</ele>
        <time>2021-07-11T07:59:36Z</time>
      </trkpt>
      <trkpt lat="45.96888" lon="2.81574">
        <ele>644</ele>
        <time>2021-07-11T07:59:37Z</time>
      </trkpt>
      <trkpt lat="45.96888" lon="2.81576">
        <ele>644.2</ele>
        <time>2021-07-11T07:59:38Z</time>
      </trkpt>
      <trkpt lat="45.96888" lon="2.81577">
        <ele>644.3</ele>
        <time>2021-07-11T07:59:39Z</time>
      </trkpt>
      <trkpt lat="45.96888" lon="2.81579">
        <ele>644.5</ele>
        <time>2021-07-11T07:59:40Z</time>
      </trkpt>
      <trkpt lat="45.96889" lon="2.81581">
        <ele>644.7</ele>
        <time>2021-07-11T07:59:41Z</time>
      </trkpt>
      <trkpt lat="45.96889" lon="2.81583">
        <ele>644.9</ele>
        <time>2021-07-11T07:59:42Z</time>
      </trkpt>
      <trkpt lat="45.96889" lon="2.81584">
        <ele>645</ele>
        <time>2021-07-11T07:59:43Z</time>
      </trkpt>
      <trkpt lat="45.96889" lon="2.81586">
        <ele>645.2</ele>
        <time>2021-07-11T07:59:44Z</time>
      </trkpt>
      <trkpt lat="45.96889" lon="2.81587">
        <ele>645.4</ele>
        <time>2021-07-11T07:59:45Z</time>
      </trkpt>
      <trkpt lat="45.96889" lon="2.81589">
        <ele>645.6</ele>
        <time>2021-07-11T07:59:46Z</time>
      </trkpt>
      <trkpt lat="45.96889" lon="2.81591">
        <ele>645.8</ele>
        <time>2021-07-11T07:59:48Z</time>
      </trkpt>
      <trkpt lat="45.96889" lon="2.81598">
        <ele>646.5</ele>
        <time>2021-07-11T07:59:49Z</time>
      </trkpt>
      <trkpt lat="45.96889" lon="2.81599">
        <ele>646.7</ele>
        <time>2021-07-11T07:59:50Z</time>
      </trkpt>
      <trkpt lat="45.9689" lon="2.816">
        <ele>646.4</ele>
        <time>2021-07-11T07:59:51Z</time>
      </trkpt>
      <trkpt lat="45.9689" lon="2.81601">
        <ele>646.5</ele>
        <time>2021-07-11T07:59:52Z</time>
      </trkpt>
      <trkpt lat="45.9689" lon="2.81603">
        <ele>646.7</ele>
        <time>2021-07-11T07:59:53Z</time>
      </trkpt>
      <trkpt lat="45.9689" lon="2.81604">
        <ele>646.8</ele>
        <time>2021-07-11T07:59:54Z</time>
      </trkpt>
      <trkpt lat="45.9689" lon="2.81606">
        <ele>647</ele>
        <time>2021-07-11T07:59:55Z</time>
      </trkpt>
      <trkpt lat="45.96891" lon="2.81608">
        <ele>646.9</ele>
        <time>2021-07-11T07:59:56Z</time>
      </trkpt>
      <trkpt lat="45.96891" lon="2.8161">
        <ele>647.1</ele>
        <time>2021-07-11T07:59:57Z</time>
      </trkpt>
      <trkpt lat="45.96891" lon="2.81611">
        <ele>647.2</ele>
        <time>2021-07-11T07:59:58Z</time>
      </trkpt>
      <trkpt lat="45.96892" lon="2.81613">
        <ele>647</ele>
        <time>2021-07-11T07:59:59Z</time>
      </trkpt>
      <trkpt lat="45.96892" lon="2.81615">
        <ele>647.2</ele>
        <time>2021-07-11T08:00:00Z</time>
      </trkpt>
      <trkpt lat="45.96893" lon="2.81617">
        <ele>647</ele>
        <time>2021-07-11T08:00:01Z</time>
      </trkpt>
      <trkpt lat="45.96893" lon="2.81618">
        <ele>647.1</ele>
        <time>2021-07-11T08:00:02Z</time>
      </trkpt>
      <trkpt lat="45.96894" lon="2.8162">
        <ele>646.9</ele>
        <time>2021-07-11T08:00:03Z</time>
      </trkpt>
      <trkpt lat="45.96894" lon="2.81622">
        <ele>647.1</ele>
        <time>2021-07-11T08:00:04Z</time>
      </trkpt>
      <trkpt lat="45.96894" lon="2.81623">
        <ele>647.2</ele>
        <time>2021-07-11T08:00:05Z</time>
      </trkpt>
      <trkpt lat="45.96894" lon="2.81625">
        <ele>647.3</ele>
        <time>2021-07-11T08:00:06Z</time>
      </trkpt>
      <trkpt lat="45.96894" lon="2.81627">
        <ele>647.5</ele>
        <time>2021-07-11T08:00:07Z</time>
      </trkpt>
      <trkpt lat="45.96894" lon="2.81628">
        <ele>647.6</ele>
        <time>2021-07-11T08:00:08Z</time>
      </trkpt>
      <trkpt lat="45.96894" lon="2.8163">
        <ele>647.8</ele>
        <time>2021-07-11T08:00:09Z</time>
      </trkpt>
      <trkpt lat="45.96895" lon="2.81632">
        <ele>647.6</ele>
        <time>2021-07-11T08:00:10Z</time>
      </trkpt>
      <trkpt lat="45.96895" lon="2.81634">
        <ele>647.8</ele>
        <time>2021-07-11T08:00:11Z</time>
      </trkpt>
      <trkpt lat="45.96895" lon="2.81635">
        <ele>647.9</ele>
        <time>2021-07-11T08:00:12Z</time>
      </trkpt>
      <trkpt lat="45.96895" lon="2.81637">
        <ele>648.1</ele>
        <time>2021-07-11T08:00:13Z</time>
      </trkpt>
      <trkpt lat="45.96895" lon="2.81639">
        <ele>648.3</ele>
        <time>2021-07-11T08:00:14Z</time>
      </trkpt>
      <trkpt lat="45.96895" lon="2.81641">
        <ele>648.5</ele>
        <time>2021-07-11T08:00:15Z</time>
      </trkpt>
      <trkpt lat="45.96895" lon="2.81642">
        <ele>648.6</ele>
        <time>2021-07-11T08:00:16Z</time>
      </trkpt>
      <trkpt lat="45.96896" lon="2.81644">
        <ele>648.6</ele>
        <time>2021-07-11T08:00:17Z</time>
      </trkpt>
      <trkpt lat="45.96896" lon="2.81646">
        <ele>648.8</ele>
        <time>2021-07-11T08:00:18Z</time>
      </trkpt>
      <trkpt lat="45.96896" lon="2.81648">
        <ele>649</ele>
        <time>2021-07-11T08:00:19Z</time>
      </trkpt>
      <trkpt lat="45.96896" lon="2.8165">
        <ele>649.3</ele>
        <time>2021-07-11T08:00:20Z</time>
      </trkpt>
      <trkpt lat="45.96896" lon="2.81651">
        <ele>649.4</ele>
        <time>2021-07-11T08:00:21Z</time>
      </trkpt>
      <trkpt lat="45.96896" lon="2.81653">
        <ele>649.6</ele>
        <time>2021-07-11T08:00:22Z</time>
      </trkpt>
      <trkpt lat="45.96896" lon="2.81656">
        <ele>650</ele>
        <time>2021-07-11T08:00:23Z</time>
      </trkpt>
      <trkpt lat="45.96896" lon="2.81658">
        <ele>650.2</ele>
        <time>2021-07-11T08:00:24Z</time>
      </trkpt>
      <trkpt lat="45.96896" lon="2.8166">
        <ele>650.4</ele>
        <time>2021-07-11T08:00:25Z</time>
      </trkpt>
      <trkpt lat="45.96896" lon="2.81662">
        <ele>650.7</ele>
        <time>2021-07-11T08:00:26Z</time>
      </trkpt>
      <trkpt lat="45.96896" lon="2.81664">
        <ele>650.9</ele>
        <time>2021-07-11T08:00:27Z</time>
      </trkpt>
      <trkpt lat="45.96896" lon="2.81666">
        <ele>651.1</ele>
        <time>2021-07-11T08:00:28Z</time>
      </trkpt>
      <trkpt lat="45.96897" lon="2.81669">
        <ele>651.1</ele>
        <time>2021-07-11T08:00:29Z</time>
      </trkpt>
      <trkpt lat="45.96897" lon="2.81671">
        <ele>651.2</ele>
        <time>2021-07-11T08:00:30Z</time>
      </trkpt>
      <trkpt lat="45.96897" lon="2.81673">
        <ele>651.3</ele>
        <time>2021-07-11T08:00:31Z</time>
      </trkpt>
      <trkpt lat="45.96897" lon="2.81676">
        <ele>651.4</ele>
        <time>2021-07-11T08:00:32Z</time>
      </trkpt>
      <trkpt lat="45.96897" lon="2.81677">
        <ele>651.5</ele>
        <time>2021-07-11T08:00:33Z</time>
      </trkpt>
      <trkpt lat="45.96897" lon="2.8168">
        <ele>651.6</ele>
        <time>2021-07-11T08:00:34Z</time>
      </trkpt>
      <trkpt lat="45.96897" lon="2.81682">
        <ele>651.7</ele>
        <time>2021-07-11T08:00:35Z</time>
      </trkpt>
      <trkpt lat="45.96897" lon="2.81684">
        <ele>651.8</ele>
        <time>2021-07-11T08:00:36Z</time>
      </trkpt>
      <trkpt lat="45.96897" lon="2.81686">
        <ele>651.9</ele>
        <time>2021-07-11T08:00:37Z</time>
      </trkpt>
      <trkpt lat="45.96897" lon="2.81688">
        <ele>652</ele>
        <time>2021-07-11T08:00:38Z</time>
      </trkpt>
      <trkpt lat="45.96896" lon="2.8169">
        <ele>652.5</ele>
        <time>2021-07-11T08:00:39Z</time>
      </trkpt>
      <trkpt lat="45.96896" lon="2.81692">
        <ele>652.6</ele>
        <time>2021-07-11T08:00:40Z</time>
      </trkpt>
      <trkpt lat="45.96895" lon="2.81694">
        <ele>653</ele>
        <time>2021-07-11T08:00:41Z</time>
      </trkpt>
      <trkpt lat="45.96894" lon="2.81696">
        <ele>653.5</ele>
        <time>2021-07-11T08:00:42Z</time>
      </trkpt>
      <trkpt lat="45.96894" lon="2.81697">
        <ele>653.6</ele>
        <time>2021-07-11T08:00:43Z</time>
      </trkpt>
      <trkpt lat="45.96893" lon="2.81699">
        <ele>654.2</ele>
        <time>2021-07-11T08:00:44Z</time>
      </trkpt>
      <trkpt lat="45.96893" lon="2.81701">
        <ele>654.4</ele>
        <time>2021-07-11T08:00:45Z</time>
      </trkpt>
      <trkpt lat="45.96892" lon="2.81703">
        <ele>654.9</ele>
        <time>2021-07-11T08:00:46Z</time>
      </trkpt>
      <trkpt lat="45.96891" lon="2.81704">
        <ele>655.3</ele>
        <time>2021-07-11T08:00:47Z</time>
      </trkpt>
      <trkpt lat="45.96891" lon="2.81706">
        <ele>655.6</ele>
        <time>2021-07-11T08:00:48Z</time>
      </trkpt>
      <trkpt lat="45.9689" lon="2.81708">
        <ele>656.1</ele>
        <time>2021-07-11T08:00:49Z</time>
      </trkpt>
      <trkpt lat="45.96889" lon="2.8171">
        <ele>656.6</ele>
        <time>2021-07-11T08:00:50Z</time>
      </trkpt>
      <trkpt lat="45.96889" lon="2.81711">
        <ele>656.8</ele>
        <time>2021-07-11T08:00:51Z</time>
      </trkpt>
      <trkpt lat="45.96888" lon="2.81713">
        <ele>656.9</ele>
        <time>2021-07-11T08:00:52Z</time>
      </trkpt>
      <trkpt lat="45.96888" lon="2.81715">
        <ele>657.1</ele>
        <time>2021-07-11T08:00:53Z</time>
      </trkpt>
      <trkpt lat="45.96887" lon="2.81716">
        <ele>657.1</ele>
        <time>2021-07-11T08:00:54Z</time>
      </trkpt>
      <trkpt lat="45.96886" lon="2.81718">
        <ele>657.2</ele>
        <time>2021-07-11T08:00:55Z</time>
      </trkpt>
      <trkpt lat="45.96886" lon="2.8172">
        <ele>657.5</ele>
        <time>2021-07-11T08:00:56Z</time>
      </trkpt>
      <trkpt lat="45.96886" lon="2.81722">
        <ele>657.7</ele>
        <time>2021-07-11T08:00:57Z</time>
      </trkpt>
      <trkpt lat="45.96885" lon="2.81724">
        <ele>657.7</ele>
        <time>2021-07-11T08:00:58Z</time>
      </trkpt>
      <trkpt lat="45.96885" lon="2.81726">
        <ele>657.9</ele>
        <time>2021-07-11T08:00:59Z</time>
      </trkpt>
      <trkpt lat="45.96884" lon="2.81728">
        <ele>657.9</ele>
        <time>2021-07-11T08:01:00Z</time>
      </trkpt>
      <trkpt lat="45.96883" lon="2.81729">
        <ele>657.9</ele>
        <time>2021-07-11T08:01:01Z</time>
      </trkpt>
      <trkpt lat="45.96883" lon="2.81731">
        <ele>658.1</ele>
        <time>2021-07-11T08:01:02Z</time>
      </trkpt>
      <trkpt lat="45.96882" lon="2.81733">
        <ele>658.1</ele>
        <time>2021-07-11T08:01:03Z</time>
      </trkpt>
      <trkpt lat="45.96882" lon="2.81735">
        <ele>658.3</ele>
        <time>2021-07-11T08:01:04Z</time>
      </trkpt>
      <trkpt lat="45.96882" lon="2.81737">
        <ele>658.5</ele>
        <time>2021-07-11T08:01:05Z</time>
      </trkpt>
      <trkpt lat="45.96881" lon="2.81739">
        <ele>658.5</ele>
        <time>2021-07-11T08:01:06Z</time>
      </trkpt>
      <trkpt lat="45.9688" lon="2.81741">
        <ele>658.6</ele>
        <time>2021-07-11T08:01:07Z</time>
      </trkpt>
      <trkpt lat="45.9688" lon="2.81743">
        <ele>658.8</ele>
        <time>2021-07-11T08:01:08Z</time>
      </trkpt>
      <trkpt lat="45.96879" lon="2.81744">
        <ele>658.8</ele>
        <time>2021-07-11T08:01:09Z</time>
      </trkpt>
      <trkpt lat="45.96879" lon="2.81746">
        <ele>658.9</ele>
        <time>2021-07-11T08:01:10Z</time>
      </trkpt>
      <trkpt lat="45.96879" lon="2.81748">
        <ele>659.1</ele>
        <time>2021-07-11T08:01:11Z</time>
      </trkpt>
      <trkpt lat="45.96878" lon="2.8175">
        <ele>659.2</ele>
        <time>2021-07-11T08:01:12Z</time>
      </trkpt>
      <trkpt lat="45.96878" lon="2.81752">
        <ele>659.4</ele>
        <time>2021-07-11T08:01:13Z</time>
      </trkpt>
      <trkpt lat="45.96878" lon="2.81754">
        <ele>659.5</ele>
        <time>2021-07-11T08:01:14Z</time>
      </trkpt>
      <trkpt lat="45.96878" lon="2.81756">
        <ele>659.6</ele>
        <time>2021-07-11T08:01:15Z</time>
      </trkpt>
      <trkpt lat="45.96878" lon="2.81758">
        <ele>659.8</ele>
        <time>2021-07-11T08:01:16Z</time>
      </trkpt>
      <trkpt lat="45.96877" lon="2.8176">
        <ele>659.9</ele>
        <time>2021-07-11T08:01:17Z</time>
      </trkpt>
      <trkpt lat="45.96877" lon="2.81761">
        <ele>659.9</ele>
        <time>2021-07-11T08:01:18Z</time>
      </trkpt>
      <trkpt lat="45.96877" lon="2.81763">
        <ele>660.1</ele>
        <time>2021-07-11T08:01:19Z</time>
      </trkpt>
      <trkpt lat="45.96876" lon="2.81765">
        <ele>660.2</ele>
        <time>2021-07-11T08:01:20Z</time>
      </trkpt>
      <trkpt lat="45.96876" lon="2.81767">
        <ele>660.3</ele>
        <time>2021-07-11T08:01:21Z</time>
      </trkpt>
      <trkpt lat="45.96876" lon="2.81768">
        <ele>660.4</ele>
        <time>2021-07-11T08:01:22Z</time>
      </trkpt>
      <trkpt lat="45.96875" lon="2.8177">
        <ele>660.4</ele>
        <time>2021-07-11T08:01:23Z</time>
      </trkpt>
      <trkpt lat="45.96875" lon="2.81771">
        <ele>660.5</ele>
        <time>2021-07-11T08:01:24Z</time>
      </trkpt>
      <trkpt lat="45.96874" lon="2.81773">
        <ele>660.6</ele>
        <time>2021-07-11T08:01:25Z</time>
      </trkpt>
      <trkpt lat="45.96874" lon="2.81775">
        <ele>660.7</ele>
        <time>2021-07-11T08:01:26Z</time>
      </trkpt>
      <trkpt lat="45.96874" lon="2.81776">
        <ele>660.8</ele>
        <time>2021-07-11T08:01:27Z</time>
      </trkpt>
      <trkpt lat="45.96874" lon="2.81778">
        <ele>660.9</ele>
        <time>2021-07-11T08:01:28Z</time>
      </trkpt>
      <trkpt lat="45.96873" lon="2.8178">
        <ele>660.9</ele>
        <time>2021-07-11T08:01:29Z</time>
      </trkpt>
      <trkpt lat="45.96873" lon="2.81781">
        <ele>661</ele>
        <time>2021-07-11T08:01:30Z</time>
      </trkpt>
      <trkpt lat="45.96873" lon="2.81783">
        <ele>661.1</ele>
        <time>2021-07-11T08:01:31Z</time>
      </trkpt>
      <trkpt lat="45.96872" lon="2.81785">
        <ele>661.1</ele>
        <time>2021-07-11T08:01:32Z</time>
      </trkpt>
      <trkpt lat="45.96872" lon="2.81786">
        <ele>661.1</ele>
        <time>2021-07-11T08:01:33Z</time>
      </trkpt>
      <trkpt lat="45.96872" lon="2.81788">
        <ele>661.2</ele>
        <time>2021-07-11T08:01:34Z</time>
      </trkpt>
      <trkpt lat="45.96871" lon="2.81789">
        <ele>661.2</ele>
        <time>2021-07-11T08:01:35Z</time>
      </trkpt>
      <trkpt lat="45.96871" lon="2.81791">
        <ele>661.3</ele>
        <time>2021-07-11T08:01:36Z</time>
      </trkpt>
      <trkpt lat="45.9687" lon="2.81792">
        <ele>661.3</ele>
        <time>2021-07-11T08:01:37Z</time>
      </trkpt>
      <trkpt lat="45.96869" lon="2.81794">
        <ele>661.4</ele>
        <time>2021-07-11T08:01:38Z</time>
      </trkpt>
      <trkpt lat="45.96869" lon="2.81795">
        <ele>661.5</ele>
        <time>2021-07-11T08:01:39Z</time>
      </trkpt>
      <trkpt lat="45.96868" lon="2.81797">
        <ele>661.5</ele>
        <time>2021-07-11T08:01:40Z</time>
      </trkpt>
      <trkpt lat="45.96867" lon="2.81799">
        <ele>661.6</ele>
        <time>2021-07-11T08:01:41Z</time>
      </trkpt>
      <trkpt lat="45.96866" lon="2.818">
        <ele>661.7</ele>
        <time>2021-07-11T08:01:42Z</time>
      </trkpt>
      <trkpt lat="45.96865" lon="2.81802">
        <ele>661.8</ele>
        <time>2021-07-11T08:01:43Z</time>
      </trkpt>
      <trkpt lat="45.96864" lon="2.81804">
        <ele>661.9</ele>
        <time>2021-07-11T08:01:44Z</time>
      </trkpt>
      <trkpt lat="45.96863" lon="2.81805">
        <ele>662</ele>
        <time>2021-07-11T08:01:45Z</time>
      </trkpt>
      <trkpt lat="45.96862" lon="2.81807">
        <ele>662.1</ele>
        <time>2021-07-11T08:01:47Z</time>
      </trkpt>
      <trkpt lat="45.96858" lon="2.81814">
        <ele>662.6</ele>
        <time>2021-07-11T08:01:48Z</time>
      </trkpt>
      <trkpt lat="45.96858" lon="2.81815">
        <ele>662.7</ele>
        <time>2021-07-11T08:01:49Z</time>
      </trkpt>
      <trkpt lat="45.96858" lon="2.81816">
        <ele>662.8</ele>
        <time>2021-07-11T08:01:50Z</time>
      </trkpt>
      <trkpt lat="45.96858" lon="2.81817">
        <ele>662.9</ele>
        <time>2021-07-11T08:01:51Z</time>
      </trkpt>
      <trkpt lat="45.96857" lon="2.81818">
        <ele>663</ele>
        <time>2021-07-11T08:01:52Z</time>
      </trkpt>
      <trkpt lat="45.96856" lon="2.8182">
        <ele>663.1</ele>
        <time>2021-07-11T08:01:53Z</time>
      </trkpt>
      <trkpt lat="45.96855" lon="2.81821">
        <ele>663.2</ele>
        <time>2021-07-11T08:01:54Z</time>
      </trkpt>
      <trkpt lat="45.96854" lon="2.81823">
        <ele>663.4</ele>
        <time>2021-07-11T08:01:55Z</time>
      </trkpt>
      <trkpt lat="45.96853" lon="2.81825">
        <ele>663.6</ele>
        <time>2021-07-11T08:01:56Z</time>
      </trkpt>
      <trkpt lat="45.96852" lon="2.81826">
        <ele>663.7</ele>
        <time>2021-07-11T08:01:57Z</time>
      </trkpt>
      <trkpt lat="45.96851" lon="2.81828">
        <ele>663.9</ele>
        <time>2021-07-11T08:01:58Z</time>
      </trkpt>
      <trkpt lat="45.9685" lon="2.81829">
        <ele>664</ele>
        <time>2021-07-11T08:01:59Z</time>
      </trkpt>
      <trkpt lat="45.96849" lon="2.81831">
        <ele>664.2</ele>
        <time>2021-07-11T08:02:00Z</time>
      </trkpt>
      <trkpt lat="45.96848" lon="2.81832">
        <ele>664.4</ele>
        <time>2021-07-11T08:02:01Z</time>
      </trkpt>
      <trkpt lat="45.96847" lon="2.81834">
        <ele>664.6</ele>
        <time>2021-07-11T08:02:02Z</time>
      </trkpt>
      <trkpt lat="45.96846" lon="2.81835">
        <ele>664.8</ele>
        <time>2021-07-11T08:02:03Z</time>
      </trkpt>
      <trkpt lat="45.96845" lon="2.81837">
        <ele>665.1</ele>
        <time>2021-07-11T08:02:04Z</time>
      </trkpt>
      <trkpt lat="45.96844" lon="2.81838">
        <ele>665.2</ele>
        <time>2021-07-11T08:02:05Z</time>
      </trkpt>
      <trkpt lat="45.96843" lon="2.8184">
        <ele>665.5</ele>
        <time>2021-07-11T08:02:06Z</time>
      </trkpt>
      <trkpt lat="45.96842" lon="2.81841">
        <ele>665.7</ele>
        <time>2021-07-11T08:02:07Z</time>
      </trkpt>
      <trkpt lat="45.96841" lon="2.81843">
        <ele>666</ele>
        <time>2021-07-11T08:02:08Z</time>
      </trkpt>
      <trkpt lat="45.9684" lon="2.81844">
        <ele>666.2</ele>
        <time>2021-07-11T08:02:09Z</time>
      </trkpt>
      <trkpt lat="45.9684" lon="2.81846">
        <ele>666.5</ele>
        <time>2021-07-11T08:02:10Z</time>
      </trkpt>
      <trkpt lat="45.96839" lon="2.81847">
        <ele>666.7</ele>
        <time>2021-07-11T08:02:11Z</time>
      </trkpt>
      <trkpt lat="45.96838" lon="2.81849">
        <ele>667</ele>
        <time>2021-07-11T08:02:12Z</time>
      </trkpt>
      <trkpt lat="45.96838" lon="2.8185">
        <ele>667.1</ele>
        <time>2021-07-11T08:02:13Z</time>
      </trkpt>
      <trkpt lat="45.96837" lon="2.81852">
        <ele>667.5</ele>
        <time>2021-07-11T08:02:14Z</time>
      </trkpt>
      <trkpt lat="45.96837" lon="2.81853">
        <ele>667.6</ele>
        <time>2021-07-11T08:02:15Z</time>
      </trkpt>
      <trkpt lat="45.96836" lon="2.81855">
        <ele>667.9</ele>
        <time>2021-07-11T08:02:16Z</time>
      </trkpt>
      <trkpt lat="45.96835" lon="2.81857">
        <ele>668.3</ele>
        <time>2021-07-11T08:02:17Z</time>
      </trkpt>
      <trkpt lat="45.96834" lon="2.81858">
        <ele>668.5</ele>
        <time>2021-07-11T08:02:18Z</time>
      </trkpt>
      <trkpt lat="45.96833" lon="2.8186">
        <ele>668.8</ele>
        <time>2021-07-11T08:02:19Z</time>
      </trkpt>
      <trkpt lat="45.96832" lon="2.81862">
        <ele>669</ele>
        <time>2021-07-11T08:02:20Z</time>
      </trkpt>
      <trkpt lat="45.96831" lon="2.81863">
        <ele>669</ele>
        <time>2021-07-11T08:02:21Z</time>
      </trkpt>
      <trkpt lat="45.96831" lon="2.81865">
        <ele>669.1</ele>
        <time>2021-07-11T08:02:22Z</time>
      </trkpt>
      <trkpt lat="45.9683" lon="2.81867">
        <ele>669.2</ele>
        <time>2021-07-11T08:02:23Z</time>
      </trkpt>
      <trkpt lat="45.96829" lon="2.81868">
        <ele>669.2</ele>
        <time>2021-07-11T08:02:24Z</time>
      </trkpt>
      <trkpt lat="45.96828" lon="2.8187">
        <ele>669.3</ele>
        <time>2021-07-11T08:02:25Z</time>
      </trkpt>
      <trkpt lat="45.96827" lon="2.81872">
        <ele>669.4</ele>
        <time>2021-07-11T08:02:26Z</time>
      </trkpt>
      <trkpt lat="45.96827" lon="2.81874">
        <ele>669.6</ele>
        <time>2021-07-11T08:02:27Z</time>
      </trkpt>
      <trkpt lat="45.96826" lon="2.81875">
        <ele>669.6</ele>
        <time>2021-07-11T08:02:28Z</time>
      </trkpt>
      <trkpt lat="45.96825" lon="2.81877">
        <ele>669.7</ele>
        <time>2021-07-11T08:02:29Z</time>
      </trkpt>
      <trkpt lat="45.96824" lon="2.81879">
        <ele>669.8</ele>
        <time>2021-07-11T08:02:30Z</time>
      </trkpt>
      <trkpt lat="45.96823" lon="2.81881">
        <ele>670</ele>
        <time>2021-07-11T08:02:31Z</time>
      </trkpt>
      <trkpt lat="45.96822" lon="2.81883">
        <ele>670.1</ele>
        <time>2021-07-11T08:02:32Z</time>
      </trkpt>
      <trkpt lat="45.96822" lon="2.81884">
        <ele>670.2</ele>
        <time>2021-07-11T08:02:33Z</time>
      </trkpt>
      <trkpt lat="45.96822" lon="2.81886">
        <ele>670.3</ele>
        <time>2021-07-11T08:02:34Z</time>
      </trkpt>
      <trkpt lat="45.96821" lon="2.81888">
        <ele>670.5</ele>
        <time>2021-07-11T08:02:35Z</time>
      </trkpt>
      <trkpt lat="45.9682" lon="2.8189">
        <ele>670.6</ele>
        <time>2021-07-11T08:02:36Z</time>
      </trkpt>
      <trkpt lat="45.9682" lon="2.81891">
        <ele>670.7</ele>
        <time>2021-07-11T08:02:37Z</time>
      </trkpt>
      <trkpt lat="45.96819" lon="2.81893">
        <ele>670.8</ele>
        <time>2021-07-11T08:02:38Z</time>
      </trkpt>
      <trkpt lat="45.96819" lon="2.81895">
        <ele>670.9</ele>
        <time>2021-07-11T08:02:39Z</time>
      </trkpt>
      <trkpt lat="45.96819" lon="2.81897">
        <ele>671.1</ele>
        <time>2021-07-11T08:02:40Z</time>
      </trkpt>
      <trkpt lat="45.96819" lon="2.81899">
        <ele>671.2</ele>
        <time>2021-07-11T08:02:41Z</time>
      </trkpt>
      <trkpt lat="45.96819" lon="2.81901">
        <ele>671.4</ele>
        <time>2021-07-11T08:02:42Z</time>
      </trkpt>
      <trkpt lat="45.96818" lon="2.81903">
        <ele>671.5</ele>
        <time>2021-07-11T08:02:42Z</time>
      </trkpt>
      <trkpt lat="45.96818" lon="2.81905">
        <ele>671.6</ele>
        <time>2021-07-11T08:02:43Z</time>
      </trkpt>
      <trkpt lat="45.96818" lon="2.81907">
        <ele>671.8</ele>
        <time>2021-07-11T08:02:44Z</time>
      </trkpt>
      <trkpt lat="45.96818" lon="2.81909">
        <ele>671.9</ele>
        <time>2021-07-11T08:02:45Z</time>
      </trkpt>
      <trkpt lat="45.96818" lon="2.81911">
        <ele>672</ele>
        <time>2021-07-11T08:02:47Z</time>
      </trkpt>
      <trkpt lat="45.96817" lon="2.81919">
        <ele>672.5</ele>
        <time>2021-07-11T08:02:48Z</time>
      </trkpt>
      <trkpt lat="45.96817" lon="2.8192">
        <ele>672.5</ele>
        <time>2021-07-11T08:02:49Z</time>
      </trkpt>
      <trkpt lat="45.96817" lon="2.81921">
        <ele>672.5</ele>
        <time>2021-07-11T08:02:50Z</time>
      </trkpt>
      <trkpt lat="45.96817" lon="2.81923">
        <ele>672.5</ele>
        <time>2021-07-11T08:02:51Z</time>
      </trkpt>
      <trkpt lat="45.96817" lon="2.81924">
        <ele>672.6</ele>
        <time>2021-07-11T08:02:52Z</time>
      </trkpt>
      <trkpt lat="45.96816" lon="2.81926">
        <ele>672.6</ele>
        <time>2021-07-11T08:02:53Z</time>
      </trkpt>
      <trkpt lat="45.96816" lon="2.81928">
        <ele>672.6</ele>
        <time>2021-07-11T08:02:54Z</time>
      </trkpt>
      <trkpt lat="45.96816" lon="2.8193">
        <ele>672.7</ele>
        <time>2021-07-11T08:02:55Z</time>
      </trkpt>
      <trkpt lat="45.96816" lon="2.81932">
        <ele>672.7</ele>
        <time>2021-07-11T08:02:56Z</time>
      </trkpt>
      <trkpt lat="45.96815" lon="2.81934">
        <ele>672.8</ele>
        <time>2021-07-11T08:02:57Z</time>
      </trkpt>
      <trkpt lat="45.96814" lon="2.81936">
        <ele>672.8</ele>
        <time>2021-07-11T08:02:58Z</time>
      </trkpt>
      <trkpt lat="45.96814" lon="2.81938">
        <ele>672.8</ele>
        <time>2021-07-11T08:02:59Z</time>
      </trkpt>
      <trkpt lat="45.96814" lon="2.8194">
        <ele>672.9</ele>
        <time>2021-07-11T08:03:00Z</time>
      </trkpt>
      <trkpt lat="45.96813" lon="2.81942">
        <ele>672.9</ele>
        <time>2021-07-11T08:03:01Z</time>
      </trkpt>
      <trkpt lat="45.96813" lon="2.81944">
        <ele>673</ele>
        <time>2021-07-11T08:03:02Z</time>
      </trkpt>
      <trkpt lat="45.96813" lon="2.81946">
        <ele>673</ele>
        <time>2021-07-11T08:03:03Z</time>
      </trkpt>
      <trkpt lat="45.96813" lon="2.81948">
        <ele>673.1</ele>
        <time>2021-07-11T08:03:04Z</time>
      </trkpt>
      <trkpt lat="45.96812" lon="2.8195">
        <ele>673.2</ele>
        <time>2021-07-11T08:03:05Z</time>
      </trkpt>
      <trkpt lat="45.96812" lon="2.81952">
        <ele>673.2</ele>
        <time>2021-07-11T08:03:06Z</time>
      </trkpt>
      <trkpt lat="45.96812" lon="2.81954">
        <ele>673.3</ele>
        <time>2021-07-11T08:03:07Z</time>
      </trkpt>
      <trkpt lat="45.96812" lon="2.81956">
        <ele>673.3</ele>
        <time>2021-07-11T08:03:08Z</time>
      </trkpt>
      <trkpt lat="45.96811" lon="2.81958">
        <ele>673.4</ele>
        <time>2021-07-11T08:03:09Z</time>
      </trkpt>
      <trkpt lat="45.96811" lon="2.8196">
        <ele>673.5</ele>
        <time>2021-07-11T08:03:10Z</time>
      </trkpt>
      <trkpt lat="45.96811" lon="2.81962">
        <ele>673.5</ele>
        <time>2021-07-11T08:03:11Z</time>
      </trkpt>
      <trkpt lat="45.96811" lon="2.81964">
        <ele>673.6</ele>
        <time>2021-07-11T08:03:12Z</time>
      </trkpt>
      <trkpt lat="45.96811" lon="2.81966">
        <ele>673.6</ele>
        <time>2021-07-11T08:03:13Z</time>
      </trkpt>
      <trkpt lat="45.96811" lon="2.81968">
        <ele>673.7</ele>
        <time>2021-07-11T08:03:14Z</time>
      </trkpt>
      <trkpt lat="45.96811" lon="2.8197">
        <ele>673.7</ele>
        <time>2021-07-11T08:03:15Z</time>
      </trkpt>
      <trkpt lat="45.9681" lon="2.81972">
        <ele>673.8</ele>
        <time>2021-07-11T08:03:16Z</time>
      </trkpt>
      <trkpt lat="45.9681" lon="2.81974">
        <ele>673.8</ele>
        <time>2021-07-11T08:03:17Z</time>
      </trkpt>
      <trkpt lat="45.9681" lon="2.81976">
        <ele>673.7</ele>
        <time>2021-07-11T08:03:18Z</time>
      </trkpt>
      <trkpt lat="45.9681" lon="2.81978">
        <ele>673.6</ele>
        <time>2021-07-11T08:03:19Z</time>
      </trkpt>
      <trkpt lat="45.96811" lon="2.8198">
        <ele>673.5</ele>
        <time>2021-07-11T08:03:20Z</time>
      </trkpt>
      <trkpt lat="45.96811" lon="2.81982">
        <ele>673.4</ele>
        <time>2021-07-11T08:03:21Z</time>
      </trkpt>
      <trkpt lat="45.96811" lon="2.81984">
        <ele>673.3</ele>
        <time>2021-07-11T08:03:22Z</time>
      </trkpt>
      <trkpt lat="45.96811" lon="2.81986">
        <ele>673.2</ele>
        <time>2021-07-11T08:03:23Z</time>
      </trkpt>
      <trkpt lat="45.96811" lon="2.81988">
        <ele>673.1</ele>
        <time>2021-07-11T08:03:24Z</time>
      </trkpt>
      <trkpt lat="45.96811" lon="2.8199">
        <ele>673</ele>
        <time>2021-07-11T08:03:25Z</time>
      </trkpt>
      <trkpt lat="45.96811" lon="2.81992">
        <ele>673</ele>
        <time>2021-07-11T08:03:26Z</time>
      </trkpt>
      <trkpt lat="45.96811" lon="2.81994">
        <ele>672.9</ele>
        <time>2021-07-11T08:03:27Z</time>
      </trkpt>
      <trkpt lat="45.9681" lon="2.81996">
        <ele>672.8</ele>
        <time>2021-07-11T08:03:28Z</time>
      </trkpt>
      <trkpt lat="45.9681" lon="2.81999">
        <ele>672.7</ele>
        <time>2021-07-11T08:03:29Z</time>
      </trkpt>
      <trkpt lat="45.9681" lon="2.82001">
        <ele>672.7</ele>
        <time>2021-07-11T08:03:30Z</time>
      </trkpt>
      <trkpt lat="45.9681" lon="2.82003">
        <ele>672.7</ele>
        <time>2021-07-11T08:03:31Z</time>
      </trkpt>
      <trkpt lat="45.9681" lon="2.82005">
        <ele>672.7</ele>
        <time>2021-07-11T08:03:32Z</time>
      </trkpt>
      <trkpt lat="45.9681" lon="2.82007">
        <ele>672.6</ele>
        <time>2021-07-11T08:03:33Z</time>
      </trkpt>
      <trkpt lat="45.9681" lon="2.8201">
        <ele>672.6</ele>
        <time>2021-07-11T08:03:34Z</time>
      </trkpt>
      <trkpt lat="45.9681" lon="2.82012">
        <ele>672.6</ele>
        <time>2021-07-11T08:03:35Z</time>
      </trkpt>
      <trkpt lat="45.9681" lon="2.82014">
        <ele>672.6</ele>
        <time>2021-07-11T08:03:36Z</time>
      </trkpt>
      <trkpt lat="45.9681" lon="2.82017">
        <ele>672.6</ele>
        <time>2021-07-11T08:03:37Z</time>
      </trkpt>
      <trkpt lat="45.9681" lon="2.82019">
        <ele>672.6</ele>
        <time>2021-07-11T08:03:38Z</time>
      </trkpt>
      <trkpt lat="45.9681" lon="2.82022">
        <ele>672.6</ele>
        <time>2021-07-11T08:03:39Z</time>
      </trkpt>
      <trkpt lat="45.9681" lon="2.82024">
        <ele>672.5</ele>
        <time>2021-07-11T08:03:40Z</time>
      </trkpt>
      <trkpt lat="45.96811" lon="2.82026">
        <ele>672.4</ele>
        <time>2021-07-11T08:03:41Z</time>
      </trkpt>
      <trkpt lat="45.96811" lon="2.82028">
        <ele>672.4</ele>
        <time>2021-07-11T08:03:42Z</time>
      </trkpt>
      <trkpt lat="45.96811" lon="2.82031">
        <ele>672.3</ele>
        <time>2021-07-11T08:03:43Z</time>
      </trkpt>
      <trkpt lat="45.96811" lon="2.82033">
        <ele>672.2</ele>
        <time>2021-07-11T08:03:44Z</time>
      </trkpt>
      <trkpt lat="45.96811" lon="2.82036">
        <ele>672.1</ele>
        <time>2021-07-11T08:03:46Z</time>
      </trkpt>
      <trkpt lat="45.96812" lon="2.82045">
        <ele>671.7</ele>
        <time>2021-07-11T08:03:47Z</time>
      </trkpt>
      <trkpt lat="45.96812" lon="2.82046">
        <ele>671.6</ele>
        <time>2021-07-11T08:03:48Z</time>
      </trkpt>
      <trkpt lat="45.96812" lon="2.82047">
        <ele>671.6</ele>
        <time>2021-07-11T08:03:49Z</time>
      </trkpt>
      <trkpt lat="45.96812" lon="2.82048">
        <ele>671.6</ele>
        <time>2021-07-11T08:03:50Z</time>
      </trkpt>
      <trkpt lat="45.96813" lon="2.8205">
        <ele>671.4</ele>
        <time>2021-07-11T08:03:51Z</time>
      </trkpt>
      <trkpt lat="45.96813" lon="2.82052">
        <ele>671.3</ele>
        <time>2021-07-11T08:03:52Z</time>
      </trkpt>
      <trkpt lat="45.96813" lon="2.82054">
        <ele>671.3</ele>
        <time>2021-07-11T08:03:53Z</time>
      </trkpt>
      <trkpt lat="45.96814" lon="2.82056">
        <ele>671.1</ele>
        <time>2021-07-11T08:03:54Z</time>
      </trkpt>
      <trkpt lat="45.96814" lon="2.82057">
        <ele>671.1</ele>
        <time>2021-07-11T08:03:55Z</time>
      </trkpt>
      <trkpt lat="45.96815" lon="2.82059">
        <ele>671.1</ele>
        <time>2021-07-11T08:03:56Z</time>
      </trkpt>
      <trkpt lat="45.96816" lon="2.82061">
        <ele>671.1</ele>
        <time>2021-07-11T08:03:57Z</time>
      </trkpt>
      <trkpt lat="45.96816" lon="2.82063">
        <ele>671.1</ele>
        <time>2021-07-11T08:03:58Z</time>
      </trkpt>
      <trkpt lat="45.96816" lon="2.82065">
        <ele>671.2</ele>
        <time>2021-07-11T08:03:59Z</time>
      </trkpt>
      <trkpt lat="45.96817" lon="2.82067">
        <ele>671.2</ele>
        <time>2021-07-11T08:04:00Z</time>
      </trkpt>
      <trkpt lat="45.96817" lon="2.82069">
        <ele>671.2</ele>
        <time>2021-07-11T08:04:01Z</time>
      </trkpt>
      <trkpt lat="45.96817" lon="2.82071">
        <ele>671.3</ele>
        <time>2021-07-11T08:04:02Z</time>
      </trkpt>
      <trkpt lat="45.96818" lon="2.82073">
        <ele>671.3</ele>
        <time>2021-07-11T08:04:03Z</time>
      </trkpt>
      <trkpt lat="45.96819" lon="2.82075">
        <ele>671.2</ele>
        <time>2021-07-11T08:04:04Z</time>
      </trkpt>
      <trkpt lat="45.96819" lon="2.82077">
        <ele>671.3</ele>
        <time>2021-07-11T08:04:05Z</time>
      </trkpt>
      <trkpt lat="45.96819" lon="2.82079">
        <ele>671.4</ele>
        <time>2021-07-11T08:04:06Z</time>
      </trkpt>
      <trkpt lat="45.9682" lon="2.82081">
        <ele>671.4</ele>
        <time>2021-07-11T08:04:07Z</time>
      </trkpt>
      <trkpt lat="45.96821" lon="2.82083">
        <ele>671.3</ele>
        <time>2021-07-11T08:04:08Z</time>
      </trkpt>
      <trkpt lat="45.96822" lon="2.82085">
        <ele>671.3</ele>
        <time>2021-07-11T08:04:09Z</time>
      </trkpt>
      <trkpt lat="45.96822" lon="2.82088">
        <ele>671.4</ele>
        <time>2021-07-11T08:04:10Z</time>
      </trkpt>
      <trkpt lat="45.96823" lon="2.8209">
        <ele>671.4</ele>
        <time>2021-07-11T08:04:11Z</time>
      </trkpt>
      <trkpt lat="45.96823" lon="2.82093">
        <ele>671.5</ele>
        <time>2021-07-11T08:04:12Z</time>
      </trkpt>
      <trkpt lat="45.96824" lon="2.82095">
        <ele>671.4</ele>
        <time>2021-07-11T08:04:13Z</time>
      </trkpt>
      <trkpt lat="45.96824" lon="2.82097">
        <ele>671.5</ele>
        <time>2021-07-11T08:04:14Z</time>
      </trkpt>
      <trkpt lat="45.96825" lon="2.821">
        <ele>671.5</ele>
        <time>2021-07-11T08:04:15Z</time>
      </trkpt>
      <trkpt lat="45.96825" lon="2.82102">
        <ele>671.6</ele>
        <time>2021-07-11T08:04:16Z</time>
      </trkpt>
      <trkpt lat="45.96826" lon="2.82105">
        <ele>671.6</ele>
        <time>2021-07-11T08:04:17Z</time>
      </trkpt>
      <trkpt lat="45.96827" lon="2.82107">
        <ele>671.5</ele>
        <time>2021-07-11T08:04:18Z</time>
      </trkpt>
      <trkpt lat="45.96827" lon="2.82109">
        <ele>671.6</ele>
        <time>2021-07-11T08:04:19Z</time>
      </trkpt>
      <trkpt lat="45.96828" lon="2.82112">
        <ele>671.6</ele>
        <time>2021-07-11T08:04:20Z</time>
      </trkpt>
      <trkpt lat="45.96829" lon="2.82114">
        <ele>671.6</ele>
        <time>2021-07-11T08:04:21Z</time>
      </trkpt>
      <trkpt lat="45.96829" lon="2.82116">
        <ele>671.6</ele>
        <time>2021-07-11T08:04:22Z</time>
      </trkpt>
      <trkpt lat="45.9683" lon="2.82119">
        <ele>671.6</ele>
        <time>2021-07-11T08:04:23Z</time>
      </trkpt>
      <trkpt lat="45.96831" lon="2.82121">
        <ele>671.6</ele>
        <time>2021-07-11T08:04:24Z</time>
      </trkpt>
      <trkpt lat="45.96831" lon="2.82123">
        <ele>671.6</ele>
        <time>2021-07-11T08:04:25Z</time>
      </trkpt>
      <trkpt lat="45.96832" lon="2.82126">
        <ele>671.7</ele>
        <time>2021-07-11T08:04:26Z</time>
      </trkpt>
      <trkpt lat="45.96833" lon="2.82128">
        <ele>671.6</ele>
        <time>2021-07-11T08:04:27Z</time>
      </trkpt>
      <trkpt lat="45.96833" lon="2.8213">
        <ele>671.7</ele>
        <time>2021-07-11T08:04:28Z</time>
      </trkpt>
      <trkpt lat="45.96834" lon="2.82133">
        <ele>671.7</ele>
        <time>2021-07-11T08:04:29Z</time>
      </trkpt>
      <trkpt lat="45.96834" lon="2.82135">
        <ele>671.7</ele>
        <time>2021-07-11T08:04:30Z</time>
      </trkpt>
      <trkpt lat="45.96835" lon="2.82138">
        <ele>671.7</ele>
        <time>2021-07-11T08:04:31Z</time>
      </trkpt>
      <trkpt lat="45.96835" lon="2.8214">
        <ele>671.7</ele>
        <time>2021-07-11T08:04:32Z</time>
      </trkpt>
      <trkpt lat="45.96835" lon="2.82143">
        <ele>671.7</ele>
        <time>2021-07-11T08:04:33Z</time>
      </trkpt>
      <trkpt lat="45.96836" lon="2.82145">
        <ele>671.6</ele>
        <time>2021-07-11T08:04:34Z</time>
      </trkpt>
      <trkpt lat="45.96837" lon="2.82148">
        <ele>671.4</ele>
        <time>2021-07-11T08:04:35Z</time>
      </trkpt>
      <trkpt lat="45.96837" lon="2.8215">
        <ele>671.4</ele>
        <time>2021-07-11T08:04:36Z</time>
      </trkpt>
      <trkpt lat="45.96837" lon="2.82152">
        <ele>671.5</ele>
        <time>2021-07-11T08:04:37Z</time>
      </trkpt>
      <trkpt lat="45.96837" lon="2.82154">
        <ele>671.5</ele>
        <time>2021-07-11T08:04:38Z</time>
      </trkpt>
      <trkpt lat="45.96838" lon="2.82157">
        <ele>671.4</ele>
        <time>2021-07-11T08:04:39Z</time>
      </trkpt>
      <trkpt lat="45.96838" lon="2.82159">
        <ele>671.4</ele>
        <time>2021-07-11T08:04:40Z</time>
      </trkpt>
      <trkpt lat="45.96838" lon="2.82161">
        <ele>671.4</ele>
        <time>2021-07-11T08:04:41Z</time>
      </trkpt>
      <trkpt lat="45.96839" lon="2.82163">
        <ele>671.3</ele>
        <time>2021-07-11T08:04:42Z</time>
      </trkpt>
      <trkpt lat="45.9684" lon="2.82166">
        <ele>671.3</ele>
        <time>2021-07-11T08:04:43Z</time>
      </trkpt>
      <trkpt lat="45.9684" lon="2.82168">
        <ele>671.3</ele>
        <time>2021-07-11T08:04:44Z</time>
      </trkpt>
      <trkpt lat="45.9684" lon="2.8217">
        <ele>671.4</ele>
        <time>2021-07-11T08:04:46Z</time>
      </trkpt>
      <trkpt lat="45.96841" lon="2.82179">
        <ele>671.6</ele>
        <time>2021-07-11T08:04:47Z</time>
      </trkpt>
      <trkpt lat="45.96841" lon="2.8218">
        <ele>671.7</ele>
        <time>2021-07-11T08:04:48Z</time>
      </trkpt>
      <trkpt lat="45.96841" lon="2.82181">
        <ele>671.7</ele>
        <time>2021-07-11T08:04:49Z</time>
      </trkpt>
      <trkpt lat="45.96841" lon="2.82182">
        <ele>671.7</ele>
        <time>2021-07-11T08:04:50Z</time>
      </trkpt>
      <trkpt lat="45.96842" lon="2.82184">
        <ele>671.7</ele>
        <time>2021-07-11T08:04:51Z</time>
      </trkpt>
      <trkpt lat="45.96842" lon="2.82186">
        <ele>671.8</ele>
        <time>2021-07-11T08:04:52Z</time>
      </trkpt>
      <trkpt lat="45.96842" lon="2.82189">
        <ele>671.9</ele>
        <time>2021-07-11T08:04:53Z</time>
      </trkpt>
      <trkpt lat="45.96842" lon="2.82191">
        <ele>671.9</ele>
        <time>2021-07-11T08:04:54Z</time>
      </trkpt>
      <trkpt lat="45.96842" lon="2.82193">
        <ele>672</ele>
        <time>2021-07-11T08:04:55Z</time>
      </trkpt>
      <trkpt lat="45.96843" lon="2.82195">
        <ele>672</ele>
        <time>2021-07-11T08:04:56Z</time>
      </trkpt>
      <trkpt lat="45.96843" lon="2.82197">
        <ele>672</ele>
        <time>2021-07-11T08:04:57Z</time>
      </trkpt>
      <trkpt lat="45.96843" lon="2.82199">
        <ele>672</ele>
        <time>2021-07-11T08:04:58Z</time>
      </trkpt>
      <trkpt lat="45.96843" lon="2.82201">
        <ele>672</ele>
        <time>2021-07-11T08:04:59Z</time>
      </trkpt>
      <trkpt lat="45.96843" lon="2.82203">
        <ele>672.1</ele>
        <time>2021-07-11T08:05:00Z</time>
      </trkpt>
      <trkpt lat="45.96844" lon="2.82205">
        <ele>672</ele>
        <time>2021-07-11T08:05:01Z</time>
      </trkpt>
      <trkpt lat="45.96845" lon="2.82207">
        <ele>671.9</ele>
        <time>2021-07-11T08:05:02Z</time>
      </trkpt>
      <trkpt lat="45.96845" lon="2.8221">
        <ele>672</ele>
        <time>2021-07-11T08:05:03Z</time>
      </trkpt>
      <trkpt lat="45.96845" lon="2.82212">
        <ele>672</ele>
        <time>2021-07-11T08:05:04Z</time>
      </trkpt>
      <trkpt lat="45.96845" lon="2.82214">
        <ele>672</ele>
        <time>2021-07-11T08:05:05Z</time>
      </trkpt>
      <trkpt lat="45.96846" lon="2.82217">
        <ele>672</ele>
        <time>2021-07-11T08:05:06Z</time>
      </trkpt>
      <trkpt lat="45.96846" lon="2.82219">
        <ele>672</ele>
        <time>2021-07-11T08:05:07Z</time>
      </trkpt>
      <trkpt lat="45.96846" lon="2.82222">
        <ele>672.1</ele>
        <time>2021-07-11T08:05:08Z</time>
      </trkpt>
      <trkpt lat="45.96846" lon="2.82224">
        <ele>672.2</ele>
        <time>2021-07-11T08:05:09Z</time>
      </trkpt>
      <trkpt lat="45.96846" lon="2.82227">
        <ele>672.3</ele>
        <time>2021-07-11T08:05:10Z</time>
      </trkpt>
      <trkpt lat="45.96846" lon="2.82229">
        <ele>672.3</ele>
        <time>2021-07-11T08:05:11Z</time>
      </trkpt>
      <trkpt lat="45.96846" lon="2.82232">
        <ele>672.4</ele>
        <time>2021-07-11T08:05:12Z</time>
      </trkpt>
      <trkpt lat="45.96846" lon="2.82234">
        <ele>672.5</ele>
        <time>2021-07-11T08:05:13Z</time>
      </trkpt>
      <trkpt lat="45.96846" lon="2.82237">
        <ele>672.6</ele>
        <time>2021-07-11T08:05:14Z</time>
      </trkpt>
      <trkpt lat="45.96846" lon="2.8224">
        <ele>672.7</ele>
        <time>2021-07-11T08:05:15Z</time>
      </trkpt>
      <trkpt lat="45.96847" lon="2.82242">
        <ele>672.7</ele>
        <time>2021-07-11T08:05:16Z</time>
      </trkpt>
      <trkpt lat="45.96847" lon="2.82245">
        <ele>672.8</ele>
        <time>2021-07-11T08:05:17Z</time>
      </trkpt>
      <trkpt lat="45.96847" lon="2.82247">
        <ele>672.9</ele>
        <time>2021-07-11T08:05:18Z</time>
      </trkpt>
      <trkpt lat="45.96848" lon="2.8225">
        <ele>672.9</ele>
        <time>2021-07-11T08:05:19Z</time>
      </trkpt>
      <trkpt lat="45.96848" lon="2.82252">
        <ele>672.9</ele>
        <time>2021-07-11T08:05:20Z</time>
      </trkpt>
      <trkpt lat="45.96848" lon="2.82255">
        <ele>672.8</ele>
        <time>2021-07-11T08:05:21Z</time>
      </trkpt>
      <trkpt lat="45.96848" lon="2.82257">
        <ele>672.8</ele>
        <time>2021-07-11T08:05:22Z</time>
      </trkpt>
      <trkpt lat="45.96848" lon="2.8226">
        <ele>672.8</ele>
        <time>2021-07-11T08:05:23Z</time>
      </trkpt>
      <trkpt lat="45.96849" lon="2.82263">
        <ele>672.6</ele>
        <time>2021-07-11T08:05:24Z</time>
      </trkpt>
      <trkpt lat="45.96849" lon="2.82265">
        <ele>672.6</ele>
        <time>2021-07-11T08:05:25Z</time>
      </trkpt>
      <trkpt lat="45.96849" lon="2.82268">
        <ele>672.5</ele>
        <time>2021-07-11T08:05:26Z</time>
      </trkpt>
      <trkpt lat="45.96849" lon="2.8227">
        <ele>672.5</ele>
        <time>2021-07-11T08:05:27Z</time>
      </trkpt>
      <trkpt lat="45.96849" lon="2.82273">
        <ele>672.4</ele>
        <time>2021-07-11T08:05:28Z</time>
      </trkpt>
      <trkpt lat="45.96849" lon="2.82275">
        <ele>672.4</ele>
        <time>2021-07-11T08:05:29Z</time>
      </trkpt>
      <trkpt lat="45.96849" lon="2.82277">
        <ele>672.3</ele>
        <time>2021-07-11T08:05:30Z</time>
      </trkpt>
      <trkpt lat="45.96849" lon="2.82279">
        <ele>672.3</ele>
        <time>2021-07-11T08:05:31Z</time>
      </trkpt>
      <trkpt lat="45.96849" lon="2.82281">
        <ele>672.2</ele>
        <time>2021-07-11T08:05:32Z</time>
      </trkpt>
      <trkpt lat="45.96849" lon="2.82283">
        <ele>672.1</ele>
        <time>2021-07-11T08:05:33Z</time>
      </trkpt>
      <trkpt lat="45.96849" lon="2.82286">
        <ele>672</ele>
        <time>2021-07-11T08:05:34Z</time>
      </trkpt>
      <trkpt lat="45.96849" lon="2.82288">
        <ele>671.9</ele>
        <time>2021-07-11T08:05:35Z</time>
      </trkpt>
      <trkpt lat="45.96849" lon="2.8229">
        <ele>671.9</ele>
        <time>2021-07-11T08:05:36Z</time>
      </trkpt>
      <trkpt lat="45.96849" lon="2.82292">
        <ele>671.8</ele>
        <time>2021-07-11T08:05:37Z</time>
      </trkpt>
      <trkpt lat="45.9685" lon="2.82294">
        <ele>671.6</ele>
        <time>2021-07-11T08:05:38Z</time>
      </trkpt>
      <trkpt lat="45.9685" lon="2.82296">
        <ele>671.5</ele>
        <time>2021-07-11T08:05:39Z</time>
      </trkpt>
      <trkpt lat="45.9685" lon="2.82299">
        <ele>671.4</ele>
        <time>2021-07-11T08:05:40Z</time>
      </trkpt>
      <trkpt lat="45.9685" lon="2.82301">
        <ele>671.4</ele>
        <time>2021-07-11T08:05:41Z</time>
      </trkpt>
      <trkpt lat="45.9685" lon="2.82303">
        <ele>671.3</ele>
        <time>2021-07-11T08:05:42Z</time>
      </trkpt>
      <trkpt lat="45.9685" lon="2.82306">
        <ele>671.2</ele>
        <time>2021-07-11T08:05:43Z</time>
      </trkpt>
      <trkpt lat="45.9685" lon="2.82308">
        <ele>671.1</ele>
        <time>2021-07-11T08:05:44Z</time>
      </trkpt>
      <trkpt lat="45.9685" lon="2.8231">
        <ele>671</ele>
        <time>2021-07-11T08:05:45Z</time>
      </trkpt>
      <trkpt lat="45.9685" lon="2.82312">
        <ele>671</ele>
        <time>2021-07-11T08:05:46Z</time>
      </trkpt>
      <trkpt lat="45.9685" lon="2.82314">
        <ele>670.9</ele>
        <time>2021-07-11T08:05:47Z</time>
      </trkpt>
      <trkpt lat="45.9685" lon="2.82317">
        <ele>670.8</ele>
        <time>2021-07-11T08:05:48Z</time>
      </trkpt>
      <trkpt lat="45.9685" lon="2.82319">
        <ele>670.7</ele>
        <time>2021-07-11T08:05:49Z</time>
      </trkpt>
      <trkpt lat="45.9685" lon="2.82321">
        <ele>670.6</ele>
        <time>2021-07-11T08:05:50Z</time>
      </trkpt>
      <trkpt lat="45.9685" lon="2.82323">
        <ele>670.6</ele>
        <time>2021-07-11T08:05:51Z</time>
      </trkpt>
      <trkpt lat="45.9685" lon="2.82325">
        <ele>670.5</ele>
        <time>2021-07-11T08:05:52Z</time>
      </trkpt>
      <trkpt lat="45.9685" lon="2.82328">
        <ele>670.4</ele>
        <time>2021-07-11T08:05:53Z</time>
      </trkpt>
      <trkpt lat="45.9685" lon="2.8233">
        <ele>670.3</ele>
        <time>2021-07-11T08:05:54Z</time>
      </trkpt>
      <trkpt lat="45.9685" lon="2.82332">
        <ele>670.2</ele>
        <time>2021-07-11T08:05:55Z</time>
      </trkpt>
      <trkpt lat="45.9685" lon="2.82335">
        <ele>670.2</ele>
        <time>2021-07-11T08:05:56Z</time>
      </trkpt>
      <trkpt lat="45.9685" lon="2.82337">
        <ele>670.2</ele>
        <time>2021-07-11T08:05:57Z</time>
      </trkpt>
      <trkpt lat="45.96849" lon="2.8234">
        <ele>670.3</ele>
        <time>2021-07-11T08:05:58Z</time>
      </trkpt>
      <trkpt lat="45.96849" lon="2.82342">
        <ele>670.3</ele>
        <time>2021-07-11T08:05:59Z</time>
      </trkpt>
      <trkpt lat="45.96849" lon="2.82345">
        <ele>670.3</ele>
        <time>2021-07-11T08:06:00Z</time>
      </trkpt>
      <trkpt lat="45.96849" lon="2.82347">
        <ele>670.3</ele>
        <time>2021-07-11T08:06:01Z</time>
      </trkpt>
      <trkpt lat="45.96849" lon="2.8235">
        <ele>670.3</ele>
        <time>2021-07-11T08:06:02Z</time>
      </trkpt>
      <trkpt lat="45.96849" lon="2.82352">
        <ele>670.3</ele>
        <time>2021-07-11T08:06:03Z</time>
      </trkpt>
      <trkpt lat="45.96849" lon="2.82355">
        <ele>670.3</ele>
        <time>2021-07-11T08:06:04Z</time>
      </trkpt>
      <trkpt lat="45.96849" lon="2.82357">
        <ele>670.3</ele>
        <time>2021-07-11T08:06:05Z</time>
      </trkpt>
      <trkpt lat="45.96849" lon="2.82359">
        <ele>670.3</ele>
        <time>2021-07-11T08:06:06Z</time>
      </trkpt>
      <trkpt lat="45.96849" lon="2.82362">
        <ele>670.3</ele>
        <time>2021-07-11T08:06:07Z</time>
      </trkpt>
      <trkpt lat="45.96849" lon="2.82364">
        <ele>670.3</ele>
        <time>2021-07-11T08:06:08Z</time>
      </trkpt>
      <trkpt lat="45.96849" lon="2.82367">
        <ele>670.3</ele>
        <time>2021-07-11T08:06:09Z</time>
      </trkpt>
      <trkpt lat="45.96849" lon="2.82369">
        <ele>670.3</ele>
        <time>2021-07-11T08:06:10Z</time>
      </trkpt>
      <trkpt lat="45.96848" lon="2.82371">
        <ele>670.4</ele>
        <time>2021-07-11T08:06:11Z</time>
      </trkpt>
      <trkpt lat="45.96848" lon="2.82374">
        <ele>670.4</ele>
        <time>2021-07-11T08:06:12Z</time>
      </trkpt>
      <trkpt lat="45.96848" lon="2.82376">
        <ele>670.4</ele>
        <time>2021-07-11T08:06:13Z</time>
      </trkpt>
      <trkpt lat="45.96848" lon="2.82379">
        <ele>670.4</ele>
        <time>2021-07-11T08:06:14Z</time>
      </trkpt>
      <trkpt lat="45.96848" lon="2.82381">
        <ele>670.4</ele>
        <time>2021-07-11T08:06:15Z</time>
      </trkpt>
      <trkpt lat="45.96848" lon="2.82383">
        <ele>670.4</ele>
        <time>2021-07-11T08:06:16Z</time>
      </trkpt>
      <trkpt lat="45.96848" lon="2.82386">
        <ele>670.4</ele>
        <time>2021-07-11T08:06:17Z</time>
      </trkpt>
      <trkpt lat="45.96848" lon="2.82388">
        <ele>670.4</ele>
        <time>2021-07-11T08:06:18Z</time>
      </trkpt>
      <trkpt lat="45.96848" lon="2.8239">
        <ele>670.5</ele>
        <time>2021-07-11T08:06:19Z</time>
      </trkpt>
      <trkpt lat="45.96849" lon="2.82393">
        <ele>670.6</ele>
        <time>2021-07-11T08:06:20Z</time>
      </trkpt>
      <trkpt lat="45.96849" lon="2.82395">
        <ele>670.7</ele>
        <time>2021-07-11T08:06:21Z</time>
      </trkpt>
      <trkpt lat="45.96849" lon="2.82397">
        <ele>670.9</ele>
        <time>2021-07-11T08:06:22Z</time>
      </trkpt>
      <trkpt lat="45.96849" lon="2.82399">
        <ele>671</ele>
        <time>2021-07-11T08:06:23Z</time>
      </trkpt>
      <trkpt lat="45.9685" lon="2.82401">
        <ele>671.1</ele>
        <time>2021-07-11T08:06:24Z</time>
      </trkpt>
      <trkpt lat="45.9685" lon="2.82403">
        <ele>671.2</ele>
        <time>2021-07-11T08:06:25Z</time>
      </trkpt>
      <trkpt lat="45.9685" lon="2.82405">
        <ele>671.4</ele>
        <time>2021-07-11T08:06:26Z</time>
      </trkpt>
      <trkpt lat="45.96851" lon="2.82407">
        <ele>671.4</ele>
        <time>2021-07-11T08:06:27Z</time>
      </trkpt>
      <trkpt lat="45.96851" lon="2.82409">
        <ele>671.5</ele>
        <time>2021-07-11T08:06:28Z</time>
      </trkpt>
      <trkpt lat="45.96852" lon="2.82411">
        <ele>671.6</ele>
        <time>2021-07-11T08:06:29Z</time>
      </trkpt>
      <trkpt lat="45.96852" lon="2.82413">
        <ele>671.7</ele>
        <time>2021-07-11T08:06:30Z</time>
      </trkpt>
      <trkpt lat="45.96852" lon="2.82416">
        <ele>671.9</ele>
        <time>2021-07-11T08:06:31Z</time>
      </trkpt>
      <trkpt lat="45.96853" lon="2.82418">
        <ele>671.9</ele>
        <time>2021-07-11T08:06:32Z</time>
      </trkpt>
      <trkpt lat="45.96853" lon="2.8242">
        <ele>672</ele>
        <time>2021-07-11T08:06:33Z</time>
      </trkpt>
      <trkpt lat="45.96853" lon="2.82422">
        <ele>672.1</ele>
        <time>2021-07-11T08:06:34Z</time>
      </trkpt>
      <trkpt lat="45.96854" lon="2.82424">
        <ele>672</ele>
        <time>2021-07-11T08:06:35Z</time>
      </trkpt>
      <trkpt lat="45.96854" lon="2.82426">
        <ele>672.1</ele>
        <time>2021-07-11T08:06:36Z</time>
      </trkpt>
      <trkpt lat="45.96854" lon="2.82429">
        <ele>672.2</ele>
        <time>2021-07-11T08:06:37Z</time>
      </trkpt>
      <trkpt lat="45.96855" lon="2.82431">
        <ele>672.2</ele>
        <time>2021-07-11T08:06:38Z</time>
      </trkpt>
      <trkpt lat="45.96855" lon="2.82433">
        <ele>672.2</ele>
        <time>2021-07-11T08:06:39Z</time>
      </trkpt>
      <trkpt lat="45.96855" lon="2.82435">
        <ele>672.3</ele>
        <time>2021-07-11T08:06:40Z</time>
      </trkpt>
      <trkpt lat="45.96856" lon="2.82437">
        <ele>672.3</ele>
        <time>2021-07-11T08:06:41Z</time>
      </trkpt>
      <trkpt lat="45.96856" lon="2.8244">
        <ele>672.4</ele>
        <time>2021-07-11T08:06:42Z</time>
      </trkpt>
      <trkpt lat="45.96856" lon="2.82442">
        <ele>672.5</ele>
        <time>2021-07-11T08:06:43Z</time>
      </trkpt>
      <trkpt lat="45.96857" lon="2.82444">
        <ele>672.4</ele>
        <time>2021-07-11T08:06:44Z</time>
      </trkpt>
      <trkpt lat="45.96858" lon="2.82446">
        <ele>672.4</ele>
        <time>2021-07-11T08:06:46Z</time>
      </trkpt>
      <trkpt lat="45.96859" lon="2.82455">
        <ele>673</ele>
        <time>2021-07-11T08:06:47Z</time>
      </trkpt>
      <trkpt lat="45.96859" lon="2.82456">
        <ele>673.1</ele>
        <time>2021-07-11T08:06:48Z</time>
      </trkpt>
      <trkpt lat="45.96859" lon="2.82457">
        <ele>673.1</ele>
        <time>2021-07-11T08:06:49Z</time>
      </trkpt>
      <trkpt lat="45.96859" lon="2.82458">
        <ele>673.2</ele>
        <time>2021-07-11T08:06:50Z</time>
      </trkpt>
      <trkpt lat="45.9686" lon="2.8246">
        <ele>673.2</ele>
        <time>2021-07-11T08:06:51Z</time>
      </trkpt>
      <trkpt lat="45.96861" lon="2.82461">
        <ele>673.2</ele>
        <time>2021-07-11T08:06:52Z</time>
      </trkpt>
      <trkpt lat="45.96861" lon="2.82463">
        <ele>673.3</ele>
        <time>2021-07-11T08:06:53Z</time>
      </trkpt>
      <trkpt lat="45.96861" lon="2.82465">
        <ele>673.5</ele>
        <time>2021-07-11T08:06:54Z</time>
      </trkpt>
      <trkpt lat="45.96862" lon="2.82467">
        <ele>673.6</ele>
        <time>2021-07-11T08:06:55Z</time>
      </trkpt>
      <trkpt lat="45.96862" lon="2.82469">
        <ele>673.7</ele>
        <time>2021-07-11T08:06:56Z</time>
      </trkpt>
      <trkpt lat="45.96864" lon="2.8247">
        <ele>673.6</ele>
        <time>2021-07-11T08:06:57Z</time>
      </trkpt>
      <trkpt lat="45.96864" lon="2.82472">
        <ele>673.8</ele>
        <time>2021-07-11T08:06:57Z</time>
      </trkpt>
      <trkpt lat="45.96865" lon="2.82474">
        <ele>673.8</ele>
        <time>2021-07-11T08:06:58Z</time>
      </trkpt>
      <trkpt lat="45.96865" lon="2.82476">
        <ele>674</ele>
        <time>2021-07-11T08:06:59Z</time>
      </trkpt>
      <trkpt lat="45.96866" lon="2.82478">
        <ele>674.1</ele>
        <time>2021-07-11T08:07:00Z</time>
      </trkpt>
      <trkpt lat="45.96867" lon="2.8248">
        <ele>674.1</ele>
        <time>2021-07-11T08:07:01Z</time>
      </trkpt>
      <trkpt lat="45.96867" lon="2.82482">
        <ele>674.3</ele>
        <time>2021-07-11T08:07:02Z</time>
      </trkpt>
      <trkpt lat="45.96868" lon="2.82484">
        <ele>674.4</ele>
        <time>2021-07-11T08:07:03Z</time>
      </trkpt>
      <trkpt lat="45.96868" lon="2.82486">
        <ele>674.5</ele>
        <time>2021-07-11T08:07:04Z</time>
      </trkpt>
      <trkpt lat="45.96869" lon="2.82488">
        <ele>674.6</ele>
        <time>2021-07-11T08:07:05Z</time>
      </trkpt>
      <trkpt lat="45.96869" lon="2.8249">
        <ele>674.7</ele>
        <time>2021-07-11T08:07:06Z</time>
      </trkpt>
      <trkpt lat="45.9687" lon="2.82492">
        <ele>674.8</ele>
        <time>2021-07-11T08:07:07Z</time>
      </trkpt>
      <trkpt lat="45.9687" lon="2.82494">
        <ele>674.9</ele>
        <time>2021-07-11T08:07:08Z</time>
      </trkpt>
      <trkpt lat="45.9687" lon="2.82496">
        <ele>675.1</ele>
        <time>2021-07-11T08:07:09Z</time>
      </trkpt>
      <trkpt lat="45.9687" lon="2.82498">
        <ele>675.2</ele>
        <time>2021-07-11T08:07:10Z</time>
      </trkpt>
      <trkpt lat="45.9687" lon="2.825">
        <ele>675.4</ele>
        <time>2021-07-11T08:07:11Z</time>
      </trkpt>
      <trkpt lat="45.9687" lon="2.82502">
        <ele>675.5</ele>
        <time>2021-07-11T08:07:12Z</time>
      </trkpt>
      <trkpt lat="45.9687" lon="2.82504">
        <ele>675.6</ele>
        <time>2021-07-11T08:07:13Z</time>
      </trkpt>
      <trkpt lat="45.9687" lon="2.82506">
        <ele>675.7</ele>
        <time>2021-07-11T08:07:14Z</time>
      </trkpt>
      <trkpt lat="45.9687" lon="2.82508">
        <ele>675.8</ele>
        <time>2021-07-11T08:07:15Z</time>
      </trkpt>
      <trkpt lat="45.9687" lon="2.82511">
        <ele>676</ele>
        <time>2021-07-11T08:07:16Z</time>
      </trkpt>
      <trkpt lat="45.9687" lon="2.82513">
        <ele>676.1</ele>
        <time>2021-07-11T08:07:17Z</time>
      </trkpt>
      <trkpt lat="45.9687" lon="2.82515">
        <ele>676.3</ele>
        <time>2021-07-11T08:07:18Z</time>
      </trkpt>
      <trkpt lat="45.9687" lon="2.82518">
        <ele>676.4</ele>
        <time>2021-07-11T08:07:19Z</time>
      </trkpt>
      <trkpt lat="45.9687" lon="2.8252">
        <ele>676.6</ele>
        <time>2021-07-11T08:07:20Z</time>
      </trkpt>
      <trkpt lat="45.96869" lon="2.82522">
        <ele>676.8</ele>
        <time>2021-07-11T08:07:21Z</time>
      </trkpt>
      <trkpt lat="45.96869" lon="2.82524">
        <ele>676.9</ele>
        <time>2021-07-11T08:07:22Z</time>
      </trkpt>
      <trkpt lat="45.96869" lon="2.82526">
        <ele>677</ele>
        <time>2021-07-11T08:07:23Z</time>
      </trkpt>
      <trkpt lat="45.96869" lon="2.82528">
        <ele>677.2</ele>
        <time>2021-07-11T08:07:24Z</time>
      </trkpt>
      <trkpt lat="45.96869" lon="2.8253">
        <ele>677.3</ele>
        <time>2021-07-11T08:07:25Z</time>
      </trkpt>
      <trkpt lat="45.96869" lon="2.82532">
        <ele>677.4</ele>
        <time>2021-07-11T08:07:26Z</time>
      </trkpt>
      <trkpt lat="45.96869" lon="2.82534">
        <ele>677.5</ele>
        <time>2021-07-11T08:07:27Z</time>
      </trkpt>
      <trkpt lat="45.96869" lon="2.82536">
        <ele>677.6</ele>
        <time>2021-07-11T08:07:28Z</time>
      </trkpt>
      <trkpt lat="45.96869" lon="2.82538">
        <ele>677.7</ele>
        <time>2021-07-11T08:07:29Z</time>
      </trkpt>
      <trkpt lat="45.96868" lon="2.8254">
        <ele>677.9</ele>
        <time>2021-07-11T08:07:30Z</time>
      </trkpt>
      <trkpt lat="45.96868" lon="2.82542">
        <ele>678</ele>
        <time>2021-07-11T08:07:31Z</time>
      </trkpt>
      <trkpt lat="45.96868" lon="2.82544">
        <ele>678.1</ele>
        <time>2021-07-11T08:07:32Z</time>
      </trkpt>
      <trkpt lat="45.96868" lon="2.82546">
        <ele>678.2</ele>
        <time>2021-07-11T08:07:33Z</time>
      </trkpt>
      <trkpt lat="45.96867" lon="2.82548">
        <ele>678.4</ele>
        <time>2021-07-11T08:07:34Z</time>
      </trkpt>
      <trkpt lat="45.96867" lon="2.8255">
        <ele>678.5</ele>
        <time>2021-07-11T08:07:35Z</time>
      </trkpt>
      <trkpt lat="45.96866" lon="2.82552">
        <ele>678.7</ele>
        <time>2021-07-11T08:07:36Z</time>
      </trkpt>
      <trkpt lat="45.96866" lon="2.82554">
        <ele>678.7</ele>
        <time>2021-07-11T08:07:37Z</time>
      </trkpt>
      <trkpt lat="45.96865" lon="2.82556">
        <ele>678.9</ele>
        <time>2021-07-11T08:07:38Z</time>
      </trkpt>
      <trkpt lat="45.96864" lon="2.82558">
        <ele>679</ele>
        <time>2021-07-11T08:07:39Z</time>
      </trkpt>
      <trkpt lat="45.96864" lon="2.8256">
        <ele>679.1</ele>
        <time>2021-07-11T08:07:40Z</time>
      </trkpt>
      <trkpt lat="45.96863" lon="2.82562">
        <ele>679.2</ele>
        <time>2021-07-11T08:07:41Z</time>
      </trkpt>
      <trkpt lat="45.96862" lon="2.82564">
        <ele>679.3</ele>
        <time>2021-07-11T08:07:42Z</time>
      </trkpt>
      <trkpt lat="45.96862" lon="2.82566">
        <ele>679.3</ele>
        <time>2021-07-11T08:07:43Z</time>
      </trkpt>
      <trkpt lat="45.96861" lon="2.82567">
        <ele>679.4</ele>
        <time>2021-07-11T08:07:45Z</time>
      </trkpt>
      <trkpt lat="45.96858" lon="2.82575">
        <ele>679.6</ele>
        <time>2021-07-11T08:07:46Z</time>
      </trkpt>
      <trkpt lat="45.96858" lon="2.82576">
        <ele>679.7</ele>
        <time>2021-07-11T08:07:47Z</time>
      </trkpt>
      <trkpt lat="45.96858" lon="2.82576">
        <ele>679.7</ele>
        <time>2021-07-11T08:07:48Z</time>
      </trkpt>
      <trkpt lat="45.96858" lon="2.82578">
        <ele>679.7</ele>
        <time>2021-07-11T08:07:49Z</time>
      </trkpt>
      <trkpt lat="45.96857" lon="2.8258">
        <ele>679.7</ele>
        <time>2021-07-11T08:07:50Z</time>
      </trkpt>
      <trkpt lat="45.96856" lon="2.82582">
        <ele>679.8</ele>
        <time>2021-07-11T08:07:51Z</time>
      </trkpt>
      <trkpt lat="45.96856" lon="2.82583">
        <ele>679.8</ele>
        <time>2021-07-11T08:07:52Z</time>
      </trkpt>
      <trkpt lat="45.96855" lon="2.82585">
        <ele>679.8</ele>
        <time>2021-07-11T08:07:53Z</time>
      </trkpt>
      <trkpt lat="45.96854" lon="2.82587">
        <ele>679.7</ele>
        <time>2021-07-11T08:07:54Z</time>
      </trkpt>
      <trkpt lat="45.96854" lon="2.8259">
        <ele>679.7</ele>
        <time>2021-07-11T08:07:55Z</time>
      </trkpt>
      <trkpt lat="45.96853" lon="2.82592">
        <ele>679.7</ele>
        <time>2021-07-11T08:07:56Z</time>
      </trkpt>
      <trkpt lat="45.96852" lon="2.82594">
        <ele>679.7</ele>
        <time>2021-07-11T08:07:57Z</time>
      </trkpt>
      <trkpt lat="45.96852" lon="2.82596">
        <ele>679.7</ele>
        <time>2021-07-11T08:07:58Z</time>
      </trkpt>
      <trkpt lat="45.96852" lon="2.82598">
        <ele>679.7</ele>
        <time>2021-07-11T08:07:59Z</time>
      </trkpt>
      <trkpt lat="45.96851" lon="2.826">
        <ele>679.6</ele>
        <time>2021-07-11T08:08:00Z</time>
      </trkpt>
      <trkpt lat="45.9685" lon="2.82602">
        <ele>679.6</ele>
        <time>2021-07-11T08:08:01Z</time>
      </trkpt>
      <trkpt lat="45.9685" lon="2.82604">
        <ele>679.6</ele>
        <time>2021-07-11T08:08:02Z</time>
      </trkpt>
      <trkpt lat="45.96849" lon="2.82606">
        <ele>679.6</ele>
        <time>2021-07-11T08:08:03Z</time>
      </trkpt>
      <trkpt lat="45.96849" lon="2.82609">
        <ele>679.6</ele>
        <time>2021-07-11T08:08:04Z</time>
      </trkpt>
      <trkpt lat="45.96848" lon="2.82611">
        <ele>679.5</ele>
        <time>2021-07-11T08:08:05Z</time>
      </trkpt>
      <trkpt lat="45.96848" lon="2.82612">
        <ele>679.5</ele>
        <time>2021-07-11T08:08:06Z</time>
      </trkpt>
      <trkpt lat="45.96848" lon="2.82614">
        <ele>679.6</ele>
        <time>2021-07-11T08:08:07Z</time>
      </trkpt>
      <trkpt lat="45.96847" lon="2.82616">
        <ele>679.6</ele>
        <time>2021-07-11T08:08:08Z</time>
      </trkpt>
      <trkpt lat="45.96847" lon="2.82618">
        <ele>679.6</ele>
        <time>2021-07-11T08:08:09Z</time>
      </trkpt>
      <trkpt lat="45.96846" lon="2.8262">
        <ele>679.6</ele>
        <time>2021-07-11T08:08:10Z</time>
      </trkpt>
      <trkpt lat="45.96846" lon="2.82622">
        <ele>679.6</ele>
        <time>2021-07-11T08:08:11Z</time>
      </trkpt>
      <trkpt lat="45.96845" lon="2.82624">
        <ele>679.6</ele>
        <time>2021-07-11T08:08:12Z</time>
      </trkpt>
      <trkpt lat="45.96845" lon="2.82626">
        <ele>679.6</ele>
        <time>2021-07-11T08:08:13Z</time>
      </trkpt>
      <trkpt lat="45.96844" lon="2.82628">
        <ele>679.6</ele>
        <time>2021-07-11T08:08:14Z</time>
      </trkpt>
      <trkpt lat="45.96843" lon="2.8263">
        <ele>679.6</ele>
        <time>2021-07-11T08:08:15Z</time>
      </trkpt>
      <trkpt lat="45.96843" lon="2.82633">
        <ele>679.6</ele>
        <time>2021-07-11T08:08:16Z</time>
      </trkpt>
      <trkpt lat="45.96843" lon="2.82635">
        <ele>679.6</ele>
        <time>2021-07-11T08:08:17Z</time>
      </trkpt>
      <trkpt lat="45.96842" lon="2.82637">
        <ele>679.6</ele>
        <time>2021-07-11T08:08:18Z</time>
      </trkpt>
      <trkpt lat="45.96841" lon="2.82639">
        <ele>679.6</ele>
        <time>2021-07-11T08:08:19Z</time>
      </trkpt>
      <trkpt lat="45.96841" lon="2.82641">
        <ele>679.6</ele>
        <time>2021-07-11T08:08:20Z</time>
      </trkpt>
      <trkpt lat="45.96841" lon="2.82643">
        <ele>679.7</ele>
        <time>2021-07-11T08:08:21Z</time>
      </trkpt>
      <trkpt lat="45.9684" lon="2.82644">
        <ele>679.6</ele>
        <time>2021-07-11T08:08:22Z</time>
      </trkpt>
      <trkpt lat="45.9684" lon="2.82646">
        <ele>679.7</ele>
        <time>2021-07-11T08:08:23Z</time>
      </trkpt>
      <trkpt lat="45.9684" lon="2.82648">
        <ele>679.7</ele>
        <time>2021-07-11T08:08:24Z</time>
      </trkpt>
      <trkpt lat="45.96839" lon="2.8265">
        <ele>679.7</ele>
        <time>2021-07-11T08:08:25Z</time>
      </trkpt>
      <trkpt lat="45.96838" lon="2.82652">
        <ele>679.7</ele>
        <time>2021-07-11T08:08:26Z</time>
      </trkpt>
      <trkpt lat="45.96838" lon="2.82654">
        <ele>679.8</ele>
        <time>2021-07-11T08:08:27Z</time>
      </trkpt>
      <trkpt lat="45.96837" lon="2.82656">
        <ele>679.8</ele>
        <time>2021-07-11T08:08:28Z</time>
      </trkpt>
      <trkpt lat="45.96837" lon="2.82658">
        <ele>679.9</ele>
        <time>2021-07-11T08:08:29Z</time>
      </trkpt>
      <trkpt lat="45.96837" lon="2.8266">
        <ele>679.9</ele>
        <time>2021-07-11T08:08:30Z</time>
      </trkpt>
      <trkpt lat="45.96836" lon="2.82662">
        <ele>679.9</ele>
        <time>2021-07-11T08:08:31Z</time>
      </trkpt>
      <trkpt lat="45.96835" lon="2.82664">
        <ele>680</ele>
        <time>2021-07-11T08:08:32Z</time>
      </trkpt>
      <trkpt lat="45.96835" lon="2.82666">
        <ele>680</ele>
        <time>2021-07-11T08:08:33Z</time>
      </trkpt>
      <trkpt lat="45.96835" lon="2.82668">
        <ele>680.1</ele>
        <time>2021-07-11T08:08:34Z</time>
      </trkpt>
      <trkpt lat="45.96834" lon="2.82671">
        <ele>680</ele>
        <time>2021-07-11T08:08:35Z</time>
      </trkpt>
      <trkpt lat="45.96834" lon="2.82673">
        <ele>680</ele>
        <time>2021-07-11T08:08:36Z</time>
      </trkpt>
      <trkpt lat="45.96834" lon="2.82675">
        <ele>680</ele>
        <time>2021-07-11T08:08:37Z</time>
      </trkpt>
      <trkpt lat="45.96833" lon="2.82677">
        <ele>680</ele>
        <time>2021-07-11T08:08:38Z</time>
      </trkpt>
      <trkpt lat="45.96833" lon="2.82679">
        <ele>680</ele>
        <time>2021-07-11T08:08:39Z</time>
      </trkpt>
      <trkpt lat="45.96833" lon="2.82681">
        <ele>680</ele>
        <time>2021-07-11T08:08:40Z</time>
      </trkpt>
      <trkpt lat="45.96833" lon="2.82683">
        <ele>680</ele>
        <time>2021-07-11T08:08:41Z</time>
      </trkpt>
      <trkpt lat="45.96833" lon="2.82685">
        <ele>680</ele>
        <time>2021-07-11T08:08:42Z</time>
      </trkpt>
      <trkpt lat="45.96833" lon="2.82687">
        <ele>680</ele>
        <time>2021-07-11T08:08:43Z</time>
      </trkpt>
      <trkpt lat="45.96833" lon="2.82689">
        <ele>680</ele>
        <time>2021-07-11T08:08:45Z</time>
      </trkpt>
      <trkpt lat="45.96833" lon="2.82691">
        <ele>680</ele>
        <time>2021-07-11T08:08:46Z</time>
      </trkpt>
      <trkpt lat="45.96832" lon="2.827">
        <ele>679.9</ele>
        <time>2021-07-11T08:08:47Z</time>
      </trkpt>
      <trkpt lat="45.96832" lon="2.827">
        <ele>679.9</ele>
        <time>2021-07-11T08:08:48Z</time>
      </trkpt>
      <trkpt lat="45.96831" lon="2.82701">
        <ele>679.8</ele>
        <time>2021-07-11T08:08:49Z</time>
      </trkpt>
      <trkpt lat="45.96831" lon="2.82703">
        <ele>679.8</ele>
        <time>2021-07-11T08:08:50Z</time>
      </trkpt>
      <trkpt lat="45.96831" lon="2.82705">
        <ele>679.8</ele>
        <time>2021-07-11T08:08:51Z</time>
      </trkpt>
      <trkpt lat="45.9683" lon="2.82706">
        <ele>679.7</ele>
        <time>2021-07-11T08:08:52Z</time>
      </trkpt>
      <trkpt lat="45.9683" lon="2.82708">
        <ele>679.7</ele>
        <time>2021-07-11T08:08:53Z</time>
      </trkpt>
      <trkpt lat="45.96829" lon="2.82711">
        <ele>679.6</ele>
        <time>2021-07-11T08:08:54Z</time>
      </trkpt>
      <trkpt lat="45.96829" lon="2.82713">
        <ele>679.6</ele>
        <time>2021-07-11T08:08:55Z</time>
      </trkpt>
      <trkpt lat="45.96828" lon="2.82715">
        <ele>679.6</ele>
        <time>2021-07-11T08:08:56Z</time>
      </trkpt>
      <trkpt lat="45.96827" lon="2.82717">
        <ele>679.5</ele>
        <time>2021-07-11T08:08:57Z</time>
      </trkpt>
      <trkpt lat="45.96827" lon="2.82719">
        <ele>679.5</ele>
        <time>2021-07-11T08:08:58Z</time>
      </trkpt>
      <trkpt lat="45.96826" lon="2.82721">
        <ele>679.5</ele>
        <time>2021-07-11T08:08:59Z</time>
      </trkpt>
      <trkpt lat="45.96825" lon="2.82723">
        <ele>679.4</ele>
        <time>2021-07-11T08:09:00Z</time>
      </trkpt>
      <trkpt lat="45.96824" lon="2.82725">
        <ele>679.5</ele>
        <time>2021-07-11T08:09:01Z</time>
      </trkpt>
      <trkpt lat="45.96824" lon="2.82728">
        <ele>679.6</ele>
        <time>2021-07-11T08:09:02Z</time>
      </trkpt>
      <trkpt lat="45.96822" lon="2.8273">
        <ele>679.6</ele>
        <time>2021-07-11T08:09:03Z</time>
      </trkpt>
      <trkpt lat="45.96822" lon="2.82732">
        <ele>679.7</ele>
        <time>2021-07-11T08:09:04Z</time>
      </trkpt>
      <trkpt lat="45.96821" lon="2.82733">
        <ele>679.7</ele>
        <time>2021-07-11T08:09:05Z</time>
      </trkpt>
      <trkpt lat="45.9682" lon="2.82735">
        <ele>679.7</ele>
        <time>2021-07-11T08:09:06Z</time>
      </trkpt>
      <trkpt lat="45.96819" lon="2.82737">
        <ele>679.8</ele>
        <time>2021-07-11T08:09:07Z</time>
      </trkpt>
      <trkpt lat="45.96819" lon="2.82739">
        <ele>679.9</ele>
        <time>2021-07-11T08:09:08Z</time>
      </trkpt>
      <trkpt lat="45.96817" lon="2.82741">
        <ele>679.9</ele>
        <time>2021-07-11T08:09:09Z</time>
      </trkpt>
      <trkpt lat="45.96816" lon="2.82742">
        <ele>679.9</ele>
        <time>2021-07-11T08:09:10Z</time>
      </trkpt>
      <trkpt lat="45.96816" lon="2.82744">
        <ele>680</ele>
        <time>2021-07-11T08:09:11Z</time>
      </trkpt>
      <trkpt lat="45.96814" lon="2.82746">
        <ele>680.1</ele>
        <time>2021-07-11T08:09:12Z</time>
      </trkpt>
      <trkpt lat="45.96813" lon="2.82747">
        <ele>680.1</ele>
        <time>2021-07-11T08:09:13Z</time>
      </trkpt>
      <trkpt lat="45.96812" lon="2.82749">
        <ele>680.2</ele>
        <time>2021-07-11T08:09:14Z</time>
      </trkpt>
      <trkpt lat="45.96811" lon="2.8275">
        <ele>680.2</ele>
        <time>2021-07-11T08:09:15Z</time>
      </trkpt>
      <trkpt lat="45.9681" lon="2.82752">
        <ele>680.4</ele>
        <time>2021-07-11T08:09:16Z</time>
      </trkpt>
      <trkpt lat="45.96809" lon="2.82753">
        <ele>680.4</ele>
        <time>2021-07-11T08:09:17Z</time>
      </trkpt>
      <trkpt lat="45.96807" lon="2.82755">
        <ele>680.6</ele>
        <time>2021-07-11T08:09:18Z</time>
      </trkpt>
      <trkpt lat="45.96806" lon="2.82756">
        <ele>680.7</ele>
        <time>2021-07-11T08:09:19Z</time>
      </trkpt>
      <trkpt lat="45.96805" lon="2.82758">
        <ele>680.8</ele>
        <time>2021-07-11T08:09:20Z</time>
      </trkpt>
      <trkpt lat="45.96804" lon="2.82759">
        <ele>680.9</ele>
        <time>2021-07-11T08:09:21Z</time>
      </trkpt>
      <trkpt lat="45.96803" lon="2.8276">
        <ele>681</ele>
        <time>2021-07-11T08:09:22Z</time>
      </trkpt>
      <trkpt lat="45.96801" lon="2.82762">
        <ele>681.1</ele>
        <time>2021-07-11T08:09:23Z</time>
      </trkpt>
      <trkpt lat="45.96801" lon="2.82763">
        <ele>681.2</ele>
        <time>2021-07-11T08:09:24Z</time>
      </trkpt>
      <trkpt lat="45.968" lon="2.82764">
        <ele>681.2</ele>
        <time>2021-07-11T08:09:25Z</time>
      </trkpt>
      <trkpt lat="45.96798" lon="2.82764">
        <ele>681.1</ele>
        <time>2021-07-11T08:09:26Z</time>
      </trkpt>
      <trkpt lat="45.96797" lon="2.82765">
        <ele>681.1</ele>
        <time>2021-07-11T08:09:27Z</time>
      </trkpt>
      <trkpt lat="45.96796" lon="2.82766">
        <ele>681.2</ele>
        <time>2021-07-11T08:09:28Z</time>
      </trkpt>
      <trkpt lat="45.96795" lon="2.82767">
        <ele>681.2</ele>
        <time>2021-07-11T08:09:29Z</time>
      </trkpt>
      <trkpt lat="45.96793" lon="2.82769">
        <ele>681.3</ele>
        <time>2021-07-11T08:09:30Z</time>
      </trkpt>
      <trkpt lat="45.96792" lon="2.8277">
        <ele>681.3</ele>
        <time>2021-07-11T08:09:31Z</time>
      </trkpt>
      <trkpt lat="45.9679" lon="2.82771">
        <ele>681.3</ele>
        <time>2021-07-11T08:09:32Z</time>
      </trkpt>
      <trkpt lat="45.96789" lon="2.82772">
        <ele>681.3</ele>
        <time>2021-07-11T08:09:33Z</time>
      </trkpt>
      <trkpt lat="45.96787" lon="2.82773">
        <ele>681.3</ele>
        <time>2021-07-11T08:09:34Z</time>
      </trkpt>
      <trkpt lat="45.96786" lon="2.82775">
        <ele>681.4</ele>
        <time>2021-07-11T08:09:35Z</time>
      </trkpt>
      <trkpt lat="45.96784" lon="2.82776">
        <ele>681.3</ele>
        <time>2021-07-11T08:09:36Z</time>
      </trkpt>
      <trkpt lat="45.96783" lon="2.82777">
        <ele>681.3</ele>
        <time>2021-07-11T08:09:37Z</time>
      </trkpt>
      <trkpt lat="45.96782" lon="2.82778">
        <ele>681.3</ele>
        <time>2021-07-11T08:09:38Z</time>
      </trkpt>
      <trkpt lat="45.9678" lon="2.82779">
        <ele>681.3</ele>
        <time>2021-07-11T08:09:39Z</time>
      </trkpt>
      <trkpt lat="45.96779" lon="2.8278">
        <ele>681.3</ele>
        <time>2021-07-11T08:09:40Z</time>
      </trkpt>
      <trkpt lat="45.96777" lon="2.82781">
        <ele>681.3</ele>
        <time>2021-07-11T08:09:41Z</time>
      </trkpt>
      <trkpt lat="45.96775" lon="2.82781">
        <ele>681.3</ele>
        <time>2021-07-11T08:09:42Z</time>
      </trkpt>
      <trkpt lat="45.96774" lon="2.82782">
        <ele>681.3</ele>
        <time>2021-07-11T08:09:43Z</time>
      </trkpt>
      <trkpt lat="45.96772" lon="2.82783">
        <ele>681.4</ele>
        <time>2021-07-11T08:09:45Z</time>
      </trkpt>
      <trkpt lat="45.96767" lon="2.82785">
        <ele>681.5</ele>
        <time>2021-07-11T08:09:46Z</time>
      </trkpt>
      <trkpt lat="45.96767" lon="2.82785">
        <ele>681.5</ele>
        <time>2021-07-11T08:09:47Z</time>
      </trkpt>
      <trkpt lat="45.96766" lon="2.82786">
        <ele>681.6</ele>
        <time>2021-07-11T08:09:48Z</time>
      </trkpt>
      <trkpt lat="45.96765" lon="2.82787">
        <ele>681.7</ele>
        <time>2021-07-11T08:09:49Z</time>
      </trkpt>
      <trkpt lat="45.96764" lon="2.82787">
        <ele>681.7</ele>
        <time>2021-07-11T08:09:50Z</time>
      </trkpt>
      <trkpt lat="45.96763" lon="2.82788">
        <ele>681.8</ele>
        <time>2021-07-11T08:09:51Z</time>
      </trkpt>
      <trkpt lat="45.96762" lon="2.82789">
        <ele>681.9</ele>
        <time>2021-07-11T08:09:52Z</time>
      </trkpt>
      <trkpt lat="45.9676" lon="2.8279">
        <ele>682</ele>
        <time>2021-07-11T08:09:53Z</time>
      </trkpt>
      <trkpt lat="45.96759" lon="2.82792">
        <ele>682.2</ele>
        <time>2021-07-11T08:09:54Z</time>
      </trkpt>
      <trkpt lat="45.96757" lon="2.82793">
        <ele>682.3</ele>
        <time>2021-07-11T08:09:55Z</time>
      </trkpt>
      <trkpt lat="45.96756" lon="2.82794">
        <ele>682.4</ele>
        <time>2021-07-11T08:09:56Z</time>
      </trkpt>
      <trkpt lat="45.96755" lon="2.82795">
        <ele>682.5</ele>
        <time>2021-07-11T08:09:57Z</time>
      </trkpt>
      <trkpt lat="45.96753" lon="2.82796">
        <ele>682.7</ele>
        <time>2021-07-11T08:09:58Z</time>
      </trkpt>
      <trkpt lat="45.96751" lon="2.82797">
        <ele>682.8</ele>
        <time>2021-07-11T08:09:59Z</time>
      </trkpt>
      <trkpt lat="45.9675" lon="2.82798">
        <ele>682.9</ele>
        <time>2021-07-11T08:10:00Z</time>
      </trkpt>
      <trkpt lat="45.96749" lon="2.82799">
        <ele>683</ele>
        <time>2021-07-11T08:10:01Z</time>
      </trkpt>
      <trkpt lat="45.96748" lon="2.828">
        <ele>683.1</ele>
        <time>2021-07-11T08:10:02Z</time>
      </trkpt>
      <trkpt lat="45.96746" lon="2.82801">
        <ele>683.2</ele>
        <time>2021-07-11T08:10:03Z</time>
      </trkpt>
      <trkpt lat="45.96745" lon="2.82802">
        <ele>683.3</ele>
        <time>2021-07-11T08:10:04Z</time>
      </trkpt>
      <trkpt lat="45.96743" lon="2.82803">
        <ele>683.4</ele>
        <time>2021-07-11T08:10:05Z</time>
      </trkpt>
      <trkpt lat="45.96742" lon="2.82804">
        <ele>683.5</ele>
        <time>2021-07-11T08:10:06Z</time>
      </trkpt>
      <trkpt lat="45.96741" lon="2.82806">
        <ele>683.7</ele>
        <time>2021-07-11T08:10:07Z</time>
      </trkpt>
      <trkpt lat="45.9674" lon="2.82807">
        <ele>683.7</ele>
        <time>2021-07-11T08:10:08Z</time>
      </trkpt>
      <trkpt lat="45.96738" lon="2.82807">
        <ele>683.7</ele>
        <time>2021-07-11T08:10:09Z</time>
      </trkpt>
      <trkpt lat="45.96737" lon="2.82808">
        <ele>683.7</ele>
        <time>2021-07-11T08:10:10Z</time>
      </trkpt>
      <trkpt lat="45.96735" lon="2.82809">
        <ele>683.7</ele>
        <time>2021-07-11T08:10:11Z</time>
      </trkpt>
      <trkpt lat="45.96734" lon="2.8281">
        <ele>683.7</ele>
        <time>2021-07-11T08:10:12Z</time>
      </trkpt>
      <trkpt lat="45.96732" lon="2.82811">
        <ele>683.7</ele>
        <time>2021-07-11T08:10:13Z</time>
      </trkpt>
      <trkpt lat="45.96731" lon="2.82812">
        <ele>683.8</ele>
        <time>2021-07-11T08:10:14Z</time>
      </trkpt>
      <trkpt lat="45.96729" lon="2.82813">
        <ele>683.8</ele>
        <time>2021-07-11T08:10:15Z</time>
      </trkpt>
      <trkpt lat="45.96728" lon="2.82814">
        <ele>683.8</ele>
        <time>2021-07-11T08:10:16Z</time>
      </trkpt>
      <trkpt lat="45.96726" lon="2.82815">
        <ele>683.8</ele>
        <time>2021-07-11T08:10:17Z</time>
      </trkpt>
      <trkpt lat="45.96725" lon="2.82816">
        <ele>683.9</ele>
        <time>2021-07-11T08:10:18Z</time>
      </trkpt>
      <trkpt lat="45.96724" lon="2.82817">
        <ele>683.9</ele>
        <time>2021-07-11T08:10:19Z</time>
      </trkpt>
      <trkpt lat="45.96722" lon="2.82818">
        <ele>683.9</ele>
        <time>2021-07-11T08:10:20Z</time>
      </trkpt>
      <trkpt lat="45.96721" lon="2.82819">
        <ele>683.9</ele>
        <time>2021-07-11T08:10:21Z</time>
      </trkpt>
      <trkpt lat="45.9672" lon="2.82821">
        <ele>684</ele>
        <time>2021-07-11T08:10:22Z</time>
      </trkpt>
      <trkpt lat="45.96718" lon="2.82822">
        <ele>684</ele>
        <time>2021-07-11T08:10:23Z</time>
      </trkpt>
      <trkpt lat="45.96717" lon="2.82823">
        <ele>684.1</ele>
        <time>2021-07-11T08:10:24Z</time>
      </trkpt>
      <trkpt lat="45.96716" lon="2.82824">
        <ele>684.1</ele>
        <time>2021-07-11T08:10:25Z</time>
      </trkpt>
      <trkpt lat="45.96714" lon="2.82826">
        <ele>684.2</ele>
        <time>2021-07-11T08:10:26Z</time>
      </trkpt>
      <trkpt lat="45.96713" lon="2.82827">
        <ele>684.2</ele>
        <time>2021-07-11T08:10:27Z</time>
      </trkpt>
      <trkpt lat="45.96712" lon="2.82828">
        <ele>684.2</ele>
        <time>2021-07-11T08:10:28Z</time>
      </trkpt>
      <trkpt lat="45.96711" lon="2.82829">
        <ele>684.3</ele>
        <time>2021-07-11T08:10:29Z</time>
      </trkpt>
      <trkpt lat="45.9671" lon="2.8283">
        <ele>684.3</ele>
        <time>2021-07-11T08:10:30Z</time>
      </trkpt>
      <trkpt lat="45.96709" lon="2.82831">
        <ele>684.4</ele>
        <time>2021-07-11T08:10:31Z</time>
      </trkpt>
      <trkpt lat="45.96708" lon="2.82833">
        <ele>684.5</ele>
        <time>2021-07-11T08:10:32Z</time>
      </trkpt>
      <trkpt lat="45.96707" lon="2.82834">
        <ele>684.5</ele>
        <time>2021-07-11T08:10:33Z</time>
      </trkpt>
      <trkpt lat="45.96706" lon="2.82835">
        <ele>684.5</ele>
        <time>2021-07-11T08:10:34Z</time>
      </trkpt>
      <trkpt lat="45.96705" lon="2.82836">
        <ele>684.6</ele>
        <time>2021-07-11T08:10:35Z</time>
      </trkpt>
      <trkpt lat="45.96704" lon="2.82838">
        <ele>684.7</ele>
        <time>2021-07-11T08:10:36Z</time>
      </trkpt>
      <trkpt lat="45.96703" lon="2.82839">
        <ele>684.7</ele>
        <time>2021-07-11T08:10:37Z</time>
      </trkpt>
      <trkpt lat="45.96702" lon="2.8284">
        <ele>684.8</ele>
        <time>2021-07-11T08:10:38Z</time>
      </trkpt>
      <trkpt lat="45.96701" lon="2.82842">
        <ele>684.9</ele>
        <time>2021-07-11T08:10:39Z</time>
      </trkpt>
      <trkpt lat="45.967" lon="2.82843">
        <ele>684.9</ele>
        <time>2021-07-11T08:10:40Z</time>
      </trkpt>
      <trkpt lat="45.96699" lon="2.82844">
        <ele>684.9</ele>
        <time>2021-07-11T08:10:41Z</time>
      </trkpt>
      <trkpt lat="45.96697" lon="2.82846">
        <ele>685</ele>
        <time>2021-07-11T08:10:42Z</time>
      </trkpt>
      <trkpt lat="45.96696" lon="2.82848">
        <ele>685.1</ele>
        <time>2021-07-11T08:10:44Z</time>
      </trkpt>
      <trkpt lat="45.96693" lon="2.82855">
        <ele>685.5</ele>
        <time>2021-07-11T08:10:45Z</time>
      </trkpt>
      <trkpt lat="45.96693" lon="2.82855">
        <ele>685.5</ele>
        <time>2021-07-11T08:10:46Z</time>
      </trkpt>
      <trkpt lat="45.96692" lon="2.82857">
        <ele>685.6</ele>
        <time>2021-07-11T08:10:47Z</time>
      </trkpt>
      <trkpt lat="45.96692" lon="2.82858">
        <ele>685.7</ele>
        <time>2021-07-11T08:10:48Z</time>
      </trkpt>
      <trkpt lat="45.96692" lon="2.8286">
        <ele>685.8</ele>
        <time>2021-07-11T08:10:49Z</time>
      </trkpt>
      <trkpt lat="45.96691" lon="2.82862">
        <ele>685.9</ele>
        <time>2021-07-11T08:10:50Z</time>
      </trkpt>
      <trkpt lat="45.96691" lon="2.82864">
        <ele>686.1</ele>
        <time>2021-07-11T08:10:51Z</time>
      </trkpt>
      <trkpt lat="45.96692" lon="2.82866">
        <ele>686.3</ele>
        <time>2021-07-11T08:10:52Z</time>
      </trkpt>
      <trkpt lat="45.96692" lon="2.82868">
        <ele>686.4</ele>
        <time>2021-07-11T08:10:53Z</time>
      </trkpt>
      <trkpt lat="45.96692" lon="2.8287">
        <ele>686.6</ele>
        <time>2021-07-11T08:10:54Z</time>
      </trkpt>
      <trkpt lat="45.96693" lon="2.82872">
        <ele>686.7</ele>
        <time>2021-07-11T08:10:55Z</time>
      </trkpt>
      <trkpt lat="45.96693" lon="2.82873">
        <ele>686.8</ele>
        <time>2021-07-11T08:10:56Z</time>
      </trkpt>
      <trkpt lat="45.96694" lon="2.82875">
        <ele>687</ele>
        <time>2021-07-11T08:10:57Z</time>
      </trkpt>
      <trkpt lat="45.96695" lon="2.82877">
        <ele>687.2</ele>
        <time>2021-07-11T08:10:58Z</time>
      </trkpt>
      <trkpt lat="45.96696" lon="2.82879">
        <ele>687.3</ele>
        <time>2021-07-11T08:10:59Z</time>
      </trkpt>
      <trkpt lat="45.96696" lon="2.82881">
        <ele>687.5</ele>
        <time>2021-07-11T08:11:00Z</time>
      </trkpt>
      <trkpt lat="45.96697" lon="2.82882">
        <ele>687.6</ele>
        <time>2021-07-11T08:11:01Z</time>
      </trkpt>
      <trkpt lat="45.96698" lon="2.82884">
        <ele>687.8</ele>
        <time>2021-07-11T08:11:02Z</time>
      </trkpt>
      <trkpt lat="45.96698" lon="2.82886">
        <ele>687.9</ele>
        <time>2021-07-11T08:11:03Z</time>
      </trkpt>
      <trkpt lat="45.96699" lon="2.82888">
        <ele>688.1</ele>
        <time>2021-07-11T08:11:04Z</time>
      </trkpt>
      <trkpt lat="45.967" lon="2.82889">
        <ele>688.2</ele>
        <time>2021-07-11T08:11:05Z</time>
      </trkpt>
      <trkpt lat="45.96701" lon="2.82891">
        <ele>688.3</ele>
        <time>2021-07-11T08:11:06Z</time>
      </trkpt>
      <trkpt lat="45.96701" lon="2.82893">
        <ele>688.4</ele>
        <time>2021-07-11T08:11:07Z</time>
      </trkpt>
      <trkpt lat="45.96702" lon="2.82895">
        <ele>688.5</ele>
        <time>2021-07-11T08:11:08Z</time>
      </trkpt>
      <trkpt lat="45.96702" lon="2.82897">
        <ele>688.6</ele>
        <time>2021-07-11T08:11:09Z</time>
      </trkpt>
      <trkpt lat="45.96703" lon="2.82899">
        <ele>688.7</ele>
        <time>2021-07-11T08:11:10Z</time>
      </trkpt>
      <trkpt lat="45.96703" lon="2.82901">
        <ele>688.7</ele>
        <time>2021-07-11T08:11:11Z</time>
      </trkpt>
      <trkpt lat="45.96704" lon="2.82903">
        <ele>688.9</ele>
        <time>2021-07-11T08:11:12Z</time>
      </trkpt>
      <trkpt lat="45.96704" lon="2.82905">
        <ele>688.9</ele>
        <time>2021-07-11T08:11:12Z</time>
      </trkpt>
      <trkpt lat="45.96704" lon="2.82907">
        <ele>689</ele>
        <time>2021-07-11T08:11:13Z</time>
      </trkpt>
      <trkpt lat="45.96705" lon="2.82909">
        <ele>689.1</ele>
        <time>2021-07-11T08:11:14Z</time>
      </trkpt>
      <trkpt lat="45.96705" lon="2.82911">
        <ele>689.2</ele>
        <time>2021-07-11T08:11:15Z</time>
      </trkpt>
      <trkpt lat="45.96705" lon="2.82914">
        <ele>689.3</ele>
        <time>2021-07-11T08:11:16Z</time>
      </trkpt>
      <trkpt lat="45.96705" lon="2.82916">
        <ele>689.4</ele>
        <time>2021-07-11T08:11:17Z</time>
      </trkpt>
      <trkpt lat="45.96705" lon="2.82918">
        <ele>689.5</ele>
        <time>2021-07-11T08:11:18Z</time>
      </trkpt>
      <trkpt lat="45.96705" lon="2.8292">
        <ele>689.6</ele>
        <time>2021-07-11T08:11:19Z</time>
      </trkpt>
      <trkpt lat="45.96706" lon="2.82921">
        <ele>689.7</ele>
        <time>2021-07-11T08:11:20Z</time>
      </trkpt>
      <trkpt lat="45.96706" lon="2.82922">
        <ele>689.8</ele>
        <time>2021-07-11T08:11:21Z</time>
      </trkpt>
      <trkpt lat="45.96707" lon="2.82924">
        <ele>690</ele>
        <time>2021-07-11T08:11:22Z</time>
      </trkpt>
      <trkpt lat="45.96707" lon="2.82925">
        <ele>690.1</ele>
        <time>2021-07-11T08:11:23Z</time>
      </trkpt>
      <trkpt lat="45.96708" lon="2.82927">
        <ele>690.2</ele>
        <time>2021-07-11T08:11:24Z</time>
      </trkpt>
      <trkpt lat="45.96708" lon="2.82928">
        <ele>690.3</ele>
        <time>2021-07-11T08:11:25Z</time>
      </trkpt>
      <trkpt lat="45.96709" lon="2.8293">
        <ele>690.5</ele>
        <time>2021-07-11T08:11:26Z</time>
      </trkpt>
      <trkpt lat="45.96709" lon="2.82932">
        <ele>690.6</ele>
        <time>2021-07-11T08:11:27Z</time>
      </trkpt>
      <trkpt lat="45.96709" lon="2.82934">
        <ele>690.8</ele>
        <time>2021-07-11T08:11:28Z</time>
      </trkpt>
      <trkpt lat="45.96709" lon="2.82936">
        <ele>690.9</ele>
        <time>2021-07-11T08:11:29Z</time>
      </trkpt>
      <trkpt lat="45.9671" lon="2.82938">
        <ele>691.1</ele>
        <time>2021-07-11T08:11:30Z</time>
      </trkpt>
      <trkpt lat="45.9671" lon="2.8294">
        <ele>691.2</ele>
        <time>2021-07-11T08:11:31Z</time>
      </trkpt>
      <trkpt lat="45.9671" lon="2.82942">
        <ele>691.4</ele>
        <time>2021-07-11T08:11:32Z</time>
      </trkpt>
      <trkpt lat="45.9671" lon="2.82944">
        <ele>691.5</ele>
        <time>2021-07-11T08:11:33Z</time>
      </trkpt>
      <trkpt lat="45.9671" lon="2.82946">
        <ele>691.7</ele>
        <time>2021-07-11T08:11:34Z</time>
      </trkpt>
      <trkpt lat="45.9671" lon="2.82948">
        <ele>691.8</ele>
        <time>2021-07-11T08:11:35Z</time>
      </trkpt>
      <trkpt lat="45.9671" lon="2.8295">
        <ele>691.9</ele>
        <time>2021-07-11T08:11:36Z</time>
      </trkpt>
      <trkpt lat="45.9671" lon="2.82952">
        <ele>692.1</ele>
        <time>2021-07-11T08:11:37Z</time>
      </trkpt>
      <trkpt lat="45.9671" lon="2.82954">
        <ele>692.2</ele>
        <time>2021-07-11T08:11:38Z</time>
      </trkpt>
      <trkpt lat="45.9671" lon="2.82956">
        <ele>692.3</ele>
        <time>2021-07-11T08:11:39Z</time>
      </trkpt>
      <trkpt lat="45.9671" lon="2.82957">
        <ele>692.4</ele>
        <time>2021-07-11T08:11:40Z</time>
      </trkpt>
      <trkpt lat="45.96711" lon="2.82959">
        <ele>692.5</ele>
        <time>2021-07-11T08:11:41Z</time>
      </trkpt>
      <trkpt lat="45.96711" lon="2.82961">
        <ele>692.7</ele>
        <time>2021-07-11T08:11:42Z</time>
      </trkpt>
      <trkpt lat="45.96711" lon="2.82963">
        <ele>692.8</ele>
        <time>2021-07-11T08:11:44Z</time>
      </trkpt>
      <trkpt lat="45.96711" lon="2.8297">
        <ele>693.3</ele>
        <time>2021-07-11T08:11:45Z</time>
      </trkpt>
      <trkpt lat="45.96711" lon="2.82971">
        <ele>693.3</ele>
        <time>2021-07-11T08:11:46Z</time>
      </trkpt>
      <trkpt lat="45.96711" lon="2.82972">
        <ele>693.4</ele>
        <time>2021-07-11T08:11:47Z</time>
      </trkpt>
      <trkpt lat="45.96711" lon="2.82973">
        <ele>693.4</ele>
        <time>2021-07-11T08:11:48Z</time>
      </trkpt>
      <trkpt lat="45.96711" lon="2.82975">
        <ele>693.5</ele>
        <time>2021-07-11T08:11:49Z</time>
      </trkpt>
      <trkpt lat="45.96712" lon="2.82977">
        <ele>693.5</ele>
        <time>2021-07-11T08:11:50Z</time>
      </trkpt>
      <trkpt lat="45.96712" lon="2.82979">
        <ele>693.6</ele>
        <time>2021-07-11T08:11:51Z</time>
      </trkpt>
      <trkpt lat="45.96712" lon="2.82981">
        <ele>693.7</ele>
        <time>2021-07-11T08:11:52Z</time>
      </trkpt>
      <trkpt lat="45.96713" lon="2.82983">
        <ele>693.7</ele>
        <time>2021-07-11T08:11:53Z</time>
      </trkpt>
      <trkpt lat="45.96713" lon="2.82985">
        <ele>693.8</ele>
        <time>2021-07-11T08:11:54Z</time>
      </trkpt>
      <trkpt lat="45.96713" lon="2.82987">
        <ele>693.9</ele>
        <time>2021-07-11T08:11:55Z</time>
      </trkpt>
      <trkpt lat="45.96713" lon="2.82989">
        <ele>693.9</ele>
        <time>2021-07-11T08:11:56Z</time>
      </trkpt>
      <trkpt lat="45.96713" lon="2.82992">
        <ele>694</ele>
        <time>2021-07-11T08:11:57Z</time>
      </trkpt>
      <trkpt lat="45.96713" lon="2.82993">
        <ele>694.1</ele>
        <time>2021-07-11T08:11:58Z</time>
      </trkpt>
      <trkpt lat="45.96713" lon="2.82995">
        <ele>694.2</ele>
        <time>2021-07-11T08:11:59Z</time>
      </trkpt>
      <trkpt lat="45.96713" lon="2.82997">
        <ele>694.2</ele>
        <time>2021-07-11T08:12:00Z</time>
      </trkpt>
      <trkpt lat="45.96713" lon="2.82999">
        <ele>694.3</ele>
        <time>2021-07-11T08:12:01Z</time>
      </trkpt>
      <trkpt lat="45.96713" lon="2.83001">
        <ele>694.4</ele>
        <time>2021-07-11T08:12:02Z</time>
      </trkpt>
      <trkpt lat="45.96713" lon="2.83003">
        <ele>694.5</ele>
        <time>2021-07-11T08:12:03Z</time>
      </trkpt>
      <trkpt lat="45.96714" lon="2.83005">
        <ele>694.7</ele>
        <time>2021-07-11T08:12:04Z</time>
      </trkpt>
      <trkpt lat="45.96714" lon="2.83007">
        <ele>694.8</ele>
        <time>2021-07-11T08:12:05Z</time>
      </trkpt>
      <trkpt lat="45.96714" lon="2.83009">
        <ele>694.9</ele>
        <time>2021-07-11T08:12:06Z</time>
      </trkpt>
      <trkpt lat="45.96713" lon="2.83011">
        <ele>695.1</ele>
        <time>2021-07-11T08:12:07Z</time>
      </trkpt>
      <trkpt lat="45.96713" lon="2.83012">
        <ele>695.2</ele>
        <time>2021-07-11T08:12:08Z</time>
      </trkpt>
      <trkpt lat="45.96713" lon="2.83014">
        <ele>695.3</ele>
        <time>2021-07-11T08:12:09Z</time>
      </trkpt>
      <trkpt lat="45.96712" lon="2.83016">
        <ele>695.5</ele>
        <time>2021-07-11T08:12:10Z</time>
      </trkpt>
      <trkpt lat="45.96711" lon="2.83018">
        <ele>695.7</ele>
        <time>2021-07-11T08:12:11Z</time>
      </trkpt>
      <trkpt lat="45.96711" lon="2.8302">
        <ele>695.8</ele>
        <time>2021-07-11T08:12:12Z</time>
      </trkpt>
      <trkpt lat="45.96711" lon="2.83022">
        <ele>696</ele>
        <time>2021-07-11T08:12:13Z</time>
      </trkpt>
      <trkpt lat="45.96711" lon="2.83024">
        <ele>696.1</ele>
        <time>2021-07-11T08:12:14Z</time>
      </trkpt>
      <trkpt lat="45.9671" lon="2.83026">
        <ele>696.3</ele>
        <time>2021-07-11T08:12:15Z</time>
      </trkpt>
      <trkpt lat="45.96709" lon="2.83028">
        <ele>696.5</ele>
        <time>2021-07-11T08:12:16Z</time>
      </trkpt>
      <trkpt lat="45.96709" lon="2.8303">
        <ele>696.6</ele>
        <time>2021-07-11T08:12:17Z</time>
      </trkpt>
      <trkpt lat="45.96709" lon="2.83031">
        <ele>696.6</ele>
        <time>2021-07-11T08:12:18Z</time>
      </trkpt>
      <trkpt lat="45.96709" lon="2.83033">
        <ele>696.8</ele>
        <time>2021-07-11T08:12:19Z</time>
      </trkpt>
      <trkpt lat="45.96709" lon="2.83035">
        <ele>696.9</ele>
        <time>2021-07-11T08:12:20Z</time>
      </trkpt>
      <trkpt lat="45.96709" lon="2.83037">
        <ele>697</ele>
        <time>2021-07-11T08:12:21Z</time>
      </trkpt>
      <trkpt lat="45.9671" lon="2.83038">
        <ele>697</ele>
        <time>2021-07-11T08:12:22Z</time>
      </trkpt>
      <trkpt lat="45.9671" lon="2.8304">
        <ele>697.1</ele>
        <time>2021-07-11T08:12:23Z</time>
      </trkpt>
      <trkpt lat="45.96711" lon="2.83042">
        <ele>697.1</ele>
        <time>2021-07-11T08:12:24Z</time>
      </trkpt>
      <trkpt lat="45.96711" lon="2.83043">
        <ele>697.2</ele>
        <time>2021-07-11T08:12:25Z</time>
      </trkpt>
      <trkpt lat="45.96711" lon="2.83045">
        <ele>697.3</ele>
        <time>2021-07-11T08:12:26Z</time>
      </trkpt>
      <trkpt lat="45.96711" lon="2.83047">
        <ele>697.4</ele>
        <time>2021-07-11T08:12:27Z</time>
      </trkpt>
      <trkpt lat="45.96712" lon="2.83048">
        <ele>697.4</ele>
        <time>2021-07-11T08:12:28Z</time>
      </trkpt>
      <trkpt lat="45.96713" lon="2.8305">
        <ele>697.4</ele>
        <time>2021-07-11T08:12:29Z</time>
      </trkpt>
      <trkpt lat="45.96713" lon="2.83052">
        <ele>697.5</ele>
        <time>2021-07-11T08:12:30Z</time>
      </trkpt>
      <trkpt lat="45.96714" lon="2.83054">
        <ele>697.5</ele>
        <time>2021-07-11T08:12:31Z</time>
      </trkpt>
      <trkpt lat="45.96714" lon="2.83055">
        <ele>697.6</ele>
        <time>2021-07-11T08:12:32Z</time>
      </trkpt>
      <trkpt lat="45.96714" lon="2.83057">
        <ele>697.6</ele>
        <time>2021-07-11T08:12:33Z</time>
      </trkpt>
      <trkpt lat="45.96714" lon="2.83059">
        <ele>697.7</ele>
        <time>2021-07-11T08:12:34Z</time>
      </trkpt>
      <trkpt lat="45.96714" lon="2.83061">
        <ele>697.8</ele>
        <time>2021-07-11T08:12:35Z</time>
      </trkpt>
      <trkpt lat="45.96714" lon="2.83063">
        <ele>697.9</ele>
        <time>2021-07-11T08:12:36Z</time>
      </trkpt>
      <trkpt lat="45.96714" lon="2.83065">
        <ele>697.9</ele>
        <time>2021-07-11T08:12:37Z</time>
      </trkpt>
      <trkpt lat="45.96714" lon="2.83066">
        <ele>698</ele>
        <time>2021-07-11T08:12:38Z</time>
      </trkpt>
      <trkpt lat="45.96714" lon="2.83068">
        <ele>698</ele>
        <time>2021-07-11T08:12:39Z</time>
      </trkpt>
      <trkpt lat="45.96714" lon="2.83069">
        <ele>698.1</ele>
        <time>2021-07-11T08:12:40Z</time>
      </trkpt>
      <trkpt lat="45.96714" lon="2.83071">
        <ele>698.1</ele>
        <time>2021-07-11T08:12:41Z</time>
      </trkpt>
      <trkpt lat="45.96714" lon="2.83073">
        <ele>698.2</ele>
        <time>2021-07-11T08:12:43Z</time>
      </trkpt>
      <trkpt lat="45.96714" lon="2.83075">
        <ele>698.3</ele>
        <time>2021-07-11T08:12:44Z</time>
      </trkpt>
      <trkpt lat="45.96714" lon="2.83082">
        <ele>698.5</ele>
        <time>2021-07-11T08:12:45Z</time>
      </trkpt>
      <trkpt lat="45.96713" lon="2.83083">
        <ele>698.7</ele>
        <time>2021-07-11T08:12:46Z</time>
      </trkpt>
      <trkpt lat="45.96713" lon="2.83084">
        <ele>698.7</ele>
        <time>2021-07-11T08:12:47Z</time>
      </trkpt>
      <trkpt lat="45.96713" lon="2.83086">
        <ele>698.7</ele>
        <time>2021-07-11T08:12:48Z</time>
      </trkpt>
      <trkpt lat="45.96713" lon="2.83088">
        <ele>698.7</ele>
        <time>2021-07-11T08:12:49Z</time>
      </trkpt>
      <trkpt lat="45.96712" lon="2.8309">
        <ele>698.7</ele>
        <time>2021-07-11T08:12:50Z</time>
      </trkpt>
      <trkpt lat="45.96711" lon="2.83092">
        <ele>698.8</ele>
        <time>2021-07-11T08:12:51Z</time>
      </trkpt>
      <trkpt lat="45.96711" lon="2.83093">
        <ele>698.8</ele>
        <time>2021-07-11T08:12:52Z</time>
      </trkpt>
      <trkpt lat="45.96711" lon="2.83096">
        <ele>698.8</ele>
        <time>2021-07-11T08:12:53Z</time>
      </trkpt>
      <trkpt lat="45.96711" lon="2.83098">
        <ele>698.8</ele>
        <time>2021-07-11T08:12:54Z</time>
      </trkpt>
      <trkpt lat="45.96711" lon="2.831">
        <ele>698.8</ele>
        <time>2021-07-11T08:12:55Z</time>
      </trkpt>
      <trkpt lat="45.96711" lon="2.83102">
        <ele>698.8</ele>
        <time>2021-07-11T08:12:56Z</time>
      </trkpt>
      <trkpt lat="45.9671" lon="2.83105">
        <ele>698.9</ele>
        <time>2021-07-11T08:12:57Z</time>
      </trkpt>
      <trkpt lat="45.9671" lon="2.83107">
        <ele>698.9</ele>
        <time>2021-07-11T08:12:58Z</time>
      </trkpt>
      <trkpt lat="45.96709" lon="2.8311">
        <ele>699</ele>
        <time>2021-07-11T08:12:59Z</time>
      </trkpt>
      <trkpt lat="45.96709" lon="2.83113">
        <ele>699</ele>
        <time>2021-07-11T08:13:00Z</time>
      </trkpt>
      <trkpt lat="45.96708" lon="2.83115">
        <ele>699.2</ele>
        <time>2021-07-11T08:13:01Z</time>
      </trkpt>
      <trkpt lat="45.96708" lon="2.83118">
        <ele>699.3</ele>
        <time>2021-07-11T08:13:02Z</time>
      </trkpt>
      <trkpt lat="45.96707" lon="2.83121">
        <ele>699.5</ele>
        <time>2021-07-11T08:13:03Z</time>
      </trkpt>
      <trkpt lat="45.96707" lon="2.83123">
        <ele>699.5</ele>
        <time>2021-07-11T08:13:04Z</time>
      </trkpt>
      <trkpt lat="45.96707" lon="2.83125">
        <ele>699.6</ele>
        <time>2021-07-11T08:13:05Z</time>
      </trkpt>
      <trkpt lat="45.96707" lon="2.83128">
        <ele>699.7</ele>
        <time>2021-07-11T08:13:06Z</time>
      </trkpt>
      <trkpt lat="45.96707" lon="2.8313">
        <ele>699.8</ele>
        <time>2021-07-11T08:13:07Z</time>
      </trkpt>
      <trkpt lat="45.96707" lon="2.83132">
        <ele>699.8</ele>
        <time>2021-07-11T08:13:08Z</time>
      </trkpt>
      <trkpt lat="45.96707" lon="2.83134">
        <ele>699.9</ele>
        <time>2021-07-11T08:13:09Z</time>
      </trkpt>
      <trkpt lat="45.96707" lon="2.83136">
        <ele>700</ele>
        <time>2021-07-11T08:13:10Z</time>
      </trkpt>
      <trkpt lat="45.96707" lon="2.83139">
        <ele>700.1</ele>
        <time>2021-07-11T08:13:11Z</time>
      </trkpt>
      <trkpt lat="45.96707" lon="2.83141">
        <ele>700</ele>
        <time>2021-07-11T08:13:12Z</time>
      </trkpt>
      <trkpt lat="45.96707" lon="2.83143">
        <ele>699.9</ele>
        <time>2021-07-11T08:13:13Z</time>
      </trkpt>
      <trkpt lat="45.96707" lon="2.83145">
        <ele>699.9</ele>
        <time>2021-07-11T08:13:14Z</time>
      </trkpt>
      <trkpt lat="45.96708" lon="2.83147">
        <ele>699.7</ele>
        <time>2021-07-11T08:13:15Z</time>
      </trkpt>
      <trkpt lat="45.96708" lon="2.83149">
        <ele>699.7</ele>
        <time>2021-07-11T08:13:16Z</time>
      </trkpt>
      <trkpt lat="45.96709" lon="2.8315">
        <ele>699.6</ele>
        <time>2021-07-11T08:13:17Z</time>
      </trkpt>
      <trkpt lat="45.96711" lon="2.83151">
        <ele>699.4</ele>
        <time>2021-07-11T08:13:18Z</time>
      </trkpt>
      <trkpt lat="45.96711" lon="2.83152">
        <ele>699.3</ele>
        <time>2021-07-11T08:13:19Z</time>
      </trkpt>
      <trkpt lat="45.96713" lon="2.83153">
        <ele>699.2</ele>
        <time>2021-07-11T08:13:20Z</time>
      </trkpt>
      <trkpt lat="45.96714" lon="2.83153">
        <ele>699.1</ele>
        <time>2021-07-11T08:13:21Z</time>
      </trkpt>
      <trkpt lat="45.96716" lon="2.83153">
        <ele>698.9</ele>
        <time>2021-07-11T08:13:22Z</time>
      </trkpt>
      <trkpt lat="45.96717" lon="2.83153">
        <ele>698.9</ele>
        <time>2021-07-11T08:13:23Z</time>
      </trkpt>
      <trkpt lat="45.96718" lon="2.83153">
        <ele>698.8</ele>
        <time>2021-07-11T08:13:24Z</time>
      </trkpt>
      <trkpt lat="45.9672" lon="2.83152">
        <ele>698.7</ele>
        <time>2021-07-11T08:13:25Z</time>
      </trkpt>
      <trkpt lat="45.96721" lon="2.83152">
        <ele>698.6</ele>
        <time>2021-07-11T08:13:26Z</time>
      </trkpt>
      <trkpt lat="45.96723" lon="2.83151">
        <ele>698.5</ele>
        <time>2021-07-11T08:13:27Z</time>
      </trkpt>
      <trkpt lat="45.96724" lon="2.8315">
        <ele>698.5</ele>
        <time>2021-07-11T08:13:28Z</time>
      </trkpt>
      <trkpt lat="45.96725" lon="2.8315">
        <ele>698.4</ele>
        <time>2021-07-11T08:13:29Z</time>
      </trkpt>
      <trkpt lat="45.96727" lon="2.83149">
        <ele>698.3</ele>
        <time>2021-07-11T08:13:30Z</time>
      </trkpt>
      <trkpt lat="45.96728" lon="2.83149">
        <ele>698.2</ele>
        <time>2021-07-11T08:13:31Z</time>
      </trkpt>
      <trkpt lat="45.9673" lon="2.83149">
        <ele>698.1</ele>
        <time>2021-07-11T08:13:32Z</time>
      </trkpt>
      <trkpt lat="45.96732" lon="2.83148">
        <ele>698</ele>
        <time>2021-07-11T08:13:33Z</time>
      </trkpt>
      <trkpt lat="45.96733" lon="2.83148">
        <ele>697.9</ele>
        <time>2021-07-11T08:13:34Z</time>
      </trkpt>
      <trkpt lat="45.96734" lon="2.83147">
        <ele>697.9</ele>
        <time>2021-07-11T08:13:35Z</time>
      </trkpt>
      <trkpt lat="45.96735" lon="2.83147">
        <ele>697.8</ele>
        <time>2021-07-11T08:13:36Z</time>
      </trkpt>
      <trkpt lat="45.96737" lon="2.83147">
        <ele>697.6</ele>
        <time>2021-07-11T08:13:37Z</time>
      </trkpt>
      <trkpt lat="45.96738" lon="2.83147">
        <ele>697.6</ele>
        <time>2021-07-11T08:13:38Z</time>
      </trkpt>
      <trkpt lat="45.9674" lon="2.83147">
        <ele>697.4</ele>
        <time>2021-07-11T08:13:39Z</time>
      </trkpt>
      <trkpt lat="45.96741" lon="2.83146">
        <ele>697.4</ele>
        <time>2021-07-11T08:13:40Z</time>
      </trkpt>
      <trkpt lat="45.96743" lon="2.83146">
        <ele>697.2</ele>
        <time>2021-07-11T08:13:41Z</time>
      </trkpt>
      <trkpt lat="45.96744" lon="2.83146">
        <ele>697.2</ele>
        <time>2021-07-11T08:13:42Z</time>
      </trkpt>
      <trkpt lat="45.96746" lon="2.83145">
        <ele>697.1</ele>
        <time>2021-07-11T08:13:43Z</time>
      </trkpt>
      <trkpt lat="45.96747" lon="2.83145">
        <ele>697</ele>
        <time>2021-07-11T08:13:44Z</time>
      </trkpt>
      <trkpt lat="45.96749" lon="2.83144">
        <ele>696.9</ele>
        <time>2021-07-11T08:13:45Z</time>
      </trkpt>
      <trkpt lat="45.9675" lon="2.83144">
        <ele>696.8</ele>
        <time>2021-07-11T08:13:46Z</time>
      </trkpt>
      <trkpt lat="45.96751" lon="2.83144">
        <ele>696.8</ele>
        <time>2021-07-11T08:13:47Z</time>
      </trkpt>
      <trkpt lat="45.96753" lon="2.83143">
        <ele>696.8</ele>
        <time>2021-07-11T08:13:48Z</time>
      </trkpt>
      <trkpt lat="45.96755" lon="2.83143">
        <ele>696.7</ele>
        <time>2021-07-11T08:13:49Z</time>
      </trkpt>
      <trkpt lat="45.96756" lon="2.83142">
        <ele>696.7</ele>
        <time>2021-07-11T08:13:50Z</time>
      </trkpt>
      <trkpt lat="45.96758" lon="2.83142">
        <ele>696.6</ele>
        <time>2021-07-11T08:13:51Z</time>
      </trkpt>
      <trkpt lat="45.96759" lon="2.83141">
        <ele>696.6</ele>
        <time>2021-07-11T08:13:52Z</time>
      </trkpt>
      <trkpt lat="45.96761" lon="2.83141">
        <ele>696.6</ele>
        <time>2021-07-11T08:13:53Z</time>
      </trkpt>
      <trkpt lat="45.96762" lon="2.8314">
        <ele>696.5</ele>
        <time>2021-07-11T08:13:54Z</time>
      </trkpt>
      <trkpt lat="45.96764" lon="2.8314">
        <ele>696.5</ele>
        <time>2021-07-11T08:13:55Z</time>
      </trkpt>
      <trkpt lat="45.96765" lon="2.8314">
        <ele>696.4</ele>
        <time>2021-07-11T08:13:56Z</time>
      </trkpt>
      <trkpt lat="45.96767" lon="2.83139">
        <ele>696.4</ele>
        <time>2021-07-11T08:13:57Z</time>
      </trkpt>
      <trkpt lat="45.96768" lon="2.83139">
        <ele>696.4</ele>
        <time>2021-07-11T08:13:58Z</time>
      </trkpt>
      <trkpt lat="45.96769" lon="2.83138">
        <ele>696.3</ele>
        <time>2021-07-11T08:13:59Z</time>
      </trkpt>
      <trkpt lat="45.96771" lon="2.83137">
        <ele>696.3</ele>
        <time>2021-07-11T08:14:00Z</time>
      </trkpt>
      <trkpt lat="45.96772" lon="2.83137">
        <ele>696.3</ele>
        <time>2021-07-11T08:14:01Z</time>
      </trkpt>
      <trkpt lat="45.96774" lon="2.83136">
        <ele>696.2</ele>
        <time>2021-07-11T08:14:02Z</time>
      </trkpt>
      <trkpt lat="45.96774" lon="2.83136">
        <ele>696.2</ele>
        <time>2021-07-11T08:14:03Z</time>
      </trkpt>
      <trkpt lat="45.96776" lon="2.83135">
        <ele>696.2</ele>
        <time>2021-07-11T08:14:04Z</time>
      </trkpt>
      <trkpt lat="45.96777" lon="2.83134">
        <ele>696.2</ele>
        <time>2021-07-11T08:14:05Z</time>
      </trkpt>
      <trkpt lat="45.96778" lon="2.83134">
        <ele>696.2</ele>
        <time>2021-07-11T08:14:06Z</time>
      </trkpt>
      <trkpt lat="45.9678" lon="2.83134">
        <ele>696.2</ele>
        <time>2021-07-11T08:14:07Z</time>
      </trkpt>
      <trkpt lat="45.9678" lon="2.83133">
        <ele>696.2</ele>
        <time>2021-07-11T08:14:08Z</time>
      </trkpt>
      <trkpt lat="45.96782" lon="2.83133">
        <ele>696.2</ele>
        <time>2021-07-11T08:14:09Z</time>
      </trkpt>
      <trkpt lat="45.96783" lon="2.83133">
        <ele>696.2</ele>
        <time>2021-07-11T08:14:10Z</time>
      </trkpt>
      <trkpt lat="45.96785" lon="2.83133">
        <ele>696.2</ele>
        <time>2021-07-11T08:14:11Z</time>
      </trkpt>
      <trkpt lat="45.96786" lon="2.83133">
        <ele>696.2</ele>
        <time>2021-07-11T08:14:12Z</time>
      </trkpt>
      <trkpt lat="45.96787" lon="2.83133">
        <ele>696.2</ele>
        <time>2021-07-11T08:14:13Z</time>
      </trkpt>
      <trkpt lat="45.96789" lon="2.83132">
        <ele>696.2</ele>
        <time>2021-07-11T08:14:14Z</time>
      </trkpt>
      <trkpt lat="45.9679" lon="2.83132">
        <ele>696.2</ele>
        <time>2021-07-11T08:14:15Z</time>
      </trkpt>
      <trkpt lat="45.96792" lon="2.83132">
        <ele>696.2</ele>
        <time>2021-07-11T08:14:16Z</time>
      </trkpt>
      <trkpt lat="45.96793" lon="2.83132">
        <ele>696.2</ele>
        <time>2021-07-11T08:14:17Z</time>
      </trkpt>
      <trkpt lat="45.96795" lon="2.83132">
        <ele>696.2</ele>
        <time>2021-07-11T08:14:18Z</time>
      </trkpt>
      <trkpt lat="45.96796" lon="2.83131">
        <ele>696.3</ele>
        <time>2021-07-11T08:14:19Z</time>
      </trkpt>
      <trkpt lat="45.96798" lon="2.83131">
        <ele>696.3</ele>
        <time>2021-07-11T08:14:20Z</time>
      </trkpt>
      <trkpt lat="45.96799" lon="2.83131">
        <ele>696.3</ele>
        <time>2021-07-11T08:14:21Z</time>
      </trkpt>
      <trkpt lat="45.96801" lon="2.83131">
        <ele>696.3</ele>
        <time>2021-07-11T08:14:22Z</time>
      </trkpt>
      <trkpt lat="45.96802" lon="2.83131">
        <ele>696.3</ele>
        <time>2021-07-11T08:14:23Z</time>
      </trkpt>
      <trkpt lat="45.96804" lon="2.83131">
        <ele>696.3</ele>
        <time>2021-07-11T08:14:24Z</time>
      </trkpt>
      <trkpt lat="45.96805" lon="2.8313">
        <ele>696.3</ele>
        <time>2021-07-11T08:14:25Z</time>
      </trkpt>
      <trkpt lat="45.96807" lon="2.8313">
        <ele>696.3</ele>
        <time>2021-07-11T08:14:26Z</time>
      </trkpt>
      <trkpt lat="45.96808" lon="2.8313">
        <ele>696.2</ele>
        <time>2021-07-11T08:14:27Z</time>
      </trkpt>
      <trkpt lat="45.9681" lon="2.8313">
        <ele>696.1</ele>
        <time>2021-07-11T08:14:28Z</time>
      </trkpt>
      <trkpt lat="45.96811" lon="2.83129">
        <ele>696.1</ele>
        <time>2021-07-11T08:14:29Z</time>
      </trkpt>
      <trkpt lat="45.96813" lon="2.83129">
        <ele>696</ele>
        <time>2021-07-11T08:14:30Z</time>
      </trkpt>
      <trkpt lat="45.96814" lon="2.83129">
        <ele>695.9</ele>
        <time>2021-07-11T08:14:31Z</time>
      </trkpt>
      <trkpt lat="45.96816" lon="2.83129">
        <ele>695.8</ele>
        <time>2021-07-11T08:14:32Z</time>
      </trkpt>
      <trkpt lat="45.96818" lon="2.83128">
        <ele>695.8</ele>
        <time>2021-07-11T08:14:33Z</time>
      </trkpt>
      <trkpt lat="45.9682" lon="2.83128">
        <ele>695.7</ele>
        <time>2021-07-11T08:14:34Z</time>
      </trkpt>
      <trkpt lat="45.96822" lon="2.83128">
        <ele>695.6</ele>
        <time>2021-07-11T08:14:35Z</time>
      </trkpt>
      <trkpt lat="45.96823" lon="2.83128">
        <ele>695.5</ele>
        <time>2021-07-11T08:14:36Z</time>
      </trkpt>
      <trkpt lat="45.96825" lon="2.83128">
        <ele>695.4</ele>
        <time>2021-07-11T08:14:37Z</time>
      </trkpt>
      <trkpt lat="45.96826" lon="2.83128">
        <ele>695.4</ele>
        <time>2021-07-11T08:14:38Z</time>
      </trkpt>
      <trkpt lat="45.96828" lon="2.83128">
        <ele>695.3</ele>
        <time>2021-07-11T08:14:39Z</time>
      </trkpt>
      <trkpt lat="45.96829" lon="2.83128">
        <ele>695.2</ele>
        <time>2021-07-11T08:14:40Z</time>
      </trkpt>
      <trkpt lat="45.96831" lon="2.83128">
        <ele>695.1</ele>
        <time>2021-07-11T08:14:41Z</time>
      </trkpt>
      <trkpt lat="45.96832" lon="2.83128">
        <ele>695.1</ele>
        <time>2021-07-11T08:14:44Z</time>
      </trkpt>
      <trkpt lat="45.9684" lon="2.83127">
        <ele>694.5</ele>
        <time>2021-07-11T08:14:45Z</time>
      </trkpt>
      <trkpt lat="45.9684" lon="2.83127">
        <ele>694.5</ele>
        <time>2021-07-11T08:14:46Z</time>
      </trkpt>
      <trkpt lat="45.96841" lon="2.83127">
        <ele>694.4</ele>
        <time>2021-07-11T08:14:47Z</time>
      </trkpt>
      <trkpt lat="45.96843" lon="2.83127">
        <ele>694.3</ele>
        <time>2021-07-11T08:14:48Z</time>
      </trkpt>
      <trkpt lat="45.96843" lon="2.83127">
        <ele>694.3</ele>
        <time>2021-07-11T08:14:49Z</time>
      </trkpt>
      <trkpt lat="45.96845" lon="2.83127">
        <ele>694.2</ele>
        <time>2021-07-11T08:14:50Z</time>
      </trkpt>
      <trkpt lat="45.96847" lon="2.83126">
        <ele>694</ele>
        <time>2021-07-11T08:14:51Z</time>
      </trkpt>
      <trkpt lat="45.96848" lon="2.83126">
        <ele>693.9</ele>
        <time>2021-07-11T08:14:52Z</time>
      </trkpt>
      <trkpt lat="45.96849" lon="2.83126">
        <ele>693.9</ele>
        <time>2021-07-11T08:14:53Z</time>
      </trkpt>
      <trkpt lat="45.96851" lon="2.83126">
        <ele>693.7</ele>
        <time>2021-07-11T08:14:54Z</time>
      </trkpt>
      <trkpt lat="45.96852" lon="2.83126">
        <ele>693.7</ele>
        <time>2021-07-11T08:14:55Z</time>
      </trkpt>
      <trkpt lat="45.96853" lon="2.83125">
        <ele>693.6</ele>
        <time>2021-07-11T08:14:56Z</time>
      </trkpt>
      <trkpt lat="45.96855" lon="2.83125">
        <ele>693.4</ele>
        <time>2021-07-11T08:14:57Z</time>
      </trkpt>
      <trkpt lat="45.96856" lon="2.83125">
        <ele>693.4</ele>
        <time>2021-07-11T08:14:58Z</time>
      </trkpt>
      <trkpt lat="45.96858" lon="2.83124">
        <ele>693.2</ele>
        <time>2021-07-11T08:14:59Z</time>
      </trkpt>
      <trkpt lat="45.96859" lon="2.83124">
        <ele>693.2</ele>
        <time>2021-07-11T08:15:00Z</time>
      </trkpt>
      <trkpt lat="45.96861" lon="2.83124">
        <ele>693</ele>
        <time>2021-07-11T08:15:01Z</time>
      </trkpt>
      <trkpt lat="45.96862" lon="2.83124">
        <ele>692.9</ele>
        <time>2021-07-11T08:15:02Z</time>
      </trkpt>
      <trkpt lat="45.96864" lon="2.83123">
        <ele>692.8</ele>
        <time>2021-07-11T08:15:03Z</time>
      </trkpt>
      <trkpt lat="45.96865" lon="2.83123">
        <ele>692.7</ele>
        <time>2021-07-11T08:15:04Z</time>
      </trkpt>
      <trkpt lat="45.96866" lon="2.83123">
        <ele>692.7</ele>
        <time>2021-07-11T08:15:05Z</time>
      </trkpt>
      <trkpt lat="45.96868" lon="2.83123">
        <ele>692.5</ele>
        <time>2021-07-11T08:15:06Z</time>
      </trkpt>
      <trkpt lat="45.96869" lon="2.83123">
        <ele>692.5</ele>
        <time>2021-07-11T08:15:07Z</time>
      </trkpt>
      <trkpt lat="45.96871" lon="2.83123">
        <ele>692.3</ele>
        <time>2021-07-11T08:15:08Z</time>
      </trkpt>
      <trkpt lat="45.96872" lon="2.83123">
        <ele>692.3</ele>
        <time>2021-07-11T08:15:09Z</time>
      </trkpt>
      <trkpt lat="45.96874" lon="2.83122">
        <ele>692.2</ele>
        <time>2021-07-11T08:15:10Z</time>
      </trkpt>
      <trkpt lat="45.96875" lon="2.83122">
        <ele>692.1</ele>
        <time>2021-07-11T08:15:11Z</time>
      </trkpt>
      <trkpt lat="45.96876" lon="2.83122">
        <ele>692</ele>
        <time>2021-07-11T08:15:12Z</time>
      </trkpt>
      <trkpt lat="45.96878" lon="2.83122">
        <ele>691.9</ele>
        <time>2021-07-11T08:15:13Z</time>
      </trkpt>
      <trkpt lat="45.96879" lon="2.83122">
        <ele>691.9</ele>
        <time>2021-07-11T08:15:14Z</time>
      </trkpt>
      <trkpt lat="45.96881" lon="2.83121">
        <ele>691.8</ele>
        <time>2021-07-11T08:15:15Z</time>
      </trkpt>
      <trkpt lat="45.96882" lon="2.83121">
        <ele>691.7</ele>
        <time>2021-07-11T08:15:16Z</time>
      </trkpt>
      <trkpt lat="45.96884" lon="2.83121">
        <ele>691.6</ele>
        <time>2021-07-11T08:15:17Z</time>
      </trkpt>
      <trkpt lat="45.96885" lon="2.83121">
        <ele>691.5</ele>
        <time>2021-07-11T08:15:18Z</time>
      </trkpt>
      <trkpt lat="45.96886" lon="2.83121">
        <ele>691.5</ele>
        <time>2021-07-11T08:15:19Z</time>
      </trkpt>
      <trkpt lat="45.96888" lon="2.83121">
        <ele>691.3</ele>
        <time>2021-07-11T08:15:20Z</time>
      </trkpt>
      <trkpt lat="45.9689" lon="2.83121">
        <ele>691.2</ele>
        <time>2021-07-11T08:15:21Z</time>
      </trkpt>
      <trkpt lat="45.96891" lon="2.83121">
        <ele>691.2</ele>
        <time>2021-07-11T08:15:22Z</time>
      </trkpt>
      <trkpt lat="45.96892" lon="2.8312">
        <ele>691.2</ele>
        <time>2021-07-11T08:15:23Z</time>
      </trkpt>
      <trkpt lat="45.96894" lon="2.8312">
        <ele>691.1</ele>
        <time>2021-07-11T08:15:24Z</time>
      </trkpt>
      <trkpt lat="45.96895" lon="2.8312">
        <ele>691.1</ele>
        <time>2021-07-11T08:15:25Z</time>
      </trkpt>
      <trkpt lat="45.96897" lon="2.8312">
        <ele>691</ele>
        <time>2021-07-11T08:15:26Z</time>
      </trkpt>
      <trkpt lat="45.96899" lon="2.83119">
        <ele>691</ele>
        <time>2021-07-11T08:15:27Z</time>
      </trkpt>
      <trkpt lat="45.969" lon="2.83119">
        <ele>690.9</ele>
        <time>2021-07-11T08:15:27Z</time>
      </trkpt>
      <trkpt lat="45.96902" lon="2.83119">
        <ele>690.8</ele>
        <time>2021-07-11T08:15:28Z</time>
      </trkpt>
      <trkpt lat="45.96904" lon="2.83119">
        <ele>690.7</ele>
        <time>2021-07-11T08:15:29Z</time>
      </trkpt>
      <trkpt lat="45.96905" lon="2.83119">
        <ele>690.7</ele>
        <time>2021-07-11T08:15:30Z</time>
      </trkpt>
      <trkpt lat="45.96907" lon="2.83119">
        <ele>690.6</ele>
        <time>2021-07-11T08:15:31Z</time>
      </trkpt>
      <trkpt lat="45.96907" lon="2.83119">
        <ele>690.6</ele>
        <time>2021-07-11T08:15:32Z</time>
      </trkpt>
      <trkpt lat="45.96909" lon="2.83119">
        <ele>690.5</ele>
        <time>2021-07-11T08:15:33Z</time>
      </trkpt>
      <trkpt lat="45.96911" lon="2.83119">
        <ele>690.4</ele>
        <time>2021-07-11T08:15:34Z</time>
      </trkpt>
      <trkpt lat="45.96912" lon="2.83119">
        <ele>690.4</ele>
        <time>2021-07-11T08:15:35Z</time>
      </trkpt>
      <trkpt lat="45.96913" lon="2.83119">
        <ele>690.3</ele>
        <time>2021-07-11T08:15:36Z</time>
      </trkpt>
      <trkpt lat="45.96915" lon="2.83119">
        <ele>690.2</ele>
        <time>2021-07-11T08:15:37Z</time>
      </trkpt>
      <trkpt lat="45.96916" lon="2.83119">
        <ele>690.2</ele>
        <time>2021-07-11T08:15:38Z</time>
      </trkpt>
      <trkpt lat="45.96918" lon="2.83119">
        <ele>690.1</ele>
        <time>2021-07-11T08:15:39Z</time>
      </trkpt>
      <trkpt lat="45.96919" lon="2.83119">
        <ele>690.1</ele>
        <time>2021-07-11T08:15:40Z</time>
      </trkpt>
      <trkpt lat="45.96921" lon="2.83119">
        <ele>690</ele>
        <time>2021-07-11T08:15:41Z</time>
      </trkpt>
      <trkpt lat="45.96922" lon="2.83119">
        <ele>690</ele>
        <time>2021-07-11T08:15:42Z</time>
      </trkpt>
      <trkpt lat="45.96923" lon="2.83119">
        <ele>689.9</ele>
        <time>2021-07-11T08:15:44Z</time>
      </trkpt>
      <trkpt lat="45.9693" lon="2.83118">
        <ele>689.8</ele>
        <time>2021-07-11T08:15:45Z</time>
      </trkpt>
      <trkpt lat="45.9693" lon="2.83118">
        <ele>689.8</ele>
        <time>2021-07-11T08:15:46Z</time>
      </trkpt>
      <trkpt lat="45.96931" lon="2.83118">
        <ele>689.7</ele>
        <time>2021-07-11T08:15:47Z</time>
      </trkpt>
      <trkpt lat="45.96932" lon="2.83118">
        <ele>689.7</ele>
        <time>2021-07-11T08:15:48Z</time>
      </trkpt>
      <trkpt lat="45.96933" lon="2.83119">
        <ele>689.6</ele>
        <time>2021-07-11T08:15:49Z</time>
      </trkpt>
      <trkpt lat="45.96934" lon="2.83119">
        <ele>689.5</ele>
        <time>2021-07-11T08:15:50Z</time>
      </trkpt>
      <trkpt lat="45.96936" lon="2.83119">
        <ele>689.5</ele>
        <time>2021-07-11T08:15:51Z</time>
      </trkpt>
      <trkpt lat="45.96937" lon="2.83119">
        <ele>689.4</ele>
        <time>2021-07-11T08:15:52Z</time>
      </trkpt>
      <trkpt lat="45.96939" lon="2.83119">
        <ele>689.3</ele>
        <time>2021-07-11T08:15:53Z</time>
      </trkpt>
      <trkpt lat="45.9694" lon="2.83119">
        <ele>689.3</ele>
        <time>2021-07-11T08:15:54Z</time>
      </trkpt>
      <trkpt lat="45.96943" lon="2.83119">
        <ele>689.2</ele>
        <time>2021-07-11T08:15:55Z</time>
      </trkpt>
      <trkpt lat="45.96944" lon="2.83119">
        <ele>689.2</ele>
        <time>2021-07-11T08:15:56Z</time>
      </trkpt>
      <trkpt lat="45.96945" lon="2.83119">
        <ele>689.2</ele>
        <time>2021-07-11T08:15:57Z</time>
      </trkpt>
      <trkpt lat="45.96946" lon="2.83119">
        <ele>689.2</ele>
        <time>2021-07-11T08:15:58Z</time>
      </trkpt>
      <trkpt lat="45.96948" lon="2.83119">
        <ele>689.2</ele>
        <time>2021-07-11T08:15:59Z</time>
      </trkpt>
      <trkpt lat="45.96949" lon="2.83119">
        <ele>689.2</ele>
        <time>2021-07-11T08:16:00Z</time>
      </trkpt>
      <trkpt lat="45.96951" lon="2.83119">
        <ele>689.2</ele>
        <time>2021-07-11T08:16:01Z</time>
      </trkpt>
      <trkpt lat="45.96952" lon="2.8312">
        <ele>689.1</ele>
        <time>2021-07-11T08:16:02Z</time>
      </trkpt>
      <trkpt lat="45.96953" lon="2.8312">
        <ele>689.1</ele>
        <time>2021-07-11T08:16:03Z</time>
      </trkpt>
      <trkpt lat="45.96955" lon="2.8312">
        <ele>689.2</ele>
        <time>2021-07-11T08:16:04Z</time>
      </trkpt>
      <trkpt lat="45.96956" lon="2.8312">
        <ele>689.2</ele>
        <time>2021-07-11T08:16:05Z</time>
      </trkpt>
      <trkpt lat="45.96958" lon="2.8312">
        <ele>689.2</ele>
        <time>2021-07-11T08:16:06Z</time>
      </trkpt>
      <trkpt lat="45.9696" lon="2.83121">
        <ele>689.1</ele>
        <time>2021-07-11T08:16:07Z</time>
      </trkpt>
      <trkpt lat="45.96961" lon="2.83121">
        <ele>689.1</ele>
        <time>2021-07-11T08:16:08Z</time>
      </trkpt>
      <trkpt lat="45.96963" lon="2.83121">
        <ele>689.2</ele>
        <time>2021-07-11T08:16:09Z</time>
      </trkpt>
      <trkpt lat="45.96964" lon="2.83121">
        <ele>689.2</ele>
        <time>2021-07-11T08:16:10Z</time>
      </trkpt>
      <trkpt lat="45.96966" lon="2.83122">
        <ele>689.1</ele>
        <time>2021-07-11T08:16:11Z</time>
      </trkpt>
      <trkpt lat="45.96968" lon="2.83122">
        <ele>689.2</ele>
        <time>2021-07-11T08:16:12Z</time>
      </trkpt>
      <trkpt lat="45.9697" lon="2.83122">
        <ele>689.2</ele>
        <time>2021-07-11T08:16:13Z</time>
      </trkpt>
      <trkpt lat="45.96971" lon="2.83122">
        <ele>689.2</ele>
        <time>2021-07-11T08:16:14Z</time>
      </trkpt>
      <trkpt lat="45.96973" lon="2.83123">
        <ele>689.1</ele>
        <time>2021-07-11T08:16:15Z</time>
      </trkpt>
      <trkpt lat="45.96974" lon="2.83123">
        <ele>689.1</ele>
        <time>2021-07-11T08:16:16Z</time>
      </trkpt>
      <trkpt lat="45.96976" lon="2.83123">
        <ele>689.1</ele>
        <time>2021-07-11T08:16:17Z</time>
      </trkpt>
      <trkpt lat="45.96977" lon="2.83124">
        <ele>689.1</ele>
        <time>2021-07-11T08:16:18Z</time>
      </trkpt>
      <trkpt lat="45.96979" lon="2.83124">
        <ele>689.1</ele>
        <time>2021-07-11T08:16:19Z</time>
      </trkpt>
      <trkpt lat="45.9698" lon="2.83124">
        <ele>689.1</ele>
        <time>2021-07-11T08:16:20Z</time>
      </trkpt>
      <trkpt lat="45.96981" lon="2.83125">
        <ele>689</ele>
        <time>2021-07-11T08:16:21Z</time>
      </trkpt>
      <trkpt lat="45.96982" lon="2.83126">
        <ele>688.9</ele>
        <time>2021-07-11T08:16:22Z</time>
      </trkpt>
      <trkpt lat="45.96983" lon="2.83126">
        <ele>688.9</ele>
        <time>2021-07-11T08:16:23Z</time>
      </trkpt>
      <trkpt lat="45.96985" lon="2.83127">
        <ele>688.9</ele>
        <time>2021-07-11T08:16:24Z</time>
      </trkpt>
      <trkpt lat="45.96986" lon="2.83127">
        <ele>688.9</ele>
        <time>2021-07-11T08:16:25Z</time>
      </trkpt>
      <trkpt lat="45.96988" lon="2.83128">
        <ele>688.8</ele>
        <time>2021-07-11T08:16:26Z</time>
      </trkpt>
      <trkpt lat="45.96989" lon="2.83128">
        <ele>688.8</ele>
        <time>2021-07-11T08:16:27Z</time>
      </trkpt>
      <trkpt lat="45.96991" lon="2.83128">
        <ele>688.8</ele>
        <time>2021-07-11T08:16:28Z</time>
      </trkpt>
      <trkpt lat="45.96992" lon="2.83128">
        <ele>688.8</ele>
        <time>2021-07-11T08:16:29Z</time>
      </trkpt>
      <trkpt lat="45.96994" lon="2.83129">
        <ele>688.7</ele>
        <time>2021-07-11T08:16:30Z</time>
      </trkpt>
      <trkpt lat="45.96994" lon="2.83129">
        <ele>688.7</ele>
        <time>2021-07-11T08:16:31Z</time>
      </trkpt>
      <trkpt lat="45.96996" lon="2.83129">
        <ele>688.7</ele>
        <time>2021-07-11T08:16:32Z</time>
      </trkpt>
      <trkpt lat="45.96998" lon="2.83129">
        <ele>688.7</ele>
        <time>2021-07-11T08:16:33Z</time>
      </trkpt>
      <trkpt lat="45.96999" lon="2.8313">
        <ele>688.6</ele>
        <time>2021-07-11T08:16:34Z</time>
      </trkpt>
      <trkpt lat="45.97" lon="2.8313">
        <ele>688.6</ele>
        <time>2021-07-11T08:16:35Z</time>
      </trkpt>
      <trkpt lat="45.97002" lon="2.8313">
        <ele>688.5</ele>
        <time>2021-07-11T08:16:36Z</time>
      </trkpt>
      <trkpt lat="45.97003" lon="2.8313">
        <ele>688.4</ele>
        <time>2021-07-11T08:16:37Z</time>
      </trkpt>
      <trkpt lat="45.97005" lon="2.83131">
        <ele>688.2</ele>
        <time>2021-07-11T08:16:38Z</time>
      </trkpt>
      <trkpt lat="45.97006" lon="2.83131">
        <ele>688.1</ele>
        <time>2021-07-11T08:16:39Z</time>
      </trkpt>
      <trkpt lat="45.97007" lon="2.83131">
        <ele>688.1</ele>
        <time>2021-07-11T08:16:40Z</time>
      </trkpt>
      <trkpt lat="45.97009" lon="2.83132">
        <ele>687.8</ele>
        <time>2021-07-11T08:16:41Z</time>
      </trkpt>
      <trkpt lat="45.9701" lon="2.83132">
        <ele>687.8</ele>
        <time>2021-07-11T08:16:43Z</time>
      </trkpt>
      <trkpt lat="45.97012" lon="2.83132">
        <ele>687.6</ele>
        <time>2021-07-11T08:16:44Z</time>
      </trkpt>
      <trkpt lat="45.97019" lon="2.83133">
        <ele>687.1</ele>
        <time>2021-07-11T08:16:45Z</time>
      </trkpt>
      <trkpt lat="45.97019" lon="2.83133">
        <ele>687.1</ele>
        <time>2021-07-11T08:16:46Z</time>
      </trkpt>
      <trkpt lat="45.9702" lon="2.83132">
        <ele>687.1</ele>
        <time>2021-07-11T08:16:47Z</time>
      </trkpt>
      <trkpt lat="45.97021" lon="2.83132">
        <ele>687</ele>
        <time>2021-07-11T08:16:48Z</time>
      </trkpt>
      <trkpt lat="45.97022" lon="2.83132">
        <ele>686.9</ele>
        <time>2021-07-11T08:16:49Z</time>
      </trkpt>
      <trkpt lat="45.97024" lon="2.83132">
        <ele>686.8</ele>
        <time>2021-07-11T08:16:50Z</time>
      </trkpt>
      <trkpt lat="45.97025" lon="2.83132">
        <ele>686.7</ele>
        <time>2021-07-11T08:16:51Z</time>
      </trkpt>
      <trkpt lat="45.97026" lon="2.83132">
        <ele>686.6</ele>
        <time>2021-07-11T08:16:52Z</time>
      </trkpt>
      <trkpt lat="45.97027" lon="2.83132">
        <ele>686.6</ele>
        <time>2021-07-11T08:16:53Z</time>
      </trkpt>
      <trkpt lat="45.97029" lon="2.83133">
        <ele>686.3</ele>
        <time>2021-07-11T08:16:54Z</time>
      </trkpt>
      <trkpt lat="45.9703" lon="2.83133">
        <ele>686.3</ele>
        <time>2021-07-11T08:16:55Z</time>
      </trkpt>
      <trkpt lat="45.97031" lon="2.83133">
        <ele>686.2</ele>
        <time>2021-07-11T08:16:56Z</time>
      </trkpt>
      <trkpt lat="45.97033" lon="2.83134">
        <ele>686</ele>
        <time>2021-07-11T08:16:57Z</time>
      </trkpt>
      <trkpt lat="45.97033" lon="2.83135">
        <ele>685.9</ele>
        <time>2021-07-11T08:16:58Z</time>
      </trkpt>
      <trkpt lat="45.97035" lon="2.83136">
        <ele>685.7</ele>
        <time>2021-07-11T08:16:59Z</time>
      </trkpt>
      <trkpt lat="45.97036" lon="2.83137">
        <ele>685.5</ele>
        <time>2021-07-11T08:17:00Z</time>
      </trkpt>
      <trkpt lat="45.97036" lon="2.83138">
        <ele>685.5</ele>
        <time>2021-07-11T08:17:01Z</time>
      </trkpt>
      <trkpt lat="45.97038" lon="2.83139">
        <ele>685.3</ele>
        <time>2021-07-11T08:17:02Z</time>
      </trkpt>
      <trkpt lat="45.97039" lon="2.8314">
        <ele>685.1</ele>
        <time>2021-07-11T08:17:03Z</time>
      </trkpt>
      <trkpt lat="45.9704" lon="2.83141">
        <ele>685</ele>
        <time>2021-07-11T08:17:04Z</time>
      </trkpt>
      <trkpt lat="45.97041" lon="2.83142">
        <ele>684.8</ele>
        <time>2021-07-11T08:17:05Z</time>
      </trkpt>
      <trkpt lat="45.97042" lon="2.83143">
        <ele>684.7</ele>
        <time>2021-07-11T08:17:06Z</time>
      </trkpt>
      <trkpt lat="45.97042" lon="2.83144">
        <ele>684.6</ele>
        <time>2021-07-11T08:17:07Z</time>
      </trkpt>
      <trkpt lat="45.97043" lon="2.83146">
        <ele>684.4</ele>
        <time>2021-07-11T08:17:08Z</time>
      </trkpt>
      <trkpt lat="45.97044" lon="2.83147">
        <ele>684.2</ele>
        <time>2021-07-11T08:17:09Z</time>
      </trkpt>
      <trkpt lat="45.97045" lon="2.83148">
        <ele>684.1</ele>
        <time>2021-07-11T08:17:10Z</time>
      </trkpt>
      <trkpt lat="45.97046" lon="2.8315">
        <ele>683.9</ele>
        <time>2021-07-11T08:17:11Z</time>
      </trkpt>
      <trkpt lat="45.97047" lon="2.83151">
        <ele>683.7</ele>
        <time>2021-07-11T08:17:12Z</time>
      </trkpt>
      <trkpt lat="45.97048" lon="2.83152">
        <ele>683.6</ele>
        <time>2021-07-11T08:17:13Z</time>
      </trkpt>
      <trkpt lat="45.97049" lon="2.83153">
        <ele>683.5</ele>
        <time>2021-07-11T08:17:14Z</time>
      </trkpt>
      <trkpt lat="45.97051" lon="2.83154">
        <ele>683.2</ele>
        <time>2021-07-11T08:17:15Z</time>
      </trkpt>
      <trkpt lat="45.97052" lon="2.83155">
        <ele>683.1</ele>
        <time>2021-07-11T08:17:16Z</time>
      </trkpt>
      <trkpt lat="45.97053" lon="2.83156">
        <ele>683</ele>
        <time>2021-07-11T08:17:17Z</time>
      </trkpt>
      <trkpt lat="45.97054" lon="2.83158">
        <ele>682.7</ele>
        <time>2021-07-11T08:17:18Z</time>
      </trkpt>
      <trkpt lat="45.97055" lon="2.83159">
        <ele>682.6</ele>
        <time>2021-07-11T08:17:19Z</time>
      </trkpt>
      <trkpt lat="45.97057" lon="2.8316">
        <ele>682.3</ele>
        <time>2021-07-11T08:17:20Z</time>
      </trkpt>
      <trkpt lat="45.97058" lon="2.83162">
        <ele>682</ele>
        <time>2021-07-11T08:17:21Z</time>
      </trkpt>
      <trkpt lat="45.97058" lon="2.83163">
        <ele>681.9</ele>
        <time>2021-07-11T08:17:22Z</time>
      </trkpt>
      <trkpt lat="45.97059" lon="2.83165">
        <ele>681.6</ele>
        <time>2021-07-11T08:17:23Z</time>
      </trkpt>
      <trkpt lat="45.9706" lon="2.83166">
        <ele>681.4</ele>
        <time>2021-07-11T08:17:24Z</time>
      </trkpt>
      <trkpt lat="45.97061" lon="2.83167">
        <ele>681.2</ele>
        <time>2021-07-11T08:17:25Z</time>
      </trkpt>
      <trkpt lat="45.97063" lon="2.83168">
        <ele>680.8</ele>
        <time>2021-07-11T08:17:26Z</time>
      </trkpt>
      <trkpt lat="45.97064" lon="2.8317">
        <ele>680.4</ele>
        <time>2021-07-11T08:17:27Z</time>
      </trkpt>
      <trkpt lat="45.97065" lon="2.83171">
        <ele>680.2</ele>
        <time>2021-07-11T08:17:28Z</time>
      </trkpt>
      <trkpt lat="45.97067" lon="2.83172">
        <ele>679.8</ele>
        <time>2021-07-11T08:17:29Z</time>
      </trkpt>
      <trkpt lat="45.97068" lon="2.83172">
        <ele>679.6</ele>
        <time>2021-07-11T08:17:30Z</time>
      </trkpt>
      <trkpt lat="45.97069" lon="2.83173">
        <ele>679.4</ele>
        <time>2021-07-11T08:17:31Z</time>
      </trkpt>
      <trkpt lat="45.9707" lon="2.83174">
        <ele>679.1</ele>
        <time>2021-07-11T08:17:32Z</time>
      </trkpt>
      <trkpt lat="45.97072" lon="2.83175">
        <ele>678.7</ele>
        <time>2021-07-11T08:17:33Z</time>
      </trkpt>
      <trkpt lat="45.97072" lon="2.83175">
        <ele>678.7</ele>
        <time>2021-07-11T08:17:34Z</time>
      </trkpt>
      <trkpt lat="45.97074" lon="2.83176">
        <ele>678.3</ele>
        <time>2021-07-11T08:17:35Z</time>
      </trkpt>
      <trkpt lat="45.97075" lon="2.83177">
        <ele>678.1</ele>
        <time>2021-07-11T08:17:36Z</time>
      </trkpt>
      <trkpt lat="45.97076" lon="2.83178">
        <ele>677.8</ele>
        <time>2021-07-11T08:17:37Z</time>
      </trkpt>
      <trkpt lat="45.97077" lon="2.83178">
        <ele>677.7</ele>
        <time>2021-07-11T08:17:38Z</time>
      </trkpt>
      <trkpt lat="45.97079" lon="2.83179">
        <ele>677.3</ele>
        <time>2021-07-11T08:17:39Z</time>
      </trkpt>
      <trkpt lat="45.9708" lon="2.83179">
        <ele>677.1</ele>
        <time>2021-07-11T08:17:40Z</time>
      </trkpt>
      <trkpt lat="45.9708" lon="2.8318">
        <ele>677</ele>
        <time>2021-07-11T08:17:41Z</time>
      </trkpt>
      <trkpt lat="45.97081" lon="2.8318">
        <ele>676.9</ele>
        <time>2021-07-11T08:17:43Z</time>
      </trkpt>
      <trkpt lat="45.97085" lon="2.83181">
        <ele>676</ele>
        <time>2021-07-11T08:17:44Z</time>
      </trkpt>
      <trkpt lat="45.97085" lon="2.83181">
        <ele>676</ele>
        <time>2021-07-11T08:17:45Z</time>
      </trkpt>
      <trkpt lat="45.97085" lon="2.83182">
        <ele>675.9</ele>
        <time>2021-07-11T08:17:46Z</time>
      </trkpt>
      <trkpt lat="45.97086" lon="2.83182">
        <ele>675.6</ele>
        <time>2021-07-11T08:17:47Z</time>
      </trkpt>
      <trkpt lat="45.97087" lon="2.83182">
        <ele>675.4</ele>
        <time>2021-07-11T08:17:48Z</time>
      </trkpt>
      <trkpt lat="45.97088" lon="2.83184">
        <ele>674.9</ele>
        <time>2021-07-11T08:17:49Z</time>
      </trkpt>
      <trkpt lat="45.97089" lon="2.83185">
        <ele>674.5</ele>
        <time>2021-07-11T08:17:50Z</time>
      </trkpt>
      <trkpt lat="45.97089" lon="2.83186">
        <ele>674.4</ele>
        <time>2021-07-11T08:17:51Z</time>
      </trkpt>
      <trkpt lat="45.9709" lon="2.83188">
        <ele>674</ele>
        <time>2021-07-11T08:17:52Z</time>
      </trkpt>
      <trkpt lat="45.97091" lon="2.8319">
        <ele>673.5</ele>
        <time>2021-07-11T08:17:53Z</time>
      </trkpt>
      <trkpt lat="45.97092" lon="2.83192">
        <ele>673.1</ele>
        <time>2021-07-11T08:17:54Z</time>
      </trkpt>
      <trkpt lat="45.97092" lon="2.83194">
        <ele>672.9</ele>
        <time>2021-07-11T08:17:55Z</time>
      </trkpt>
      <trkpt lat="45.97093" lon="2.83196">
        <ele>672.4</ele>
        <time>2021-07-11T08:17:56Z</time>
      </trkpt>
      <trkpt lat="45.97093" lon="2.83198">
        <ele>672.2</ele>
        <time>2021-07-11T08:17:57Z</time>
      </trkpt>
      <trkpt lat="45.97094" lon="2.83199">
        <ele>671.9</ele>
        <time>2021-07-11T08:17:58Z</time>
      </trkpt>
      <trkpt lat="45.97094" lon="2.83201">
        <ele>671.7</ele>
        <time>2021-07-11T08:17:59Z</time>
      </trkpt>
      <trkpt lat="45.97094" lon="2.83202">
        <ele>671.6</ele>
        <time>2021-07-11T08:18:00Z</time>
      </trkpt>
      <trkpt lat="45.97094" lon="2.83204">
        <ele>671.4</ele>
        <time>2021-07-11T08:18:01Z</time>
      </trkpt>
      <trkpt lat="45.97095" lon="2.83206">
        <ele>671</ele>
        <time>2021-07-11T08:18:02Z</time>
      </trkpt>
      <trkpt lat="45.97095" lon="2.83208">
        <ele>670.8</ele>
        <time>2021-07-11T08:18:03Z</time>
      </trkpt>
      <trkpt lat="45.97096" lon="2.8321">
        <ele>670.4</ele>
        <time>2021-07-11T08:18:04Z</time>
      </trkpt>
      <trkpt lat="45.97096" lon="2.83212">
        <ele>670.2</ele>
        <time>2021-07-11T08:18:05Z</time>
      </trkpt>
      <trkpt lat="45.97096" lon="2.83214">
        <ele>670</ele>
        <time>2021-07-11T08:18:06Z</time>
      </trkpt>
      <trkpt lat="45.97096" lon="2.83216">
        <ele>669.8</ele>
        <time>2021-07-11T08:18:07Z</time>
      </trkpt>
      <trkpt lat="45.97096" lon="2.83218">
        <ele>669.7</ele>
        <time>2021-07-11T08:18:08Z</time>
      </trkpt>
      <trkpt lat="45.97096" lon="2.8322">
        <ele>669.5</ele>
        <time>2021-07-11T08:18:09Z</time>
      </trkpt>
      <trkpt lat="45.97096" lon="2.83223">
        <ele>669.2</ele>
        <time>2021-07-11T08:18:10Z</time>
      </trkpt>
      <trkpt lat="45.97096" lon="2.83225">
        <ele>669</ele>
        <time>2021-07-11T08:18:11Z</time>
      </trkpt>
      <trkpt lat="45.97095" lon="2.83228">
        <ele>668.9</ele>
        <time>2021-07-11T08:18:12Z</time>
      </trkpt>
      <trkpt lat="45.97094" lon="2.8323">
        <ele>668.9</ele>
        <time>2021-07-11T08:18:13Z</time>
      </trkpt>
      <trkpt lat="45.97094" lon="2.83232">
        <ele>668.7</ele>
        <time>2021-07-11T08:18:14Z</time>
      </trkpt>
      <trkpt lat="45.97093" lon="2.83234">
        <ele>668.7</ele>
        <time>2021-07-11T08:18:15Z</time>
      </trkpt>
      <trkpt lat="45.97092" lon="2.83236">
        <ele>668.6</ele>
        <time>2021-07-11T08:18:16Z</time>
      </trkpt>
      <trkpt lat="45.97091" lon="2.83238">
        <ele>668.5</ele>
        <time>2021-07-11T08:18:17Z</time>
      </trkpt>
      <trkpt lat="45.97091" lon="2.8324">
        <ele>668.3</ele>
        <time>2021-07-11T08:18:18Z</time>
      </trkpt>
      <trkpt lat="45.9709" lon="2.83241">
        <ele>668.3</ele>
        <time>2021-07-11T08:18:19Z</time>
      </trkpt>
      <trkpt lat="45.97089" lon="2.83243">
        <ele>668.2</ele>
        <time>2021-07-11T08:18:20Z</time>
      </trkpt>
      <trkpt lat="45.97089" lon="2.83245">
        <ele>668</ele>
        <time>2021-07-11T08:18:21Z</time>
      </trkpt>
      <trkpt lat="45.97088" lon="2.83247">
        <ele>667.9</ele>
        <time>2021-07-11T08:18:22Z</time>
      </trkpt>
      <trkpt lat="45.97088" lon="2.83249">
        <ele>667.6</ele>
        <time>2021-07-11T08:18:23Z</time>
      </trkpt>
      <trkpt lat="45.97087" lon="2.8325">
        <ele>667.6</ele>
        <time>2021-07-11T08:18:24Z</time>
      </trkpt>
      <trkpt lat="45.97087" lon="2.83252">
        <ele>667.5</ele>
        <time>2021-07-11T08:18:25Z</time>
      </trkpt>
      <trkpt lat="45.97086" lon="2.83253">
        <ele>667.6</ele>
        <time>2021-07-11T08:18:26Z</time>
      </trkpt>
      <trkpt lat="45.97085" lon="2.83255">
        <ele>667.6</ele>
        <time>2021-07-11T08:18:27Z</time>
      </trkpt>
      <trkpt lat="45.97084" lon="2.83257">
        <ele>667.7</ele>
        <time>2021-07-11T08:18:28Z</time>
      </trkpt>
      <trkpt lat="45.97083" lon="2.83258">
        <ele>667.8</ele>
        <time>2021-07-11T08:18:29Z</time>
      </trkpt>
      <trkpt lat="45.97082" lon="2.8326">
        <ele>667.8</ele>
        <time>2021-07-11T08:18:30Z</time>
      </trkpt>
      <trkpt lat="45.97081" lon="2.83261">
        <ele>668</ele>
        <time>2021-07-11T08:18:31Z</time>
      </trkpt>
      <trkpt lat="45.9708" lon="2.83263">
        <ele>668</ele>
        <time>2021-07-11T08:18:32Z</time>
      </trkpt>
      <trkpt lat="45.97079" lon="2.83265">
        <ele>668.1</ele>
        <time>2021-07-11T08:18:33Z</time>
      </trkpt>
      <trkpt lat="45.97078" lon="2.83267">
        <ele>668.1</ele>
        <time>2021-07-11T08:18:34Z</time>
      </trkpt>
      <trkpt lat="45.97077" lon="2.83269">
        <ele>668.1</ele>
        <time>2021-07-11T08:18:35Z</time>
      </trkpt>
      <trkpt lat="45.97076" lon="2.83271">
        <ele>668.2</ele>
        <time>2021-07-11T08:18:36Z</time>
      </trkpt>
      <trkpt lat="45.97076" lon="2.83273">
        <ele>668.1</ele>
        <time>2021-07-11T08:18:37Z</time>
      </trkpt>
      <trkpt lat="45.97075" lon="2.83276">
        <ele>668</ele>
        <time>2021-07-11T08:18:38Z</time>
      </trkpt>
      <trkpt lat="45.97075" lon="2.83277">
        <ele>667.9</ele>
        <time>2021-07-11T08:18:39Z</time>
      </trkpt>
      <trkpt lat="45.97075" lon="2.83279">
        <ele>667.8</ele>
        <time>2021-07-11T08:18:40Z</time>
      </trkpt>
      <trkpt lat="45.97073" lon="2.83281">
        <ele>667.8</ele>
        <time>2021-07-11T08:18:42Z</time>
      </trkpt>
      <trkpt lat="45.97069" lon="2.83286">
        <ele>667.7</ele>
        <time>2021-07-11T08:18:44Z</time>
      </trkpt>
      <trkpt lat="45.97067" lon="2.83289">
        <ele>667.5</ele>
        <time>2021-07-11T08:18:45Z</time>
      </trkpt>
      <trkpt lat="45.97067" lon="2.83289">
        <ele>667.5</ele>
        <time>2021-07-11T08:18:46Z</time>
      </trkpt>
      <trkpt lat="45.97067" lon="2.8329">
        <ele>667.4</ele>
        <time>2021-07-11T08:18:47Z</time>
      </trkpt>
      <trkpt lat="45.97066" lon="2.83291">
        <ele>667.3</ele>
        <time>2021-07-11T08:18:48Z</time>
      </trkpt>
      <trkpt lat="45.97065" lon="2.83292">
        <ele>667.3</ele>
        <time>2021-07-11T08:18:49Z</time>
      </trkpt>
      <trkpt lat="45.97063" lon="2.83293">
        <ele>667.3</ele>
        <time>2021-07-11T08:18:50Z</time>
      </trkpt>
      <trkpt lat="45.97062" lon="2.83294">
        <ele>667.2</ele>
        <time>2021-07-11T08:18:51Z</time>
      </trkpt>
      <trkpt lat="45.97061" lon="2.83295">
        <ele>667.2</ele>
        <time>2021-07-11T08:18:52Z</time>
      </trkpt>
      <trkpt lat="45.9706" lon="2.83296">
        <ele>667.1</ele>
        <time>2021-07-11T08:18:53Z</time>
      </trkpt>
      <trkpt lat="45.97059" lon="2.83298">
        <ele>666.9</ele>
        <time>2021-07-11T08:18:54Z</time>
      </trkpt>
      <trkpt lat="45.97057" lon="2.83299">
        <ele>666.9</ele>
        <time>2021-07-11T08:18:55Z</time>
      </trkpt>
      <trkpt lat="45.97056" lon="2.833">
        <ele>666.8</ele>
        <time>2021-07-11T08:18:56Z</time>
      </trkpt>
      <trkpt lat="45.97054" lon="2.83301">
        <ele>666.6</ele>
        <time>2021-07-11T08:18:57Z</time>
      </trkpt>
      <trkpt lat="45.97054" lon="2.83302">
        <ele>666.5</ele>
        <time>2021-07-11T08:18:58Z</time>
      </trkpt>
      <trkpt lat="45.97052" lon="2.83303">
        <ele>666.4</ele>
        <time>2021-07-11T08:18:59Z</time>
      </trkpt>
      <trkpt lat="45.97051" lon="2.83304">
        <ele>666.2</ele>
        <time>2021-07-11T08:19:00Z</time>
      </trkpt>
      <trkpt lat="45.97049" lon="2.83305">
        <ele>666.1</ele>
        <time>2021-07-11T08:19:01Z</time>
      </trkpt>
      <trkpt lat="45.97048" lon="2.83306">
        <ele>666</ele>
        <time>2021-07-11T08:19:02Z</time>
      </trkpt>
      <trkpt lat="45.97046" lon="2.83307">
        <ele>665.9</ele>
        <time>2021-07-11T08:19:03Z</time>
      </trkpt>
      <trkpt lat="45.97045" lon="2.83309">
        <ele>665.7</ele>
        <time>2021-07-11T08:19:04Z</time>
      </trkpt>
      <trkpt lat="45.97044" lon="2.83311">
        <ele>665.5</ele>
        <time>2021-07-11T08:19:05Z</time>
      </trkpt>
      <trkpt lat="45.97042" lon="2.83313">
        <ele>665.3</ele>
        <time>2021-07-11T08:19:06Z</time>
      </trkpt>
      <trkpt lat="45.97041" lon="2.83315">
        <ele>665.2</ele>
        <time>2021-07-11T08:19:07Z</time>
      </trkpt>
      <trkpt lat="45.9704" lon="2.83317">
        <ele>665</ele>
        <time>2021-07-11T08:19:08Z</time>
      </trkpt>
      <trkpt lat="45.97039" lon="2.83318">
        <ele>664.9</ele>
        <time>2021-07-11T08:19:09Z</time>
      </trkpt>
      <trkpt lat="45.97038" lon="2.8332">
        <ele>664.8</ele>
        <time>2021-07-11T08:19:10Z</time>
      </trkpt>
      <trkpt lat="45.97037" lon="2.83322">
        <ele>664.6</ele>
        <time>2021-07-11T08:19:11Z</time>
      </trkpt>
      <trkpt lat="45.97036" lon="2.83323">
        <ele>664.6</ele>
        <time>2021-07-11T08:19:12Z</time>
      </trkpt>
      <trkpt lat="45.97036" lon="2.83325">
        <ele>664.4</ele>
        <time>2021-07-11T08:19:13Z</time>
      </trkpt>
      <trkpt lat="45.97036" lon="2.83327">
        <ele>664.2</ele>
        <time>2021-07-11T08:19:14Z</time>
      </trkpt>
      <trkpt lat="45.97035" lon="2.83328">
        <ele>664.2</ele>
        <time>2021-07-11T08:19:15Z</time>
      </trkpt>
      <trkpt lat="45.97035" lon="2.8333">
        <ele>664</ele>
        <time>2021-07-11T08:19:16Z</time>
      </trkpt>
      <trkpt lat="45.97034" lon="2.83332">
        <ele>663.9</ele>
        <time>2021-07-11T08:19:17Z</time>
      </trkpt>
      <trkpt lat="45.97033" lon="2.83333">
        <ele>663.8</ele>
        <time>2021-07-11T08:19:18Z</time>
      </trkpt>
      <trkpt lat="45.97033" lon="2.83334">
        <ele>663.8</ele>
        <time>2021-07-11T08:19:19Z</time>
      </trkpt>
      <trkpt lat="45.97033" lon="2.83336">
        <ele>663.7</ele>
        <time>2021-07-11T08:19:20Z</time>
      </trkpt>
      <trkpt lat="45.97032" lon="2.83337">
        <ele>663.7</ele>
        <time>2021-07-11T08:19:21Z</time>
      </trkpt>
      <trkpt lat="45.97031" lon="2.83339">
        <ele>663.6</ele>
        <time>2021-07-11T08:19:22Z</time>
      </trkpt>
      <trkpt lat="45.97031" lon="2.8334">
        <ele>663.6</ele>
        <time>2021-07-11T08:19:23Z</time>
      </trkpt>
      <trkpt lat="45.9703" lon="2.83343">
        <ele>663.5</ele>
        <time>2021-07-11T08:19:24Z</time>
      </trkpt>
      <trkpt lat="45.9703" lon="2.83345">
        <ele>663.4</ele>
        <time>2021-07-11T08:19:25Z</time>
      </trkpt>
      <trkpt lat="45.97029" lon="2.83347">
        <ele>663.4</ele>
        <time>2021-07-11T08:19:26Z</time>
      </trkpt>
      <trkpt lat="45.97029" lon="2.83349">
        <ele>663.3</ele>
        <time>2021-07-11T08:19:27Z</time>
      </trkpt>
      <trkpt lat="45.97028" lon="2.83352">
        <ele>663.3</ele>
        <time>2021-07-11T08:19:28Z</time>
      </trkpt>
      <trkpt lat="45.97028" lon="2.83354">
        <ele>663.2</ele>
        <time>2021-07-11T08:19:29Z</time>
      </trkpt>
      <trkpt lat="45.97028" lon="2.83356">
        <ele>663.2</ele>
        <time>2021-07-11T08:19:30Z</time>
      </trkpt>
      <trkpt lat="45.97027" lon="2.83358">
        <ele>663.2</ele>
        <time>2021-07-11T08:19:31Z</time>
      </trkpt>
      <trkpt lat="45.97027" lon="2.8336">
        <ele>663.1</ele>
        <time>2021-07-11T08:19:32Z</time>
      </trkpt>
      <trkpt lat="45.97027" lon="2.83363">
        <ele>663</ele>
        <time>2021-07-11T08:19:33Z</time>
      </trkpt>
      <trkpt lat="45.97026" lon="2.83365">
        <ele>663</ele>
        <time>2021-07-11T08:19:34Z</time>
      </trkpt>
      <trkpt lat="45.97025" lon="2.83367">
        <ele>663.1</ele>
        <time>2021-07-11T08:19:35Z</time>
      </trkpt>
      <trkpt lat="45.97025" lon="2.83369">
        <ele>663</ele>
        <time>2021-07-11T08:19:36Z</time>
      </trkpt>
      <trkpt lat="45.97024" lon="2.83371">
        <ele>663</ele>
        <time>2021-07-11T08:19:37Z</time>
      </trkpt>
      <trkpt lat="45.97023" lon="2.83374">
        <ele>663</ele>
        <time>2021-07-11T08:19:38Z</time>
      </trkpt>
      <trkpt lat="45.97023" lon="2.83376">
        <ele>662.9</ele>
        <time>2021-07-11T08:19:39Z</time>
      </trkpt>
      <trkpt lat="45.97022" lon="2.83378">
        <ele>662.9</ele>
        <time>2021-07-11T08:19:40Z</time>
      </trkpt>
      <trkpt lat="45.97021" lon="2.8338">
        <ele>662.9</ele>
        <time>2021-07-11T08:19:41Z</time>
      </trkpt>
      <trkpt lat="45.97021" lon="2.83382">
        <ele>662.8</ele>
        <time>2021-07-11T08:19:42Z</time>
      </trkpt>
      <trkpt lat="45.97018" lon="2.83391">
        <ele>662.6</ele>
        <time>2021-07-11T08:19:43Z</time>
      </trkpt>
      <trkpt lat="45.97018" lon="2.83391">
        <ele>662.6</ele>
        <time>2021-07-11T08:19:44Z</time>
      </trkpt>
      <trkpt lat="45.97018" lon="2.83392">
        <ele>662.6</ele>
        <time>2021-07-11T08:19:45Z</time>
      </trkpt>
      <trkpt lat="45.97017" lon="2.83393">
        <ele>662.6</ele>
        <time>2021-07-11T08:19:46Z</time>
      </trkpt>
      <trkpt lat="45.97017" lon="2.83394">
        <ele>662.5</ele>
        <time>2021-07-11T08:19:47Z</time>
      </trkpt>
      <trkpt lat="45.97016" lon="2.83396">
        <ele>662.5</ele>
        <time>2021-07-11T08:19:48Z</time>
      </trkpt>
      <trkpt lat="45.97015" lon="2.83397">
        <ele>662.5</ele>
        <time>2021-07-11T08:19:49Z</time>
      </trkpt>
      <trkpt lat="45.97014" lon="2.83398">
        <ele>662.5</ele>
        <time>2021-07-11T08:19:50Z</time>
      </trkpt>
      <trkpt lat="45.97012" lon="2.834">
        <ele>662.5</ele>
        <time>2021-07-11T08:19:51Z</time>
      </trkpt>
      <trkpt lat="45.97012" lon="2.83402">
        <ele>662.4</ele>
        <time>2021-07-11T08:19:52Z</time>
      </trkpt>
      <trkpt lat="45.9701" lon="2.83403">
        <ele>662.4</ele>
        <time>2021-07-11T08:19:53Z</time>
      </trkpt>
      <trkpt lat="45.97009" lon="2.83404">
        <ele>662.4</ele>
        <time>2021-07-11T08:19:54Z</time>
      </trkpt>
      <trkpt lat="45.97007" lon="2.83405">
        <ele>662.5</ele>
        <time>2021-07-11T08:19:55Z</time>
      </trkpt>
      <trkpt lat="45.97006" lon="2.83406">
        <ele>662.5</ele>
        <time>2021-07-11T08:19:56Z</time>
      </trkpt>
      <trkpt lat="45.97006" lon="2.83407">
        <ele>662.4</ele>
        <time>2021-07-11T08:19:57Z</time>
      </trkpt>
      <trkpt lat="45.97004" lon="2.83408">
        <ele>662.4</ele>
        <time>2021-07-11T08:19:58Z</time>
      </trkpt>
      <trkpt lat="45.97003" lon="2.83409">
        <ele>662.4</ele>
        <time>2021-07-11T08:19:59Z</time>
      </trkpt>
      <trkpt lat="45.97002" lon="2.8341">
        <ele>662.4</ele>
        <time>2021-07-11T08:20:00Z</time>
      </trkpt>
      <trkpt lat="45.97" lon="2.8341">
        <ele>662.5</ele>
        <time>2021-07-11T08:20:01Z</time>
      </trkpt>
      <trkpt lat="45.96999" lon="2.83411">
        <ele>662.4</ele>
        <time>2021-07-11T08:20:02Z</time>
      </trkpt>
      <trkpt lat="45.96997" lon="2.83412">
        <ele>662.4</ele>
        <time>2021-07-11T08:20:03Z</time>
      </trkpt>
      <trkpt lat="45.96995" lon="2.83413">
        <ele>662.3</ele>
        <time>2021-07-11T08:20:04Z</time>
      </trkpt>
      <trkpt lat="45.96994" lon="2.83414">
        <ele>662.2</ele>
        <time>2021-07-11T08:20:05Z</time>
      </trkpt>
      <trkpt lat="45.96992" lon="2.83415">
        <ele>662.1</ele>
        <time>2021-07-11T08:20:06Z</time>
      </trkpt>
      <trkpt lat="45.96991" lon="2.83417">
        <ele>662</ele>
        <time>2021-07-11T08:20:07Z</time>
      </trkpt>
      <trkpt lat="45.96989" lon="2.83418">
        <ele>661.9</ele>
        <time>2021-07-11T08:20:08Z</time>
      </trkpt>
      <trkpt lat="45.96988" lon="2.8342">
        <ele>661.7</ele>
        <time>2021-07-11T08:20:09Z</time>
      </trkpt>
      <trkpt lat="45.96987" lon="2.83421">
        <ele>661.6</ele>
        <time>2021-07-11T08:20:10Z</time>
      </trkpt>
      <trkpt lat="45.96986" lon="2.83423">
        <ele>661.4</ele>
        <time>2021-07-11T08:20:11Z</time>
      </trkpt>
      <trkpt lat="45.96985" lon="2.83424">
        <ele>661.4</ele>
        <time>2021-07-11T08:20:12Z</time>
      </trkpt>
      <trkpt lat="45.96983" lon="2.83426">
        <ele>661.2</ele>
        <time>2021-07-11T08:20:13Z</time>
      </trkpt>
      <trkpt lat="45.96982" lon="2.83427">
        <ele>661.1</ele>
        <time>2021-07-11T08:20:14Z</time>
      </trkpt>
      <trkpt lat="45.96981" lon="2.83428">
        <ele>661.1</ele>
        <time>2021-07-11T08:20:15Z</time>
      </trkpt>
      <trkpt lat="45.9698" lon="2.8343">
        <ele>660.9</ele>
        <time>2021-07-11T08:20:16Z</time>
      </trkpt>
      <trkpt lat="45.96979" lon="2.83431">
        <ele>660.8</ele>
        <time>2021-07-11T08:20:17Z</time>
      </trkpt>
      <trkpt lat="45.96978" lon="2.83433">
        <ele>660.7</ele>
        <time>2021-07-11T08:20:18Z</time>
      </trkpt>
      <trkpt lat="45.96977" lon="2.83434">
        <ele>660.6</ele>
        <time>2021-07-11T08:20:19Z</time>
      </trkpt>
      <trkpt lat="45.96976" lon="2.83435">
        <ele>660.6</ele>
        <time>2021-07-11T08:20:20Z</time>
      </trkpt>
      <trkpt lat="45.96976" lon="2.83437">
        <ele>660.4</ele>
        <time>2021-07-11T08:20:21Z</time>
      </trkpt>
      <trkpt lat="45.96975" lon="2.83438">
        <ele>660.4</ele>
        <time>2021-07-11T08:20:22Z</time>
      </trkpt>
      <trkpt lat="45.96975" lon="2.83439">
        <ele>660.3</ele>
        <time>2021-07-11T08:20:23Z</time>
      </trkpt>
      <trkpt lat="45.96974" lon="2.83441">
        <ele>660.2</ele>
        <time>2021-07-11T08:20:24Z</time>
      </trkpt>
      <trkpt lat="45.96973" lon="2.83442">
        <ele>660.2</ele>
        <time>2021-07-11T08:20:25Z</time>
      </trkpt>
      <trkpt lat="45.96973" lon="2.83444">
        <ele>660</ele>
        <time>2021-07-11T08:20:26Z</time>
      </trkpt>
      <trkpt lat="45.96973" lon="2.83446">
        <ele>659.9</ele>
        <time>2021-07-11T08:20:27Z</time>
      </trkpt>
      <trkpt lat="45.96973" lon="2.83448">
        <ele>659.7</ele>
        <time>2021-07-11T08:20:28Z</time>
      </trkpt>
      <trkpt lat="45.96973" lon="2.8345">
        <ele>659.6</ele>
        <time>2021-07-11T08:20:29Z</time>
      </trkpt>
      <trkpt lat="45.96973" lon="2.83452">
        <ele>659.4</ele>
        <time>2021-07-11T08:20:30Z</time>
      </trkpt>
      <trkpt lat="45.96973" lon="2.83454">
        <ele>659.3</ele>
        <time>2021-07-11T08:20:31Z</time>
      </trkpt>
      <trkpt lat="45.96973" lon="2.83456">
        <ele>659.1</ele>
        <time>2021-07-11T08:20:32Z</time>
      </trkpt>
      <trkpt lat="45.96973" lon="2.83458">
        <ele>659</ele>
        <time>2021-07-11T08:20:33Z</time>
      </trkpt>
      <trkpt lat="45.96973" lon="2.83461">
        <ele>658.7</ele>
        <time>2021-07-11T08:20:34Z</time>
      </trkpt>
      <trkpt lat="45.96973" lon="2.83463">
        <ele>658.6</ele>
        <time>2021-07-11T08:20:35Z</time>
      </trkpt>
      <trkpt lat="45.96973" lon="2.83465">
        <ele>658.5</ele>
        <time>2021-07-11T08:20:36Z</time>
      </trkpt>
      <trkpt lat="45.96973" lon="2.83467">
        <ele>658.3</ele>
        <time>2021-07-11T08:20:37Z</time>
      </trkpt>
      <trkpt lat="45.96974" lon="2.83469">
        <ele>658.1</ele>
        <time>2021-07-11T08:20:38Z</time>
      </trkpt>
      <trkpt lat="45.96975" lon="2.83471">
        <ele>657.8</ele>
        <time>2021-07-11T08:20:39Z</time>
      </trkpt>
      <trkpt lat="45.96975" lon="2.83473">
        <ele>657.7</ele>
        <time>2021-07-11T08:20:41Z</time>
      </trkpt>
      <trkpt lat="45.96977" lon="2.83479">
        <ele>657.7</ele>
        <time>2021-07-11T08:20:42Z</time>
      </trkpt>
      <trkpt lat="45.96978" lon="2.83479">
        <ele>657.6</ele>
        <time>2021-07-11T08:20:43Z</time>
      </trkpt>
      <trkpt lat="45.96978" lon="2.8348">
        <ele>657.6</ele>
        <time>2021-07-11T08:20:44Z</time>
      </trkpt>
      <trkpt lat="45.96979" lon="2.83481">
        <ele>657.5</ele>
        <time>2021-07-11T08:20:45Z</time>
      </trkpt>
      <trkpt lat="45.96979" lon="2.83482">
        <ele>657.5</ele>
        <time>2021-07-11T08:20:46Z</time>
      </trkpt>
      <trkpt lat="45.9698" lon="2.83483">
        <ele>657.4</ele>
        <time>2021-07-11T08:20:47Z</time>
      </trkpt>
      <trkpt lat="45.96981" lon="2.83484">
        <ele>657.3</ele>
        <time>2021-07-11T08:20:48Z</time>
      </trkpt>
      <trkpt lat="45.96981" lon="2.83485">
        <ele>657.4</ele>
        <time>2021-07-11T08:20:49Z</time>
      </trkpt>
      <trkpt lat="45.96982" lon="2.83487">
        <ele>657.3</ele>
        <time>2021-07-11T08:20:50Z</time>
      </trkpt>
      <trkpt lat="45.96982" lon="2.83489">
        <ele>657.3</ele>
        <time>2021-07-11T08:20:51Z</time>
      </trkpt>
      <trkpt lat="45.96983" lon="2.8349">
        <ele>657.2</ele>
        <time>2021-07-11T08:20:52Z</time>
      </trkpt>
      <trkpt lat="45.96984" lon="2.83492">
        <ele>657.1</ele>
        <time>2021-07-11T08:20:53Z</time>
      </trkpt>
      <trkpt lat="45.96985" lon="2.83493">
        <ele>657</ele>
        <time>2021-07-11T08:20:54Z</time>
      </trkpt>
      <trkpt lat="45.96985" lon="2.83495">
        <ele>657.1</ele>
        <time>2021-07-11T08:20:55Z</time>
      </trkpt>
      <trkpt lat="45.96986" lon="2.83496">
        <ele>656.9</ele>
        <time>2021-07-11T08:20:56Z</time>
      </trkpt>
      <trkpt lat="45.96987" lon="2.83498">
        <ele>656.8</ele>
        <time>2021-07-11T08:20:57Z</time>
      </trkpt>
      <trkpt lat="45.96988" lon="2.835">
        <ele>656.7</ele>
        <time>2021-07-11T08:20:58Z</time>
      </trkpt>
      <trkpt lat="45.96988" lon="2.83501">
        <ele>656.8</ele>
        <time>2021-07-11T08:20:59Z</time>
      </trkpt>
      <trkpt lat="45.96989" lon="2.83503">
        <ele>656.9</ele>
        <time>2021-07-11T08:21:00Z</time>
      </trkpt>
      <trkpt lat="45.96989" lon="2.83505">
        <ele>657.1</ele>
        <time>2021-07-11T08:21:01Z</time>
      </trkpt>
      <trkpt lat="45.96991" lon="2.83507">
        <ele>657</ele>
        <time>2021-07-11T08:21:02Z</time>
      </trkpt>
      <trkpt lat="45.96991" lon="2.83509">
        <ele>657.2</ele>
        <time>2021-07-11T08:21:03Z</time>
      </trkpt>
      <trkpt lat="45.96991" lon="2.83511">
        <ele>657.4</ele>
        <time>2021-07-11T08:21:04Z</time>
      </trkpt>
      <trkpt lat="45.96991" lon="2.83513">
        <ele>657.5</ele>
        <time>2021-07-11T08:21:05Z</time>
      </trkpt>
      <trkpt lat="45.96992" lon="2.83515">
        <ele>657.6</ele>
        <time>2021-07-11T08:21:06Z</time>
      </trkpt>
      <trkpt lat="45.96993" lon="2.83517">
        <ele>657.7</ele>
        <time>2021-07-11T08:21:07Z</time>
      </trkpt>
      <trkpt lat="45.96993" lon="2.83518">
        <ele>657.8</ele>
        <time>2021-07-11T08:21:08Z</time>
      </trkpt>
      <trkpt lat="45.96993" lon="2.8352">
        <ele>658</ele>
        <time>2021-07-11T08:21:09Z</time>
      </trkpt>
      <trkpt lat="45.96994" lon="2.83522">
        <ele>658.1</ele>
        <time>2021-07-11T08:21:10Z</time>
      </trkpt>
      <trkpt lat="45.96994" lon="2.83524">
        <ele>658.3</ele>
        <time>2021-07-11T08:21:11Z</time>
      </trkpt>
      <trkpt lat="45.96994" lon="2.83526">
        <ele>658.5</ele>
        <time>2021-07-11T08:21:12Z</time>
      </trkpt>
      <trkpt lat="45.96996" lon="2.83528">
        <ele>658.5</ele>
        <time>2021-07-11T08:21:13Z</time>
      </trkpt>
      <trkpt lat="45.96996" lon="2.8353">
        <ele>658.7</ele>
        <time>2021-07-11T08:21:14Z</time>
      </trkpt>
      <trkpt lat="45.96997" lon="2.83532">
        <ele>658.9</ele>
        <time>2021-07-11T08:21:15Z</time>
      </trkpt>
      <trkpt lat="45.96997" lon="2.83533">
        <ele>659.1</ele>
        <time>2021-07-11T08:21:16Z</time>
      </trkpt>
      <trkpt lat="45.96998" lon="2.83535">
        <ele>659.2</ele>
        <time>2021-07-11T08:21:17Z</time>
      </trkpt>
      <trkpt lat="45.96998" lon="2.83536">
        <ele>659.4</ele>
        <time>2021-07-11T08:21:18Z</time>
      </trkpt>
      <trkpt lat="45.96999" lon="2.83538">
        <ele>659.6</ele>
        <time>2021-07-11T08:21:19Z</time>
      </trkpt>
      <trkpt lat="45.96999" lon="2.83539">
        <ele>659.7</ele>
        <time>2021-07-11T08:21:20Z</time>
      </trkpt>
      <trkpt lat="45.97" lon="2.83541">
        <ele>659.9</ele>
        <time>2021-07-11T08:21:21Z</time>
      </trkpt>
      <trkpt lat="45.97001" lon="2.83543">
        <ele>660.1</ele>
        <time>2021-07-11T08:21:22Z</time>
      </trkpt>
      <trkpt lat="45.97001" lon="2.83544">
        <ele>660.3</ele>
        <time>2021-07-11T08:21:23Z</time>
      </trkpt>
      <trkpt lat="45.97002" lon="2.83545">
        <ele>660.4</ele>
        <time>2021-07-11T08:21:24Z</time>
      </trkpt>
      <trkpt lat="45.97002" lon="2.83546">
        <ele>660.5</ele>
        <time>2021-07-11T08:21:25Z</time>
      </trkpt>
      <trkpt lat="45.97003" lon="2.83548">
        <ele>660.7</ele>
        <time>2021-07-11T08:21:26Z</time>
      </trkpt>
      <trkpt lat="45.97003" lon="2.83549">
        <ele>660.9</ele>
        <time>2021-07-11T08:21:27Z</time>
      </trkpt>
      <trkpt lat="45.97004" lon="2.83551">
        <ele>661.1</ele>
        <time>2021-07-11T08:21:28Z</time>
      </trkpt>
      <trkpt lat="45.97005" lon="2.83552">
        <ele>661.2</ele>
        <time>2021-07-11T08:21:29Z</time>
      </trkpt>
      <trkpt lat="45.97006" lon="2.83554">
        <ele>661.4</ele>
        <time>2021-07-11T08:21:30Z</time>
      </trkpt>
      <trkpt lat="45.97006" lon="2.83556">
        <ele>661.6</ele>
        <time>2021-07-11T08:21:31Z</time>
      </trkpt>
      <trkpt lat="45.97006" lon="2.83558">
        <ele>661.8</ele>
        <time>2021-07-11T08:21:32Z</time>
      </trkpt>
      <trkpt lat="45.97007" lon="2.8356">
        <ele>661.9</ele>
        <time>2021-07-11T08:21:33Z</time>
      </trkpt>
      <trkpt lat="45.97007" lon="2.83561">
        <ele>662</ele>
        <time>2021-07-11T08:21:34Z</time>
      </trkpt>
      <trkpt lat="45.97008" lon="2.83563">
        <ele>662.2</ele>
        <time>2021-07-11T08:21:35Z</time>
      </trkpt>
      <trkpt lat="45.97009" lon="2.83565">
        <ele>662.3</ele>
        <time>2021-07-11T08:21:36Z</time>
      </trkpt>
      <trkpt lat="45.97009" lon="2.83567">
        <ele>662.5</ele>
        <time>2021-07-11T08:21:37Z</time>
      </trkpt>
      <trkpt lat="45.97009" lon="2.83569">
        <ele>662.6</ele>
        <time>2021-07-11T08:21:38Z</time>
      </trkpt>
      <trkpt lat="45.97009" lon="2.83571">
        <ele>662.8</ele>
        <time>2021-07-11T08:21:39Z</time>
      </trkpt>
      <trkpt lat="45.9701" lon="2.83573">
        <ele>662.9</ele>
        <time>2021-07-11T08:21:40Z</time>
      </trkpt>
      <trkpt lat="45.9701" lon="2.83576">
        <ele>663.2</ele>
        <time>2021-07-11T08:21:41Z</time>
      </trkpt>
      <trkpt lat="45.9701" lon="2.83578">
        <ele>663.4</ele>
        <time>2021-07-11T08:21:42Z</time>
      </trkpt>
      <trkpt lat="45.9701" lon="2.8358">
        <ele>663.6</ele>
        <time>2021-07-11T08:21:43Z</time>
      </trkpt>
      <trkpt lat="45.97011" lon="2.83582">
        <ele>663.7</ele>
        <time>2021-07-11T08:21:44Z</time>
      </trkpt>
      <trkpt lat="45.97011" lon="2.83584">
        <ele>663.9</ele>
        <time>2021-07-11T08:21:45Z</time>
      </trkpt>
      <trkpt lat="45.97011" lon="2.83586">
        <ele>664.1</ele>
        <time>2021-07-11T08:21:46Z</time>
      </trkpt>
      <trkpt lat="45.97012" lon="2.83589">
        <ele>664.2</ele>
        <time>2021-07-11T08:21:47Z</time>
      </trkpt>
      <trkpt lat="45.97012" lon="2.8359">
        <ele>664.3</ele>
        <time>2021-07-11T08:21:48Z</time>
      </trkpt>
      <trkpt lat="45.97012" lon="2.83592">
        <ele>664.5</ele>
        <time>2021-07-11T08:21:49Z</time>
      </trkpt>
      <trkpt lat="45.97012" lon="2.83593">
        <ele>664.6</ele>
        <time>2021-07-11T08:21:50Z</time>
      </trkpt>
      <trkpt lat="45.97012" lon="2.83595">
        <ele>664.8</ele>
        <time>2021-07-11T08:21:51Z</time>
      </trkpt>
      <trkpt lat="45.97012" lon="2.83597">
        <ele>665</ele>
        <time>2021-07-11T08:21:52Z</time>
      </trkpt>
      <trkpt lat="45.97013" lon="2.83599">
        <ele>665</ele>
        <time>2021-07-11T08:21:53Z</time>
      </trkpt>
      <trkpt lat="45.97014" lon="2.836">
        <ele>665</ele>
        <time>2021-07-11T08:21:54Z</time>
      </trkpt>
      <trkpt lat="45.97014" lon="2.83602">
        <ele>665.2</ele>
        <time>2021-07-11T08:21:55Z</time>
      </trkpt>
      <trkpt lat="45.97014" lon="2.83604">
        <ele>665.3</ele>
        <time>2021-07-11T08:21:56Z</time>
      </trkpt>
      <trkpt lat="45.97014" lon="2.83606">
        <ele>665.5</ele>
        <time>2021-07-11T08:21:57Z</time>
      </trkpt>
      <trkpt lat="45.97014" lon="2.83609">
        <ele>665.8</ele>
        <time>2021-07-11T08:21:58Z</time>
      </trkpt>
      <trkpt lat="45.97014" lon="2.83611">
        <ele>666</ele>
        <time>2021-07-11T08:21:59Z</time>
      </trkpt>
      <trkpt lat="45.97014" lon="2.83613">
        <ele>666.1</ele>
        <time>2021-07-11T08:22:00Z</time>
      </trkpt>
      <trkpt lat="45.97014" lon="2.83616">
        <ele>666.3</ele>
        <time>2021-07-11T08:22:01Z</time>
      </trkpt>
      <trkpt lat="45.97014" lon="2.83619">
        <ele>666.6</ele>
        <time>2021-07-11T08:22:02Z</time>
      </trkpt>
      <trkpt lat="45.97014" lon="2.83621">
        <ele>666.7</ele>
        <time>2021-07-11T08:22:03Z</time>
      </trkpt>
      <trkpt lat="45.97014" lon="2.83624">
        <ele>666.9</ele>
        <time>2021-07-11T08:22:04Z</time>
      </trkpt>
      <trkpt lat="45.97014" lon="2.83627">
        <ele>667.1</ele>
        <time>2021-07-11T08:22:05Z</time>
      </trkpt>
      <trkpt lat="45.97014" lon="2.83629">
        <ele>667.3</ele>
        <time>2021-07-11T08:22:06Z</time>
      </trkpt>
      <trkpt lat="45.97014" lon="2.83632">
        <ele>667.5</ele>
        <time>2021-07-11T08:22:07Z</time>
      </trkpt>
      <trkpt lat="45.97014" lon="2.83635">
        <ele>667.7</ele>
        <time>2021-07-11T08:22:08Z</time>
      </trkpt>
      <trkpt lat="45.97014" lon="2.83637">
        <ele>667.8</ele>
        <time>2021-07-11T08:22:09Z</time>
      </trkpt>
      <trkpt lat="45.97014" lon="2.8364">
        <ele>668</ele>
        <time>2021-07-11T08:22:10Z</time>
      </trkpt>
      <trkpt lat="45.97014" lon="2.83643">
        <ele>668.1</ele>
        <time>2021-07-11T08:22:11Z</time>
      </trkpt>
      <trkpt lat="45.97014" lon="2.83646">
        <ele>668.1</ele>
        <time>2021-07-11T08:22:12Z</time>
      </trkpt>
      <trkpt lat="45.97013" lon="2.83649">
        <ele>668.3</ele>
        <time>2021-07-11T08:22:13Z</time>
      </trkpt>
      <trkpt lat="45.97012" lon="2.83651">
        <ele>668.5</ele>
        <time>2021-07-11T08:22:14Z</time>
      </trkpt>
      <trkpt lat="45.97012" lon="2.83654">
        <ele>668.6</ele>
        <time>2021-07-11T08:22:15Z</time>
      </trkpt>
      <trkpt lat="45.97012" lon="2.83656">
        <ele>668.6</ele>
        <time>2021-07-11T08:22:16Z</time>
      </trkpt>
      <trkpt lat="45.97012" lon="2.83658">
        <ele>668.7</ele>
        <time>2021-07-11T08:22:17Z</time>
      </trkpt>
      <trkpt lat="45.97012" lon="2.8366">
        <ele>668.7</ele>
        <time>2021-07-11T08:22:18Z</time>
      </trkpt>
      <trkpt lat="45.97012" lon="2.83662">
        <ele>668.7</ele>
        <time>2021-07-11T08:22:19Z</time>
      </trkpt>
      <trkpt lat="45.97012" lon="2.83664">
        <ele>668.8</ele>
        <time>2021-07-11T08:22:20Z</time>
      </trkpt>
      <trkpt lat="45.97012" lon="2.83666">
        <ele>668.8</ele>
        <time>2021-07-11T08:22:21Z</time>
      </trkpt>
      <trkpt lat="45.97012" lon="2.83667">
        <ele>668.9</ele>
        <time>2021-07-11T08:22:22Z</time>
      </trkpt>
      <trkpt lat="45.97012" lon="2.83669">
        <ele>668.9</ele>
        <time>2021-07-11T08:22:23Z</time>
      </trkpt>
      <trkpt lat="45.97012" lon="2.83671">
        <ele>669</ele>
        <time>2021-07-11T08:22:24Z</time>
      </trkpt>
      <trkpt lat="45.97012" lon="2.83674">
        <ele>669.1</ele>
        <time>2021-07-11T08:22:25Z</time>
      </trkpt>
      <trkpt lat="45.97012" lon="2.83676">
        <ele>669.2</ele>
        <time>2021-07-11T08:22:26Z</time>
      </trkpt>
      <trkpt lat="45.97012" lon="2.83678">
        <ele>669.2</ele>
        <time>2021-07-11T08:22:27Z</time>
      </trkpt>
      <trkpt lat="45.97012" lon="2.8368">
        <ele>669.3</ele>
        <time>2021-07-11T08:22:28Z</time>
      </trkpt>
      <trkpt lat="45.97012" lon="2.83683">
        <ele>669.4</ele>
        <time>2021-07-11T08:22:29Z</time>
      </trkpt>
      <trkpt lat="45.97012" lon="2.83685">
        <ele>669.5</ele>
        <time>2021-07-11T08:22:30Z</time>
      </trkpt>
      <trkpt lat="45.97012" lon="2.83687">
        <ele>669.6</ele>
        <time>2021-07-11T08:22:31Z</time>
      </trkpt>
      <trkpt lat="45.97011" lon="2.8369">
        <ele>669.9</ele>
        <time>2021-07-11T08:22:32Z</time>
      </trkpt>
      <trkpt lat="45.9701" lon="2.83692">
        <ele>670.1</ele>
        <time>2021-07-11T08:22:33Z</time>
      </trkpt>
      <trkpt lat="45.9701" lon="2.83694">
        <ele>670.2</ele>
        <time>2021-07-11T08:22:34Z</time>
      </trkpt>
      <trkpt lat="45.97009" lon="2.83696">
        <ele>670.4</ele>
        <time>2021-07-11T08:22:35Z</time>
      </trkpt>
      <trkpt lat="45.97009" lon="2.83698">
        <ele>670.5</ele>
        <time>2021-07-11T08:22:36Z</time>
      </trkpt>
      <trkpt lat="45.97009" lon="2.837">
        <ele>670.6</ele>
        <time>2021-07-11T08:22:37Z</time>
      </trkpt>
      <trkpt lat="45.97009" lon="2.83702">
        <ele>670.7</ele>
        <time>2021-07-11T08:22:38Z</time>
      </trkpt>
      <trkpt lat="45.97009" lon="2.83704">
        <ele>670.7</ele>
        <time>2021-07-11T08:22:39Z</time>
      </trkpt>
      <trkpt lat="45.97008" lon="2.83706">
        <ele>671</ele>
        <time>2021-07-11T08:22:40Z</time>
      </trkpt>
      <trkpt lat="45.97008" lon="2.83708">
        <ele>671</ele>
        <time>2021-07-11T08:22:42Z</time>
      </trkpt>
      <trkpt lat="45.97007" lon="2.83716">
        <ele>671.5</ele>
        <time>2021-07-11T08:22:43Z</time>
      </trkpt>
      <trkpt lat="45.97007" lon="2.83716">
        <ele>671.5</ele>
        <time>2021-07-11T08:22:44Z</time>
      </trkpt>
      <trkpt lat="45.97007" lon="2.83717">
        <ele>671.6</ele>
        <time>2021-07-11T08:22:45Z</time>
      </trkpt>
      <trkpt lat="45.97007" lon="2.83719">
        <ele>671.6</ele>
        <time>2021-07-11T08:22:46Z</time>
      </trkpt>
      <trkpt lat="45.97007" lon="2.8372">
        <ele>671.7</ele>
        <time>2021-07-11T08:22:47Z</time>
      </trkpt>
      <trkpt lat="45.97007" lon="2.83722">
        <ele>671.7</ele>
        <time>2021-07-11T08:22:48Z</time>
      </trkpt>
      <trkpt lat="45.97007" lon="2.83724">
        <ele>671.8</ele>
        <time>2021-07-11T08:22:49Z</time>
      </trkpt>
      <trkpt lat="45.97006" lon="2.83726">
        <ele>671.9</ele>
        <time>2021-07-11T08:22:50Z</time>
      </trkpt>
      <trkpt lat="45.97006" lon="2.83728">
        <ele>672</ele>
        <time>2021-07-11T08:22:51Z</time>
      </trkpt>
      <trkpt lat="45.97005" lon="2.8373">
        <ele>672.2</ele>
        <time>2021-07-11T08:22:52Z</time>
      </trkpt>
      <trkpt lat="45.97004" lon="2.83732">
        <ele>672.3</ele>
        <time>2021-07-11T08:22:53Z</time>
      </trkpt>
      <trkpt lat="45.97004" lon="2.83734">
        <ele>672.3</ele>
        <time>2021-07-11T08:22:54Z</time>
      </trkpt>
      <trkpt lat="45.97003" lon="2.83736">
        <ele>672.5</ele>
        <time>2021-07-11T08:22:55Z</time>
      </trkpt>
      <trkpt lat="45.97002" lon="2.83739">
        <ele>672.7</ele>
        <time>2021-07-11T08:22:56Z</time>
      </trkpt>
      <trkpt lat="45.97002" lon="2.83741">
        <ele>672.7</ele>
        <time>2021-07-11T08:22:57Z</time>
      </trkpt>
      <trkpt lat="45.97001" lon="2.83743">
        <ele>672.8</ele>
        <time>2021-07-11T08:22:58Z</time>
      </trkpt>
      <trkpt lat="45.97" lon="2.83745">
        <ele>673</ele>
        <time>2021-07-11T08:22:59Z</time>
      </trkpt>
      <trkpt lat="45.97" lon="2.83747">
        <ele>673</ele>
        <time>2021-07-11T08:23:00Z</time>
      </trkpt>
      <trkpt lat="45.96999" lon="2.83749">
        <ele>673.2</ele>
        <time>2021-07-11T08:23:01Z</time>
      </trkpt>
      <trkpt lat="45.96999" lon="2.83752">
        <ele>673.2</ele>
        <time>2021-07-11T08:23:02Z</time>
      </trkpt>
      <trkpt lat="45.96998" lon="2.83754">
        <ele>673.4</ele>
        <time>2021-07-11T08:23:03Z</time>
      </trkpt>
      <trkpt lat="45.96998" lon="2.83756">
        <ele>673.4</ele>
        <time>2021-07-11T08:23:04Z</time>
      </trkpt>
      <trkpt lat="45.96998" lon="2.83758">
        <ele>673.4</ele>
        <time>2021-07-11T08:23:05Z</time>
      </trkpt>
      <trkpt lat="45.96997" lon="2.83759">
        <ele>673.5</ele>
        <time>2021-07-11T08:23:06Z</time>
      </trkpt>
      <trkpt lat="45.96997" lon="2.83761">
        <ele>673.5</ele>
        <time>2021-07-11T08:23:07Z</time>
      </trkpt>
      <trkpt lat="45.96997" lon="2.83763">
        <ele>673.5</ele>
        <time>2021-07-11T08:23:08Z</time>
      </trkpt>
      <trkpt lat="45.96997" lon="2.83765">
        <ele>673.5</ele>
        <time>2021-07-11T08:23:09Z</time>
      </trkpt>
      <trkpt lat="45.96997" lon="2.83766">
        <ele>673.5</ele>
        <time>2021-07-11T08:23:10Z</time>
      </trkpt>
      <trkpt lat="45.96997" lon="2.83768">
        <ele>673.5</ele>
        <time>2021-07-11T08:23:11Z</time>
      </trkpt>
      <trkpt lat="45.96997" lon="2.8377">
        <ele>673.5</ele>
        <time>2021-07-11T08:23:12Z</time>
      </trkpt>
      <trkpt lat="45.96996" lon="2.83772">
        <ele>673.7</ele>
        <time>2021-07-11T08:23:13Z</time>
      </trkpt>
      <trkpt lat="45.96996" lon="2.83773">
        <ele>673.7</ele>
        <time>2021-07-11T08:23:14Z</time>
      </trkpt>
      <trkpt lat="45.96996" lon="2.83775">
        <ele>673.7</ele>
        <time>2021-07-11T08:23:15Z</time>
      </trkpt>
      <trkpt lat="45.96996" lon="2.83777">
        <ele>673.7</ele>
        <time>2021-07-11T08:23:16Z</time>
      </trkpt>
      <trkpt lat="45.96995" lon="2.83778">
        <ele>673.9</ele>
        <time>2021-07-11T08:23:17Z</time>
      </trkpt>
      <trkpt lat="45.96995" lon="2.8378">
        <ele>674</ele>
        <time>2021-07-11T08:23:18Z</time>
      </trkpt>
      <trkpt lat="45.96994" lon="2.83782">
        <ele>674.2</ele>
        <time>2021-07-11T08:23:19Z</time>
      </trkpt>
      <trkpt lat="45.96994" lon="2.83784">
        <ele>674.3</ele>
        <time>2021-07-11T08:23:20Z</time>
      </trkpt>
      <trkpt lat="45.96994" lon="2.83786">
        <ele>674.4</ele>
        <time>2021-07-11T08:23:21Z</time>
      </trkpt>
      <trkpt lat="45.96994" lon="2.83788">
        <ele>674.4</ele>
        <time>2021-07-11T08:23:22Z</time>
      </trkpt>
      <trkpt lat="45.96994" lon="2.83789">
        <ele>674.5</ele>
        <time>2021-07-11T08:23:23Z</time>
      </trkpt>
      <trkpt lat="45.96994" lon="2.83791">
        <ele>674.6</ele>
        <time>2021-07-11T08:23:24Z</time>
      </trkpt>
      <trkpt lat="45.96994" lon="2.83793">
        <ele>674.6</ele>
        <time>2021-07-11T08:23:25Z</time>
      </trkpt>
      <trkpt lat="45.96994" lon="2.83795">
        <ele>674.7</ele>
        <time>2021-07-11T08:23:26Z</time>
      </trkpt>
      <trkpt lat="45.96993" lon="2.83797">
        <ele>675</ele>
        <time>2021-07-11T08:23:27Z</time>
      </trkpt>
      <trkpt lat="45.96993" lon="2.83798">
        <ele>675</ele>
        <time>2021-07-11T08:23:28Z</time>
      </trkpt>
      <trkpt lat="45.96993" lon="2.838">
        <ele>675.1</ele>
        <time>2021-07-11T08:23:29Z</time>
      </trkpt>
      <trkpt lat="45.96993" lon="2.83802">
        <ele>675.1</ele>
        <time>2021-07-11T08:23:30Z</time>
      </trkpt>
      <trkpt lat="45.96993" lon="2.83803">
        <ele>675.2</ele>
        <time>2021-07-11T08:23:31Z</time>
      </trkpt>
      <trkpt lat="45.96993" lon="2.83805">
        <ele>675.2</ele>
        <time>2021-07-11T08:23:32Z</time>
      </trkpt>
      <trkpt lat="45.96993" lon="2.83807">
        <ele>675.4</ele>
        <time>2021-07-11T08:23:33Z</time>
      </trkpt>
      <trkpt lat="45.96994" lon="2.83808">
        <ele>675.3</ele>
        <time>2021-07-11T08:23:34Z</time>
      </trkpt>
      <trkpt lat="45.96994" lon="2.83809">
        <ele>675.4</ele>
        <time>2021-07-11T08:23:35Z</time>
      </trkpt>
      <trkpt lat="45.96994" lon="2.83811">
        <ele>675.6</ele>
        <time>2021-07-11T08:23:36Z</time>
      </trkpt>
      <trkpt lat="45.96994" lon="2.83813">
        <ele>675.8</ele>
        <time>2021-07-11T08:23:37Z</time>
      </trkpt>
      <trkpt lat="45.96994" lon="2.83814">
        <ele>675.9</ele>
        <time>2021-07-11T08:23:38Z</time>
      </trkpt>
      <trkpt lat="45.96994" lon="2.83816">
        <ele>676</ele>
        <time>2021-07-11T08:23:39Z</time>
      </trkpt>
      <trkpt lat="45.96995" lon="2.83817">
        <ele>676</ele>
        <time>2021-07-11T08:23:40Z</time>
      </trkpt>
      <trkpt lat="45.96996" lon="2.83819">
        <ele>676</ele>
        <time>2021-07-11T08:23:41Z</time>
      </trkpt>
      <trkpt lat="45.96996" lon="2.8382">
        <ele>676.1</ele>
        <time>2021-07-11T08:23:43Z</time>
      </trkpt>
      <trkpt lat="45.96999" lon="2.83826">
        <ele>676.3</ele>
        <time>2021-07-11T08:23:44Z</time>
      </trkpt>
      <trkpt lat="45.96999" lon="2.83827">
        <ele>676.4</ele>
        <time>2021-07-11T08:23:45Z</time>
      </trkpt>
      <trkpt lat="45.97" lon="2.83828">
        <ele>676.4</ele>
        <time>2021-07-11T08:23:46Z</time>
      </trkpt>
      <trkpt lat="45.97" lon="2.83829">
        <ele>676.5</ele>
        <time>2021-07-11T08:23:47Z</time>
      </trkpt>
      <trkpt lat="45.97001" lon="2.83831">
        <ele>676.7</ele>
        <time>2021-07-11T08:23:48Z</time>
      </trkpt>
      <trkpt lat="45.97002" lon="2.83832">
        <ele>676.7</ele>
        <time>2021-07-11T08:23:49Z</time>
      </trkpt>
      <trkpt lat="45.97002" lon="2.83834">
        <ele>676.9</ele>
        <time>2021-07-11T08:23:50Z</time>
      </trkpt>
      <trkpt lat="45.97003" lon="2.83836">
        <ele>677.1</ele>
        <time>2021-07-11T08:23:51Z</time>
      </trkpt>
      <trkpt lat="45.97004" lon="2.83839">
        <ele>677.3</ele>
        <time>2021-07-11T08:23:52Z</time>
      </trkpt>
      <trkpt lat="45.97005" lon="2.83841">
        <ele>677.5</ele>
        <time>2021-07-11T08:23:53Z</time>
      </trkpt>
      <trkpt lat="45.97006" lon="2.83843">
        <ele>677.6</ele>
        <time>2021-07-11T08:23:54Z</time>
      </trkpt>
      <trkpt lat="45.97006" lon="2.83845">
        <ele>677.8</ele>
        <time>2021-07-11T08:23:55Z</time>
      </trkpt>
      <trkpt lat="45.97007" lon="2.83847">
        <ele>678</ele>
        <time>2021-07-11T08:23:56Z</time>
      </trkpt>
      <trkpt lat="45.97007" lon="2.83849">
        <ele>678.2</ele>
        <time>2021-07-11T08:23:57Z</time>
      </trkpt>
      <trkpt lat="45.97009" lon="2.83852">
        <ele>678.4</ele>
        <time>2021-07-11T08:23:57Z</time>
      </trkpt>
      <trkpt lat="45.97009" lon="2.83854">
        <ele>678.6</ele>
        <time>2021-07-11T08:23:58Z</time>
      </trkpt>
      <trkpt lat="45.97009" lon="2.83856">
        <ele>678.8</ele>
        <time>2021-07-11T08:23:59Z</time>
      </trkpt>
      <trkpt lat="45.9701" lon="2.83858">
        <ele>678.9</ele>
        <time>2021-07-11T08:24:00Z</time>
      </trkpt>
      <trkpt lat="45.97011" lon="2.83859">
        <ele>679</ele>
        <time>2021-07-11T08:24:01Z</time>
      </trkpt>
      <trkpt lat="45.97012" lon="2.83861">
        <ele>679.1</ele>
        <time>2021-07-11T08:24:02Z</time>
      </trkpt>
      <trkpt lat="45.97012" lon="2.83863">
        <ele>679.3</ele>
        <time>2021-07-11T08:24:03Z</time>
      </trkpt>
      <trkpt lat="45.97014" lon="2.83865">
        <ele>679.3</ele>
        <time>2021-07-11T08:24:04Z</time>
      </trkpt>
      <trkpt lat="45.97014" lon="2.83867">
        <ele>679.4</ele>
        <time>2021-07-11T08:24:05Z</time>
      </trkpt>
      <trkpt lat="45.97015" lon="2.83869">
        <ele>679.5</ele>
        <time>2021-07-11T08:24:06Z</time>
      </trkpt>
      <trkpt lat="45.97015" lon="2.83871">
        <ele>679.6</ele>
        <time>2021-07-11T08:24:07Z</time>
      </trkpt>
      <trkpt lat="45.97017" lon="2.83873">
        <ele>679.6</ele>
        <time>2021-07-11T08:24:08Z</time>
      </trkpt>
      <trkpt lat="45.97017" lon="2.83874">
        <ele>679.7</ele>
        <time>2021-07-11T08:24:09Z</time>
      </trkpt>
      <trkpt lat="45.97018" lon="2.83876">
        <ele>679.8</ele>
        <time>2021-07-11T08:24:10Z</time>
      </trkpt>
      <trkpt lat="45.97019" lon="2.83878">
        <ele>679.8</ele>
        <time>2021-07-11T08:24:11Z</time>
      </trkpt>
      <trkpt lat="45.97019" lon="2.8388">
        <ele>680</ele>
        <time>2021-07-11T08:24:12Z</time>
      </trkpt>
      <trkpt lat="45.9702" lon="2.83882">
        <ele>680.1</ele>
        <time>2021-07-11T08:24:13Z</time>
      </trkpt>
      <trkpt lat="45.97021" lon="2.83884">
        <ele>680.1</ele>
        <time>2021-07-11T08:24:14Z</time>
      </trkpt>
      <trkpt lat="45.97021" lon="2.83886">
        <ele>680.3</ele>
        <time>2021-07-11T08:24:15Z</time>
      </trkpt>
      <trkpt lat="45.97022" lon="2.83888">
        <ele>680.4</ele>
        <time>2021-07-11T08:24:16Z</time>
      </trkpt>
      <trkpt lat="45.97022" lon="2.83891">
        <ele>680.6</ele>
        <time>2021-07-11T08:24:17Z</time>
      </trkpt>
      <trkpt lat="45.97023" lon="2.83893">
        <ele>680.8</ele>
        <time>2021-07-11T08:24:18Z</time>
      </trkpt>
      <trkpt lat="45.97023" lon="2.83895">
        <ele>681</ele>
        <time>2021-07-11T08:24:19Z</time>
      </trkpt>
      <trkpt lat="45.97024" lon="2.83897">
        <ele>681.1</ele>
        <time>2021-07-11T08:24:20Z</time>
      </trkpt>
      <trkpt lat="45.97024" lon="2.83899">
        <ele>681.3</ele>
        <time>2021-07-11T08:24:21Z</time>
      </trkpt>
      <trkpt lat="45.97025" lon="2.83901">
        <ele>681.5</ele>
        <time>2021-07-11T08:24:22Z</time>
      </trkpt>
      <trkpt lat="45.97025" lon="2.83903">
        <ele>681.7</ele>
        <time>2021-07-11T08:24:23Z</time>
      </trkpt>
      <trkpt lat="45.97025" lon="2.83905">
        <ele>681.9</ele>
        <time>2021-07-11T08:24:24Z</time>
      </trkpt>
      <trkpt lat="45.97026" lon="2.83907">
        <ele>682</ele>
        <time>2021-07-11T08:24:25Z</time>
      </trkpt>
      <trkpt lat="45.97026" lon="2.83909">
        <ele>682.3</ele>
        <time>2021-07-11T08:24:26Z</time>
      </trkpt>
      <trkpt lat="45.97027" lon="2.83911">
        <ele>682.4</ele>
        <time>2021-07-11T08:24:27Z</time>
      </trkpt>
      <trkpt lat="45.97028" lon="2.83913">
        <ele>682.6</ele>
        <time>2021-07-11T08:24:28Z</time>
      </trkpt>
      <trkpt lat="45.97028" lon="2.83915">
        <ele>682.8</ele>
        <time>2021-07-11T08:24:29Z</time>
      </trkpt>
      <trkpt lat="45.97029" lon="2.83917">
        <ele>683</ele>
        <time>2021-07-11T08:24:30Z</time>
      </trkpt>
      <trkpt lat="45.9703" lon="2.83919">
        <ele>683.1</ele>
        <time>2021-07-11T08:24:31Z</time>
      </trkpt>
      <trkpt lat="45.9703" lon="2.83921">
        <ele>683.2</ele>
        <time>2021-07-11T08:24:32Z</time>
      </trkpt>
      <trkpt lat="45.97031" lon="2.83923">
        <ele>683.3</ele>
        <time>2021-07-11T08:24:33Z</time>
      </trkpt>
      <trkpt lat="45.97033" lon="2.83925">
        <ele>683.4</ele>
        <time>2021-07-11T08:24:34Z</time>
      </trkpt>
      <trkpt lat="45.97033" lon="2.83926">
        <ele>683.5</ele>
        <time>2021-07-11T08:24:35Z</time>
      </trkpt>
      <trkpt lat="45.97034" lon="2.83928">
        <ele>683.6</ele>
        <time>2021-07-11T08:24:36Z</time>
      </trkpt>
      <trkpt lat="45.97035" lon="2.8393">
        <ele>683.7</ele>
        <time>2021-07-11T08:24:37Z</time>
      </trkpt>
      <trkpt lat="45.97036" lon="2.83931">
        <ele>683.7</ele>
        <time>2021-07-11T08:24:38Z</time>
      </trkpt>
      <trkpt lat="45.97037" lon="2.83933">
        <ele>683.8</ele>
        <time>2021-07-11T08:24:39Z</time>
      </trkpt>
      <trkpt lat="45.97038" lon="2.83935">
        <ele>684</ele>
        <time>2021-07-11T08:24:40Z</time>
      </trkpt>
      <trkpt lat="45.97039" lon="2.83936">
        <ele>684</ele>
        <time>2021-07-11T08:24:41Z</time>
      </trkpt>
      <trkpt lat="45.97039" lon="2.83938">
        <ele>684.1</ele>
        <time>2021-07-11T08:24:42Z</time>
      </trkpt>
      <trkpt lat="45.9704" lon="2.83941">
        <ele>684.3</ele>
        <time>2021-07-11T08:24:43Z</time>
      </trkpt>
      <trkpt lat="45.97041" lon="2.83943">
        <ele>684.4</ele>
        <time>2021-07-11T08:24:44Z</time>
      </trkpt>
      <trkpt lat="45.97041" lon="2.83945">
        <ele>684.6</ele>
        <time>2021-07-11T08:24:45Z</time>
      </trkpt>
      <trkpt lat="45.97042" lon="2.83947">
        <ele>684.7</ele>
        <time>2021-07-11T08:24:46Z</time>
      </trkpt>
      <trkpt lat="45.97043" lon="2.83949">
        <ele>684.9</ele>
        <time>2021-07-11T08:24:47Z</time>
      </trkpt>
      <trkpt lat="45.97043" lon="2.83951">
        <ele>685</ele>
        <time>2021-07-11T08:24:48Z</time>
      </trkpt>
      <trkpt lat="45.97044" lon="2.83953">
        <ele>685.2</ele>
        <time>2021-07-11T08:24:49Z</time>
      </trkpt>
      <trkpt lat="45.97044" lon="2.83954">
        <ele>685.2</ele>
        <time>2021-07-11T08:24:50Z</time>
      </trkpt>
      <trkpt lat="45.97044" lon="2.83956">
        <ele>685.4</ele>
        <time>2021-07-11T08:24:51Z</time>
      </trkpt>
      <trkpt lat="45.97045" lon="2.83958">
        <ele>685.5</ele>
        <time>2021-07-11T08:24:52Z</time>
      </trkpt>
      <trkpt lat="45.97045" lon="2.8396">
        <ele>685.7</ele>
        <time>2021-07-11T08:24:53Z</time>
      </trkpt>
      <trkpt lat="45.97045" lon="2.83962">
        <ele>685.9</ele>
        <time>2021-07-11T08:24:54Z</time>
      </trkpt>
      <trkpt lat="45.97045" lon="2.83964">
        <ele>686.1</ele>
        <time>2021-07-11T08:24:55Z</time>
      </trkpt>
      <trkpt lat="45.97046" lon="2.83965">
        <ele>686.1</ele>
        <time>2021-07-11T08:24:56Z</time>
      </trkpt>
      <trkpt lat="45.97046" lon="2.83967">
        <ele>686.2</ele>
        <time>2021-07-11T08:24:57Z</time>
      </trkpt>
      <trkpt lat="45.97047" lon="2.83969">
        <ele>686.3</ele>
        <time>2021-07-11T08:24:58Z</time>
      </trkpt>
      <trkpt lat="45.97048" lon="2.83971">
        <ele>686.4</ele>
        <time>2021-07-11T08:24:59Z</time>
      </trkpt>
      <trkpt lat="45.97049" lon="2.83973">
        <ele>686.5</ele>
        <time>2021-07-11T08:25:00Z</time>
      </trkpt>
      <trkpt lat="45.9705" lon="2.83975">
        <ele>686.7</ele>
        <time>2021-07-11T08:25:01Z</time>
      </trkpt>
      <trkpt lat="45.97051" lon="2.83977">
        <ele>686.8</ele>
        <time>2021-07-11T08:25:02Z</time>
      </trkpt>
      <trkpt lat="45.97052" lon="2.83978">
        <ele>686.9</ele>
        <time>2021-07-11T08:25:03Z</time>
      </trkpt>
      <trkpt lat="45.97053" lon="2.8398">
        <ele>687</ele>
        <time>2021-07-11T08:25:04Z</time>
      </trkpt>
      <trkpt lat="45.97054" lon="2.83981">
        <ele>687</ele>
        <time>2021-07-11T08:25:05Z</time>
      </trkpt>
      <trkpt lat="45.97055" lon="2.83983">
        <ele>687.2</ele>
        <time>2021-07-11T08:25:06Z</time>
      </trkpt>
      <trkpt lat="45.97057" lon="2.83984">
        <ele>687.3</ele>
        <time>2021-07-11T08:25:07Z</time>
      </trkpt>
      <trkpt lat="45.97058" lon="2.83986">
        <ele>687.6</ele>
        <time>2021-07-11T08:25:08Z</time>
      </trkpt>
      <trkpt lat="45.9706" lon="2.83987">
        <ele>687.7</ele>
        <time>2021-07-11T08:25:09Z</time>
      </trkpt>
      <trkpt lat="45.97061" lon="2.83988">
        <ele>687.9</ele>
        <time>2021-07-11T08:25:10Z</time>
      </trkpt>
      <trkpt lat="45.97062" lon="2.8399">
        <ele>688.1</ele>
        <time>2021-07-11T08:25:11Z</time>
      </trkpt>
      <trkpt lat="45.97063" lon="2.83991">
        <ele>688.2</ele>
        <time>2021-07-11T08:25:12Z</time>
      </trkpt>
      <trkpt lat="45.97064" lon="2.83993">
        <ele>688.4</ele>
        <time>2021-07-11T08:25:13Z</time>
      </trkpt>
      <trkpt lat="45.97065" lon="2.83994">
        <ele>688.5</ele>
        <time>2021-07-11T08:25:14Z</time>
      </trkpt>
      <trkpt lat="45.97066" lon="2.83996">
        <ele>688.7</ele>
        <time>2021-07-11T08:25:15Z</time>
      </trkpt>
      <trkpt lat="45.97067" lon="2.83997">
        <ele>688.8</ele>
        <time>2021-07-11T08:25:16Z</time>
      </trkpt>
      <trkpt lat="45.97068" lon="2.83999">
        <ele>688.9</ele>
        <time>2021-07-11T08:25:17Z</time>
      </trkpt>
      <trkpt lat="45.97068" lon="2.84001">
        <ele>689.1</ele>
        <time>2021-07-11T08:25:18Z</time>
      </trkpt>
      <trkpt lat="45.97069" lon="2.84002">
        <ele>689.1</ele>
        <time>2021-07-11T08:25:19Z</time>
      </trkpt>
      <trkpt lat="45.9707" lon="2.84004">
        <ele>689.2</ele>
        <time>2021-07-11T08:25:20Z</time>
      </trkpt>
      <trkpt lat="45.97071" lon="2.84006">
        <ele>689.3</ele>
        <time>2021-07-11T08:25:21Z</time>
      </trkpt>
      <trkpt lat="45.97072" lon="2.84009">
        <ele>689.5</ele>
        <time>2021-07-11T08:25:22Z</time>
      </trkpt>
      <trkpt lat="45.97072" lon="2.84011">
        <ele>689.6</ele>
        <time>2021-07-11T08:25:23Z</time>
      </trkpt>
      <trkpt lat="45.97072" lon="2.84013">
        <ele>689.7</ele>
        <time>2021-07-11T08:25:24Z</time>
      </trkpt>
      <trkpt lat="45.97073" lon="2.84016">
        <ele>689.8</ele>
        <time>2021-07-11T08:25:25Z</time>
      </trkpt>
      <trkpt lat="45.97073" lon="2.84018">
        <ele>689.9</ele>
        <time>2021-07-11T08:25:26Z</time>
      </trkpt>
      <trkpt lat="45.97074" lon="2.8402">
        <ele>690</ele>
        <time>2021-07-11T08:25:27Z</time>
      </trkpt>
      <trkpt lat="45.97075" lon="2.84022">
        <ele>690</ele>
        <time>2021-07-11T08:25:28Z</time>
      </trkpt>
      <trkpt lat="45.97075" lon="2.84024">
        <ele>690.1</ele>
        <time>2021-07-11T08:25:29Z</time>
      </trkpt>
      <trkpt lat="45.97075" lon="2.84027">
        <ele>690.3</ele>
        <time>2021-07-11T08:25:30Z</time>
      </trkpt>
      <trkpt lat="45.97075" lon="2.84029">
        <ele>690.4</ele>
        <time>2021-07-11T08:25:31Z</time>
      </trkpt>
      <trkpt lat="45.97076" lon="2.84031">
        <ele>690.5</ele>
        <time>2021-07-11T08:25:32Z</time>
      </trkpt>
      <trkpt lat="45.97076" lon="2.84033">
        <ele>690.6</ele>
        <time>2021-07-11T08:25:33Z</time>
      </trkpt>
      <trkpt lat="45.97077" lon="2.84035">
        <ele>690.7</ele>
        <time>2021-07-11T08:25:34Z</time>
      </trkpt>
      <trkpt lat="45.97078" lon="2.84037">
        <ele>690.8</ele>
        <time>2021-07-11T08:25:35Z</time>
      </trkpt>
      <trkpt lat="45.97078" lon="2.84039">
        <ele>690.9</ele>
        <time>2021-07-11T08:25:36Z</time>
      </trkpt>
      <trkpt lat="45.97078" lon="2.84041">
        <ele>691.1</ele>
        <time>2021-07-11T08:25:37Z</time>
      </trkpt>
      <trkpt lat="45.97079" lon="2.84044">
        <ele>691.2</ele>
        <time>2021-07-11T08:25:38Z</time>
      </trkpt>
      <trkpt lat="45.97079" lon="2.84046">
        <ele>691.4</ele>
        <time>2021-07-11T08:25:40Z</time>
      </trkpt>
      <trkpt lat="45.97081" lon="2.84055">
        <ele>692</ele>
        <time>2021-07-11T08:25:41Z</time>
      </trkpt>
      <trkpt lat="45.97081" lon="2.84056">
        <ele>692</ele>
        <time>2021-07-11T08:25:42Z</time>
      </trkpt>
      <trkpt lat="45.97081" lon="2.84057">
        <ele>692.1</ele>
        <time>2021-07-11T08:25:43Z</time>
      </trkpt>
      <trkpt lat="45.97081" lon="2.84059">
        <ele>692.1</ele>
        <time>2021-07-11T08:25:44Z</time>
      </trkpt>
      <trkpt lat="45.97081" lon="2.84061">
        <ele>692.2</ele>
        <time>2021-07-11T08:25:45Z</time>
      </trkpt>
      <trkpt lat="45.97082" lon="2.84063">
        <ele>692.3</ele>
        <time>2021-07-11T08:25:46Z</time>
      </trkpt>
      <trkpt lat="45.97082" lon="2.84065">
        <ele>692.3</ele>
        <time>2021-07-11T08:25:47Z</time>
      </trkpt>
      <trkpt lat="45.97083" lon="2.84068">
        <ele>692.4</ele>
        <time>2021-07-11T08:25:48Z</time>
      </trkpt>
      <trkpt lat="45.97083" lon="2.8407">
        <ele>692.5</ele>
        <time>2021-07-11T08:25:49Z</time>
      </trkpt>
      <trkpt lat="45.97083" lon="2.84072">
        <ele>692.6</ele>
        <time>2021-07-11T08:25:50Z</time>
      </trkpt>
      <trkpt lat="45.97084" lon="2.84075">
        <ele>692.7</ele>
        <time>2021-07-11T08:25:51Z</time>
      </trkpt>
      <trkpt lat="45.97084" lon="2.84077">
        <ele>692.8</ele>
        <time>2021-07-11T08:25:52Z</time>
      </trkpt>
      <trkpt lat="45.97084" lon="2.84079">
        <ele>692.9</ele>
        <time>2021-07-11T08:25:53Z</time>
      </trkpt>
      <trkpt lat="45.97085" lon="2.84081">
        <ele>693</ele>
        <time>2021-07-11T08:25:54Z</time>
      </trkpt>
      <trkpt lat="45.97085" lon="2.84083">
        <ele>693.1</ele>
        <time>2021-07-11T08:25:55Z</time>
      </trkpt>
      <trkpt lat="45.97085" lon="2.84086">
        <ele>693.3</ele>
        <time>2021-07-11T08:25:56Z</time>
      </trkpt>
      <trkpt lat="45.97085" lon="2.84088">
        <ele>693.4</ele>
        <time>2021-07-11T08:25:57Z</time>
      </trkpt>
      <trkpt lat="45.97085" lon="2.8409">
        <ele>693.6</ele>
        <time>2021-07-11T08:25:58Z</time>
      </trkpt>
      <trkpt lat="45.97086" lon="2.84092">
        <ele>693.8</ele>
        <time>2021-07-11T08:25:59Z</time>
      </trkpt>
      <trkpt lat="45.97086" lon="2.84094">
        <ele>693.9</ele>
        <time>2021-07-11T08:26:00Z</time>
      </trkpt>
      <trkpt lat="45.97086" lon="2.84096">
        <ele>694.1</ele>
        <time>2021-07-11T08:26:01Z</time>
      </trkpt>
      <trkpt lat="45.97086" lon="2.84098">
        <ele>694.2</ele>
        <time>2021-07-11T08:26:02Z</time>
      </trkpt>
      <trkpt lat="45.97086" lon="2.841">
        <ele>694.3</ele>
        <time>2021-07-11T08:26:03Z</time>
      </trkpt>
      <trkpt lat="45.97087" lon="2.84102">
        <ele>694.5</ele>
        <time>2021-07-11T08:26:04Z</time>
      </trkpt>
      <trkpt lat="45.97087" lon="2.84104">
        <ele>694.7</ele>
        <time>2021-07-11T08:26:05Z</time>
      </trkpt>
      <trkpt lat="45.97087" lon="2.84106">
        <ele>694.8</ele>
        <time>2021-07-11T08:26:06Z</time>
      </trkpt>
      <trkpt lat="45.97087" lon="2.84109">
        <ele>695</ele>
        <time>2021-07-11T08:26:07Z</time>
      </trkpt>
      <trkpt lat="45.97087" lon="2.84111">
        <ele>695.1</ele>
        <time>2021-07-11T08:26:08Z</time>
      </trkpt>
      <trkpt lat="45.97087" lon="2.84114">
        <ele>695.2</ele>
        <time>2021-07-11T08:26:09Z</time>
      </trkpt>
      <trkpt lat="45.97087" lon="2.84116">
        <ele>695.3</ele>
        <time>2021-07-11T08:26:10Z</time>
      </trkpt>
      <trkpt lat="45.97087" lon="2.84119">
        <ele>695.4</ele>
        <time>2021-07-11T08:26:11Z</time>
      </trkpt>
      <trkpt lat="45.97087" lon="2.84121">
        <ele>695.5</ele>
        <time>2021-07-11T08:26:12Z</time>
      </trkpt>
      <trkpt lat="45.97087" lon="2.84123">
        <ele>695.6</ele>
        <time>2021-07-11T08:26:13Z</time>
      </trkpt>
      <trkpt lat="45.97087" lon="2.84125">
        <ele>695.6</ele>
        <time>2021-07-11T08:26:14Z</time>
      </trkpt>
      <trkpt lat="45.97087" lon="2.84127">
        <ele>695.7</ele>
        <time>2021-07-11T08:26:15Z</time>
      </trkpt>
      <trkpt lat="45.97087" lon="2.84129">
        <ele>695.8</ele>
        <time>2021-07-11T08:26:16Z</time>
      </trkpt>
      <trkpt lat="45.97087" lon="2.84131">
        <ele>695.8</ele>
        <time>2021-07-11T08:26:17Z</time>
      </trkpt>
      <trkpt lat="45.97088" lon="2.84133">
        <ele>696</ele>
        <time>2021-07-11T08:26:18Z</time>
      </trkpt>
      <trkpt lat="45.97088" lon="2.84135">
        <ele>696</ele>
        <time>2021-07-11T08:26:19Z</time>
      </trkpt>
      <trkpt lat="45.97088" lon="2.84137">
        <ele>696.1</ele>
        <time>2021-07-11T08:26:20Z</time>
      </trkpt>
      <trkpt lat="45.97088" lon="2.84139">
        <ele>696.2</ele>
        <time>2021-07-11T08:26:21Z</time>
      </trkpt>
      <trkpt lat="45.97088" lon="2.84141">
        <ele>696.2</ele>
        <time>2021-07-11T08:26:22Z</time>
      </trkpt>
      <trkpt lat="45.97088" lon="2.84143">
        <ele>696.3</ele>
        <time>2021-07-11T08:26:23Z</time>
      </trkpt>
      <trkpt lat="45.97088" lon="2.84146">
        <ele>696.4</ele>
        <time>2021-07-11T08:26:24Z</time>
      </trkpt>
      <trkpt lat="45.97088" lon="2.84148">
        <ele>696.4</ele>
        <time>2021-07-11T08:26:25Z</time>
      </trkpt>
      <trkpt lat="45.97088" lon="2.8415">
        <ele>696.5</ele>
        <time>2021-07-11T08:26:26Z</time>
      </trkpt>
      <trkpt lat="45.97088" lon="2.84152">
        <ele>696.6</ele>
        <time>2021-07-11T08:26:27Z</time>
      </trkpt>
      <trkpt lat="45.97088" lon="2.84154">
        <ele>696.6</ele>
        <time>2021-07-11T08:26:28Z</time>
      </trkpt>
      <trkpt lat="45.97088" lon="2.84155">
        <ele>696.7</ele>
        <time>2021-07-11T08:26:29Z</time>
      </trkpt>
      <trkpt lat="45.97087" lon="2.84157">
        <ele>696.7</ele>
        <time>2021-07-11T08:26:30Z</time>
      </trkpt>
      <trkpt lat="45.97087" lon="2.84159">
        <ele>696.8</ele>
        <time>2021-07-11T08:26:31Z</time>
      </trkpt>
      <trkpt lat="45.97087" lon="2.84161">
        <ele>696.8</ele>
        <time>2021-07-11T08:26:32Z</time>
      </trkpt>
      <trkpt lat="45.97086" lon="2.84163">
        <ele>696.9</ele>
        <time>2021-07-11T08:26:33Z</time>
      </trkpt>
      <trkpt lat="45.97086" lon="2.84165">
        <ele>696.9</ele>
        <time>2021-07-11T08:26:34Z</time>
      </trkpt>
      <trkpt lat="45.97086" lon="2.84167">
        <ele>697</ele>
        <time>2021-07-11T08:26:35Z</time>
      </trkpt>
      <trkpt lat="45.97086" lon="2.84169">
        <ele>697</ele>
        <time>2021-07-11T08:26:36Z</time>
      </trkpt>
      <trkpt lat="45.97085" lon="2.84172">
        <ele>697</ele>
        <time>2021-07-11T08:26:37Z</time>
      </trkpt>
      <trkpt lat="45.97085" lon="2.84174">
        <ele>697</ele>
        <time>2021-07-11T08:26:38Z</time>
      </trkpt>
      <trkpt lat="45.97085" lon="2.84175">
        <ele>697</ele>
        <time>2021-07-11T08:26:39Z</time>
      </trkpt>
      <trkpt lat="45.97085" lon="2.84177">
        <ele>697</ele>
        <time>2021-07-11T08:26:40Z</time>
      </trkpt>
      <trkpt lat="45.97085" lon="2.84179">
        <ele>697</ele>
        <time>2021-07-11T08:26:41Z</time>
      </trkpt>
      <trkpt lat="45.97084" lon="2.84181">
        <ele>697</ele>
        <time>2021-07-11T08:26:42Z</time>
      </trkpt>
      <trkpt lat="45.97084" lon="2.84183">
        <ele>697</ele>
        <time>2021-07-11T08:26:43Z</time>
      </trkpt>
      <trkpt lat="45.97084" lon="2.84185">
        <ele>697</ele>
        <time>2021-07-11T08:26:44Z</time>
      </trkpt>
      <trkpt lat="45.97084" lon="2.84187">
        <ele>697</ele>
        <time>2021-07-11T08:26:45Z</time>
      </trkpt>
      <trkpt lat="45.97084" lon="2.84189">
        <ele>697</ele>
        <time>2021-07-11T08:26:46Z</time>
      </trkpt>
      <trkpt lat="45.97084" lon="2.84191">
        <ele>697</ele>
        <time>2021-07-11T08:26:47Z</time>
      </trkpt>
      <trkpt lat="45.97084" lon="2.84193">
        <ele>697</ele>
        <time>2021-07-11T08:26:48Z</time>
      </trkpt>
      <trkpt lat="45.97084" lon="2.84195">
        <ele>697</ele>
        <time>2021-07-11T08:26:49Z</time>
      </trkpt>
      <trkpt lat="45.97084" lon="2.84197">
        <ele>697</ele>
        <time>2021-07-11T08:26:50Z</time>
      </trkpt>
      <trkpt lat="45.97084" lon="2.84199">
        <ele>697</ele>
        <time>2021-07-11T08:26:51Z</time>
      </trkpt>
      <trkpt lat="45.97084" lon="2.84201">
        <ele>697</ele>
        <time>2021-07-11T08:26:52Z</time>
      </trkpt>
      <trkpt lat="45.97084" lon="2.84203">
        <ele>697</ele>
        <time>2021-07-11T08:26:53Z</time>
      </trkpt>
      <trkpt lat="45.97084" lon="2.84206">
        <ele>697</ele>
        <time>2021-07-11T08:26:54Z</time>
      </trkpt>
      <trkpt lat="45.97084" lon="2.84208">
        <ele>697</ele>
        <time>2021-07-11T08:26:55Z</time>
      </trkpt>
      <trkpt lat="45.97084" lon="2.8421">
        <ele>697</ele>
        <time>2021-07-11T08:26:56Z</time>
      </trkpt>
      <trkpt lat="45.97084" lon="2.84212">
        <ele>697</ele>
        <time>2021-07-11T08:26:57Z</time>
      </trkpt>
      <trkpt lat="45.97083" lon="2.84214">
        <ele>697</ele>
        <time>2021-07-11T08:26:58Z</time>
      </trkpt>
      <trkpt lat="45.97083" lon="2.84217">
        <ele>697</ele>
        <time>2021-07-11T08:26:59Z</time>
      </trkpt>
      <trkpt lat="45.97083" lon="2.84219">
        <ele>697</ele>
        <time>2021-07-11T08:27:00Z</time>
      </trkpt>
      <trkpt lat="45.97083" lon="2.84221">
        <ele>697</ele>
        <time>2021-07-11T08:27:01Z</time>
      </trkpt>
      <trkpt lat="45.97083" lon="2.84223">
        <ele>697</ele>
        <time>2021-07-11T08:27:02Z</time>
      </trkpt>
      <trkpt lat="45.97083" lon="2.84225">
        <ele>696.9</ele>
        <time>2021-07-11T08:27:03Z</time>
      </trkpt>
      <trkpt lat="45.97083" lon="2.84227">
        <ele>696.8</ele>
        <time>2021-07-11T08:27:04Z</time>
      </trkpt>
      <trkpt lat="45.97083" lon="2.84229">
        <ele>696.8</ele>
        <time>2021-07-11T08:27:05Z</time>
      </trkpt>
      <trkpt lat="45.97083" lon="2.84232">
        <ele>696.7</ele>
        <time>2021-07-11T08:27:06Z</time>
      </trkpt>
      <trkpt lat="45.97083" lon="2.84234">
        <ele>696.6</ele>
        <time>2021-07-11T08:27:07Z</time>
      </trkpt>
      <trkpt lat="45.97083" lon="2.84236">
        <ele>696.5</ele>
        <time>2021-07-11T08:27:08Z</time>
      </trkpt>
      <trkpt lat="45.97083" lon="2.84238">
        <ele>696.4</ele>
        <time>2021-07-11T08:27:09Z</time>
      </trkpt>
      <trkpt lat="45.97084" lon="2.8424">
        <ele>696.3</ele>
        <time>2021-07-11T08:27:10Z</time>
      </trkpt>
      <trkpt lat="45.97084" lon="2.84242">
        <ele>696.2</ele>
        <time>2021-07-11T08:27:11Z</time>
      </trkpt>
      <trkpt lat="45.97085" lon="2.84244">
        <ele>696</ele>
        <time>2021-07-11T08:27:12Z</time>
      </trkpt>
      <trkpt lat="45.97085" lon="2.84246">
        <ele>696</ele>
        <time>2021-07-11T08:27:13Z</time>
      </trkpt>
      <trkpt lat="45.97085" lon="2.84248">
        <ele>695.9</ele>
        <time>2021-07-11T08:27:14Z</time>
      </trkpt>
      <trkpt lat="45.97085" lon="2.84251">
        <ele>695.8</ele>
        <time>2021-07-11T08:27:15Z</time>
      </trkpt>
      <trkpt lat="45.97085" lon="2.84253">
        <ele>695.6</ele>
        <time>2021-07-11T08:27:16Z</time>
      </trkpt>
      <trkpt lat="45.97085" lon="2.84255">
        <ele>695.5</ele>
        <time>2021-07-11T08:27:17Z</time>
      </trkpt>
      <trkpt lat="45.97085" lon="2.84257">
        <ele>695.3</ele>
        <time>2021-07-11T08:27:18Z</time>
      </trkpt>
      <trkpt lat="45.97085" lon="2.84259">
        <ele>695.2</ele>
        <time>2021-07-11T08:27:19Z</time>
      </trkpt>
      <trkpt lat="45.97085" lon="2.84261">
        <ele>695.1</ele>
        <time>2021-07-11T08:27:20Z</time>
      </trkpt>
      <trkpt lat="45.97085" lon="2.84263">
        <ele>694.9</ele>
        <time>2021-07-11T08:27:21Z</time>
      </trkpt>
      <trkpt lat="45.97084" lon="2.84265">
        <ele>694.9</ele>
        <time>2021-07-11T08:27:22Z</time>
      </trkpt>
      <trkpt lat="45.97084" lon="2.84268">
        <ele>694.7</ele>
        <time>2021-07-11T08:27:23Z</time>
      </trkpt>
      <trkpt lat="45.97084" lon="2.8427">
        <ele>694.5</ele>
        <time>2021-07-11T08:27:24Z</time>
      </trkpt>
      <trkpt lat="45.97083" lon="2.84272">
        <ele>694.4</ele>
        <time>2021-07-11T08:27:25Z</time>
      </trkpt>
      <trkpt lat="45.97083" lon="2.84275">
        <ele>694.2</ele>
        <time>2021-07-11T08:27:26Z</time>
      </trkpt>
      <trkpt lat="45.97083" lon="2.84277">
        <ele>694.1</ele>
        <time>2021-07-11T08:27:27Z</time>
      </trkpt>
      <trkpt lat="45.97082" lon="2.84279">
        <ele>693.9</ele>
        <time>2021-07-11T08:27:28Z</time>
      </trkpt>
      <trkpt lat="45.97082" lon="2.84282">
        <ele>693.7</ele>
        <time>2021-07-11T08:27:29Z</time>
      </trkpt>
      <trkpt lat="45.97082" lon="2.84284">
        <ele>693.6</ele>
        <time>2021-07-11T08:27:30Z</time>
      </trkpt>
      <trkpt lat="45.97081" lon="2.84287">
        <ele>693.3</ele>
        <time>2021-07-11T08:27:31Z</time>
      </trkpt>
      <trkpt lat="45.97081" lon="2.8429">
        <ele>693.1</ele>
        <time>2021-07-11T08:27:32Z</time>
      </trkpt>
      <trkpt lat="45.97081" lon="2.84292">
        <ele>693</ele>
        <time>2021-07-11T08:27:33Z</time>
      </trkpt>
      <trkpt lat="45.9708" lon="2.84295">
        <ele>692.8</ele>
        <time>2021-07-11T08:27:34Z</time>
      </trkpt>
      <trkpt lat="45.9708" lon="2.84297">
        <ele>692.6</ele>
        <time>2021-07-11T08:27:35Z</time>
      </trkpt>
      <trkpt lat="45.97079" lon="2.84299">
        <ele>692.5</ele>
        <time>2021-07-11T08:27:36Z</time>
      </trkpt>
      <trkpt lat="45.97079" lon="2.84302">
        <ele>692.3</ele>
        <time>2021-07-11T08:27:37Z</time>
      </trkpt>
      <trkpt lat="45.97079" lon="2.84304">
        <ele>692.1</ele>
        <time>2021-07-11T08:27:38Z</time>
      </trkpt>
      <trkpt lat="45.97078" lon="2.84307">
        <ele>691.8</ele>
        <time>2021-07-11T08:27:39Z</time>
      </trkpt>
      <trkpt lat="45.97078" lon="2.84309">
        <ele>691.6</ele>
        <time>2021-07-11T08:27:40Z</time>
      </trkpt>
      <trkpt lat="45.97077" lon="2.84311">
        <ele>691.4</ele>
        <time>2021-07-11T08:27:41Z</time>
      </trkpt>
      <trkpt lat="45.97076" lon="2.84313">
        <ele>691.1</ele>
        <time>2021-07-11T08:27:42Z</time>
      </trkpt>
      <trkpt lat="45.97076" lon="2.84316">
        <ele>690.8</ele>
        <time>2021-07-11T08:27:43Z</time>
      </trkpt>
      <trkpt lat="45.97075" lon="2.84318">
        <ele>690.6</ele>
        <time>2021-07-11T08:27:44Z</time>
      </trkpt>
      <trkpt lat="45.97075" lon="2.8432">
        <ele>690.4</ele>
        <time>2021-07-11T08:27:45Z</time>
      </trkpt>
      <trkpt lat="45.97075" lon="2.84322">
        <ele>690.2</ele>
        <time>2021-07-11T08:27:46Z</time>
      </trkpt>
      <trkpt lat="45.97075" lon="2.84325">
        <ele>689.8</ele>
        <time>2021-07-11T08:27:47Z</time>
      </trkpt>
      <trkpt lat="45.97075" lon="2.84327">
        <ele>689.6</ele>
        <time>2021-07-11T08:27:48Z</time>
      </trkpt>
      <trkpt lat="45.97075" lon="2.84329">
        <ele>689.4</ele>
        <time>2021-07-11T08:27:49Z</time>
      </trkpt>
      <trkpt lat="45.97075" lon="2.84331">
        <ele>689.2</ele>
        <time>2021-07-11T08:27:50Z</time>
      </trkpt>
      <trkpt lat="45.97074" lon="2.84333">
        <ele>689</ele>
        <time>2021-07-11T08:27:51Z</time>
      </trkpt>
      <trkpt lat="45.97074" lon="2.84335">
        <ele>688.8</ele>
        <time>2021-07-11T08:27:52Z</time>
      </trkpt>
      <trkpt lat="45.97073" lon="2.84336">
        <ele>688.8</ele>
        <time>2021-07-11T08:27:53Z</time>
      </trkpt>
      <trkpt lat="45.97073" lon="2.84338">
        <ele>688.5</ele>
        <time>2021-07-11T08:27:54Z</time>
      </trkpt>
      <trkpt lat="45.97073" lon="2.84339">
        <ele>688.4</ele>
        <time>2021-07-11T08:27:55Z</time>
      </trkpt>
      <trkpt lat="45.97073" lon="2.8434">
        <ele>688.3</ele>
        <time>2021-07-11T08:27:56Z</time>
      </trkpt>
      <trkpt lat="45.97073" lon="2.84341">
        <ele>688.1</ele>
        <time>2021-07-11T08:27:57Z</time>
      </trkpt>
      <trkpt lat="45.97073" lon="2.84342">
        <ele>688</ele>
        <time>2021-07-11T08:27:58Z</time>
      </trkpt>
      <trkpt lat="45.97073" lon="2.84343">
        <ele>687.9</ele>
        <time>2021-07-11T08:27:59Z</time>
      </trkpt>
      <trkpt lat="45.97073" lon="2.84345">
        <ele>687.6</ele>
        <time>2021-07-11T08:28:00Z</time>
      </trkpt>
      <trkpt lat="45.97073" lon="2.84346">
        <ele>687.5</ele>
        <time>2021-07-11T08:28:01Z</time>
      </trkpt>
      <trkpt lat="45.97073" lon="2.84348">
        <ele>687.3</ele>
        <time>2021-07-11T08:28:02Z</time>
      </trkpt>
      <trkpt lat="45.97073" lon="2.84349">
        <ele>687.1</ele>
        <time>2021-07-11T08:28:03Z</time>
      </trkpt>
      <trkpt lat="45.97073" lon="2.8435">
        <ele>687</ele>
        <time>2021-07-11T08:28:04Z</time>
      </trkpt>
      <trkpt lat="45.97074" lon="2.84352">
        <ele>686.6</ele>
        <time>2021-07-11T08:28:05Z</time>
      </trkpt>
      <trkpt lat="45.97074" lon="2.84353">
        <ele>686.4</ele>
        <time>2021-07-11T08:28:06Z</time>
      </trkpt>
      <trkpt lat="45.97074" lon="2.84355">
        <ele>686.2</ele>
        <time>2021-07-11T08:28:07Z</time>
      </trkpt>
      <trkpt lat="45.97074" lon="2.84356">
        <ele>686</ele>
        <time>2021-07-11T08:28:08Z</time>
      </trkpt>
      <trkpt lat="45.97075" lon="2.84358">
        <ele>685.5</ele>
        <time>2021-07-11T08:28:09Z</time>
      </trkpt>
      <trkpt lat="45.97075" lon="2.8436">
        <ele>685.3</ele>
        <time>2021-07-11T08:28:10Z</time>
      </trkpt>
      <trkpt lat="45.97075" lon="2.84362">
        <ele>685</ele>
        <time>2021-07-11T08:28:11Z</time>
      </trkpt>
      <trkpt lat="45.97075" lon="2.84364">
        <ele>684.9</ele>
        <time>2021-07-11T08:28:12Z</time>
      </trkpt>
      <trkpt lat="45.97075" lon="2.84367">
        <ele>684.7</ele>
        <time>2021-07-11T08:28:12Z</time>
      </trkpt>
      <trkpt lat="45.97076" lon="2.84369">
        <ele>684.2</ele>
        <time>2021-07-11T08:28:13Z</time>
      </trkpt>
      <trkpt lat="45.97076" lon="2.84372">
        <ele>684</ele>
        <time>2021-07-11T08:28:14Z</time>
      </trkpt>
      <trkpt lat="45.97076" lon="2.84375">
        <ele>683.7</ele>
        <time>2021-07-11T08:28:15Z</time>
      </trkpt>
      <trkpt lat="45.97077" lon="2.84378">
        <ele>683.2</ele>
        <time>2021-07-11T08:28:16Z</time>
      </trkpt>
      <trkpt lat="45.97077" lon="2.84381">
        <ele>682.9</ele>
        <time>2021-07-11T08:28:17Z</time>
      </trkpt>
      <trkpt lat="45.97078" lon="2.84385">
        <ele>682.3</ele>
        <time>2021-07-11T08:28:18Z</time>
      </trkpt>
      <trkpt lat="45.97078" lon="2.84388">
        <ele>682</ele>
        <time>2021-07-11T08:28:19Z</time>
      </trkpt>
      <trkpt lat="45.97078" lon="2.84391">
        <ele>682</ele>
        <time>2021-07-11T08:28:20Z</time>
      </trkpt>
      <trkpt lat="45.97078" lon="2.84394">
        <ele>682.1</ele>
        <time>2021-07-11T08:28:21Z</time>
      </trkpt>
      <trkpt lat="45.97078" lon="2.84397">
        <ele>682.2</ele>
        <time>2021-07-11T08:28:22Z</time>
      </trkpt>
      <trkpt lat="45.97078" lon="2.84399">
        <ele>682.2</ele>
        <time>2021-07-11T08:28:23Z</time>
      </trkpt>
      <trkpt lat="45.97078" lon="2.84402">
        <ele>682.3</ele>
        <time>2021-07-11T08:28:24Z</time>
      </trkpt>
      <trkpt lat="45.97078" lon="2.84405">
        <ele>682.4</ele>
        <time>2021-07-11T08:28:25Z</time>
      </trkpt>
      <trkpt lat="45.97079" lon="2.84407">
        <ele>682.1</ele>
        <time>2021-07-11T08:28:26Z</time>
      </trkpt>
      <trkpt lat="45.97079" lon="2.8441">
        <ele>682.2</ele>
        <time>2021-07-11T08:28:27Z</time>
      </trkpt>
      <trkpt lat="45.9708" lon="2.84412">
        <ele>681.9</ele>
        <time>2021-07-11T08:28:28Z</time>
      </trkpt>
      <trkpt lat="45.9708" lon="2.84415">
        <ele>682</ele>
        <time>2021-07-11T08:28:29Z</time>
      </trkpt>
      <trkpt lat="45.97081" lon="2.84417">
        <ele>681.8</ele>
        <time>2021-07-11T08:28:30Z</time>
      </trkpt>
      <trkpt lat="45.97081" lon="2.84419">
        <ele>681.9</ele>
        <time>2021-07-11T08:28:31Z</time>
      </trkpt>
      <trkpt lat="45.97081" lon="2.84422">
        <ele>682.1</ele>
        <time>2021-07-11T08:28:32Z</time>
      </trkpt>
      <trkpt lat="45.97082" lon="2.84424">
        <ele>681.9</ele>
        <time>2021-07-11T08:28:33Z</time>
      </trkpt>
      <trkpt lat="45.97082" lon="2.84426">
        <ele>682.1</ele>
        <time>2021-07-11T08:28:34Z</time>
      </trkpt>
      <trkpt lat="45.97082" lon="2.84429">
        <ele>682.3</ele>
        <time>2021-07-11T08:28:35Z</time>
      </trkpt>
      <trkpt lat="45.97082" lon="2.84431">
        <ele>682.4</ele>
        <time>2021-07-11T08:28:36Z</time>
      </trkpt>
      <trkpt lat="45.97083" lon="2.84433">
        <ele>682.3</ele>
        <time>2021-07-11T08:28:37Z</time>
      </trkpt>
      <trkpt lat="45.97083" lon="2.84436">
        <ele>682.5</ele>
        <time>2021-07-11T08:28:39Z</time>
      </trkpt>
      <trkpt lat="45.97085" lon="2.84447">
        <ele>682.7</ele>
        <time>2021-07-11T08:28:41Z</time>
      </trkpt>
      <trkpt lat="45.97086" lon="2.84451">
        <ele>682.8</ele>
        <time>2021-07-11T08:28:42Z</time>
      </trkpt>
      <trkpt lat="45.97086" lon="2.84452">
        <ele>682.9</ele>
        <time>2021-07-11T08:28:43Z</time>
      </trkpt>
      <trkpt lat="45.97087" lon="2.84453">
        <ele>682.7</ele>
        <time>2021-07-11T08:28:44Z</time>
      </trkpt>
      <trkpt lat="45.97087" lon="2.84454">
        <ele>682.8</ele>
        <time>2021-07-11T08:28:45Z</time>
      </trkpt>
      <trkpt lat="45.97088" lon="2.84456">
        <ele>682.7</ele>
        <time>2021-07-11T08:28:46Z</time>
      </trkpt>
      <trkpt lat="45.97088" lon="2.84458">
        <ele>682.9</ele>
        <time>2021-07-11T08:28:47Z</time>
      </trkpt>
      <trkpt lat="45.97089" lon="2.8446">
        <ele>682.9</ele>
        <time>2021-07-11T08:28:48Z</time>
      </trkpt>
      <trkpt lat="45.9709" lon="2.84462">
        <ele>682.8</ele>
        <time>2021-07-11T08:28:49Z</time>
      </trkpt>
      <trkpt lat="45.9709" lon="2.84464">
        <ele>683</ele>
        <time>2021-07-11T08:28:50Z</time>
      </trkpt>
      <trkpt lat="45.97091" lon="2.84466">
        <ele>683</ele>
        <time>2021-07-11T08:28:51Z</time>
      </trkpt>
      <trkpt lat="45.97092" lon="2.84468">
        <ele>683</ele>
        <time>2021-07-11T08:28:52Z</time>
      </trkpt>
      <trkpt lat="45.97093" lon="2.8447">
        <ele>682.9</ele>
        <time>2021-07-11T08:28:53Z</time>
      </trkpt>
      <trkpt lat="45.97094" lon="2.84472">
        <ele>682.9</ele>
        <time>2021-07-11T08:28:54Z</time>
      </trkpt>
      <trkpt lat="45.97095" lon="2.84475">
        <ele>682.9</ele>
        <time>2021-07-11T08:28:55Z</time>
      </trkpt>
      <trkpt lat="45.97096" lon="2.84477">
        <ele>682.8</ele>
        <time>2021-07-11T08:28:56Z</time>
      </trkpt>
      <trkpt lat="45.97096" lon="2.84479">
        <ele>683</ele>
        <time>2021-07-11T08:28:57Z</time>
      </trkpt>
      <trkpt lat="45.97097" lon="2.84481">
        <ele>683</ele>
        <time>2021-07-11T08:28:58Z</time>
      </trkpt>
      <trkpt lat="45.97097" lon="2.84484">
        <ele>683.3</ele>
        <time>2021-07-11T08:28:59Z</time>
      </trkpt>
      <trkpt lat="45.97097" lon="2.84486">
        <ele>683.5</ele>
        <time>2021-07-11T08:29:00Z</time>
      </trkpt>
      <trkpt lat="45.97098" lon="2.84489">
        <ele>683.7</ele>
        <time>2021-07-11T08:29:01Z</time>
      </trkpt>
      <trkpt lat="45.97098" lon="2.84491">
        <ele>683.9</ele>
        <time>2021-07-11T08:29:02Z</time>
      </trkpt>
      <trkpt lat="45.97099" lon="2.84494">
        <ele>684</ele>
        <time>2021-07-11T08:29:03Z</time>
      </trkpt>
      <trkpt lat="45.97099" lon="2.84496">
        <ele>684.3</ele>
        <time>2021-07-11T08:29:04Z</time>
      </trkpt>
      <trkpt lat="45.97099" lon="2.84498">
        <ele>684.5</ele>
        <time>2021-07-11T08:29:05Z</time>
      </trkpt>
      <trkpt lat="45.971" lon="2.845">
        <ele>684.6</ele>
        <time>2021-07-11T08:29:06Z</time>
      </trkpt>
      <trkpt lat="45.971" lon="2.84502">
        <ele>684.7</ele>
        <time>2021-07-11T08:29:07Z</time>
      </trkpt>
      <trkpt lat="45.97101" lon="2.84504">
        <ele>684.6</ele>
        <time>2021-07-11T08:29:08Z</time>
      </trkpt>
      <trkpt lat="45.97102" lon="2.84506">
        <ele>684.5</ele>
        <time>2021-07-11T08:29:09Z</time>
      </trkpt>
      <trkpt lat="45.97102" lon="2.84508">
        <ele>684.6</ele>
        <time>2021-07-11T08:29:10Z</time>
      </trkpt>
      <trkpt lat="45.97103" lon="2.8451">
        <ele>684.5</ele>
        <time>2021-07-11T08:29:11Z</time>
      </trkpt>
      <trkpt lat="45.97104" lon="2.84512">
        <ele>684.5</ele>
        <time>2021-07-11T08:29:12Z</time>
      </trkpt>
      <trkpt lat="45.97104" lon="2.84513">
        <ele>684.5</ele>
        <time>2021-07-11T08:29:13Z</time>
      </trkpt>
      <trkpt lat="45.97105" lon="2.84514">
        <ele>684.4</ele>
        <time>2021-07-11T08:29:14Z</time>
      </trkpt>
      <trkpt lat="45.97106" lon="2.84516">
        <ele>684.3</ele>
        <time>2021-07-11T08:29:15Z</time>
      </trkpt>
      <trkpt lat="45.97107" lon="2.84517">
        <ele>684.2</ele>
        <time>2021-07-11T08:29:16Z</time>
      </trkpt>
      <trkpt lat="45.97108" lon="2.84518">
        <ele>684.1</ele>
        <time>2021-07-11T08:29:17Z</time>
      </trkpt>
      <trkpt lat="45.97108" lon="2.84519">
        <ele>684.1</ele>
        <time>2021-07-11T08:29:18Z</time>
      </trkpt>
      <trkpt lat="45.97109" lon="2.84521">
        <ele>684.1</ele>
        <time>2021-07-11T08:29:19Z</time>
      </trkpt>
      <trkpt lat="45.9711" lon="2.84522">
        <ele>684</ele>
        <time>2021-07-11T08:29:20Z</time>
      </trkpt>
      <trkpt lat="45.97111" lon="2.84523">
        <ele>683.8</ele>
        <time>2021-07-11T08:29:21Z</time>
      </trkpt>
      <trkpt lat="45.97112" lon="2.84525">
        <ele>683.8</ele>
        <time>2021-07-11T08:29:22Z</time>
      </trkpt>
      <trkpt lat="45.97113" lon="2.84527">
        <ele>683.7</ele>
        <time>2021-07-11T08:29:23Z</time>
      </trkpt>
      <trkpt lat="45.97113" lon="2.84529">
        <ele>683.7</ele>
        <time>2021-07-11T08:29:24Z</time>
      </trkpt>
      <trkpt lat="45.97114" lon="2.8453">
        <ele>683.5</ele>
        <time>2021-07-11T08:29:25Z</time>
      </trkpt>
      <trkpt lat="45.97115" lon="2.84532">
        <ele>683.3</ele>
        <time>2021-07-11T08:29:26Z</time>
      </trkpt>
      <trkpt lat="45.97117" lon="2.84534">
        <ele>683</ele>
        <time>2021-07-11T08:29:27Z</time>
      </trkpt>
      <trkpt lat="45.97118" lon="2.84536">
        <ele>682.9</ele>
        <time>2021-07-11T08:29:28Z</time>
      </trkpt>
      <trkpt lat="45.97118" lon="2.84538">
        <ele>682.8</ele>
        <time>2021-07-11T08:29:29Z</time>
      </trkpt>
      <trkpt lat="45.9712" lon="2.8454">
        <ele>682.6</ele>
        <time>2021-07-11T08:29:30Z</time>
      </trkpt>
      <trkpt lat="45.97121" lon="2.84542">
        <ele>682.4</ele>
        <time>2021-07-11T08:29:31Z</time>
      </trkpt>
      <trkpt lat="45.97122" lon="2.84544">
        <ele>682.3</ele>
        <time>2021-07-11T08:29:32Z</time>
      </trkpt>
      <trkpt lat="45.97124" lon="2.84545">
        <ele>682.1</ele>
        <time>2021-07-11T08:29:33Z</time>
      </trkpt>
      <trkpt lat="45.97125" lon="2.84547">
        <ele>682</ele>
        <time>2021-07-11T08:29:34Z</time>
      </trkpt>
      <trkpt lat="45.97126" lon="2.84549">
        <ele>681.9</ele>
        <time>2021-07-11T08:29:35Z</time>
      </trkpt>
      <trkpt lat="45.97127" lon="2.8455">
        <ele>681.8</ele>
        <time>2021-07-11T08:29:36Z</time>
      </trkpt>
      <trkpt lat="45.97128" lon="2.84552">
        <ele>681.8</ele>
        <time>2021-07-11T08:29:37Z</time>
      </trkpt>
      <trkpt lat="45.97129" lon="2.84553">
        <ele>681.7</ele>
        <time>2021-07-11T08:29:38Z</time>
      </trkpt>
      <trkpt lat="45.9713" lon="2.84554">
        <ele>681.6</ele>
        <time>2021-07-11T08:29:40Z</time>
      </trkpt>
      <trkpt lat="45.97135" lon="2.84559">
        <ele>681.2</ele>
        <time>2021-07-11T08:29:41Z</time>
      </trkpt>
      <trkpt lat="45.97135" lon="2.84559">
        <ele>681.2</ele>
        <time>2021-07-11T08:29:42Z</time>
      </trkpt>
      <trkpt lat="45.97136" lon="2.8456">
        <ele>681</ele>
        <time>2021-07-11T08:29:43Z</time>
      </trkpt>
      <trkpt lat="45.97136" lon="2.84561">
        <ele>681</ele>
        <time>2021-07-11T08:29:44Z</time>
      </trkpt>
      <trkpt lat="45.97136" lon="2.84562">
        <ele>681</ele>
        <time>2021-07-11T08:29:45Z</time>
      </trkpt>
      <trkpt lat="45.97138" lon="2.84563">
        <ele>680.8</ele>
        <time>2021-07-11T08:29:46Z</time>
      </trkpt>
      <trkpt lat="45.97139" lon="2.84564">
        <ele>680.7</ele>
        <time>2021-07-11T08:29:47Z</time>
      </trkpt>
      <trkpt lat="45.97139" lon="2.84566">
        <ele>680.6</ele>
        <time>2021-07-11T08:29:48Z</time>
      </trkpt>
      <trkpt lat="45.97139" lon="2.84567">
        <ele>680.6</ele>
        <time>2021-07-11T08:29:49Z</time>
      </trkpt>
      <trkpt lat="45.97141" lon="2.84568">
        <ele>680.4</ele>
        <time>2021-07-11T08:29:50Z</time>
      </trkpt>
      <trkpt lat="45.97141" lon="2.8457">
        <ele>680.4</ele>
        <time>2021-07-11T08:29:51Z</time>
      </trkpt>
      <trkpt lat="45.97142" lon="2.84571">
        <ele>680.3</ele>
        <time>2021-07-11T08:29:52Z</time>
      </trkpt>
      <trkpt lat="45.97143" lon="2.84573">
        <ele>680.2</ele>
        <time>2021-07-11T08:29:53Z</time>
      </trkpt>
      <trkpt lat="45.97144" lon="2.84574">
        <ele>680.1</ele>
        <time>2021-07-11T08:29:54Z</time>
      </trkpt>
      <trkpt lat="45.97145" lon="2.84575">
        <ele>680</ele>
        <time>2021-07-11T08:29:55Z</time>
      </trkpt>
      <trkpt lat="45.97146" lon="2.84577">
        <ele>679.9</ele>
        <time>2021-07-11T08:29:56Z</time>
      </trkpt>
      <trkpt lat="45.97147" lon="2.84578">
        <ele>679.8</ele>
        <time>2021-07-11T08:29:57Z</time>
      </trkpt>
      <trkpt lat="45.97148" lon="2.8458">
        <ele>679.8</ele>
        <time>2021-07-11T08:29:58Z</time>
      </trkpt>
      <trkpt lat="45.97149" lon="2.84582">
        <ele>679.7</ele>
        <time>2021-07-11T08:29:59Z</time>
      </trkpt>
      <trkpt lat="45.9715" lon="2.84584">
        <ele>679.6</ele>
        <time>2021-07-11T08:30:00Z</time>
      </trkpt>
      <trkpt lat="45.97151" lon="2.84586">
        <ele>679.4</ele>
        <time>2021-07-11T08:30:01Z</time>
      </trkpt>
      <trkpt lat="45.97151" lon="2.84588">
        <ele>679.3</ele>
        <time>2021-07-11T08:30:02Z</time>
      </trkpt>
      <trkpt lat="45.97152" lon="2.8459">
        <ele>679.2</ele>
        <time>2021-07-11T08:30:03Z</time>
      </trkpt>
      <trkpt lat="45.97153" lon="2.84592">
        <ele>679</ele>
        <time>2021-07-11T08:30:04Z</time>
      </trkpt>
      <trkpt lat="45.97154" lon="2.84594">
        <ele>678.9</ele>
        <time>2021-07-11T08:30:05Z</time>
      </trkpt>
      <trkpt lat="45.97155" lon="2.84596">
        <ele>678.8</ele>
        <time>2021-07-11T08:30:06Z</time>
      </trkpt>
      <trkpt lat="45.97155" lon="2.84599">
        <ele>678.6</ele>
        <time>2021-07-11T08:30:07Z</time>
      </trkpt>
      <trkpt lat="45.97157" lon="2.84601">
        <ele>678.5</ele>
        <time>2021-07-11T08:30:08Z</time>
      </trkpt>
      <trkpt lat="45.97157" lon="2.84603">
        <ele>678.4</ele>
        <time>2021-07-11T08:30:09Z</time>
      </trkpt>
      <trkpt lat="45.97158" lon="2.84606">
        <ele>678.2</ele>
        <time>2021-07-11T08:30:10Z</time>
      </trkpt>
      <trkpt lat="45.97158" lon="2.84608">
        <ele>678.1</ele>
        <time>2021-07-11T08:30:11Z</time>
      </trkpt>
      <trkpt lat="45.97159" lon="2.84611">
        <ele>678</ele>
        <time>2021-07-11T08:30:12Z</time>
      </trkpt>
      <trkpt lat="45.9716" lon="2.84613">
        <ele>677.9</ele>
        <time>2021-07-11T08:30:13Z</time>
      </trkpt>
      <trkpt lat="45.9716" lon="2.84615">
        <ele>677.7</ele>
        <time>2021-07-11T08:30:14Z</time>
      </trkpt>
      <trkpt lat="45.97161" lon="2.84617">
        <ele>677.6</ele>
        <time>2021-07-11T08:30:15Z</time>
      </trkpt>
      <trkpt lat="45.97162" lon="2.84619">
        <ele>677.4</ele>
        <time>2021-07-11T08:30:16Z</time>
      </trkpt>
      <trkpt lat="45.97162" lon="2.84622">
        <ele>677.2</ele>
        <time>2021-07-11T08:30:17Z</time>
      </trkpt>
      <trkpt lat="45.97163" lon="2.84624">
        <ele>677.1</ele>
        <time>2021-07-11T08:30:18Z</time>
      </trkpt>
      <trkpt lat="45.97163" lon="2.84627">
        <ele>676.9</ele>
        <time>2021-07-11T08:30:19Z</time>
      </trkpt>
      <trkpt lat="45.97164" lon="2.84629">
        <ele>676.7</ele>
        <time>2021-07-11T08:30:20Z</time>
      </trkpt>
      <trkpt lat="45.97165" lon="2.84632">
        <ele>676.5</ele>
        <time>2021-07-11T08:30:21Z</time>
      </trkpt>
      <trkpt lat="45.97165" lon="2.84634">
        <ele>676.4</ele>
        <time>2021-07-11T08:30:22Z</time>
      </trkpt>
      <trkpt lat="45.97166" lon="2.84636">
        <ele>676.2</ele>
        <time>2021-07-11T08:30:23Z</time>
      </trkpt>
      <trkpt lat="45.97166" lon="2.84637">
        <ele>676.1</ele>
        <time>2021-07-11T08:30:24Z</time>
      </trkpt>
      <trkpt lat="45.97168" lon="2.84639">
        <ele>676</ele>
        <time>2021-07-11T08:30:25Z</time>
      </trkpt>
      <trkpt lat="45.97168" lon="2.84641">
        <ele>675.8</ele>
        <time>2021-07-11T08:30:26Z</time>
      </trkpt>
      <trkpt lat="45.97169" lon="2.84643">
        <ele>675.7</ele>
        <time>2021-07-11T08:30:27Z</time>
      </trkpt>
      <trkpt lat="45.97171" lon="2.84644">
        <ele>675.6</ele>
        <time>2021-07-11T08:30:28Z</time>
      </trkpt>
      <trkpt lat="45.97172" lon="2.84647">
        <ele>675.4</ele>
        <time>2021-07-11T08:30:29Z</time>
      </trkpt>
      <trkpt lat="45.97173" lon="2.84649">
        <ele>675.3</ele>
        <time>2021-07-11T08:30:30Z</time>
      </trkpt>
      <trkpt lat="45.97174" lon="2.84651">
        <ele>675.1</ele>
        <time>2021-07-11T08:30:31Z</time>
      </trkpt>
      <trkpt lat="45.97175" lon="2.84653">
        <ele>675</ele>
        <time>2021-07-11T08:30:32Z</time>
      </trkpt>
      <trkpt lat="45.97175" lon="2.84655">
        <ele>674.8</ele>
        <time>2021-07-11T08:30:33Z</time>
      </trkpt>
      <trkpt lat="45.97176" lon="2.84657">
        <ele>674.7</ele>
        <time>2021-07-11T08:30:34Z</time>
      </trkpt>
      <trkpt lat="45.97177" lon="2.84659">
        <ele>674.6</ele>
        <time>2021-07-11T08:30:35Z</time>
      </trkpt>
      <trkpt lat="45.97178" lon="2.84661">
        <ele>674.4</ele>
        <time>2021-07-11T08:30:36Z</time>
      </trkpt>
      <trkpt lat="45.97178" lon="2.84663">
        <ele>674.3</ele>
        <time>2021-07-11T08:30:37Z</time>
      </trkpt>
      <trkpt lat="45.97179" lon="2.84665">
        <ele>674.1</ele>
        <time>2021-07-11T08:30:38Z</time>
      </trkpt>
      <trkpt lat="45.97181" lon="2.84668">
        <ele>673.9</ele>
        <time>2021-07-11T08:30:39Z</time>
      </trkpt>
      <trkpt lat="45.97181" lon="2.8467">
        <ele>673.8</ele>
        <time>2021-07-11T08:30:40Z</time>
      </trkpt>
      <trkpt lat="45.97183" lon="2.84673">
        <ele>673.7</ele>
        <time>2021-07-11T08:30:41Z</time>
      </trkpt>
      <trkpt lat="45.97184" lon="2.84675">
        <ele>673.6</ele>
        <time>2021-07-11T08:30:42Z</time>
      </trkpt>
      <trkpt lat="45.97184" lon="2.84678">
        <ele>673.4</ele>
        <time>2021-07-11T08:30:43Z</time>
      </trkpt>
      <trkpt lat="45.97186" lon="2.84681">
        <ele>673.3</ele>
        <time>2021-07-11T08:30:44Z</time>
      </trkpt>
      <trkpt lat="45.97187" lon="2.84683">
        <ele>673.3</ele>
        <time>2021-07-11T08:30:45Z</time>
      </trkpt>
      <trkpt lat="45.97187" lon="2.84686">
        <ele>673.1</ele>
        <time>2021-07-11T08:30:46Z</time>
      </trkpt>
      <trkpt lat="45.97188" lon="2.84689">
        <ele>673</ele>
        <time>2021-07-11T08:30:47Z</time>
      </trkpt>
      <trkpt lat="45.97189" lon="2.84691">
        <ele>673</ele>
        <time>2021-07-11T08:30:48Z</time>
      </trkpt>
      <trkpt lat="45.9719" lon="2.84694">
        <ele>672.9</ele>
        <time>2021-07-11T08:30:49Z</time>
      </trkpt>
      <trkpt lat="45.97191" lon="2.84696">
        <ele>672.8</ele>
        <time>2021-07-11T08:30:50Z</time>
      </trkpt>
      <trkpt lat="45.97192" lon="2.84698">
        <ele>672.8</ele>
        <time>2021-07-11T08:30:51Z</time>
      </trkpt>
      <trkpt lat="45.97193" lon="2.847">
        <ele>672.7</ele>
        <time>2021-07-11T08:30:52Z</time>
      </trkpt>
      <trkpt lat="45.97194" lon="2.84703">
        <ele>672.7</ele>
        <time>2021-07-11T08:30:53Z</time>
      </trkpt>
      <trkpt lat="45.97195" lon="2.84705">
        <ele>672.5</ele>
        <time>2021-07-11T08:30:54Z</time>
      </trkpt>
      <trkpt lat="45.97197" lon="2.84707">
        <ele>672.2</ele>
        <time>2021-07-11T08:30:55Z</time>
      </trkpt>
      <trkpt lat="45.97199" lon="2.84709">
        <ele>671.8</ele>
        <time>2021-07-11T08:30:56Z</time>
      </trkpt>
      <trkpt lat="45.97199" lon="2.8471">
        <ele>671.8</ele>
        <time>2021-07-11T08:30:57Z</time>
      </trkpt>
      <trkpt lat="45.972" lon="2.84712">
        <ele>671.6</ele>
        <time>2021-07-11T08:30:58Z</time>
      </trkpt>
      <trkpt lat="45.97201" lon="2.84714">
        <ele>671.4</ele>
        <time>2021-07-11T08:30:59Z</time>
      </trkpt>
      <trkpt lat="45.97202" lon="2.84716">
        <ele>671.3</ele>
        <time>2021-07-11T08:31:00Z</time>
      </trkpt>
      <trkpt lat="45.97202" lon="2.84718">
        <ele>671.3</ele>
        <time>2021-07-11T08:31:01Z</time>
      </trkpt>
      <trkpt lat="45.97202" lon="2.84719">
        <ele>671.2</ele>
        <time>2021-07-11T08:31:02Z</time>
      </trkpt>
      <trkpt lat="45.97202" lon="2.84721">
        <ele>671.2</ele>
        <time>2021-07-11T08:31:03Z</time>
      </trkpt>
      <trkpt lat="45.97203" lon="2.84723">
        <ele>671.1</ele>
        <time>2021-07-11T08:31:04Z</time>
      </trkpt>
      <trkpt lat="45.97203" lon="2.84724">
        <ele>671.1</ele>
        <time>2021-07-11T08:31:05Z</time>
      </trkpt>
      <trkpt lat="45.97203" lon="2.84726">
        <ele>671</ele>
        <time>2021-07-11T08:31:06Z</time>
      </trkpt>
      <trkpt lat="45.97204" lon="2.84728">
        <ele>670.9</ele>
        <time>2021-07-11T08:31:07Z</time>
      </trkpt>
      <trkpt lat="45.97205" lon="2.8473">
        <ele>670.8</ele>
        <time>2021-07-11T08:31:08Z</time>
      </trkpt>
      <trkpt lat="45.97205" lon="2.84732">
        <ele>670.8</ele>
        <time>2021-07-11T08:31:09Z</time>
      </trkpt>
      <trkpt lat="45.97207" lon="2.84734">
        <ele>670.6</ele>
        <time>2021-07-11T08:31:10Z</time>
      </trkpt>
      <trkpt lat="45.97207" lon="2.84735">
        <ele>670.6</ele>
        <time>2021-07-11T08:31:11Z</time>
      </trkpt>
      <trkpt lat="45.97208" lon="2.84737">
        <ele>670.5</ele>
        <time>2021-07-11T08:31:12Z</time>
      </trkpt>
      <trkpt lat="45.97208" lon="2.84739">
        <ele>670.5</ele>
        <time>2021-07-11T08:31:13Z</time>
      </trkpt>
      <trkpt lat="45.97209" lon="2.84741">
        <ele>670.5</ele>
        <time>2021-07-11T08:31:14Z</time>
      </trkpt>
      <trkpt lat="45.9721" lon="2.84742">
        <ele>670.4</ele>
        <time>2021-07-11T08:31:15Z</time>
      </trkpt>
      <trkpt lat="45.9721" lon="2.84744">
        <ele>670.4</ele>
        <time>2021-07-11T08:31:16Z</time>
      </trkpt>
      <trkpt lat="45.97211" lon="2.84746">
        <ele>670.4</ele>
        <time>2021-07-11T08:31:17Z</time>
      </trkpt>
      <trkpt lat="45.97212" lon="2.84748">
        <ele>670.3</ele>
        <time>2021-07-11T08:31:18Z</time>
      </trkpt>
      <trkpt lat="45.97212" lon="2.8475">
        <ele>670.4</ele>
        <time>2021-07-11T08:31:19Z</time>
      </trkpt>
      <trkpt lat="45.97213" lon="2.84752">
        <ele>670.3</ele>
        <time>2021-07-11T08:31:20Z</time>
      </trkpt>
      <trkpt lat="45.97214" lon="2.84754">
        <ele>670.3</ele>
        <time>2021-07-11T08:31:21Z</time>
      </trkpt>
      <trkpt lat="45.97214" lon="2.84757">
        <ele>670.2</ele>
        <time>2021-07-11T08:31:22Z</time>
      </trkpt>
      <trkpt lat="45.97215" lon="2.84759">
        <ele>670.2</ele>
        <time>2021-07-11T08:31:23Z</time>
      </trkpt>
      <trkpt lat="45.97216" lon="2.84761">
        <ele>670.1</ele>
        <time>2021-07-11T08:31:24Z</time>
      </trkpt>
      <trkpt lat="45.97217" lon="2.84763">
        <ele>670.1</ele>
        <time>2021-07-11T08:31:25Z</time>
      </trkpt>
      <trkpt lat="45.97217" lon="2.84765">
        <ele>670.1</ele>
        <time>2021-07-11T08:31:26Z</time>
      </trkpt>
      <trkpt lat="45.97218" lon="2.84766">
        <ele>670.1</ele>
        <time>2021-07-11T08:31:27Z</time>
      </trkpt>
      <trkpt lat="45.97218" lon="2.84768">
        <ele>670.1</ele>
        <time>2021-07-11T08:31:28Z</time>
      </trkpt>
      <trkpt lat="45.97219" lon="2.8477">
        <ele>670</ele>
        <time>2021-07-11T08:31:29Z</time>
      </trkpt>
      <trkpt lat="45.9722" lon="2.84772">
        <ele>670</ele>
        <time>2021-07-11T08:31:30Z</time>
      </trkpt>
      <trkpt lat="45.9722" lon="2.84774">
        <ele>670</ele>
        <time>2021-07-11T08:31:31Z</time>
      </trkpt>
      <trkpt lat="45.9722" lon="2.84776">
        <ele>670</ele>
        <time>2021-07-11T08:31:32Z</time>
      </trkpt>
      <trkpt lat="45.9722" lon="2.84777">
        <ele>670</ele>
        <time>2021-07-11T08:31:33Z</time>
      </trkpt>
      <trkpt lat="45.9722" lon="2.84779">
        <ele>670</ele>
        <time>2021-07-11T08:31:34Z</time>
      </trkpt>
      <trkpt lat="45.9722" lon="2.84781">
        <ele>670.1</ele>
        <time>2021-07-11T08:31:35Z</time>
      </trkpt>
      <trkpt lat="45.9722" lon="2.84783">
        <ele>670.2</ele>
        <time>2021-07-11T08:31:36Z</time>
      </trkpt>
      <trkpt lat="45.9722" lon="2.84785">
        <ele>670.2</ele>
        <time>2021-07-11T08:31:37Z</time>
      </trkpt>
      <trkpt lat="45.9722" lon="2.84787">
        <ele>670.3</ele>
        <time>2021-07-11T08:31:38Z</time>
      </trkpt>
      <trkpt lat="45.9722" lon="2.84789">
        <ele>670.4</ele>
        <time>2021-07-11T08:31:39Z</time>
      </trkpt>
      <trkpt lat="45.9722" lon="2.84791">
        <ele>670.4</ele>
        <time>2021-07-11T08:31:41Z</time>
      </trkpt>
      <trkpt lat="45.9722" lon="2.848">
        <ele>670.7</ele>
        <time>2021-07-11T08:31:42Z</time>
      </trkpt>
      <trkpt lat="45.9722" lon="2.848">
        <ele>670.7</ele>
        <time>2021-07-11T08:31:43Z</time>
      </trkpt>
      <trkpt lat="45.9722" lon="2.84802">
        <ele>670.8</ele>
        <time>2021-07-11T08:31:44Z</time>
      </trkpt>
      <trkpt lat="45.9722" lon="2.84803">
        <ele>670.8</ele>
        <time>2021-07-11T08:31:45Z</time>
      </trkpt>
      <trkpt lat="45.9722" lon="2.84805">
        <ele>670.9</ele>
        <time>2021-07-11T08:31:46Z</time>
      </trkpt>
      <trkpt lat="45.9722" lon="2.84808">
        <ele>671.1</ele>
        <time>2021-07-11T08:31:47Z</time>
      </trkpt>
      <trkpt lat="45.9722" lon="2.8481">
        <ele>671.2</ele>
        <time>2021-07-11T08:31:48Z</time>
      </trkpt>
      <trkpt lat="45.9722" lon="2.84812">
        <ele>671.4</ele>
        <time>2021-07-11T08:31:49Z</time>
      </trkpt>
      <trkpt lat="45.9722" lon="2.84815">
        <ele>671.6</ele>
        <time>2021-07-11T08:31:50Z</time>
      </trkpt>
      <trkpt lat="45.9722" lon="2.84818">
        <ele>671.8</ele>
        <time>2021-07-11T08:31:51Z</time>
      </trkpt>
      <trkpt lat="45.9722" lon="2.8482">
        <ele>671.9</ele>
        <time>2021-07-11T08:31:52Z</time>
      </trkpt>
      <trkpt lat="45.9722" lon="2.84823">
        <ele>672.1</ele>
        <time>2021-07-11T08:31:53Z</time>
      </trkpt>
      <trkpt lat="45.9722" lon="2.84825">
        <ele>672.3</ele>
        <time>2021-07-11T08:31:54Z</time>
      </trkpt>
      <trkpt lat="45.9722" lon="2.84828">
        <ele>672.5</ele>
        <time>2021-07-11T08:31:55Z</time>
      </trkpt>
      <trkpt lat="45.9722" lon="2.84831">
        <ele>672.7</ele>
        <time>2021-07-11T08:31:56Z</time>
      </trkpt>
      <trkpt lat="45.9722" lon="2.84833">
        <ele>672.8</ele>
        <time>2021-07-11T08:31:57Z</time>
      </trkpt>
      <trkpt lat="45.97221" lon="2.84836">
        <ele>673</ele>
        <time>2021-07-11T08:31:58Z</time>
      </trkpt>
      <trkpt lat="45.97221" lon="2.84838">
        <ele>673.1</ele>
        <time>2021-07-11T08:31:59Z</time>
      </trkpt>
      <trkpt lat="45.97221" lon="2.84841">
        <ele>673.2</ele>
        <time>2021-07-11T08:32:00Z</time>
      </trkpt>
      <trkpt lat="45.97222" lon="2.84843">
        <ele>673.3</ele>
        <time>2021-07-11T08:32:01Z</time>
      </trkpt>
      <trkpt lat="45.97222" lon="2.84845">
        <ele>673.4</ele>
        <time>2021-07-11T08:32:02Z</time>
      </trkpt>
      <trkpt lat="45.97223" lon="2.84848">
        <ele>673.4</ele>
        <time>2021-07-11T08:32:03Z</time>
      </trkpt>
      <trkpt lat="45.97223" lon="2.84851">
        <ele>673.5</ele>
        <time>2021-07-11T08:32:04Z</time>
      </trkpt>
      <trkpt lat="45.97223" lon="2.84853">
        <ele>673.6</ele>
        <time>2021-07-11T08:32:05Z</time>
      </trkpt>
      <trkpt lat="45.97223" lon="2.84855">
        <ele>673.7</ele>
        <time>2021-07-11T08:32:06Z</time>
      </trkpt>
      <trkpt lat="45.97224" lon="2.84857">
        <ele>673.6</ele>
        <time>2021-07-11T08:32:07Z</time>
      </trkpt>
      <trkpt lat="45.97224" lon="2.84859">
        <ele>673.7</ele>
        <time>2021-07-11T08:32:08Z</time>
      </trkpt>
      <trkpt lat="45.97224" lon="2.84861">
        <ele>673.8</ele>
        <time>2021-07-11T08:32:09Z</time>
      </trkpt>
      <trkpt lat="45.97225" lon="2.84863">
        <ele>673.8</ele>
        <time>2021-07-11T08:32:10Z</time>
      </trkpt>
      <trkpt lat="45.97226" lon="2.84865">
        <ele>673.8</ele>
        <time>2021-07-11T08:32:11Z</time>
      </trkpt>
      <trkpt lat="45.97226" lon="2.84867">
        <ele>673.9</ele>
        <time>2021-07-11T08:32:12Z</time>
      </trkpt>
      <trkpt lat="45.97226" lon="2.84868">
        <ele>673.9</ele>
        <time>2021-07-11T08:32:13Z</time>
      </trkpt>
      <trkpt lat="45.97226" lon="2.8487">
        <ele>674</ele>
        <time>2021-07-11T08:32:14Z</time>
      </trkpt>
      <trkpt lat="45.97226" lon="2.84871">
        <ele>674.1</ele>
        <time>2021-07-11T08:32:15Z</time>
      </trkpt>
      <trkpt lat="45.97227" lon="2.84873">
        <ele>674.1</ele>
        <time>2021-07-11T08:32:16Z</time>
      </trkpt>
      <trkpt lat="45.97228" lon="2.84875">
        <ele>674.2</ele>
        <time>2021-07-11T08:32:17Z</time>
      </trkpt>
      <trkpt lat="45.97228" lon="2.84877">
        <ele>674.3</ele>
        <time>2021-07-11T08:32:18Z</time>
      </trkpt>
      <trkpt lat="45.97228" lon="2.84879">
        <ele>674.4</ele>
        <time>2021-07-11T08:32:19Z</time>
      </trkpt>
      <trkpt lat="45.97228" lon="2.84881">
        <ele>674.5</ele>
        <time>2021-07-11T08:32:20Z</time>
      </trkpt>
      <trkpt lat="45.97229" lon="2.84883">
        <ele>674.6</ele>
        <time>2021-07-11T08:32:21Z</time>
      </trkpt>
      <trkpt lat="45.97229" lon="2.84885">
        <ele>674.8</ele>
        <time>2021-07-11T08:32:22Z</time>
      </trkpt>
      <trkpt lat="45.97229" lon="2.84887">
        <ele>674.9</ele>
        <time>2021-07-11T08:32:23Z</time>
      </trkpt>
      <trkpt lat="45.97229" lon="2.84889">
        <ele>675</ele>
        <time>2021-07-11T08:32:24Z</time>
      </trkpt>
      <trkpt lat="45.9723" lon="2.84891">
        <ele>675.2</ele>
        <time>2021-07-11T08:32:25Z</time>
      </trkpt>
      <trkpt lat="45.97231" lon="2.84893">
        <ele>675.3</ele>
        <time>2021-07-11T08:32:26Z</time>
      </trkpt>
      <trkpt lat="45.97232" lon="2.84895">
        <ele>675.5</ele>
        <time>2021-07-11T08:32:27Z</time>
      </trkpt>
      <trkpt lat="45.97232" lon="2.84897">
        <ele>675.7</ele>
        <time>2021-07-11T08:32:27Z</time>
      </trkpt>
      <trkpt lat="45.97233" lon="2.84899">
        <ele>675.9</ele>
        <time>2021-07-11T08:32:28Z</time>
      </trkpt>
      <trkpt lat="45.97234" lon="2.849">
        <ele>676</ele>
        <time>2021-07-11T08:32:29Z</time>
      </trkpt>
      <trkpt lat="45.97234" lon="2.84902">
        <ele>676.1</ele>
        <time>2021-07-11T08:32:30Z</time>
      </trkpt>
      <trkpt lat="45.97235" lon="2.84903">
        <ele>676.2</ele>
        <time>2021-07-11T08:32:31Z</time>
      </trkpt>
      <trkpt lat="45.97236" lon="2.84904">
        <ele>676.4</ele>
        <time>2021-07-11T08:32:32Z</time>
      </trkpt>
      <trkpt lat="45.97236" lon="2.84905">
        <ele>676.4</ele>
        <time>2021-07-11T08:32:33Z</time>
      </trkpt>
      <trkpt lat="45.97237" lon="2.84906">
        <ele>676.6</ele>
        <time>2021-07-11T08:32:34Z</time>
      </trkpt>
      <trkpt lat="45.97238" lon="2.84908">
        <ele>676.8</ele>
        <time>2021-07-11T08:32:35Z</time>
      </trkpt>
      <trkpt lat="45.97239" lon="2.84909">
        <ele>676.9</ele>
        <time>2021-07-11T08:32:36Z</time>
      </trkpt>
      <trkpt lat="45.9724" lon="2.8491">
        <ele>677</ele>
        <time>2021-07-11T08:32:37Z</time>
      </trkpt>
      <trkpt lat="45.9724" lon="2.84912">
        <ele>677.2</ele>
        <time>2021-07-11T08:32:39Z</time>
      </trkpt>
      <trkpt lat="45.97244" lon="2.84917">
        <ele>677.8</ele>
        <time>2021-07-11T08:32:40Z</time>
      </trkpt>
      <trkpt lat="45.97244" lon="2.84917">
        <ele>677.8</ele>
        <time>2021-07-11T08:32:41Z</time>
      </trkpt>
      <trkpt lat="45.97244" lon="2.84917">
        <ele>677.8</ele>
        <time>2021-07-11T08:32:42Z</time>
      </trkpt>
      <trkpt lat="45.97245" lon="2.84918">
        <ele>677.9</ele>
        <time>2021-07-11T08:32:43Z</time>
      </trkpt>
      <trkpt lat="45.97245" lon="2.84919">
        <ele>678</ele>
        <time>2021-07-11T08:32:44Z</time>
      </trkpt>
      <trkpt lat="45.97246" lon="2.8492">
        <ele>678.2</ele>
        <time>2021-07-11T08:32:45Z</time>
      </trkpt>
      <trkpt lat="45.97247" lon="2.84921">
        <ele>678.3</ele>
        <time>2021-07-11T08:32:46Z</time>
      </trkpt>
      <trkpt lat="45.97248" lon="2.84921">
        <ele>678.4</ele>
        <time>2021-07-11T08:32:47Z</time>
      </trkpt>
      <trkpt lat="45.97249" lon="2.84922">
        <ele>678.5</ele>
        <time>2021-07-11T08:32:48Z</time>
      </trkpt>
      <trkpt lat="45.9725" lon="2.84923">
        <ele>678.7</ele>
        <time>2021-07-11T08:32:49Z</time>
      </trkpt>
      <trkpt lat="45.97251" lon="2.84924">
        <ele>678.5</ele>
        <time>2021-07-11T08:32:50Z</time>
      </trkpt>
      <trkpt lat="45.97252" lon="2.84925">
        <ele>678.2</ele>
        <time>2021-07-11T08:32:51Z</time>
      </trkpt>
      <trkpt lat="45.97253" lon="2.84926">
        <ele>678</ele>
        <time>2021-07-11T08:32:52Z</time>
      </trkpt>
      <trkpt lat="45.97253" lon="2.84926">
        <ele>678</ele>
        <time>2021-07-11T08:32:53Z</time>
      </trkpt>
      <trkpt lat="45.97254" lon="2.84927">
        <ele>677.8</ele>
        <time>2021-07-11T08:32:54Z</time>
      </trkpt>
      <trkpt lat="45.97255" lon="2.84928">
        <ele>677.6</ele>
        <time>2021-07-11T08:32:55Z</time>
      </trkpt>
      <trkpt lat="45.97255" lon="2.84929">
        <ele>677.7</ele>
        <time>2021-07-11T08:32:56Z</time>
      </trkpt>
      <trkpt lat="45.97256" lon="2.8493">
        <ele>677.5</ele>
        <time>2021-07-11T08:32:57Z</time>
      </trkpt>
      <trkpt lat="45.97257" lon="2.84931">
        <ele>677.3</ele>
        <time>2021-07-11T08:32:58Z</time>
      </trkpt>
      <trkpt lat="45.97257" lon="2.84932">
        <ele>677.4</ele>
        <time>2021-07-11T08:32:59Z</time>
      </trkpt>
      <trkpt lat="45.97258" lon="2.84932">
        <ele>677.1</ele>
        <time>2021-07-11T08:33:00Z</time>
      </trkpt>
      <trkpt lat="45.97258" lon="2.84933">
        <ele>677.2</ele>
        <time>2021-07-11T08:33:01Z</time>
      </trkpt>
      <trkpt lat="45.97259" lon="2.84933">
        <ele>676.9</ele>
        <time>2021-07-11T08:33:02Z</time>
      </trkpt>
      <trkpt lat="45.97259" lon="2.84933">
        <ele>676.9</ele>
        <time>2021-07-11T08:33:03Z</time>
      </trkpt>
      <trkpt lat="45.9726" lon="2.84933">
        <ele>676.6</ele>
        <time>2021-07-11T08:33:04Z</time>
      </trkpt>
      <trkpt lat="45.97261" lon="2.84933">
        <ele>676.3</ele>
        <time>2021-07-11T08:33:05Z</time>
      </trkpt>
      <trkpt lat="45.97261" lon="2.84933">
        <ele>676.3</ele>
        <time>2021-07-11T08:33:06Z</time>
      </trkpt>
      <trkpt lat="45.97262" lon="2.84934">
        <ele>676.1</ele>
        <time>2021-07-11T08:33:07Z</time>
      </trkpt>
      <trkpt lat="45.97263" lon="2.84934">
        <ele>675.8</ele>
        <time>2021-07-11T08:33:09Z</time>
      </trkpt>
      <trkpt lat="45.97263" lon="2.84934">
        <ele>675.8</ele>
        <time>2021-07-11T08:33:10Z</time>
      </trkpt>
    </trkseg>
  </trk>
</gpx>